GEFSSGP_prec_meanprecacc_054.txt.gz
Total_Precipitation_Accumulation
0.00 0.00 0.00 0.00 0.00 0.00 0.00 0.00 0.00 0.00 0.00 0.00 0.00 0.00 0.00 0.00 0.00 0.00 0.00 0.00 0.01 0.02 0.03 0.03 0.04 0.05 0.04 0.04 0.03 0.03 0.02 0.02 0.03 0.03 0.04 0.06 0.08 0.10 0.13 0.14 0.15 0.15 0.18 0.20 0.17 0.20 0.28 0.33 0.40
0.00 0.00 0.00 0.00 0.00 0.00 0.00 0.00 0.00 0.00 0.00 0.00 0.00 0.00 0.00 0.00 0.00 0.00 0.00 0.00 0.00 0.01 0.01 0.02 0.04 0.04 0.04 0.04 0.03 0.03 0.03 0.03 0.03 0.03 0.03 0.04 0.07 0.11 0.15 0.17 0.18 0.19 0.25 0.27 0.28 0.30 0.33 0.38 0.41
0.00 0.00 0.00 0.00 0.00 0.00 0.00 0.00 0.00 0.00 0.00 0.00 0.00 0.00 0.00 0.00 0.00 0.00 0.00 0.00 0.00 0.00 0.00 0.01 0.03 0.04 0.04 0.04 0.03 0.03 0.03 0.03 0.03 0.04 0.03 0.04 0.06 0.09 0.14 0.17 0.19 0.22 0.26 0.25 0.28 0.31 0.29 0.32 0.34
0.00 0.00 0.00 0.00 0.00 0.00 0.00 0.00 0.00 0.00 0.00 0.00 0.00 0.00 0.00 0.00 0.00 0.00 0.00 0.00 0.00 0.00 0.00 0.01 0.02 0.04 0.04 0.04 0.04 0.03 0.03 0.03 0.04 0.06 0.05 0.05 0.06 0.07 0.09 0.11 0.13 0.16 0.21 0.22 0.25 0.29 0.28 0.32 0.34
0.00 0.00 0.00 0.00 0.00 0.00 0.00 0.00 0.00 0.00 0.00 0.00 0.00 0.00 0.00 0.00 0.00 0.00 0.00 0.00 0.00 0.00 0.00 0.00 0.02 0.03 0.03 0.04 0.04 0.05 0.05 0.04 0.05 0.06 0.07 0.07 0.07 0.09 0.10 0.09 0.08 0.08 0.11 0.15 0.21 0.26 0.29 0.36 0.35
0.00 0.00 0.00 0.00 0.00 0.00 0.00 0.00 0.00 0.00 0.00 0.00 0.00 0.00 0.00 0.00 0.00 0.00 0.00 0.00 0.00 0.00 0.00 0.00 0.01 0.01 0.02 0.03 0.04 0.05 0.06 0.05 0.05 0.06 0.07 0.08 0.08 0.11 0.13 0.12 0.10 0.09 0.08 0.10 0.13 0.20 0.32 0.39 0.33
0.00 0.00 0.00 0.00 0.00 0.00 0.00 0.00 0.00 0.00 0.00 0.00 0.00 0.00 0.00 0.00 0.00 0.00 0.00 0.00 0.00 0.00 0.00 0.00 0.00 0.01 0.01 0.02 0.05 0.07 0.07 0.07 0.07 0.07 0.07 0.07 0.07 0.10 0.14 0.14 0.12 0.11 0.10 0.10 0.09 0.13 0.23 0.32 0.33
0.00 0.00 0.00 0.00 0.00 0.00 0.00 0.00 0.00 0.00 0.00 0.00 0.00 0.00 0.00 0.00 0.00 0.00 0.00 0.00 0.00 0.00 0.00 0.00 0.00 0.00 0.00 0.01 0.03 0.07 0.07 0.07 0.08 0.08 0.06 0.06 0.06 0.07 0.09 0.09 0.09 0.10 0.11 0.11 0.10 0.10 0.15 0.20 0.25
0.00 0.00 0.00 0.00 0.00 0.00 0.00 0.00 0.00 0.00 0.00 0.00 0.00 0.00 0.00 0.00 0.00 0.00 0.00 0.00 0.00 0.00 0.00 0.00 0.00 0.00 0.00 0.00 0.02 0.05 0.06 0.06 0.06 0.06 0.05 0.06 0.05 0.05 0.05 0.05 0.06 0.08 0.09 0.09 0.11 0.11 0.11 0.11 0.11
0.00 0.00 0.00 0.00 0.00 0.00 0.00 0.00 0.00 0.00 0.00 0.00 0.00 0.00 0.00 0.00 0.00 0.00 0.00 0.00 0.00 0.00 0.00 0.00 0.00 0.00 0.00 0.00 0.01 0.02 0.03 0.04 0.05 0.04 0.05 0.06 0.06 0.06 0.07 0.05 0.06 0.07 0.07 0.08 0.11 0.12 0.09 0.09 0.08
0.00 0.00 0.00 0.00 0.00 0.00 0.00 0.00 0.00 0.00 0.00 0.00 0.00 0.00 0.00 0.00 0.00 0.00 0.00 0.00 0.00 0.00 0.00 0.00 0.00 0.00 0.00 0.00 0.00 0.01 0.01 0.04 0.05 0.05 0.05 0.08 0.10 0.11 0.09 0.07 0.06 0.06 0.06 0.08 0.10 0.12 0.12 0.15 0.20
0.00 0.00 0.00 0.00 0.00 0.00 0.00 0.00 0.00 0.00 0.00 0.00 0.00 0.00 0.00 0.00 0.00 0.00 0.00 0.00 0.00 0.00 0.00 0.00 0.00 0.00 0.00 0.00 0.00 0.00 0.00 0.02 0.03 0.04 0.06 0.07 0.09 0.09 0.08 0.07 0.06 0.05 0.06 0.07 0.08 0.10 0.12 0.13 0.16
0.00 0.00 0.00 0.00 0.00 0.00 0.00 0.00 0.00 0.00 0.00 0.00 0.00 0.00 0.00 0.00 0.00 0.00 0.00 0.00 0.00 0.00 0.00 0.00 0.00 0.00 0.00 0.00 0.00 0.00 0.00 0.01 0.02 0.03 0.04 0.04 0.05 0.06 0.06 0.06 0.05 0.04 0.05 0.06 0.06 0.07 0.08 0.10 0.13
0.00 0.00 0.00 0.00 0.00 0.00 0.00 0.00 0.00 0.00 0.00 0.00 0.00 0.00 0.00 0.00 0.00 0.00 0.00 0.00 0.00 0.00 0.00 0.00 0.00 0.00 0.00 0.00 0.00 0.00 0.00 0.00 0.01 0.02 0.02 0.02 0.02 0.03 0.03 0.03 0.03 0.02 0.02 0.03 0.03 0.04 0.05 0.06 0.08
0.00 0.00 0.00 0.00 0.00 0.00 0.00 0.00 0.00 0.00 0.00 0.00 0.00 0.00 0.00 0.00 0.00 0.00 0.00 0.00 0.00 0.00 0.00 0.00 0.00 0.00 0.00 0.00 0.00 0.00 0.00 0.00 0.00 0.00 0.00 0.00 0.00 0.01 0.01 0.01 0.01 0.01 0.02 0.03 0.03 0.03 0.03 0.04 0.06
0.00 0.00 0.00 0.00 0.00 0.00 0.00 0.00 0.00 0.00 0.00 0.00 0.00 0.00 0.00 0.00 0.00 0.00 0.00 0.00 0.00 0.00 0.00 0.00 0.00 0.00 0.00 0.00 0.00 0.00 0.00 0.00 0.00 0.00 0.00 0.00 0.01 0.01 0.02 0.02 0.02 0.01 0.02 0.05 0.06 0.06 0.06 0.06 0.07
0.00 0.00 0.00 0.00 0.00 0.00 0.00 0.00 0.00 0.00 0.00 0.00 0.00 0.00 0.00 0.00 0.00 0.00 0.00 0.00 0.00 0.00 0.00 0.00 0.00 0.00 0.00 0.00 0.00 0.00 0.00 0.00 0.00 0.00 0.00 0.00 0.01 0.02 0.02 0.03 0.04 0.05 0.06 0.09 0.11 0.10 0.12 0.11 0.10
0.00 0.00 0.00 0.00 0.00 0.00 0.00 0.00 0.00 0.00 0.00 0.00 0.00 0.00 0.00 0.00 0.00 0.00 0.00 0.00 0.00 0.00 0.00 0.00 0.00 0.00 0.00 0.00 0.00 0.00 0.00 0.00 0.00 0.00 0.00 0.00 0.01 0.01 0.01 0.01 0.03 0.06 0.10 0.13 0.15 0.13 0.13 0.15 0.17
0.00 0.00 0.00 0.00 0.00 0.00 0.00 0.00 0.00 0.00 0.00 0.00 0.00 0.00 0.00 0.00 0.00 0.00 0.00 0.00 0.00 0.00 0.00 0.00 0.00 0.00 0.00 0.00 0.00 0.00 0.00 0.00 0.00 0.00 0.00 0.00 0.00 0.00 0.00 0.01 0.01 0.01 0.03 0.06 0.08 0.11 0.11 0.10 0.12
0.00 0.00 0.00 0.00 0.00 0.00 0.00 0.00 0.00 0.00 0.00 0.00 0.00 0.00 0.00 0.00 0.00 0.00 0.00 0.00 0.00 0.00 0.00 0.00 0.00 0.00 0.00 0.00 0.00 0.00 0.00 0.00 0.00 0.00 0.00 0.00 0.00 0.00 0.00 0.00 0.00 0.00 0.01 0.01 0.01 0.03 0.06 0.05 0.06
0.00 0.00 0.00 0.00 0.00 0.00 0.00 0.00 0.00 0.00 0.00 0.00 0.00 0.00 0.00 0.00 0.00 0.00 0.00 0.00 0.00 0.00 0.00 0.00 0.00 0.00 0.00 0.00 0.00 0.00 0.00 0.00 0.00 0.00 0.00 0.00 0.00 0.00 0.00 0.00 0.00 0.00 0.00 0.01 0.01 0.02 0.04 0.04 0.04
0.00 0.00 0.00 0.00 0.00 0.00 0.00 0.00 0.00 0.00 0.00 0.00 0.00 0.00 0.00 0.00 0.00 0.00 0.00 0.00 0.00 0.00 0.00 0.00 0.00 0.00 0.00 0.00 0.00 0.00 0.00 0.00 0.00 0.00 0.00 0.00 0.00 0.00 0.00 0.00 0.00 0.01 0.01 0.01 0.01 0.02 0.03 0.05 0.06
0.00 0.00 0.00 0.00 0.00 0.00 0.00 0.00 0.00 0.00 0.00 0.00 0.00 0.00 0.00 0.00 0.00 0.00 0.00 0.00 0.00 0.00 0.00 0.00 0.00 0.00 0.00 0.00 0.00 0.00 0.00 0.00 0.00 0.00 0.00 0.00 0.00 0.00 0.00 0.00 0.01 0.01 0.01 0.02 0.02 0.02 0.03 0.05 0.07
0.00 0.00 0.00 0.00 0.00 0.00 0.00 0.00 0.00 0.00 0.00 0.00 0.00 0.00 0.00 0.00 0.00 0.00 0.00 0.00 0.00 0.00 0.00 0.00 0.00 0.00 0.00 0.00 0.00 0.00 0.00 0.00 0.00 0.00 0.00 0.00 0.00 0.01 0.01 0.01 0.01 0.02 0.02 0.03 0.03 0.05 0.05 0.06 0.08
0.00 0.00 0.00 0.00 0.00 0.00 0.00 0.00 0.00 0.00 0.00 0.00 0.00 0.00 0.00 0.00 0.00 0.00 0.00 0.00 0.00 0.00 0.00 0.00 0.00 0.00 0.00 0.00 0.00 0.00 0.00 0.00 0.00 0.00 0.00 0.00 0.01 0.01 0.01 0.02 0.03 0.04 0.04 0.05 0.06 0.08 0.09 0.10 0.12
0.00 0.00 0.00 0.00 0.00 0.00 0.00 0.00 0.00 0.00 0.00 0.00 0.00 0.00 0.00 0.00 0.00 0.00 0.00 0.00 0.00 0.00 0.00 0.00 0.00 0.00 0.00 0.00 0.00 0.00 0.00 0.00 0.00 0.00 0.00 0.01 0.01 0.01 0.02 0.03 0.04 0.05 0.06 0.07 0.09 0.11 0.13 0.14 0.16
0.00 0.00 0.00 0.00 0.00 0.00 0.00 0.00 0.00 0.00 0.00 0.00 0.00 0.00 0.00 0.00 0.00 0.00 0.00 0.00 0.00 0.00 0.00 0.00 0.00 0.00 0.00 0.00 0.00 0.00 0.00 0.00 0.00 0.00 0.00 0.01 0.01 0.01 0.02 0.04 0.07 0.09 0.10 0.11 0.13 0.15 0.16 0.17 0.18
0.00 0.00 0.00 0.00 0.00 0.00 0.00 0.00 0.00 0.00 0.00 0.00 0.00 0.00 0.00 0.00 0.00 0.00 0.00 0.00 0.00 0.00 0.00 0.00 0.00 0.00 0.00 0.01 0.01 0.01 0.01 0.01 0.01 0.01 0.01 0.02 0.02 0.03 0.04 0.06 0.08 0.11 0.14 0.17 0.19 0.20 0.19 0.20 0.21
0.00 0.00 0.00 0.00 0.00 0.00 0.00 0.00 0.00 0.00 0.00 0.00 0.00 0.00 0.00 0.00 0.00 0.00 0.00 0.00 0.00 0.00 0.00 0.00 0.00 0.01 0.01 0.01 0.01 0.01 0.02 0.02 0.03 0.04 0.04 0.04 0.05 0.05 0.06 0.08 0.09 0.11 0.15 0.20 0.22 0.24 0.26 0.28 0.27
0.00 0.00 0.00 0.00 0.00 0.00 0.01 0.00 0.00 0.00 0.00 0.00 0.00 0.00 0.00 0.00 0.00 0.00 0.00 0.00 0.00 0.00 0.00 0.01 0.01 0.02 0.02 0.02 0.02 0.02 0.03 0.03 0.04 0.05 0.07 0.08 0.09 0.09 0.10 0.12 0.13 0.14 0.16 0.21 0.25 0.28 0.30 0.34 0.39

GEFSSGP_prec_meanprecacc_060.txt.gz
Total_Precipitation_Accumulation
0.00 0.00 0.00 0.00 0.00 0.00 0.00 0.00 0.00 0.00 0.00 0.00 0.00 0.00 0.00 0.00 0.00 0.00 0.00 0.00 0.01 0.02 0.03 0.03 0.05 0.05 0.04 0.04 0.03 0.03 0.03 0.03 0.04 0.04 0.04 0.06 0.08 0.10 0.14 0.15 0.16 0.16 0.19 0.21 0.18 0.20 0.28 0.34 0.40
0.00 0.00 0.00 0.00 0.00 0.00 0.00 0.00 0.00 0.00 0.00 0.00 0.00 0.00 0.00 0.00 0.00 0.00 0.00 0.00 0.00 0.01 0.01 0.02 0.04 0.04 0.04 0.04 0.03 0.03 0.03 0.03 0.03 0.04 0.03 0.04 0.07 0.11 0.15 0.18 0.18 0.20 0.26 0.27 0.29 0.31 0.34 0.38 0.41
0.00 0.00 0.00 0.00 0.00 0.00 0.00 0.00 0.00 0.00 0.00 0.00 0.00 0.00 0.00 0.00 0.00 0.00 0.00 0.00 0.00 0.00 0.00 0.01 0.03 0.04 0.04 0.04 0.03 0.03 0.03 0.03 0.03 0.04 0.04 0.04 0.06 0.09 0.14 0.17 0.19 0.22 0.26 0.25 0.29 0.32 0.30 0.32 0.34
0.00 0.00 0.00 0.00 0.00 0.00 0.00 0.00 0.00 0.00 0.00 0.00 0.00 0.00 0.00 0.00 0.00 0.00 0.00 0.00 0.00 0.00 0.00 0.01 0.02 0.04 0.04 0.04 0.04 0.03 0.03 0.03 0.04 0.06 0.05 0.05 0.06 0.07 0.09 0.11 0.13 0.16 0.21 0.22 0.25 0.29 0.29 0.33 0.34
0.00 0.00 0.00 0.00 0.00 0.00 0.00 0.00 0.00 0.00 0.00 0.00 0.00 0.00 0.00 0.00 0.00 0.00 0.00 0.00 0.00 0.00 0.00 0.00 0.02 0.03 0.03 0.04 0.04 0.05 0.05 0.04 0.05 0.06 0.07 0.07 0.07 0.09 0.10 0.09 0.08 0.09 0.11 0.16 0.21 0.26 0.29 0.36 0.35
0.00 0.00 0.00 0.00 0.00 0.00 0.00 0.00 0.00 0.00 0.00 0.00 0.00 0.00 0.00 0.00 0.00 0.00 0.00 0.00 0.00 0.00 0.00 0.00 0.01 0.01 0.02 0.03 0.04 0.05 0.06 0.05 0.05 0.06 0.07 0.08 0.08 0.11 0.13 0.12 0.10 0.09 0.08 0.10 0.13 0.20 0.32 0.39 0.34
0.00 0.00 0.00 0.00 0.00 0.00 0.00 0.00 0.00 0.00 0.00 0.00 0.00 0.00 0.00 0.00 0.00 0.00 0.00 0.00 0.00 0.00 0.00 0.00 0.00 0.01 0.01 0.02 0.05 0.07 0.07 0.07 0.07 0.07 0.07 0.07 0.07 0.10 0.14 0.14 0.12 0.11 0.10 0.10 0.09 0.13 0.23 0.32 0.33
0.00 0.00 0.00 0.00 0.00 0.00 0.00 0.00 0.00 0.00 0.00 0.00 0.00 0.00 0.00 0.00 0.00 0.00 0.00 0.00 0.00 0.00 0.00 0.00 0.00 0.00 0.00 0.01 0.03 0.07 0.07 0.07 0.08 0.08 0.06 0.06 0.06 0.07 0.09 0.09 0.09 0.10 0.11 0.11 0.10 0.10 0.15 0.20 0.25
0.00 0.00 0.00 0.00 0.00 0.00 0.00 0.00 0.00 0.00 0.00 0.00 0.00 0.00 0.00 0.00 0.00 0.00 0.00 0.00 0.00 0.00 0.00 0.00 0.00 0.00 0.00 0.00 0.02 0.05 0.06 0.06 0.06 0.06 0.05 0.06 0.05 0.05 0.05 0.05 0.06 0.08 0.09 0.09 0.11 0.11 0.11 0.11 0.11
0.00 0.00 0.00 0.00 0.00 0.00 0.00 0.00 0.00 0.00 0.00 0.00 0.00 0.00 0.00 0.00 0.00 0.00 0.00 0.00 0.00 0.00 0.00 0.00 0.00 0.00 0.00 0.00 0.01 0.02 0.03 0.04 0.05 0.04 0.05 0.06 0.06 0.06 0.07 0.05 0.06 0.07 0.07 0.08 0.11 0.12 0.09 0.09 0.08
0.00 0.00 0.00 0.00 0.00 0.00 0.00 0.00 0.00 0.00 0.00 0.00 0.00 0.00 0.00 0.00 0.00 0.00 0.00 0.00 0.00 0.00 0.00 0.00 0.00 0.00 0.00 0.00 0.00 0.01 0.01 0.04 0.05 0.05 0.05 0.08 0.10 0.11 0.09 0.07 0.06 0.06 0.06 0.08 0.10 0.12 0.12 0.15 0.20
0.00 0.00 0.00 0.00 0.00 0.00 0.00 0.00 0.00 0.00 0.00 0.00 0.00 0.00 0.00 0.00 0.00 0.00 0.00 0.00 0.00 0.00 0.00 0.00 0.00 0.00 0.00 0.00 0.00 0.00 0.00 0.02 0.03 0.04 0.06 0.07 0.09 0.09 0.08 0.07 0.06 0.05 0.06 0.07 0.08 0.10 0.12 0.13 0.16
0.00 0.00 0.00 0.00 0.00 0.00 0.00 0.00 0.00 0.00 0.00 0.00 0.00 0.00 0.00 0.00 0.00 0.00 0.00 0.00 0.00 0.00 0.00 0.00 0.00 0.00 0.00 0.00 0.00 0.00 0.00 0.01 0.02 0.03 0.04 0.04 0.05 0.06 0.06 0.06 0.05 0.04 0.05 0.06 0.06 0.07 0.08 0.10 0.13
0.00 0.00 0.00 0.00 0.00 0.00 0.00 0.00 0.00 0.00 0.00 0.00 0.00 0.00 0.00 0.00 0.00 0.00 0.00 0.00 0.00 0.00 0.00 0.00 0.00 0.00 0.00 0.00 0.00 0.00 0.00 0.00 0.01 0.02 0.02 0.02 0.02 0.03 0.03 0.03 0.03 0.02 0.02 0.03 0.03 0.04 0.05 0.06 0.08
0.00 0.00 0.00 0.00 0.00 0.00 0.00 0.00 0.00 0.00 0.00 0.00 0.00 0.00 0.00 0.00 0.00 0.00 0.00 0.00 0.00 0.00 0.00 0.00 0.00 0.00 0.00 0.00 0.00 0.00 0.00 0.00 0.00 0.00 0.00 0.00 0.00 0.01 0.01 0.01 0.01 0.01 0.02 0.03 0.03 0.03 0.03 0.04 0.06
0.00 0.00 0.00 0.00 0.00 0.00 0.00 0.00 0.00 0.00 0.00 0.00 0.00 0.00 0.00 0.00 0.00 0.00 0.00 0.00 0.00 0.00 0.00 0.00 0.00 0.00 0.00 0.00 0.00 0.00 0.00 0.00 0.00 0.00 0.00 0.00 0.01 0.01 0.02 0.02 0.02 0.01 0.02 0.05 0.06 0.06 0.06 0.06 0.07
0.00 0.00 0.00 0.00 0.00 0.00 0.00 0.00 0.00 0.00 0.00 0.00 0.00 0.00 0.00 0.00 0.00 0.00 0.00 0.00 0.00 0.00 0.00 0.00 0.00 0.00 0.00 0.00 0.00 0.00 0.00 0.00 0.00 0.00 0.00 0.00 0.01 0.02 0.02 0.03 0.04 0.05 0.06 0.09 0.11 0.10 0.12 0.11 0.10
0.00 0.00 0.00 0.00 0.00 0.00 0.00 0.00 0.00 0.00 0.00 0.00 0.00 0.00 0.00 0.00 0.00 0.00 0.00 0.00 0.00 0.00 0.00 0.00 0.00 0.00 0.00 0.00 0.00 0.00 0.00 0.00 0.00 0.00 0.00 0.00 0.01 0.01 0.01 0.01 0.03 0.06 0.10 0.13 0.15 0.13 0.13 0.15 0.17
0.00 0.00 0.00 0.00 0.00 0.00 0.00 0.00 0.00 0.00 0.00 0.00 0.00 0.00 0.00 0.00 0.00 0.00 0.00 0.00 0.00 0.00 0.00 0.00 0.00 0.00 0.00 0.00 0.00 0.00 0.00 0.00 0.00 0.00 0.00 0.00 0.00 0.00 0.00 0.01 0.01 0.01 0.03 0.06 0.08 0.11 0.11 0.11 0.12
0.00 0.00 0.00 0.00 0.00 0.00 0.00 0.00 0.00 0.00 0.00 0.00 0.00 0.00 0.00 0.00 0.00 0.00 0.00 0.00 0.00 0.00 0.00 0.00 0.00 0.00 0.00 0.00 0.00 0.00 0.00 0.00 0.00 0.00 0.00 0.00 0.00 0.00 0.00 0.00 0.00 0.00 0.01 0.01 0.01 0.03 0.06 0.06 0.06
0.00 0.00 0.00 0.00 0.00 0.00 0.00 0.00 0.00 0.00 0.00 0.00 0.00 0.00 0.00 0.00 0.00 0.00 0.00 0.00 0.00 0.00 0.00 0.00 0.00 0.00 0.00 0.00 0.00 0.00 0.00 0.00 0.00 0.00 0.00 0.00 0.00 0.00 0.00 0.00 0.00 0.00 0.00 0.01 0.01 0.02 0.04 0.05 0.04
0.00 0.00 0.00 0.00 0.00 0.00 0.00 0.00 0.00 0.00 0.00 0.00 0.00 0.00 0.00 0.00 0.00 0.00 0.00 0.00 0.00 0.00 0.00 0.00 0.00 0.00 0.00 0.00 0.00 0.00 0.00 0.00 0.00 0.00 0.00 0.00 0.00 0.00 0.00 0.00 0.00 0.01 0.01 0.01 0.01 0.02 0.03 0.06 0.07
0.00 0.00 0.00 0.00 0.00 0.00 0.00 0.00 0.00 0.00 0.00 0.00 0.00 0.00 0.00 0.00 0.00 0.00 0.00 0.00 0.00 0.00 0.00 0.00 0.00 0.00 0.00 0.00 0.00 0.00 0.00 0.00 0.00 0.00 0.00 0.00 0.00 0.00 0.00 0.00 0.01 0.01 0.01 0.02 0.02 0.02 0.04 0.06 0.09
0.00 0.00 0.00 0.00 0.00 0.00 0.00 0.00 0.00 0.00 0.00 0.00 0.00 0.00 0.00 0.00 0.00 0.00 0.00 0.00 0.00 0.00 0.00 0.00 0.00 0.00 0.00 0.00 0.00 0.00 0.00 0.00 0.00 0.00 0.00 0.00 0.00 0.01 0.01 0.01 0.01 0.02 0.02 0.03 0.04 0.05 0.06 0.07 0.10
0.00 0.00 0.00 0.00 0.00 0.00 0.00 0.00 0.00 0.00 0.00 0.00 0.00 0.00 0.00 0.00 0.00 0.00 0.00 0.00 0.00 0.00 0.00 0.00 0.00 0.00 0.00 0.00 0.00 0.00 0.00 0.00 0.00 0.00 0.00 0.00 0.01 0.01 0.01 0.02 0.03 0.04 0.04 0.05 0.06 0.09 0.10 0.12 0.14
0.00 0.00 0.00 0.00 0.00 0.00 0.00 0.00 0.00 0.00 0.00 0.00 0.00 0.00 0.00 0.00 0.00 0.00 0.00 0.00 0.00 0.00 0.00 0.00 0.00 0.00 0.00 0.00 0.00 0.00 0.00 0.00 0.00 0.00 0.00 0.01 0.01 0.01 0.02 0.03 0.04 0.05 0.06 0.07 0.09 0.12 0.14 0.17 0.19
0.00 0.00 0.00 0.00 0.00 0.00 0.00 0.00 0.00 0.00 0.00 0.00 0.00 0.00 0.00 0.00 0.00 0.00 0.00 0.00 0.00 0.00 0.00 0.00 0.00 0.00 0.00 0.00 0.00 0.00 0.00 0.00 0.00 0.00 0.00 0.01 0.01 0.01 0.02 0.04 0.07 0.09 0.10 0.11 0.13 0.16 0.18 0.20 0.21
0.00 0.00 0.00 0.00 0.00 0.00 0.00 0.00 0.00 0.00 0.00 0.00 0.00 0.00 0.00 0.00 0.00 0.00 0.00 0.00 0.00 0.00 0.00 0.00 0.00 0.00 0.00 0.01 0.01 0.01 0.01 0.01 0.01 0.01 0.01 0.02 0.02 0.03 0.04 0.06 0.08 0.11 0.14 0.17 0.20 0.21 0.21 0.22 0.23
0.00 0.00 0.00 0.00 0.00 0.00 0.00 0.00 0.00 0.00 0.00 0.00 0.00 0.00 0.00 0.00 0.00 0.00 0.00 0.00 0.00 0.00 0.00 0.00 0.00 0.01 0.01 0.01 0.01 0.01 0.02 0.02 0.03 0.04 0.04 0.04 0.05 0.05 0.06 0.08 0.09 0.11 0.15 0.20 0.23 0.24 0.27 0.30 0.30
0.00 0.00 0.00 0.00 0.00 0.00 0.01 0.00 0.00 0.00 0.00 0.00 0.00 0.00 0.00 0.00 0.00 0.00 0.00 0.00 0.00 0.00 0.00 0.01 0.01 0.02 0.02 0.02 0.02 0.02 0.03 0.03 0.04 0.05 0.07 0.08 0.09 0.09 0.10 0.12 0.13 0.14 0.16 0.21 0.26 0.29 0.30 0.35 0.40

GEFSSGP_prec_meanprecacc_066.txt.gz
Total_Precipitation_Accumulation
0.00 0.00 0.00 0.00 0.00 0.00 0.00 0.00 0.00 0.00 0.00 0.00 0.00 0.00 0.00 0.00 0.00 0.00 0.00 0.00 0.01 0.02 0.03 0.03 0.05 0.05 0.04 0.04 0.03 0.03 0.03 0.03 0.04 0.04 0.04 0.06 0.08 0.11 0.14 0.15 0.16 0.16 0.20 0.21 0.18 0.21 0.29 0.34 0.41
0.00 0.00 0.00 0.00 0.00 0.00 0.00 0.00 0.00 0.00 0.00 0.00 0.00 0.00 0.00 0.00 0.00 0.00 0.00 0.00 0.00 0.01 0.01 0.02 0.04 0.04 0.04 0.04 0.03 0.03 0.03 0.03 0.03 0.04 0.03 0.04 0.07 0.11 0.15 0.18 0.18 0.20 0.26 0.28 0.30 0.31 0.34 0.39 0.42
0.00 0.00 0.00 0.00 0.00 0.00 0.00 0.00 0.00 0.00 0.00 0.00 0.00 0.00 0.00 0.00 0.00 0.00 0.00 0.00 0.00 0.00 0.00 0.01 0.03 0.04 0.04 0.04 0.03 0.03 0.03 0.03 0.03 0.04 0.04 0.04 0.06 0.09 0.14 0.17 0.19 0.22 0.27 0.26 0.29 0.32 0.30 0.32 0.34
0.00 0.00 0.00 0.00 0.00 0.00 0.00 0.00 0.00 0.00 0.00 0.00 0.00 0.00 0.00 0.00 0.00 0.00 0.00 0.00 0.00 0.00 0.00 0.01 0.02 0.04 0.04 0.04 0.04 0.03 0.03 0.03 0.04 0.06 0.05 0.05 0.06 0.07 0.09 0.11 0.13 0.16 0.21 0.23 0.26 0.29 0.29 0.33 0.35
0.00 0.00 0.00 0.00 0.00 0.00 0.00 0.00 0.00 0.00 0.00 0.00 0.00 0.00 0.00 0.00 0.00 0.00 0.00 0.00 0.00 0.00 0.00 0.00 0.02 0.03 0.03 0.04 0.04 0.05 0.05 0.04 0.05 0.06 0.07 0.07 0.07 0.09 0.10 0.09 0.08 0.09 0.11 0.16 0.21 0.26 0.30 0.36 0.35
0.00 0.00 0.00 0.00 0.00 0.00 0.00 0.00 0.00 0.00 0.00 0.00 0.00 0.00 0.00 0.00 0.00 0.00 0.00 0.00 0.00 0.00 0.00 0.00 0.01 0.01 0.02 0.03 0.04 0.05 0.06 0.05 0.05 0.06 0.07 0.08 0.08 0.11 0.13 0.12 0.10 0.09 0.09 0.10 0.13 0.20 0.32 0.39 0.34
0.00 0.00 0.00 0.00 0.00 0.00 0.00 0.00 0.00 0.00 0.00 0.00 0.00 0.00 0.00 0.00 0.00 0.00 0.00 0.00 0.00 0.00 0.00 0.00 0.00 0.01 0.01 0.02 0.05 0.07 0.07 0.07 0.07 0.07 0.07 0.07 0.07 0.10 0.14 0.14 0.12 0.11 0.10 0.10 0.09 0.13 0.23 0.32 0.33
0.00 0.00 0.00 0.00 0.00 0.00 0.00 0.00 0.00 0.00 0.00 0.00 0.00 0.00 0.00 0.00 0.00 0.00 0.00 0.00 0.00 0.00 0.00 0.00 0.00 0.00 0.00 0.01 0.03 0.07 0.07 0.07 0.08 0.08 0.06 0.06 0.06 0.07 0.09 0.09 0.09 0.10 0.11 0.11 0.10 0.10 0.15 0.20 0.25
0.00 0.00 0.00 0.00 0.00 0.00 0.00 0.00 0.00 0.00 0.00 0.00 0.00 0.00 0.00 0.00 0.00 0.00 0.00 0.00 0.00 0.00 0.00 0.00 0.00 0.00 0.00 0.00 0.02 0.05 0.06 0.06 0.06 0.06 0.05 0.06 0.05 0.05 0.05 0.05 0.06 0.08 0.09 0.09 0.11 0.11 0.11 0.11 0.11
0.00 0.00 0.00 0.00 0.00 0.00 0.00 0.00 0.00 0.00 0.00 0.00 0.00 0.00 0.00 0.00 0.00 0.00 0.00 0.00 0.00 0.00 0.00 0.00 0.00 0.00 0.00 0.00 0.01 0.02 0.03 0.04 0.05 0.04 0.05 0.06 0.06 0.06 0.07 0.05 0.06 0.07 0.07 0.08 0.11 0.12 0.09 0.09 0.08
0.00 0.00 0.00 0.00 0.00 0.00 0.00 0.00 0.00 0.00 0.00 0.00 0.00 0.00 0.00 0.00 0.00 0.00 0.00 0.00 0.00 0.00 0.00 0.00 0.00 0.00 0.00 0.00 0.00 0.01 0.01 0.04 0.05 0.05 0.05 0.08 0.10 0.11 0.09 0.07 0.06 0.06 0.06 0.08 0.10 0.12 0.12 0.15 0.20
0.00 0.00 0.00 0.00 0.00 0.00 0.00 0.00 0.00 0.00 0.00 0.00 0.00 0.00 0.00 0.00 0.00 0.00 0.00 0.00 0.00 0.00 0.00 0.00 0.00 0.00 0.00 0.00 0.00 0.00 0.00 0.02 0.03 0.04 0.06 0.07 0.09 0.09 0.08 0.07 0.06 0.05 0.06 0.07 0.08 0.10 0.12 0.13 0.16
0.00 0.00 0.00 0.00 0.00 0.00 0.00 0.00 0.00 0.00 0.00 0.00 0.00 0.00 0.00 0.00 0.00 0.00 0.00 0.00 0.00 0.00 0.00 0.00 0.00 0.00 0.00 0.00 0.00 0.00 0.00 0.01 0.02 0.03 0.04 0.04 0.05 0.06 0.06 0.06 0.05 0.04 0.05 0.06 0.06 0.07 0.08 0.10 0.13
0.00 0.00 0.00 0.00 0.00 0.00 0.00 0.00 0.00 0.00 0.00 0.00 0.00 0.00 0.00 0.00 0.00 0.00 0.00 0.00 0.00 0.00 0.00 0.00 0.00 0.00 0.00 0.00 0.00 0.00 0.00 0.00 0.01 0.02 0.02 0.02 0.02 0.03 0.03 0.03 0.03 0.02 0.02 0.03 0.03 0.04 0.05 0.06 0.08
0.00 0.00 0.00 0.00 0.00 0.00 0.00 0.00 0.00 0.00 0.00 0.00 0.00 0.00 0.00 0.00 0.00 0.00 0.00 0.00 0.00 0.00 0.00 0.00 0.00 0.00 0.00 0.00 0.00 0.00 0.00 0.00 0.00 0.00 0.00 0.00 0.00 0.01 0.01 0.01 0.01 0.01 0.02 0.03 0.03 0.03 0.03 0.04 0.06
0.00 0.00 0.00 0.00 0.00 0.00 0.00 0.00 0.00 0.00 0.00 0.00 0.00 0.00 0.00 0.00 0.00 0.00 0.00 0.00 0.00 0.00 0.00 0.00 0.00 0.00 0.00 0.00 0.00 0.00 0.00 0.00 0.00 0.00 0.00 0.00 0.01 0.01 0.02 0.02 0.02 0.01 0.02 0.05 0.06 0.06 0.06 0.06 0.07
0.00 0.00 0.00 0.00 0.00 0.00 0.00 0.00 0.00 0.00 0.00 0.00 0.00 0.00 0.00 0.00 0.00 0.00 0.00 0.00 0.00 0.00 0.00 0.00 0.00 0.00 0.00 0.00 0.00 0.00 0.00 0.00 0.00 0.00 0.00 0.00 0.01 0.02 0.02 0.03 0.04 0.05 0.06 0.09 0.11 0.10 0.12 0.11 0.10
0.00 0.00 0.00 0.00 0.00 0.00 0.00 0.00 0.00 0.00 0.00 0.00 0.00 0.00 0.00 0.00 0.00 0.00 0.00 0.00 0.00 0.00 0.00 0.00 0.00 0.00 0.00 0.00 0.00 0.00 0.00 0.00 0.00 0.00 0.00 0.00 0.01 0.01 0.01 0.01 0.03 0.06 0.10 0.13 0.15 0.13 0.13 0.15 0.17
0.00 0.00 0.00 0.00 0.00 0.00 0.00 0.00 0.00 0.00 0.00 0.00 0.00 0.00 0.00 0.00 0.00 0.00 0.00 0.00 0.00 0.00 0.00 0.00 0.00 0.00 0.00 0.00 0.00 0.00 0.00 0.00 0.00 0.00 0.00 0.00 0.00 0.00 0.00 0.01 0.01 0.01 0.03 0.06 0.08 0.11 0.11 0.11 0.12
0.00 0.00 0.00 0.00 0.00 0.00 0.00 0.00 0.00 0.00 0.00 0.00 0.00 0.00 0.00 0.00 0.00 0.00 0.00 0.00 0.00 0.00 0.00 0.00 0.00 0.00 0.00 0.00 0.00 0.00 0.00 0.00 0.00 0.00 0.00 0.00 0.00 0.00 0.00 0.00 0.00 0.00 0.01 0.01 0.01 0.03 0.06 0.06 0.06
0.00 0.00 0.00 0.00 0.00 0.00 0.00 0.00 0.00 0.00 0.00 0.00 0.00 0.00 0.00 0.00 0.00 0.00 0.00 0.00 0.00 0.00 0.00 0.00 0.00 0.00 0.00 0.00 0.00 0.00 0.00 0.00 0.00 0.00 0.00 0.00 0.00 0.00 0.00 0.00 0.00 0.00 0.00 0.01 0.01 0.02 0.04 0.05 0.04
0.00 0.00 0.00 0.00 0.00 0.00 0.00 0.00 0.00 0.00 0.00 0.00 0.00 0.00 0.00 0.00 0.00 0.00 0.00 0.00 0.00 0.00 0.00 0.00 0.00 0.00 0.00 0.00 0.00 0.00 0.00 0.00 0.00 0.00 0.00 0.00 0.00 0.00 0.00 0.00 0.00 0.01 0.01 0.01 0.01 0.02 0.03 0.06 0.07
0.00 0.00 0.00 0.00 0.00 0.00 0.00 0.00 0.00 0.00 0.00 0.00 0.00 0.00 0.00 0.00 0.00 0.00 0.00 0.00 0.00 0.00 0.00 0.00 0.00 0.00 0.00 0.00 0.00 0.00 0.00 0.00 0.00 0.00 0.00 0.00 0.00 0.00 0.00 0.00 0.01 0.01 0.01 0.02 0.02 0.03 0.04 0.06 0.09
0.00 0.00 0.00 0.00 0.00 0.00 0.00 0.00 0.00 0.00 0.00 0.00 0.00 0.00 0.00 0.00 0.00 0.00 0.00 0.00 0.00 0.00 0.00 0.00 0.00 0.00 0.00 0.00 0.00 0.00 0.00 0.00 0.00 0.00 0.00 0.00 0.00 0.01 0.01 0.01 0.01 0.02 0.02 0.03 0.04 0.05 0.06 0.07 0.10
0.00 0.00 0.00 0.00 0.00 0.00 0.00 0.00 0.00 0.00 0.00 0.00 0.00 0.00 0.00 0.00 0.00 0.00 0.00 0.00 0.00 0.00 0.00 0.00 0.00 0.00 0.00 0.00 0.00 0.00 0.00 0.00 0.00 0.00 0.00 0.00 0.01 0.01 0.01 0.02 0.03 0.04 0.04 0.05 0.06 0.09 0.10 0.12 0.14
0.00 0.00 0.00 0.00 0.00 0.00 0.00 0.00 0.00 0.00 0.00 0.00 0.00 0.00 0.00 0.00 0.00 0.00 0.00 0.00 0.00 0.00 0.00 0.00 0.00 0.00 0.00 0.00 0.00 0.00 0.00 0.00 0.00 0.00 0.00 0.01 0.01 0.01 0.02 0.03 0.04 0.05 0.06 0.07 0.09 0.12 0.14 0.17 0.19
0.00 0.00 0.00 0.00 0.00 0.00 0.00 0.00 0.00 0.00 0.00 0.00 0.00 0.00 0.00 0.00 0.00 0.00 0.00 0.00 0.00 0.00 0.00 0.00 0.00 0.00 0.00 0.00 0.00 0.00 0.00 0.00 0.00 0.00 0.00 0.01 0.01 0.01 0.02 0.04 0.07 0.09 0.10 0.11 0.13 0.16 0.18 0.20 0.21
0.00 0.00 0.00 0.00 0.00 0.00 0.00 0.00 0.00 0.00 0.00 0.00 0.00 0.00 0.00 0.00 0.00 0.00 0.00 0.00 0.00 0.00 0.00 0.00 0.00 0.00 0.00 0.01 0.01 0.01 0.01 0.01 0.01 0.01 0.01 0.02 0.02 0.03 0.04 0.06 0.08 0.11 0.14 0.17 0.20 0.21 0.21 0.22 0.23
0.00 0.00 0.00 0.00 0.00 0.00 0.00 0.00 0.00 0.00 0.00 0.00 0.00 0.00 0.00 0.00 0.00 0.00 0.00 0.00 0.00 0.00 0.00 0.00 0.00 0.01 0.01 0.01 0.01 0.01 0.02 0.02 0.03 0.04 0.04 0.04 0.05 0.05 0.06 0.08 0.09 0.11 0.15 0.20 0.23 0.24 0.27 0.30 0.30
0.00 0.00 0.00 0.00 0.00 0.00 0.01 0.00 0.00 0.00 0.00 0.00 0.00 0.00 0.00 0.00 0.00 0.00 0.00 0.00 0.00 0.00 0.00 0.01 0.01 0.02 0.02 0.02 0.02 0.02 0.03 0.03 0.04 0.05 0.07 0.08 0.09 0.09 0.10 0.12 0.13 0.14 0.16 0.21 0.26 0.29 0.30 0.35 0.40

GEFSSGP_prec_meanprecacc_072.txt.gz
Total_Precipitation_Accumulation
0.00 0.00 0.00 0.00 0.00 0.00 0.00 0.00 0.00 0.00 0.00 0.00 0.00 0.00 0.00 0.00 0.00 0.00 0.00 0.00 0.01 0.02 0.03 0.03 0.05 0.05 0.04 0.04 0.03 0.03 0.03 0.03 0.04 0.04 0.04 0.07 0.09 0.11 0.14 0.15 0.17 0.17 0.21 0.23 0.20 0.22 0.30 0.36 0.42
0.00 0.00 0.00 0.00 0.00 0.00 0.00 0.00 0.00 0.00 0.00 0.00 0.00 0.00 0.00 0.00 0.00 0.00 0.00 0.00 0.00 0.01 0.01 0.02 0.04 0.04 0.04 0.04 0.03 0.03 0.03 0.03 0.03 0.04 0.03 0.04 0.07 0.11 0.15 0.18 0.19 0.21 0.27 0.29 0.31 0.33 0.35 0.40 0.43
0.00 0.00 0.00 0.00 0.00 0.00 0.00 0.00 0.00 0.00 0.00 0.00 0.00 0.00 0.00 0.00 0.00 0.00 0.00 0.00 0.00 0.00 0.00 0.01 0.03 0.04 0.04 0.04 0.03 0.03 0.03 0.03 0.03 0.04 0.04 0.04 0.06 0.09 0.14 0.17 0.19 0.22 0.27 0.26 0.30 0.33 0.31 0.34 0.35
0.00 0.00 0.00 0.00 0.00 0.00 0.00 0.00 0.00 0.00 0.00 0.00 0.00 0.00 0.00 0.00 0.00 0.00 0.00 0.00 0.00 0.00 0.00 0.01 0.02 0.04 0.04 0.04 0.04 0.03 0.03 0.03 0.04 0.06 0.05 0.05 0.06 0.07 0.09 0.11 0.13 0.16 0.22 0.23 0.26 0.30 0.30 0.34 0.35
0.00 0.00 0.00 0.00 0.00 0.00 0.00 0.00 0.00 0.00 0.00 0.00 0.00 0.00 0.00 0.00 0.00 0.00 0.00 0.00 0.00 0.00 0.00 0.00 0.02 0.03 0.03 0.04 0.04 0.05 0.05 0.04 0.05 0.06 0.07 0.07 0.07 0.09 0.10 0.09 0.08 0.09 0.11 0.16 0.21 0.26 0.30 0.37 0.35
0.00 0.00 0.00 0.00 0.00 0.00 0.00 0.00 0.00 0.00 0.00 0.00 0.00 0.00 0.00 0.00 0.00 0.00 0.00 0.00 0.00 0.00 0.00 0.00 0.01 0.01 0.02 0.03 0.04 0.05 0.06 0.05 0.05 0.06 0.07 0.08 0.08 0.11 0.13 0.12 0.10 0.09 0.09 0.10 0.13 0.20 0.32 0.39 0.34
0.00 0.00 0.00 0.00 0.00 0.00 0.00 0.00 0.00 0.00 0.00 0.00 0.00 0.00 0.00 0.00 0.00 0.00 0.00 0.00 0.00 0.00 0.00 0.00 0.00 0.01 0.01 0.02 0.05 0.07 0.07 0.07 0.07 0.07 0.07 0.07 0.07 0.10 0.14 0.14 0.12 0.11 0.10 0.10 0.10 0.13 0.23 0.32 0.33
0.00 0.00 0.00 0.00 0.00 0.00 0.00 0.00 0.00 0.00 0.00 0.00 0.00 0.00 0.00 0.00 0.00 0.00 0.00 0.00 0.00 0.00 0.00 0.00 0.00 0.00 0.00 0.01 0.03 0.07 0.07 0.07 0.08 0.08 0.06 0.06 0.06 0.07 0.09 0.09 0.09 0.10 0.11 0.11 0.10 0.10 0.15 0.20 0.25
0.00 0.00 0.00 0.00 0.00 0.00 0.00 0.00 0.00 0.00 0.00 0.00 0.00 0.00 0.00 0.00 0.00 0.00 0.00 0.00 0.00 0.00 0.00 0.00 0.00 0.00 0.00 0.00 0.02 0.05 0.06 0.06 0.06 0.06 0.05 0.06 0.05 0.05 0.05 0.05 0.06 0.08 0.09 0.09 0.11 0.11 0.11 0.11 0.11
0.00 0.00 0.00 0.00 0.00 0.00 0.00 0.00 0.00 0.00 0.00 0.00 0.00 0.00 0.00 0.00 0.00 0.00 0.00 0.00 0.00 0.00 0.00 0.00 0.00 0.00 0.00 0.00 0.01 0.02 0.03 0.04 0.05 0.04 0.05 0.06 0.06 0.06 0.07 0.05 0.06 0.07 0.07 0.08 0.11 0.12 0.09 0.09 0.08
0.00 0.00 0.00 0.00 0.00 0.00 0.00 0.00 0.00 0.00 0.00 0.00 0.00 0.00 0.00 0.00 0.00 0.00 0.00 0.00 0.00 0.00 0.00 0.00 0.00 0.00 0.00 0.00 0.00 0.01 0.01 0.04 0.05 0.05 0.05 0.08 0.10 0.11 0.09 0.07 0.06 0.06 0.06 0.08 0.10 0.12 0.12 0.15 0.20
0.00 0.00 0.00 0.00 0.00 0.00 0.00 0.00 0.00 0.00 0.00 0.00 0.00 0.00 0.00 0.00 0.00 0.00 0.00 0.00 0.00 0.00 0.00 0.00 0.00 0.00 0.00 0.00 0.00 0.00 0.00 0.02 0.03 0.04 0.06 0.07 0.09 0.09 0.08 0.07 0.06 0.05 0.06 0.07 0.08 0.10 0.12 0.13 0.16
0.00 0.00 0.00 0.00 0.00 0.00 0.00 0.00 0.00 0.00 0.00 0.00 0.00 0.00 0.00 0.00 0.00 0.00 0.00 0.00 0.00 0.00 0.00 0.00 0.00 0.00 0.00 0.00 0.00 0.00 0.00 0.01 0.02 0.03 0.04 0.04 0.05 0.06 0.06 0.06 0.05 0.04 0.05 0.06 0.06 0.07 0.08 0.10 0.13
0.00 0.00 0.00 0.00 0.00 0.00 0.00 0.00 0.00 0.00 0.00 0.00 0.00 0.00 0.00 0.00 0.00 0.00 0.00 0.00 0.00 0.00 0.00 0.00 0.00 0.00 0.00 0.00 0.00 0.00 0.00 0.00 0.01 0.02 0.02 0.02 0.02 0.03 0.03 0.03 0.03 0.02 0.02 0.03 0.03 0.04 0.05 0.06 0.08
0.00 0.00 0.00 0.00 0.00 0.00 0.00 0.00 0.00 0.00 0.00 0.00 0.00 0.00 0.00 0.00 0.00 0.00 0.00 0.00 0.00 0.00 0.00 0.00 0.00 0.00 0.00 0.00 0.00 0.00 0.00 0.00 0.00 0.00 0.00 0.00 0.00 0.01 0.01 0.01 0.01 0.01 0.02 0.03 0.03 0.03 0.03 0.04 0.06
0.00 0.00 0.00 0.00 0.00 0.00 0.00 0.00 0.00 0.00 0.00 0.00 0.00 0.00 0.00 0.00 0.00 0.00 0.00 0.00 0.00 0.00 0.00 0.00 0.00 0.00 0.00 0.00 0.00 0.00 0.00 0.00 0.00 0.00 0.00 0.00 0.01 0.01 0.02 0.02 0.02 0.01 0.02 0.05 0.06 0.06 0.06 0.06 0.07
0.00 0.00 0.00 0.00 0.00 0.00 0.00 0.00 0.00 0.00 0.00 0.00 0.00 0.00 0.00 0.00 0.00 0.00 0.00 0.00 0.00 0.00 0.00 0.00 0.00 0.00 0.00 0.00 0.00 0.00 0.00 0.00 0.00 0.00 0.00 0.00 0.01 0.02 0.02 0.03 0.04 0.05 0.06 0.09 0.11 0.10 0.12 0.11 0.10
0.00 0.00 0.00 0.00 0.00 0.00 0.00 0.00 0.00 0.00 0.00 0.00 0.00 0.00 0.00 0.00 0.00 0.00 0.00 0.00 0.00 0.00 0.00 0.00 0.00 0.00 0.00 0.00 0.00 0.00 0.00 0.00 0.00 0.00 0.00 0.00 0.01 0.01 0.01 0.01 0.03 0.06 0.10 0.13 0.15 0.13 0.13 0.15 0.17
0.00 0.00 0.00 0.00 0.00 0.00 0.00 0.00 0.00 0.00 0.00 0.00 0.00 0.00 0.00 0.00 0.00 0.00 0.00 0.00 0.00 0.00 0.00 0.00 0.00 0.00 0.00 0.00 0.00 0.00 0.00 0.00 0.00 0.00 0.00 0.00 0.00 0.00 0.00 0.01 0.01 0.01 0.03 0.06 0.08 0.11 0.11 0.11 0.12
0.00 0.00 0.00 0.00 0.00 0.00 0.00 0.00 0.00 0.00 0.00 0.00 0.00 0.00 0.00 0.00 0.00 0.00 0.00 0.00 0.00 0.00 0.00 0.00 0.00 0.00 0.00 0.00 0.00 0.00 0.00 0.00 0.00 0.00 0.00 0.00 0.00 0.00 0.00 0.00 0.00 0.00 0.01 0.01 0.01 0.03 0.06 0.06 0.06
0.00 0.00 0.00 0.00 0.00 0.00 0.00 0.00 0.00 0.00 0.00 0.00 0.00 0.00 0.00 0.00 0.00 0.00 0.00 0.00 0.00 0.00 0.00 0.00 0.00 0.00 0.00 0.00 0.00 0.00 0.00 0.00 0.00 0.00 0.00 0.00 0.00 0.00 0.00 0.00 0.00 0.00 0.00 0.01 0.01 0.02 0.04 0.05 0.04
0.00 0.00 0.00 0.00 0.00 0.00 0.00 0.00 0.00 0.00 0.00 0.00 0.00 0.00 0.00 0.00 0.00 0.00 0.00 0.00 0.00 0.00 0.00 0.00 0.00 0.00 0.00 0.00 0.00 0.00 0.00 0.00 0.00 0.00 0.00 0.00 0.00 0.00 0.00 0.00 0.00 0.01 0.01 0.01 0.01 0.02 0.03 0.06 0.07
0.00 0.00 0.00 0.00 0.00 0.00 0.00 0.00 0.00 0.00 0.00 0.00 0.00 0.00 0.00 0.00 0.00 0.00 0.00 0.00 0.00 0.00 0.00 0.00 0.00 0.00 0.00 0.00 0.00 0.00 0.00 0.00 0.00 0.00 0.00 0.00 0.00 0.00 0.00 0.00 0.01 0.01 0.01 0.02 0.02 0.03 0.04 0.06 0.09
0.00 0.00 0.00 0.00 0.00 0.00 0.00 0.00 0.00 0.00 0.00 0.00 0.00 0.00 0.00 0.00 0.00 0.00 0.00 0.00 0.00 0.00 0.00 0.00 0.00 0.00 0.00 0.00 0.00 0.00 0.00 0.00 0.00 0.00 0.00 0.00 0.00 0.01 0.01 0.01 0.01 0.02 0.02 0.03 0.04 0.05 0.06 0.07 0.10
0.00 0.00 0.00 0.00 0.00 0.00 0.00 0.00 0.00 0.00 0.00 0.00 0.00 0.00 0.00 0.00 0.00 0.00 0.00 0.00 0.00 0.00 0.00 0.00 0.00 0.00 0.00 0.00 0.00 0.00 0.00 0.00 0.00 0.00 0.00 0.00 0.01 0.01 0.01 0.02 0.03 0.04 0.04 0.05 0.06 0.09 0.10 0.12 0.14
0.00 0.00 0.00 0.00 0.00 0.00 0.00 0.00 0.00 0.00 0.00 0.00 0.00 0.00 0.00 0.00 0.00 0.00 0.00 0.00 0.00 0.00 0.00 0.00 0.00 0.00 0.00 0.00 0.00 0.00 0.00 0.00 0.00 0.00 0.00 0.01 0.01 0.01 0.02 0.03 0.04 0.05 0.06 0.07 0.09 0.12 0.14 0.17 0.19
0.00 0.00 0.00 0.00 0.00 0.00 0.00 0.00 0.00 0.00 0.00 0.00 0.00 0.00 0.00 0.00 0.00 0.00 0.00 0.00 0.00 0.00 0.00 0.00 0.00 0.00 0.00 0.00 0.00 0.00 0.00 0.00 0.00 0.00 0.00 0.01 0.01 0.01 0.02 0.04 0.07 0.09 0.10 0.11 0.13 0.16 0.18 0.20 0.21
0.00 0.00 0.00 0.00 0.00 0.00 0.00 0.00 0.00 0.00 0.00 0.00 0.00 0.00 0.00 0.00 0.00 0.00 0.00 0.00 0.00 0.00 0.00 0.00 0.00 0.00 0.00 0.01 0.01 0.01 0.01 0.01 0.01 0.01 0.01 0.02 0.02 0.03 0.04 0.06 0.08 0.11 0.14 0.17 0.20 0.21 0.21 0.22 0.23
0.00 0.00 0.00 0.00 0.00 0.00 0.00 0.00 0.00 0.00 0.00 0.00 0.00 0.00 0.00 0.00 0.00 0.00 0.00 0.00 0.00 0.00 0.00 0.00 0.00 0.01 0.01 0.01 0.01 0.01 0.02 0.02 0.03 0.04 0.04 0.04 0.05 0.05 0.06 0.08 0.09 0.11 0.15 0.20 0.23 0.24 0.27 0.30 0.30
0.00 0.00 0.00 0.00 0.00 0.00 0.01 0.00 0.00 0.00 0.00 0.00 0.00 0.00 0.00 0.00 0.00 0.00 0.00 0.00 0.00 0.00 0.00 0.01 0.01 0.02 0.02 0.02 0.02 0.02 0.03 0.03 0.04 0.05 0.07 0.08 0.09 0.10 0.10 0.12 0.13 0.14 0.17 0.21 0.26 0.29 0.30 0.35 0.40

GEFSSGP_prec_meanprecacc_078.txt.gz
Total_Precipitation_Accumulation
0.00 0.00 0.00 0.00 0.00 0.00 0.00 0.00 0.00 0.00 0.00 0.00 0.00 0.00 0.00 0.00 0.00 0.00 0.00 0.00 0.01 0.02 0.03 0.03 0.05 0.05 0.04 0.04 0.03 0.03 0.03 0.03 0.04 0.04 0.05 0.07 0.09 0.11 0.15 0.16 0.17 0.18 0.21 0.24 0.21 0.24 0.32 0.37 0.43
0.00 0.00 0.00 0.00 0.00 0.00 0.00 0.00 0.00 0.00 0.00 0.00 0.00 0.00 0.00 0.00 0.00 0.00 0.00 0.00 0.00 0.01 0.01 0.02 0.04 0.04 0.04 0.04 0.03 0.03 0.03 0.03 0.03 0.04 0.03 0.04 0.07 0.11 0.16 0.18 0.19 0.21 0.27 0.29 0.31 0.33 0.36 0.41 0.43
0.00 0.00 0.00 0.00 0.00 0.00 0.00 0.00 0.00 0.00 0.00 0.00 0.00 0.00 0.00 0.00 0.00 0.00 0.00 0.00 0.00 0.00 0.00 0.01 0.03 0.04 0.04 0.04 0.03 0.03 0.03 0.03 0.03 0.04 0.04 0.04 0.06 0.09 0.14 0.17 0.20 0.23 0.27 0.26 0.30 0.34 0.32 0.34 0.36
0.00 0.00 0.00 0.00 0.00 0.00 0.00 0.00 0.00 0.00 0.00 0.00 0.00 0.00 0.00 0.00 0.00 0.00 0.00 0.00 0.00 0.00 0.00 0.01 0.02 0.04 0.04 0.04 0.04 0.03 0.03 0.03 0.04 0.06 0.05 0.05 0.06 0.07 0.09 0.11 0.13 0.16 0.22 0.23 0.26 0.30 0.30 0.34 0.35
0.00 0.00 0.00 0.00 0.00 0.00 0.00 0.00 0.00 0.00 0.00 0.00 0.00 0.00 0.00 0.00 0.00 0.00 0.00 0.00 0.00 0.00 0.00 0.00 0.02 0.03 0.03 0.04 0.04 0.05 0.05 0.04 0.05 0.06 0.07 0.07 0.07 0.09 0.10 0.09 0.08 0.09 0.11 0.16 0.21 0.26 0.30 0.37 0.35
0.00 0.00 0.00 0.00 0.00 0.00 0.00 0.00 0.00 0.00 0.00 0.00 0.00 0.00 0.00 0.00 0.00 0.00 0.00 0.00 0.00 0.00 0.00 0.00 0.01 0.01 0.02 0.03 0.04 0.05 0.06 0.05 0.05 0.06 0.07 0.08 0.08 0.11 0.13 0.12 0.10 0.09 0.09 0.10 0.13 0.20 0.32 0.39 0.34
0.00 0.00 0.00 0.00 0.00 0.00 0.00 0.00 0.00 0.00 0.00 0.00 0.00 0.00 0.00 0.00 0.00 0.00 0.00 0.00 0.00 0.00 0.00 0.00 0.00 0.01 0.01 0.02 0.05 0.07 0.07 0.07 0.07 0.07 0.07 0.07 0.07 0.10 0.14 0.14 0.12 0.11 0.10 0.10 0.10 0.13 0.23 0.32 0.33
0.00 0.00 0.00 0.00 0.00 0.00 0.00 0.00 0.00 0.00 0.00 0.00 0.00 0.00 0.00 0.00 0.00 0.00 0.00 0.00 0.00 0.00 0.00 0.00 0.00 0.00 0.00 0.01 0.03 0.07 0.07 0.07 0.08 0.08 0.06 0.06 0.06 0.07 0.09 0.09 0.09 0.10 0.11 0.11 0.10 0.10 0.15 0.20 0.25
0.00 0.00 0.00 0.00 0.00 0.00 0.00 0.00 0.00 0.00 0.00 0.00 0.00 0.00 0.00 0.00 0.00 0.00 0.00 0.00 0.00 0.00 0.00 0.00 0.00 0.00 0.00 0.00 0.02 0.05 0.06 0.06 0.06 0.06 0.05 0.06 0.05 0.05 0.05 0.05 0.06 0.08 0.09 0.09 0.11 0.11 0.11 0.11 0.11
0.00 0.00 0.00 0.00 0.00 0.00 0.00 0.00 0.00 0.00 0.00 0.00 0.00 0.00 0.00 0.00 0.00 0.00 0.00 0.00 0.00 0.00 0.00 0.00 0.00 0.00 0.00 0.00 0.01 0.02 0.03 0.04 0.05 0.04 0.05 0.06 0.06 0.06 0.07 0.05 0.06 0.07 0.07 0.08 0.11 0.12 0.09 0.09 0.08
0.00 0.00 0.00 0.00 0.00 0.00 0.00 0.00 0.00 0.00 0.00 0.00 0.00 0.00 0.00 0.00 0.00 0.00 0.00 0.00 0.00 0.00 0.00 0.00 0.00 0.00 0.00 0.00 0.00 0.01 0.01 0.04 0.05 0.05 0.05 0.08 0.10 0.11 0.09 0.07 0.06 0.06 0.06 0.08 0.10 0.12 0.12 0.15 0.20
0.00 0.00 0.00 0.00 0.00 0.00 0.00 0.00 0.00 0.00 0.00 0.00 0.00 0.00 0.00 0.00 0.00 0.00 0.00 0.00 0.00 0.00 0.00 0.00 0.00 0.00 0.00 0.00 0.00 0.00 0.00 0.02 0.03 0.04 0.06 0.07 0.09 0.09 0.08 0.07 0.06 0.05 0.06 0.07 0.08 0.10 0.12 0.13 0.16
0.00 0.00 0.00 0.00 0.00 0.00 0.00 0.00 0.00 0.00 0.00 0.00 0.00 0.00 0.00 0.00 0.00 0.00 0.00 0.00 0.00 0.00 0.00 0.00 0.00 0.00 0.00 0.00 0.00 0.00 0.00 0.01 0.02 0.03 0.04 0.04 0.05 0.06 0.06 0.06 0.05 0.04 0.05 0.06 0.06 0.07 0.08 0.10 0.13
0.00 0.00 0.00 0.00 0.00 0.00 0.00 0.00 0.00 0.00 0.00 0.00 0.00 0.00 0.00 0.00 0.00 0.00 0.00 0.00 0.00 0.00 0.00 0.00 0.00 0.00 0.00 0.00 0.00 0.00 0.00 0.00 0.01 0.02 0.02 0.02 0.02 0.03 0.03 0.03 0.03 0.02 0.02 0.03 0.03 0.04 0.05 0.06 0.08
0.00 0.00 0.00 0.00 0.00 0.00 0.00 0.00 0.00 0.00 0.00 0.00 0.00 0.00 0.00 0.00 0.00 0.00 0.00 0.00 0.00 0.00 0.00 0.00 0.00 0.00 0.00 0.00 0.00 0.00 0.00 0.00 0.00 0.00 0.00 0.00 0.00 0.01 0.01 0.01 0.01 0.01 0.02 0.03 0.03 0.03 0.03 0.04 0.06
0.00 0.00 0.00 0.00 0.00 0.00 0.00 0.00 0.00 0.00 0.00 0.00 0.00 0.00 0.00 0.00 0.00 0.00 0.00 0.00 0.00 0.00 0.00 0.00 0.00 0.00 0.00 0.00 0.00 0.00 0.00 0.00 0.00 0.00 0.00 0.00 0.01 0.01 0.02 0.02 0.02 0.01 0.02 0.05 0.06 0.06 0.06 0.06 0.07
0.00 0.00 0.00 0.00 0.00 0.00 0.00 0.00 0.00 0.00 0.00 0.00 0.00 0.00 0.00 0.00 0.00 0.00 0.00 0.00 0.00 0.00 0.00 0.00 0.00 0.00 0.00 0.00 0.00 0.00 0.00 0.00 0.00 0.00 0.00 0.00 0.01 0.02 0.02 0.03 0.04 0.05 0.06 0.09 0.11 0.10 0.12 0.11 0.10
0.00 0.00 0.00 0.00 0.00 0.00 0.00 0.00 0.00 0.00 0.00 0.00 0.00 0.00 0.00 0.00 0.00 0.00 0.00 0.00 0.00 0.00 0.00 0.00 0.00 0.00 0.00 0.00 0.00 0.00 0.00 0.00 0.00 0.00 0.00 0.00 0.01 0.01 0.01 0.01 0.03 0.06 0.10 0.13 0.15 0.13 0.13 0.15 0.17
0.00 0.00 0.00 0.00 0.00 0.00 0.00 0.00 0.00 0.00 0.00 0.00 0.00 0.00 0.00 0.00 0.00 0.00 0.00 0.00 0.00 0.00 0.00 0.00 0.00 0.00 0.00 0.00 0.00 0.00 0.00 0.00 0.00 0.00 0.00 0.00 0.00 0.00 0.00 0.01 0.01 0.01 0.03 0.06 0.08 0.11 0.11 0.11 0.12
0.00 0.00 0.00 0.00 0.00 0.00 0.00 0.00 0.00 0.00 0.00 0.00 0.00 0.00 0.00 0.00 0.00 0.00 0.00 0.00 0.00 0.00 0.00 0.00 0.00 0.00 0.00 0.00 0.00 0.00 0.00 0.00 0.00 0.00 0.00 0.00 0.00 0.00 0.00 0.00 0.00 0.00 0.01 0.01 0.01 0.03 0.06 0.06 0.06
0.00 0.00 0.00 0.00 0.00 0.00 0.00 0.00 0.00 0.00 0.00 0.00 0.00 0.00 0.00 0.00 0.00 0.00 0.00 0.00 0.00 0.00 0.00 0.00 0.00 0.00 0.00 0.00 0.00 0.00 0.00 0.00 0.00 0.00 0.00 0.00 0.00 0.00 0.00 0.00 0.00 0.00 0.00 0.01 0.01 0.02 0.04 0.05 0.04
0.00 0.00 0.00 0.00 0.00 0.00 0.00 0.00 0.00 0.00 0.00 0.00 0.00 0.00 0.00 0.00 0.00 0.00 0.00 0.00 0.00 0.00 0.00 0.00 0.00 0.00 0.00 0.00 0.00 0.00 0.00 0.00 0.00 0.00 0.00 0.00 0.00 0.00 0.00 0.00 0.00 0.01 0.01 0.01 0.01 0.02 0.03 0.06 0.07
0.00 0.00 0.00 0.00 0.00 0.00 0.00 0.00 0.00 0.00 0.00 0.00 0.00 0.00 0.00 0.00 0.00 0.00 0.00 0.00 0.00 0.00 0.00 0.00 0.00 0.00 0.00 0.00 0.00 0.00 0.00 0.00 0.00 0.00 0.00 0.00 0.00 0.00 0.00 0.00 0.01 0.01 0.01 0.02 0.02 0.03 0.04 0.06 0.09
0.00 0.00 0.00 0.00 0.00 0.00 0.00 0.00 0.00 0.00 0.00 0.00 0.00 0.00 0.00 0.00 0.00 0.00 0.00 0.00 0.00 0.00 0.00 0.00 0.00 0.00 0.00 0.00 0.00 0.00 0.00 0.00 0.00 0.00 0.00 0.00 0.00 0.01 0.01 0.01 0.01 0.02 0.02 0.03 0.04 0.05 0.06 0.07 0.10
0.00 0.00 0.00 0.00 0.00 0.00 0.00 0.00 0.00 0.00 0.00 0.00 0.00 0.00 0.00 0.00 0.00 0.00 0.00 0.00 0.00 0.00 0.00 0.00 0.00 0.00 0.00 0.00 0.00 0.00 0.00 0.00 0.00 0.00 0.00 0.00 0.01 0.01 0.01 0.02 0.03 0.04 0.04 0.05 0.06 0.09 0.10 0.12 0.15
0.00 0.00 0.00 0.00 0.00 0.00 0.00 0.00 0.00 0.00 0.00 0.00 0.00 0.00 0.00 0.00 0.00 0.00 0.00 0.00 0.00 0.00 0.00 0.00 0.00 0.00 0.00 0.00 0.00 0.00 0.00 0.00 0.00 0.00 0.00 0.01 0.01 0.01 0.02 0.03 0.04 0.05 0.06 0.07 0.10 0.12 0.14 0.17 0.19
0.00 0.00 0.00 0.00 0.00 0.00 0.00 0.00 0.00 0.00 0.00 0.00 0.00 0.00 0.00 0.00 0.00 0.00 0.00 0.00 0.00 0.00 0.00 0.00 0.00 0.00 0.00 0.00 0.00 0.00 0.00 0.00 0.00 0.00 0.00 0.01 0.01 0.01 0.02 0.04 0.07 0.09 0.10 0.11 0.13 0.16 0.18 0.20 0.22
0.00 0.00 0.00 0.00 0.00 0.00 0.00 0.00 0.00 0.00 0.00 0.00 0.00 0.00 0.00 0.00 0.00 0.00 0.00 0.00 0.00 0.00 0.00 0.00 0.00 0.00 0.00 0.01 0.01 0.01 0.01 0.01 0.01 0.01 0.01 0.02 0.02 0.03 0.04 0.06 0.09 0.12 0.15 0.17 0.20 0.21 0.21 0.23 0.24
0.00 0.00 0.00 0.00 0.00 0.00 0.00 0.00 0.00 0.00 0.00 0.00 0.00 0.00 0.00 0.00 0.00 0.00 0.00 0.00 0.00 0.00 0.00 0.00 0.00 0.01 0.01 0.01 0.01 0.01 0.02 0.02 0.03 0.04 0.04 0.04 0.05 0.05 0.07 0.08 0.09 0.11 0.16 0.20 0.23 0.25 0.27 0.30 0.30
0.00 0.00 0.00 0.00 0.00 0.00 0.01 0.00 0.00 0.00 0.00 0.00 0.00 0.00 0.00 0.00 0.00 0.00 0.00 0.00 0.00 0.00 0.00 0.01 0.01 0.02 0.02 0.02 0.02 0.02 0.03 0.03 0.04 0.05 0.07 0.08 0.09 0.10 0.11 0.12 0.14 0.15 0.17 0.22 0.27 0.30 0.31 0.36 0.41

GEFSSGP_prec_meanprecacc_084.txt.gz
Total_Precipitation_Accumulation
0.00 0.00 0.00 0.00 0.00 0.00 0.00 0.00 0.00 0.00 0.00 0.00 0.00 0.00 0.00 0.00 0.00 0.00 0.00 0.00 0.01 0.02 0.03 0.03 0.05 0.05 0.04 0.04 0.03 0.03 0.03 0.03 0.04 0.04 0.05 0.07 0.09 0.11 0.15 0.16 0.18 0.18 0.22 0.24 0.21 0.24 0.32 0.37 0.44
0.00 0.00 0.00 0.00 0.00 0.00 0.00 0.00 0.00 0.00 0.00 0.00 0.00 0.00 0.00 0.00 0.00 0.00 0.00 0.00 0.00 0.01 0.01 0.02 0.04 0.04 0.04 0.04 0.03 0.03 0.03 0.03 0.03 0.04 0.03 0.04 0.07 0.11 0.16 0.18 0.19 0.21 0.28 0.30 0.32 0.34 0.36 0.41 0.43
0.00 0.00 0.00 0.00 0.00 0.00 0.00 0.00 0.00 0.00 0.00 0.00 0.00 0.00 0.00 0.00 0.00 0.00 0.00 0.00 0.00 0.00 0.00 0.01 0.03 0.04 0.04 0.04 0.03 0.03 0.03 0.03 0.03 0.04 0.04 0.04 0.06 0.09 0.14 0.17 0.20 0.23 0.27 0.27 0.30 0.34 0.32 0.34 0.36
0.00 0.00 0.00 0.00 0.00 0.00 0.00 0.00 0.00 0.00 0.00 0.00 0.00 0.00 0.00 0.00 0.00 0.00 0.00 0.00 0.00 0.00 0.00 0.01 0.02 0.04 0.04 0.04 0.04 0.03 0.03 0.03 0.04 0.06 0.05 0.05 0.06 0.07 0.09 0.11 0.13 0.16 0.22 0.23 0.26 0.30 0.30 0.34 0.35
0.00 0.00 0.00 0.00 0.00 0.00 0.00 0.00 0.00 0.00 0.00 0.00 0.00 0.00 0.00 0.00 0.00 0.00 0.00 0.00 0.00 0.00 0.00 0.00 0.02 0.03 0.03 0.04 0.04 0.05 0.05 0.04 0.05 0.06 0.07 0.07 0.07 0.09 0.10 0.09 0.08 0.09 0.11 0.16 0.21 0.26 0.30 0.37 0.35
0.00 0.00 0.00 0.00 0.00 0.00 0.00 0.00 0.00 0.00 0.00 0.00 0.00 0.00 0.00 0.00 0.00 0.00 0.00 0.00 0.00 0.00 0.00 0.00 0.01 0.02 0.02 0.03 0.04 0.05 0.06 0.05 0.05 0.06 0.07 0.08 0.08 0.11 0.13 0.12 0.10 0.09 0.09 0.10 0.13 0.20 0.32 0.39 0.34
0.00 0.00 0.00 0.00 0.00 0.00 0.00 0.00 0.00 0.00 0.00 0.00 0.00 0.00 0.00 0.00 0.00 0.00 0.00 0.00 0.00 0.00 0.00 0.00 0.00 0.01 0.01 0.02 0.05 0.07 0.07 0.07 0.07 0.07 0.07 0.07 0.07 0.10 0.14 0.14 0.12 0.11 0.10 0.10 0.10 0.13 0.23 0.32 0.33
0.00 0.00 0.00 0.00 0.00 0.00 0.00 0.00 0.00 0.00 0.00 0.00 0.00 0.00 0.00 0.00 0.00 0.00 0.00 0.00 0.00 0.00 0.00 0.00 0.00 0.00 0.00 0.01 0.03 0.07 0.07 0.07 0.08 0.08 0.06 0.06 0.06 0.07 0.09 0.09 0.09 0.10 0.11 0.11 0.10 0.10 0.15 0.20 0.25
0.00 0.00 0.00 0.00 0.00 0.00 0.00 0.00 0.00 0.00 0.00 0.00 0.00 0.00 0.00 0.00 0.00 0.00 0.00 0.00 0.00 0.00 0.00 0.00 0.00 0.00 0.00 0.00 0.02 0.05 0.06 0.06 0.06 0.06 0.05 0.06 0.05 0.05 0.05 0.05 0.06 0.08 0.09 0.09 0.11 0.11 0.11 0.11 0.11
0.00 0.00 0.00 0.00 0.00 0.00 0.00 0.00 0.00 0.00 0.00 0.00 0.00 0.00 0.00 0.00 0.00 0.00 0.00 0.00 0.00 0.00 0.00 0.00 0.00 0.00 0.00 0.00 0.01 0.02 0.03 0.04 0.05 0.04 0.05 0.06 0.06 0.06 0.07 0.05 0.06 0.07 0.07 0.08 0.11 0.12 0.09 0.09 0.08
0.00 0.00 0.00 0.00 0.00 0.00 0.00 0.00 0.00 0.00 0.00 0.00 0.00 0.00 0.00 0.00 0.00 0.00 0.00 0.00 0.00 0.00 0.00 0.00 0.00 0.00 0.00 0.00 0.00 0.01 0.01 0.04 0.05 0.05 0.05 0.08 0.10 0.11 0.09 0.07 0.06 0.06 0.06 0.08 0.10 0.12 0.12 0.15 0.20
0.00 0.00 0.00 0.00 0.00 0.00 0.00 0.00 0.00 0.00 0.00 0.00 0.00 0.00 0.00 0.00 0.00 0.00 0.00 0.00 0.00 0.00 0.00 0.00 0.00 0.00 0.00 0.00 0.00 0.00 0.00 0.02 0.03 0.04 0.06 0.07 0.09 0.09 0.08 0.07 0.06 0.05 0.06 0.07 0.08 0.10 0.12 0.13 0.16
0.00 0.00 0.00 0.00 0.00 0.00 0.00 0.00 0.00 0.00 0.00 0.00 0.00 0.00 0.00 0.00 0.00 0.00 0.00 0.00 0.00 0.00 0.00 0.00 0.00 0.00 0.00 0.00 0.00 0.00 0.00 0.01 0.02 0.03 0.04 0.04 0.05 0.06 0.06 0.06 0.05 0.04 0.05 0.06 0.06 0.07 0.08 0.10 0.13
0.00 0.00 0.00 0.00 0.00 0.00 0.00 0.00 0.00 0.00 0.00 0.00 0.00 0.00 0.00 0.00 0.00 0.00 0.00 0.00 0.00 0.00 0.00 0.00 0.00 0.00 0.00 0.00 0.00 0.00 0.00 0.00 0.01 0.02 0.02 0.02 0.02 0.03 0.03 0.03 0.03 0.02 0.02 0.03 0.03 0.04 0.05 0.06 0.08
0.00 0.00 0.00 0.00 0.00 0.00 0.00 0.00 0.00 0.00 0.00 0.00 0.00 0.00 0.00 0.00 0.00 0.00 0.00 0.00 0.00 0.00 0.00 0.00 0.00 0.00 0.00 0.00 0.00 0.00 0.00 0.00 0.00 0.00 0.00 0.00 0.00 0.01 0.01 0.01 0.01 0.01 0.02 0.03 0.03 0.03 0.03 0.04 0.06
0.00 0.00 0.00 0.00 0.00 0.00 0.00 0.00 0.00 0.00 0.00 0.00 0.00 0.00 0.00 0.00 0.00 0.00 0.00 0.00 0.00 0.00 0.00 0.00 0.00 0.00 0.00 0.00 0.00 0.00 0.00 0.00 0.00 0.00 0.00 0.00 0.01 0.01 0.02 0.02 0.02 0.01 0.02 0.05 0.06 0.06 0.06 0.06 0.07
0.00 0.00 0.00 0.00 0.00 0.00 0.00 0.00 0.00 0.00 0.00 0.00 0.00 0.00 0.00 0.00 0.00 0.00 0.00 0.00 0.00 0.00 0.00 0.00 0.00 0.00 0.00 0.00 0.00 0.00 0.00 0.00 0.00 0.00 0.00 0.00 0.01 0.02 0.02 0.03 0.04 0.05 0.06 0.09 0.11 0.10 0.12 0.11 0.10
0.00 0.00 0.00 0.00 0.00 0.00 0.00 0.00 0.00 0.00 0.00 0.00 0.00 0.00 0.00 0.00 0.00 0.00 0.00 0.00 0.00 0.00 0.00 0.00 0.00 0.00 0.00 0.00 0.00 0.00 0.00 0.00 0.00 0.00 0.00 0.00 0.01 0.01 0.01 0.01 0.03 0.06 0.10 0.13 0.15 0.13 0.13 0.15 0.17
0.00 0.00 0.00 0.00 0.00 0.00 0.00 0.00 0.00 0.00 0.00 0.00 0.00 0.00 0.00 0.00 0.00 0.00 0.00 0.00 0.00 0.00 0.00 0.00 0.00 0.00 0.00 0.00 0.00 0.00 0.00 0.00 0.00 0.00 0.00 0.00 0.00 0.00 0.00 0.01 0.01 0.01 0.03 0.06 0.08 0.11 0.11 0.11 0.12
0.00 0.00 0.00 0.00 0.00 0.00 0.00 0.00 0.00 0.00 0.00 0.00 0.00 0.00 0.00 0.00 0.00 0.00 0.00 0.00 0.00 0.00 0.00 0.00 0.00 0.00 0.00 0.00 0.00 0.00 0.00 0.00 0.00 0.00 0.00 0.00 0.00 0.00 0.00 0.00 0.00 0.00 0.01 0.01 0.01 0.03 0.06 0.06 0.06
0.00 0.00 0.00 0.00 0.00 0.00 0.00 0.00 0.00 0.00 0.00 0.00 0.00 0.00 0.00 0.00 0.00 0.00 0.00 0.00 0.00 0.00 0.00 0.00 0.00 0.00 0.00 0.00 0.00 0.00 0.00 0.00 0.00 0.00 0.00 0.00 0.00 0.00 0.00 0.00 0.00 0.00 0.00 0.01 0.01 0.02 0.04 0.05 0.04
0.00 0.00 0.00 0.00 0.00 0.00 0.00 0.00 0.00 0.00 0.00 0.00 0.00 0.00 0.00 0.00 0.00 0.00 0.00 0.00 0.00 0.00 0.00 0.00 0.00 0.00 0.00 0.00 0.00 0.00 0.00 0.00 0.00 0.00 0.00 0.00 0.00 0.00 0.00 0.00 0.00 0.01 0.01 0.01 0.01 0.02 0.03 0.06 0.07
0.00 0.00 0.00 0.00 0.00 0.00 0.00 0.00 0.00 0.00 0.00 0.00 0.00 0.00 0.00 0.00 0.00 0.00 0.00 0.00 0.00 0.00 0.00 0.00 0.00 0.00 0.00 0.00 0.00 0.00 0.00 0.00 0.00 0.00 0.00 0.00 0.00 0.00 0.00 0.00 0.01 0.01 0.01 0.02 0.02 0.03 0.04 0.06 0.09
0.00 0.00 0.00 0.00 0.00 0.00 0.00 0.00 0.00 0.00 0.00 0.00 0.00 0.00 0.00 0.00 0.00 0.00 0.00 0.00 0.00 0.00 0.00 0.00 0.00 0.00 0.00 0.00 0.00 0.00 0.00 0.00 0.00 0.00 0.00 0.00 0.00 0.01 0.01 0.01 0.01 0.02 0.02 0.03 0.04 0.05 0.06 0.08 0.10
0.00 0.00 0.00 0.00 0.00 0.00 0.00 0.00 0.00 0.00 0.00 0.00 0.00 0.00 0.00 0.00 0.00 0.00 0.00 0.00 0.00 0.00 0.00 0.00 0.00 0.00 0.00 0.00 0.00 0.00 0.00 0.00 0.00 0.00 0.00 0.00 0.01 0.01 0.01 0.02 0.03 0.04 0.04 0.05 0.06 0.09 0.10 0.12 0.15
0.00 0.00 0.00 0.00 0.00 0.00 0.00 0.00 0.00 0.00 0.00 0.00 0.00 0.00 0.00 0.00 0.00 0.00 0.00 0.00 0.00 0.00 0.00 0.00 0.00 0.00 0.00 0.00 0.00 0.00 0.00 0.00 0.00 0.00 0.00 0.01 0.01 0.01 0.02 0.03 0.04 0.05 0.06 0.07 0.10 0.12 0.14 0.17 0.19
0.00 0.00 0.00 0.00 0.00 0.00 0.00 0.00 0.00 0.00 0.00 0.00 0.00 0.00 0.00 0.00 0.00 0.00 0.00 0.00 0.00 0.00 0.00 0.00 0.00 0.00 0.00 0.00 0.00 0.00 0.00 0.00 0.00 0.00 0.00 0.01 0.01 0.01 0.02 0.04 0.07 0.09 0.10 0.11 0.13 0.16 0.18 0.20 0.22
0.00 0.00 0.00 0.00 0.00 0.00 0.00 0.00 0.00 0.00 0.00 0.00 0.00 0.00 0.00 0.00 0.00 0.00 0.00 0.00 0.00 0.00 0.00 0.00 0.00 0.00 0.00 0.01 0.01 0.01 0.01 0.01 0.01 0.01 0.01 0.02 0.02 0.03 0.04 0.06 0.09 0.12 0.15 0.17 0.20 0.21 0.21 0.23 0.24
0.00 0.00 0.00 0.00 0.00 0.00 0.00 0.00 0.00 0.00 0.00 0.00 0.00 0.00 0.00 0.00 0.00 0.00 0.00 0.00 0.00 0.00 0.00 0.00 0.00 0.01 0.01 0.01 0.01 0.01 0.02 0.02 0.03 0.04 0.04 0.04 0.05 0.05 0.07 0.08 0.09 0.11 0.16 0.20 0.24 0.25 0.28 0.31 0.31
0.00 0.00 0.00 0.00 0.00 0.00 0.01 0.00 0.00 0.00 0.00 0.00 0.00 0.00 0.00 0.00 0.00 0.00 0.00 0.00 0.00 0.00 0.00 0.01 0.01 0.02 0.02 0.02 0.02 0.02 0.03 0.03 0.04 0.05 0.07 0.08 0.09 0.10 0.11 0.12 0.14 0.15 0.18 0.23 0.27 0.30 0.32 0.37 0.42

GEFSSGP_prec_meanprecacc_090.txt.gz
Total_Precipitation_Accumulation
0.00 0.00 0.00 0.00 0.00 0.00 0.00 0.00 0.00 0.00 0.00 0.00 0.00 0.00 0.00 0.00 0.00 0.00 0.00 0.00 0.01 0.02 0.03 0.03 0.05 0.05 0.04 0.04 0.03 0.03 0.03 0.03 0.04 0.04 0.05 0.07 0.09 0.11 0.15 0.16 0.18 0.18 0.22 0.24 0.22 0.25 0.33 0.38 0.44
0.00 0.00 0.00 0.00 0.00 0.00 0.00 0.00 0.00 0.00 0.00 0.00 0.00 0.00 0.00 0.00 0.00 0.00 0.00 0.00 0.00 0.01 0.01 0.02 0.04 0.05 0.04 0.04 0.03 0.03 0.03 0.03 0.03 0.04 0.03 0.04 0.07 0.11 0.16 0.19 0.19 0.21 0.28 0.30 0.32 0.34 0.37 0.41 0.44
0.00 0.00 0.00 0.00 0.00 0.00 0.00 0.00 0.00 0.00 0.00 0.00 0.00 0.00 0.00 0.00 0.00 0.00 0.00 0.00 0.00 0.00 0.00 0.01 0.03 0.04 0.04 0.04 0.03 0.03 0.03 0.03 0.03 0.04 0.04 0.04 0.06 0.09 0.14 0.17 0.20 0.23 0.27 0.27 0.30 0.34 0.32 0.34 0.36
0.00 0.00 0.00 0.00 0.00 0.00 0.00 0.00 0.00 0.00 0.00 0.00 0.00 0.00 0.00 0.00 0.00 0.00 0.00 0.00 0.00 0.00 0.00 0.01 0.02 0.04 0.04 0.04 0.04 0.03 0.03 0.03 0.04 0.06 0.05 0.05 0.06 0.07 0.09 0.11 0.13 0.16 0.22 0.23 0.26 0.30 0.30 0.34 0.35
0.00 0.00 0.00 0.00 0.00 0.00 0.00 0.00 0.00 0.00 0.00 0.00 0.00 0.00 0.00 0.00 0.00 0.00 0.00 0.00 0.00 0.00 0.00 0.00 0.02 0.03 0.03 0.04 0.04 0.05 0.05 0.04 0.05 0.06 0.07 0.07 0.07 0.09 0.10 0.09 0.08 0.09 0.11 0.16 0.21 0.26 0.30 0.37 0.35
0.00 0.00 0.00 0.00 0.00 0.00 0.00 0.00 0.00 0.00 0.00 0.00 0.00 0.00 0.00 0.00 0.00 0.00 0.00 0.00 0.00 0.00 0.00 0.00 0.01 0.02 0.02 0.03 0.05 0.05 0.06 0.05 0.05 0.06 0.07 0.08 0.08 0.11 0.13 0.12 0.10 0.09 0.09 0.10 0.13 0.20 0.32 0.39 0.34
0.00 0.00 0.00 0.00 0.00 0.00 0.00 0.00 0.00 0.00 0.00 0.00 0.00 0.00 0.00 0.00 0.00 0.00 0.00 0.00 0.00 0.00 0.00 0.00 0.00 0.01 0.01 0.02 0.05 0.07 0.07 0.07 0.07 0.07 0.07 0.07 0.07 0.10 0.14 0.14 0.12 0.11 0.10 0.10 0.10 0.13 0.23 0.32 0.33
0.00 0.00 0.00 0.00 0.00 0.00 0.00 0.00 0.00 0.00 0.00 0.00 0.00 0.00 0.00 0.00 0.00 0.00 0.00 0.00 0.00 0.00 0.00 0.00 0.00 0.00 0.00 0.01 0.03 0.07 0.07 0.07 0.08 0.08 0.06 0.06 0.06 0.07 0.09 0.09 0.09 0.10 0.11 0.11 0.10 0.10 0.15 0.20 0.25
0.00 0.00 0.00 0.00 0.00 0.00 0.00 0.00 0.00 0.00 0.00 0.00 0.00 0.00 0.00 0.00 0.00 0.00 0.00 0.00 0.00 0.00 0.00 0.00 0.00 0.00 0.00 0.00 0.02 0.05 0.06 0.06 0.06 0.06 0.05 0.06 0.05 0.05 0.05 0.05 0.06 0.08 0.09 0.09 0.11 0.11 0.11 0.11 0.11
0.00 0.00 0.00 0.00 0.00 0.00 0.00 0.00 0.00 0.00 0.00 0.00 0.00 0.00 0.00 0.00 0.00 0.00 0.00 0.00 0.00 0.00 0.00 0.00 0.00 0.00 0.00 0.00 0.01 0.02 0.03 0.04 0.05 0.04 0.05 0.06 0.06 0.06 0.07 0.05 0.06 0.07 0.07 0.08 0.11 0.12 0.09 0.09 0.08
0.00 0.00 0.00 0.00 0.00 0.00 0.00 0.00 0.00 0.00 0.00 0.00 0.00 0.00 0.00 0.00 0.00 0.00 0.00 0.00 0.00 0.00 0.00 0.00 0.00 0.00 0.00 0.00 0.00 0.01 0.01 0.04 0.05 0.05 0.05 0.08 0.10 0.11 0.09 0.07 0.06 0.06 0.06 0.08 0.10 0.12 0.12 0.15 0.20
0.00 0.00 0.00 0.00 0.00 0.00 0.00 0.00 0.00 0.00 0.00 0.00 0.00 0.00 0.00 0.00 0.00 0.00 0.00 0.00 0.00 0.00 0.00 0.00 0.00 0.00 0.00 0.00 0.00 0.00 0.00 0.02 0.03 0.04 0.06 0.07 0.09 0.09 0.08 0.07 0.06 0.05 0.06 0.07 0.08 0.10 0.12 0.13 0.16
0.00 0.00 0.00 0.00 0.00 0.00 0.00 0.00 0.00 0.00 0.00 0.00 0.00 0.00 0.00 0.00 0.00 0.00 0.00 0.00 0.00 0.00 0.00 0.00 0.00 0.00 0.00 0.00 0.00 0.00 0.00 0.01 0.02 0.03 0.04 0.04 0.05 0.06 0.06 0.06 0.05 0.04 0.05 0.06 0.06 0.07 0.08 0.10 0.13
0.00 0.00 0.00 0.00 0.00 0.00 0.00 0.00 0.00 0.00 0.00 0.00 0.00 0.00 0.00 0.00 0.00 0.00 0.00 0.00 0.00 0.00 0.00 0.00 0.00 0.00 0.00 0.00 0.00 0.00 0.00 0.00 0.01 0.02 0.02 0.02 0.02 0.03 0.03 0.03 0.03 0.02 0.02 0.03 0.03 0.04 0.05 0.06 0.08
0.00 0.00 0.00 0.00 0.00 0.00 0.00 0.00 0.00 0.00 0.00 0.00 0.00 0.00 0.00 0.00 0.00 0.00 0.00 0.00 0.00 0.00 0.00 0.00 0.00 0.00 0.00 0.00 0.00 0.00 0.00 0.00 0.00 0.00 0.00 0.00 0.00 0.01 0.01 0.01 0.01 0.01 0.02 0.03 0.03 0.03 0.03 0.04 0.06
0.00 0.00 0.00 0.00 0.00 0.00 0.00 0.00 0.00 0.00 0.00 0.00 0.00 0.00 0.00 0.00 0.00 0.00 0.00 0.00 0.00 0.00 0.00 0.00 0.00 0.00 0.00 0.00 0.00 0.00 0.00 0.00 0.00 0.00 0.00 0.00 0.01 0.01 0.02 0.02 0.02 0.01 0.02 0.05 0.06 0.06 0.06 0.06 0.07
0.00 0.00 0.00 0.00 0.00 0.00 0.00 0.00 0.00 0.00 0.00 0.00 0.00 0.00 0.00 0.00 0.00 0.00 0.00 0.00 0.00 0.00 0.00 0.00 0.00 0.00 0.00 0.00 0.00 0.00 0.00 0.00 0.00 0.00 0.00 0.00 0.01 0.02 0.02 0.03 0.04 0.05 0.06 0.09 0.11 0.10 0.12 0.11 0.10
0.00 0.00 0.00 0.00 0.00 0.00 0.00 0.00 0.00 0.00 0.00 0.00 0.00 0.00 0.00 0.00 0.00 0.00 0.00 0.00 0.00 0.00 0.00 0.00 0.00 0.00 0.00 0.00 0.00 0.00 0.00 0.00 0.00 0.00 0.00 0.00 0.01 0.01 0.01 0.01 0.03 0.06 0.10 0.13 0.15 0.13 0.13 0.15 0.17
0.00 0.00 0.00 0.00 0.00 0.00 0.00 0.00 0.00 0.00 0.00 0.00 0.00 0.00 0.00 0.00 0.00 0.00 0.00 0.00 0.00 0.00 0.00 0.00 0.00 0.00 0.00 0.00 0.00 0.00 0.00 0.00 0.00 0.00 0.00 0.00 0.00 0.00 0.00 0.01 0.01 0.01 0.03 0.06 0.08 0.11 0.11 0.11 0.12
0.00 0.00 0.00 0.00 0.00 0.00 0.00 0.00 0.00 0.00 0.00 0.00 0.00 0.00 0.00 0.00 0.00 0.00 0.00 0.00 0.00 0.00 0.00 0.00 0.00 0.00 0.00 0.00 0.00 0.00 0.00 0.00 0.00 0.00 0.00 0.00 0.00 0.00 0.00 0.00 0.00 0.00 0.01 0.01 0.01 0.03 0.06 0.06 0.06
0.00 0.00 0.00 0.00 0.00 0.00 0.00 0.00 0.00 0.00 0.00 0.00 0.00 0.00 0.00 0.00 0.00 0.00 0.00 0.00 0.00 0.00 0.00 0.00 0.00 0.00 0.00 0.00 0.00 0.00 0.00 0.00 0.00 0.00 0.00 0.00 0.00 0.00 0.00 0.00 0.00 0.00 0.00 0.01 0.01 0.02 0.04 0.05 0.04
0.00 0.00 0.00 0.00 0.00 0.00 0.00 0.00 0.00 0.00 0.00 0.00 0.00 0.00 0.00 0.00 0.00 0.00 0.00 0.00 0.00 0.00 0.00 0.00 0.00 0.00 0.00 0.00 0.00 0.00 0.00 0.00 0.00 0.00 0.00 0.00 0.00 0.00 0.00 0.00 0.00 0.01 0.01 0.01 0.01 0.02 0.03 0.06 0.07
0.00 0.00 0.00 0.00 0.00 0.00 0.00 0.00 0.00 0.00 0.00 0.00 0.00 0.00 0.00 0.00 0.00 0.00 0.00 0.00 0.00 0.00 0.00 0.00 0.00 0.00 0.00 0.00 0.00 0.00 0.00 0.00 0.00 0.00 0.00 0.00 0.00 0.00 0.00 0.00 0.01 0.01 0.01 0.02 0.02 0.03 0.04 0.06 0.09
0.00 0.00 0.00 0.00 0.00 0.00 0.00 0.00 0.00 0.00 0.00 0.00 0.00 0.00 0.00 0.00 0.00 0.00 0.00 0.00 0.00 0.00 0.00 0.00 0.00 0.00 0.00 0.00 0.00 0.00 0.00 0.00 0.00 0.00 0.00 0.00 0.00 0.01 0.01 0.01 0.01 0.02 0.02 0.03 0.04 0.05 0.06 0.08 0.10
0.00 0.00 0.00 0.00 0.00 0.00 0.00 0.00 0.00 0.00 0.00 0.00 0.00 0.00 0.00 0.00 0.00 0.00 0.00 0.00 0.00 0.00 0.00 0.00 0.00 0.00 0.00 0.00 0.00 0.00 0.00 0.00 0.00 0.00 0.00 0.00 0.01 0.01 0.01 0.02 0.03 0.04 0.04 0.05 0.06 0.09 0.10 0.12 0.15
0.00 0.00 0.00 0.00 0.00 0.00 0.00 0.00 0.00 0.00 0.00 0.00 0.00 0.00 0.00 0.00 0.00 0.00 0.00 0.00 0.00 0.00 0.00 0.00 0.00 0.00 0.00 0.00 0.00 0.00 0.00 0.00 0.00 0.00 0.00 0.01 0.01 0.01 0.02 0.03 0.04 0.05 0.06 0.07 0.10 0.12 0.14 0.17 0.19
0.00 0.00 0.00 0.00 0.00 0.00 0.00 0.00 0.00 0.00 0.00 0.00 0.00 0.00 0.00 0.00 0.00 0.00 0.00 0.00 0.00 0.00 0.00 0.00 0.00 0.00 0.00 0.00 0.00 0.00 0.00 0.00 0.00 0.00 0.00 0.01 0.01 0.01 0.02 0.04 0.07 0.09 0.10 0.11 0.13 0.16 0.18 0.20 0.22
0.00 0.00 0.00 0.00 0.00 0.00 0.00 0.00 0.00 0.00 0.00 0.00 0.00 0.00 0.00 0.00 0.00 0.00 0.00 0.00 0.00 0.00 0.00 0.00 0.00 0.00 0.00 0.01 0.01 0.01 0.01 0.01 0.01 0.01 0.01 0.02 0.02 0.03 0.04 0.06 0.09 0.12 0.15 0.17 0.20 0.21 0.21 0.23 0.24
0.00 0.00 0.00 0.00 0.00 0.00 0.00 0.00 0.00 0.00 0.00 0.00 0.00 0.00 0.00 0.00 0.00 0.00 0.00 0.00 0.00 0.00 0.00 0.00 0.00 0.01 0.01 0.01 0.01 0.01 0.02 0.02 0.03 0.04 0.04 0.04 0.05 0.05 0.07 0.08 0.09 0.11 0.16 0.20 0.24 0.25 0.28 0.31 0.31
0.00 0.00 0.00 0.00 0.00 0.00 0.01 0.00 0.00 0.00 0.00 0.00 0.00 0.00 0.00 0.00 0.00 0.00 0.00 0.00 0.00 0.00 0.00 0.01 0.01 0.02 0.02 0.02 0.02 0.02 0.03 0.03 0.04 0.05 0.07 0.08 0.09 0.10 0.11 0.12 0.14 0.15 0.18 0.23 0.27 0.30 0.32 0.37 0.42

GEFSSGP_prec_meanprecacc_096.txt.gz
Total_Precipitation_Accumulation
0.00 0.00 0.00 0.00 0.00 0.00 0.00 0.00 0.00 0.00 0.00 0.00 0.00 0.00 0.00 0.00 0.00 0.00 0.00 0.00 0.01 0.02 0.03 0.03 0.05 0.05 0.05 0.04 0.04 0.03 0.03 0.03 0.04 0.04 0.05 0.07 0.09 0.12 0.15 0.17 0.18 0.19 0.22 0.25 0.22 0.25 0.33 0.38 0.44
0.00 0.00 0.00 0.00 0.00 0.00 0.00 0.00 0.00 0.00 0.00 0.00 0.00 0.00 0.00 0.00 0.00 0.00 0.00 0.00 0.00 0.01 0.01 0.02 0.04 0.05 0.05 0.04 0.04 0.03 0.03 0.03 0.03 0.04 0.03 0.04 0.07 0.12 0.16 0.19 0.19 0.21 0.28 0.30 0.32 0.34 0.37 0.41 0.44
0.00 0.00 0.00 0.00 0.00 0.00 0.00 0.00 0.00 0.00 0.00 0.00 0.00 0.00 0.00 0.00 0.00 0.00 0.00 0.00 0.00 0.00 0.00 0.01 0.03 0.05 0.05 0.04 0.04 0.03 0.03 0.03 0.03 0.04 0.04 0.04 0.06 0.09 0.14 0.17 0.20 0.23 0.27 0.27 0.30 0.34 0.32 0.34 0.36
0.00 0.00 0.00 0.00 0.00 0.00 0.00 0.00 0.00 0.00 0.00 0.00 0.00 0.00 0.00 0.00 0.00 0.00 0.00 0.00 0.00 0.00 0.00 0.01 0.03 0.04 0.05 0.04 0.04 0.03 0.03 0.03 0.04 0.06 0.05 0.05 0.06 0.07 0.09 0.11 0.13 0.16 0.22 0.23 0.26 0.30 0.30 0.34 0.35
0.00 0.00 0.00 0.00 0.00 0.00 0.00 0.00 0.00 0.00 0.00 0.00 0.00 0.00 0.00 0.00 0.00 0.00 0.00 0.00 0.00 0.00 0.00 0.00 0.02 0.03 0.04 0.04 0.05 0.05 0.05 0.05 0.05 0.06 0.08 0.07 0.07 0.09 0.10 0.09 0.08 0.09 0.11 0.16 0.21 0.26 0.30 0.37 0.35
0.00 0.00 0.00 0.00 0.00 0.00 0.00 0.00 0.00 0.00 0.00 0.00 0.00 0.00 0.00 0.00 0.00 0.00 0.00 0.00 0.00 0.00 0.00 0.00 0.01 0.02 0.03 0.04 0.05 0.06 0.06 0.06 0.05 0.06 0.07 0.08 0.08 0.11 0.13 0.12 0.10 0.09 0.09 0.10 0.13 0.20 0.32 0.39 0.34
0.00 0.00 0.00 0.00 0.00 0.00 0.00 0.00 0.00 0.00 0.00 0.00 0.00 0.00 0.00 0.00 0.00 0.00 0.00 0.00 0.00 0.00 0.00 0.00 0.00 0.01 0.02 0.03 0.06 0.07 0.08 0.08 0.07 0.07 0.07 0.07 0.07 0.10 0.14 0.14 0.12 0.11 0.10 0.10 0.10 0.13 0.23 0.32 0.33
0.00 0.00 0.00 0.00 0.00 0.00 0.00 0.00 0.00 0.00 0.00 0.00 0.00 0.00 0.00 0.00 0.00 0.00 0.00 0.00 0.00 0.00 0.00 0.00 0.00 0.00 0.01 0.01 0.04 0.07 0.08 0.08 0.08 0.08 0.06 0.06 0.06 0.07 0.09 0.09 0.09 0.10 0.11 0.11 0.10 0.10 0.15 0.20 0.25
0.00 0.00 0.00 0.00 0.00 0.00 0.00 0.00 0.00 0.00 0.00 0.00 0.00 0.00 0.00 0.00 0.00 0.00 0.00 0.00 0.00 0.00 0.00 0.00 0.00 0.00 0.00 0.00 0.02 0.05 0.07 0.06 0.06 0.06 0.06 0.06 0.05 0.05 0.05 0.05 0.06 0.08 0.09 0.09 0.11 0.11 0.11 0.11 0.11
0.00 0.00 0.00 0.00 0.00 0.00 0.00 0.00 0.00 0.00 0.00 0.00 0.00 0.00 0.00 0.00 0.00 0.00 0.00 0.00 0.00 0.00 0.00 0.00 0.00 0.00 0.00 0.00 0.01 0.02 0.03 0.04 0.05 0.05 0.05 0.06 0.06 0.06 0.07 0.05 0.06 0.07 0.07 0.08 0.11 0.12 0.09 0.09 0.08
0.00 0.00 0.00 0.00 0.00 0.00 0.00 0.00 0.00 0.00 0.00 0.00 0.00 0.00 0.00 0.00 0.00 0.00 0.00 0.00 0.00 0.00 0.00 0.00 0.00 0.00 0.00 0.00 0.00 0.01 0.02 0.04 0.05 0.05 0.05 0.08 0.10 0.11 0.09 0.07 0.06 0.06 0.06 0.08 0.10 0.12 0.12 0.15 0.20
0.00 0.00 0.00 0.00 0.00 0.00 0.00 0.00 0.00 0.00 0.00 0.00 0.00 0.00 0.00 0.00 0.00 0.00 0.00 0.00 0.00 0.00 0.00 0.00 0.00 0.00 0.00 0.00 0.00 0.00 0.00 0.02 0.03 0.04 0.06 0.07 0.09 0.09 0.08 0.07 0.06 0.05 0.06 0.07 0.08 0.10 0.12 0.13 0.16
0.00 0.00 0.00 0.00 0.00 0.00 0.00 0.00 0.00 0.00 0.00 0.00 0.00 0.00 0.00 0.00 0.00 0.00 0.00 0.00 0.00 0.00 0.00 0.00 0.00 0.00 0.00 0.00 0.00 0.00 0.00 0.01 0.02 0.03 0.04 0.04 0.05 0.06 0.06 0.06 0.05 0.04 0.05 0.06 0.06 0.07 0.08 0.10 0.13
0.00 0.00 0.00 0.00 0.00 0.00 0.00 0.00 0.00 0.00 0.00 0.00 0.00 0.00 0.00 0.00 0.00 0.00 0.00 0.00 0.00 0.00 0.00 0.00 0.00 0.00 0.00 0.00 0.00 0.00 0.00 0.00 0.01 0.02 0.02 0.02 0.02 0.03 0.03 0.03 0.03 0.02 0.02 0.03 0.03 0.04 0.05 0.06 0.08
0.00 0.00 0.00 0.00 0.00 0.00 0.00 0.00 0.00 0.00 0.00 0.00 0.00 0.00 0.00 0.00 0.00 0.00 0.00 0.00 0.00 0.00 0.00 0.00 0.00 0.00 0.00 0.00 0.00 0.00 0.00 0.00 0.00 0.00 0.00 0.00 0.00 0.01 0.01 0.01 0.01 0.01 0.02 0.03 0.03 0.03 0.03 0.04 0.06
0.00 0.00 0.00 0.00 0.00 0.00 0.00 0.00 0.00 0.00 0.00 0.00 0.00 0.00 0.00 0.00 0.00 0.00 0.00 0.00 0.00 0.00 0.00 0.00 0.00 0.00 0.00 0.00 0.00 0.00 0.00 0.00 0.00 0.00 0.00 0.00 0.01 0.01 0.02 0.02 0.02 0.01 0.02 0.05 0.06 0.06 0.06 0.06 0.07
0.00 0.00 0.00 0.00 0.00 0.00 0.00 0.00 0.00 0.00 0.00 0.00 0.00 0.00 0.00 0.00 0.00 0.00 0.00 0.00 0.00 0.00 0.00 0.00 0.00 0.00 0.00 0.00 0.00 0.00 0.00 0.00 0.00 0.00 0.00 0.00 0.01 0.02 0.02 0.03 0.04 0.05 0.06 0.09 0.11 0.10 0.12 0.11 0.10
0.00 0.00 0.00 0.00 0.00 0.00 0.00 0.00 0.00 0.00 0.00 0.00 0.00 0.00 0.00 0.00 0.00 0.00 0.00 0.00 0.00 0.00 0.00 0.00 0.00 0.00 0.00 0.00 0.00 0.00 0.00 0.00 0.00 0.00 0.00 0.00 0.01 0.01 0.01 0.01 0.03 0.06 0.10 0.13 0.15 0.13 0.13 0.15 0.17
0.00 0.00 0.00 0.00 0.00 0.00 0.00 0.00 0.00 0.00 0.00 0.00 0.00 0.00 0.00 0.00 0.00 0.00 0.00 0.00 0.00 0.00 0.00 0.00 0.00 0.00 0.00 0.00 0.00 0.00 0.00 0.00 0.00 0.00 0.00 0.00 0.00 0.00 0.00 0.01 0.01 0.01 0.03 0.06 0.08 0.11 0.11 0.11 0.12
0.00 0.00 0.00 0.00 0.00 0.00 0.00 0.00 0.00 0.00 0.00 0.00 0.00 0.00 0.00 0.00 0.00 0.00 0.00 0.00 0.00 0.00 0.00 0.00 0.00 0.00 0.00 0.00 0.00 0.00 0.00 0.00 0.00 0.00 0.00 0.00 0.00 0.00 0.00 0.00 0.00 0.00 0.01 0.01 0.01 0.03 0.06 0.06 0.06
0.00 0.00 0.00 0.00 0.00 0.00 0.00 0.00 0.00 0.00 0.00 0.00 0.00 0.00 0.00 0.00 0.00 0.00 0.00 0.00 0.00 0.00 0.00 0.00 0.00 0.00 0.00 0.00 0.00 0.00 0.00 0.00 0.00 0.00 0.00 0.00 0.00 0.00 0.00 0.00 0.00 0.00 0.00 0.01 0.01 0.02 0.04 0.05 0.04
0.00 0.00 0.00 0.00 0.00 0.00 0.00 0.00 0.00 0.00 0.00 0.00 0.00 0.00 0.00 0.00 0.00 0.00 0.00 0.00 0.00 0.00 0.00 0.00 0.00 0.00 0.00 0.00 0.00 0.00 0.00 0.00 0.00 0.00 0.00 0.00 0.00 0.00 0.00 0.00 0.00 0.01 0.01 0.01 0.01 0.02 0.03 0.06 0.07
0.00 0.00 0.00 0.00 0.00 0.00 0.00 0.00 0.00 0.00 0.00 0.00 0.00 0.00 0.00 0.00 0.00 0.00 0.00 0.00 0.00 0.00 0.00 0.00 0.00 0.00 0.00 0.00 0.00 0.00 0.00 0.00 0.00 0.00 0.00 0.00 0.00 0.00 0.00 0.00 0.01 0.01 0.01 0.02 0.02 0.03 0.04 0.06 0.09
0.00 0.00 0.00 0.00 0.00 0.00 0.00 0.00 0.00 0.00 0.00 0.00 0.00 0.00 0.00 0.00 0.00 0.00 0.00 0.00 0.00 0.00 0.00 0.00 0.00 0.00 0.00 0.00 0.00 0.00 0.00 0.00 0.00 0.00 0.00 0.00 0.00 0.01 0.01 0.01 0.01 0.02 0.02 0.03 0.04 0.05 0.06 0.08 0.10
0.00 0.00 0.00 0.00 0.00 0.00 0.00 0.00 0.00 0.00 0.00 0.00 0.00 0.00 0.00 0.00 0.00 0.00 0.00 0.00 0.00 0.00 0.00 0.00 0.00 0.00 0.00 0.00 0.00 0.00 0.00 0.00 0.00 0.00 0.00 0.00 0.01 0.01 0.01 0.02 0.03 0.04 0.04 0.05 0.06 0.09 0.10 0.12 0.15
0.00 0.00 0.00 0.00 0.00 0.00 0.00 0.00 0.00 0.00 0.00 0.00 0.00 0.00 0.00 0.00 0.00 0.00 0.00 0.00 0.00 0.00 0.00 0.00 0.00 0.00 0.00 0.00 0.00 0.00 0.00 0.00 0.00 0.00 0.00 0.01 0.01 0.01 0.02 0.03 0.04 0.05 0.06 0.07 0.10 0.12 0.14 0.17 0.19
0.00 0.00 0.00 0.00 0.00 0.00 0.00 0.00 0.00 0.00 0.00 0.00 0.00 0.00 0.00 0.00 0.00 0.00 0.00 0.00 0.00 0.00 0.00 0.00 0.00 0.00 0.00 0.00 0.00 0.00 0.00 0.00 0.00 0.00 0.00 0.01 0.01 0.01 0.02 0.04 0.07 0.09 0.10 0.11 0.13 0.16 0.18 0.20 0.22
0.00 0.00 0.00 0.00 0.00 0.00 0.00 0.00 0.00 0.00 0.00 0.00 0.00 0.00 0.00 0.00 0.00 0.00 0.00 0.00 0.00 0.00 0.00 0.00 0.00 0.00 0.00 0.01 0.01 0.01 0.01 0.01 0.01 0.01 0.01 0.02 0.02 0.03 0.04 0.06 0.09 0.12 0.15 0.17 0.20 0.21 0.21 0.23 0.24
0.00 0.00 0.00 0.00 0.00 0.00 0.00 0.00 0.00 0.00 0.00 0.00 0.00 0.00 0.00 0.00 0.00 0.00 0.00 0.00 0.00 0.00 0.00 0.00 0.00 0.01 0.01 0.01 0.01 0.01 0.02 0.02 0.03 0.04 0.04 0.04 0.05 0.05 0.07 0.08 0.09 0.11 0.16 0.20 0.24 0.25 0.28 0.31 0.31
0.00 0.00 0.00 0.00 0.00 0.00 0.01 0.00 0.00 0.00 0.00 0.00 0.00 0.00 0.00 0.00 0.00 0.00 0.00 0.00 0.00 0.00 0.00 0.01 0.01 0.02 0.02 0.02 0.02 0.02 0.03 0.03 0.04 0.05 0.07 0.08 0.09 0.10 0.11 0.12 0.14 0.15 0.18 0.23 0.27 0.30 0.32 0.37 0.42

GEFSSGP_prec_meanprecacc_102.txt.gz
Total_Precipitation_Accumulation
0.00 0.00 0.00 0.00 0.00 0.00 0.00 0.00 0.00 0.00 0.00 0.00 0.00 0.00 0.00 0.00 0.00 0.00 0.00 0.00 0.01 0.02 0.03 0.04 0.05 0.05 0.05 0.04 0.04 0.04 0.03 0.04 0.04 0.05 0.05 0.07 0.10 0.12 0.16 0.17 0.18 0.19 0.23 0.25 0.22 0.25 0.33 0.38 0.44
0.00 0.00 0.00 0.00 0.00 0.00 0.00 0.00 0.00 0.00 0.00 0.00 0.00 0.00 0.00 0.00 0.00 0.00 0.00 0.00 0.00 0.01 0.01 0.02 0.04 0.05 0.05 0.05 0.04 0.03 0.03 0.03 0.04 0.04 0.04 0.05 0.08 0.12 0.16 0.19 0.20 0.22 0.28 0.30 0.32 0.34 0.37 0.41 0.44
0.00 0.00 0.00 0.00 0.00 0.00 0.00 0.00 0.00 0.00 0.00 0.00 0.00 0.00 0.00 0.00 0.00 0.00 0.00 0.00 0.00 0.00 0.00 0.01 0.04 0.05 0.05 0.05 0.04 0.03 0.03 0.03 0.04 0.04 0.04 0.04 0.06 0.10 0.14 0.17 0.20 0.23 0.27 0.27 0.30 0.34 0.32 0.34 0.36
0.00 0.00 0.00 0.00 0.00 0.00 0.00 0.00 0.00 0.00 0.00 0.00 0.00 0.00 0.00 0.00 0.00 0.00 0.00 0.00 0.00 0.00 0.00 0.01 0.03 0.05 0.05 0.05 0.05 0.04 0.03 0.04 0.05 0.06 0.05 0.05 0.06 0.07 0.09 0.11 0.13 0.16 0.22 0.23 0.26 0.30 0.30 0.34 0.35
0.00 0.00 0.00 0.00 0.00 0.00 0.00 0.00 0.00 0.00 0.00 0.00 0.00 0.00 0.00 0.00 0.00 0.00 0.00 0.00 0.00 0.00 0.00 0.00 0.02 0.04 0.05 0.05 0.05 0.05 0.05 0.05 0.05 0.07 0.08 0.07 0.08 0.09 0.10 0.09 0.08 0.09 0.11 0.16 0.21 0.26 0.30 0.37 0.35
0.00 0.00 0.00 0.00 0.00 0.00 0.00 0.00 0.00 0.00 0.00 0.00 0.00 0.00 0.00 0.00 0.00 0.00 0.00 0.00 0.00 0.00 0.00 0.00 0.02 0.03 0.04 0.05 0.06 0.06 0.07 0.06 0.06 0.06 0.07 0.08 0.09 0.11 0.13 0.12 0.10 0.09 0.09 0.10 0.13 0.20 0.32 0.39 0.34
0.00 0.00 0.00 0.00 0.00 0.00 0.00 0.00 0.00 0.00 0.00 0.00 0.00 0.00 0.00 0.00 0.00 0.00 0.00 0.00 0.00 0.00 0.00 0.00 0.00 0.02 0.03 0.04 0.07 0.08 0.08 0.08 0.08 0.08 0.07 0.07 0.07 0.10 0.14 0.14 0.12 0.11 0.10 0.10 0.10 0.13 0.23 0.32 0.33
0.00 0.00 0.00 0.00 0.00 0.00 0.00 0.00 0.00 0.00 0.00 0.00 0.00 0.00 0.00 0.00 0.00 0.00 0.00 0.00 0.00 0.00 0.00 0.00 0.00 0.00 0.01 0.02 0.05 0.08 0.09 0.09 0.09 0.09 0.07 0.06 0.06 0.07 0.09 0.09 0.09 0.10 0.11 0.11 0.10 0.10 0.15 0.20 0.25
0.00 0.00 0.00 0.00 0.00 0.00 0.00 0.00 0.00 0.00 0.00 0.00 0.00 0.00 0.00 0.00 0.00 0.00 0.00 0.00 0.00 0.00 0.00 0.00 0.00 0.00 0.00 0.01 0.03 0.06 0.07 0.07 0.07 0.06 0.06 0.06 0.05 0.05 0.05 0.05 0.06 0.08 0.09 0.09 0.11 0.11 0.11 0.11 0.11
0.00 0.00 0.00 0.00 0.00 0.00 0.00 0.00 0.00 0.00 0.00 0.00 0.00 0.00 0.00 0.00 0.00 0.00 0.00 0.00 0.00 0.00 0.00 0.00 0.00 0.00 0.00 0.00 0.01 0.03 0.04 0.04 0.05 0.05 0.05 0.06 0.06 0.06 0.07 0.05 0.06 0.07 0.07 0.08 0.11 0.12 0.09 0.09 0.08
0.00 0.00 0.00 0.00 0.00 0.00 0.00 0.00 0.00 0.00 0.00 0.00 0.00 0.00 0.00 0.00 0.00 0.00 0.00 0.00 0.00 0.00 0.00 0.00 0.00 0.00 0.00 0.00 0.00 0.01 0.02 0.04 0.05 0.05 0.05 0.08 0.10 0.11 0.09 0.07 0.06 0.06 0.06 0.08 0.10 0.12 0.12 0.15 0.20
0.00 0.00 0.00 0.00 0.00 0.00 0.00 0.00 0.00 0.00 0.00 0.00 0.00 0.00 0.00 0.00 0.00 0.00 0.00 0.00 0.00 0.00 0.00 0.00 0.00 0.00 0.00 0.00 0.00 0.00 0.00 0.02 0.03 0.04 0.06 0.07 0.09 0.09 0.08 0.07 0.06 0.05 0.06 0.07 0.08 0.10 0.12 0.13 0.16
0.00 0.00 0.00 0.00 0.00 0.00 0.00 0.00 0.00 0.00 0.00 0.00 0.00 0.00 0.00 0.00 0.00 0.00 0.00 0.00 0.00 0.00 0.00 0.00 0.00 0.00 0.00 0.00 0.00 0.00 0.00 0.01 0.02 0.03 0.04 0.04 0.05 0.06 0.06 0.06 0.05 0.04 0.05 0.06 0.06 0.07 0.08 0.10 0.13
0.00 0.00 0.00 0.00 0.00 0.00 0.00 0.00 0.00 0.00 0.00 0.00 0.00 0.00 0.00 0.00 0.00 0.00 0.00 0.00 0.00 0.00 0.00 0.00 0.00 0.00 0.00 0.00 0.00 0.00 0.00 0.00 0.01 0.02 0.02 0.02 0.02 0.03 0.03 0.03 0.03 0.02 0.02 0.03 0.03 0.04 0.05 0.06 0.08
0.00 0.00 0.00 0.00 0.00 0.00 0.00 0.00 0.00 0.00 0.00 0.00 0.00 0.00 0.00 0.00 0.00 0.00 0.00 0.00 0.00 0.00 0.00 0.00 0.00 0.00 0.00 0.00 0.00 0.00 0.00 0.00 0.00 0.00 0.00 0.00 0.00 0.01 0.01 0.01 0.01 0.01 0.02 0.03 0.03 0.03 0.03 0.04 0.06
0.00 0.00 0.00 0.00 0.00 0.00 0.00 0.00 0.00 0.00 0.00 0.00 0.00 0.00 0.00 0.00 0.00 0.00 0.00 0.00 0.00 0.00 0.00 0.00 0.00 0.00 0.00 0.00 0.00 0.00 0.00 0.00 0.00 0.00 0.00 0.00 0.01 0.01 0.02 0.02 0.02 0.01 0.02 0.05 0.06 0.06 0.06 0.06 0.07
0.00 0.00 0.00 0.00 0.00 0.00 0.00 0.00 0.00 0.00 0.00 0.00 0.00 0.00 0.00 0.00 0.00 0.00 0.00 0.00 0.00 0.00 0.00 0.00 0.00 0.00 0.00 0.00 0.00 0.00 0.00 0.00 0.00 0.00 0.00 0.00 0.01 0.02 0.02 0.03 0.04 0.05 0.06 0.09 0.11 0.10 0.12 0.11 0.10
0.00 0.00 0.00 0.00 0.00 0.00 0.00 0.00 0.00 0.00 0.00 0.00 0.00 0.00 0.00 0.00 0.00 0.00 0.00 0.00 0.00 0.00 0.00 0.00 0.00 0.00 0.00 0.00 0.00 0.00 0.00 0.00 0.00 0.00 0.00 0.00 0.01 0.01 0.01 0.01 0.03 0.06 0.10 0.13 0.15 0.13 0.13 0.15 0.17
0.00 0.00 0.00 0.00 0.00 0.00 0.00 0.00 0.00 0.00 0.00 0.00 0.00 0.00 0.00 0.00 0.00 0.00 0.00 0.00 0.00 0.00 0.00 0.00 0.00 0.00 0.00 0.00 0.00 0.00 0.00 0.00 0.00 0.00 0.00 0.00 0.00 0.00 0.00 0.01 0.01 0.01 0.03 0.06 0.08 0.11 0.11 0.11 0.12
0.00 0.00 0.00 0.00 0.00 0.00 0.00 0.00 0.00 0.00 0.00 0.00 0.00 0.00 0.00 0.00 0.00 0.00 0.00 0.00 0.00 0.00 0.00 0.00 0.00 0.00 0.00 0.00 0.00 0.00 0.00 0.00 0.00 0.00 0.00 0.00 0.00 0.00 0.00 0.00 0.00 0.00 0.01 0.01 0.01 0.03 0.06 0.06 0.06
0.00 0.00 0.00 0.00 0.00 0.00 0.00 0.00 0.00 0.00 0.00 0.00 0.00 0.00 0.00 0.00 0.00 0.00 0.00 0.00 0.00 0.00 0.00 0.00 0.00 0.00 0.00 0.00 0.00 0.00 0.00 0.00 0.00 0.00 0.00 0.00 0.00 0.00 0.00 0.00 0.00 0.00 0.00 0.01 0.01 0.02 0.04 0.05 0.04
0.00 0.00 0.00 0.00 0.00 0.00 0.00 0.00 0.00 0.00 0.00 0.00 0.00 0.00 0.00 0.00 0.00 0.00 0.00 0.00 0.00 0.00 0.00 0.00 0.00 0.00 0.00 0.00 0.00 0.00 0.00 0.00 0.00 0.00 0.00 0.00 0.00 0.00 0.00 0.00 0.00 0.01 0.01 0.01 0.01 0.02 0.03 0.06 0.07
0.00 0.00 0.00 0.00 0.00 0.00 0.00 0.00 0.00 0.00 0.00 0.00 0.00 0.00 0.00 0.00 0.00 0.00 0.00 0.00 0.00 0.00 0.00 0.00 0.00 0.00 0.00 0.00 0.00 0.00 0.00 0.00 0.00 0.00 0.00 0.00 0.00 0.00 0.00 0.00 0.01 0.01 0.01 0.02 0.02 0.03 0.04 0.06 0.09
0.00 0.00 0.00 0.00 0.00 0.00 0.00 0.00 0.00 0.00 0.00 0.00 0.00 0.00 0.00 0.00 0.00 0.00 0.00 0.00 0.00 0.00 0.00 0.00 0.00 0.00 0.00 0.00 0.00 0.00 0.00 0.00 0.00 0.00 0.00 0.00 0.00 0.01 0.01 0.01 0.01 0.02 0.02 0.03 0.04 0.05 0.06 0.08 0.10
0.00 0.00 0.00 0.00 0.00 0.00 0.00 0.00 0.00 0.00 0.00 0.00 0.00 0.00 0.00 0.00 0.00 0.00 0.00 0.00 0.00 0.00 0.00 0.00 0.00 0.00 0.00 0.00 0.00 0.00 0.00 0.00 0.00 0.00 0.00 0.00 0.01 0.01 0.01 0.02 0.03 0.04 0.04 0.05 0.06 0.09 0.10 0.12 0.15
0.00 0.00 0.00 0.00 0.00 0.00 0.00 0.00 0.00 0.00 0.00 0.00 0.00 0.00 0.00 0.00 0.00 0.00 0.00 0.00 0.00 0.00 0.00 0.00 0.00 0.00 0.00 0.00 0.00 0.00 0.00 0.00 0.00 0.00 0.00 0.01 0.01 0.01 0.02 0.03 0.04 0.05 0.06 0.07 0.10 0.12 0.14 0.17 0.19
0.00 0.00 0.00 0.00 0.00 0.00 0.00 0.00 0.00 0.00 0.00 0.00 0.00 0.00 0.00 0.00 0.00 0.00 0.00 0.00 0.00 0.00 0.00 0.00 0.00 0.00 0.00 0.00 0.00 0.00 0.00 0.00 0.00 0.00 0.00 0.01 0.01 0.01 0.02 0.04 0.07 0.09 0.10 0.11 0.13 0.16 0.18 0.20 0.22
0.00 0.00 0.00 0.00 0.00 0.00 0.00 0.00 0.00 0.00 0.00 0.00 0.00 0.00 0.00 0.00 0.00 0.00 0.00 0.00 0.00 0.00 0.00 0.00 0.00 0.00 0.00 0.01 0.01 0.01 0.01 0.01 0.01 0.01 0.01 0.02 0.02 0.03 0.04 0.06 0.09 0.12 0.15 0.17 0.20 0.21 0.21 0.23 0.24
0.00 0.00 0.00 0.00 0.00 0.00 0.00 0.00 0.00 0.00 0.00 0.00 0.00 0.00 0.00 0.00 0.00 0.00 0.00 0.00 0.00 0.00 0.00 0.00 0.00 0.01 0.01 0.01 0.01 0.01 0.02 0.02 0.03 0.04 0.04 0.04 0.05 0.05 0.07 0.08 0.09 0.11 0.16 0.20 0.24 0.25 0.28 0.31 0.31
0.00 0.00 0.00 0.00 0.00 0.00 0.01 0.00 0.00 0.00 0.00 0.00 0.00 0.00 0.00 0.00 0.00 0.00 0.00 0.00 0.00 0.00 0.00 0.01 0.01 0.02 0.02 0.02 0.02 0.02 0.03 0.03 0.04 0.05 0.07 0.08 0.09 0.10 0.11 0.12 0.14 0.15 0.18 0.23 0.27 0.30 0.32 0.37 0.42

GEFSSGP_prec_meanprecacc_108.txt.gz
Total_Precipitation_Accumulation
0.00 0.00 0.00 0.00 0.00 0.00 0.00 0.00 0.00 0.00 0.00 0.00 0.00 0.00 0.00 0.00 0.00 0.00 0.00 0.00 0.01 0.02 0.03 0.04 0.05 0.06 0.05 0.05 0.05 0.04 0.04 0.04 0.05 0.06 0.06 0.08 0.10 0.13 0.17 0.18 0.19 0.19 0.23 0.25 0.22 0.25 0.33 0.38 0.45
0.00 0.00 0.00 0.00 0.00 0.00 0.00 0.00 0.00 0.00 0.00 0.00 0.00 0.00 0.00 0.00 0.00 0.00 0.00 0.00 0.00 0.01 0.01 0.02 0.04 0.05 0.05 0.05 0.05 0.04 0.04 0.04 0.04 0.05 0.04 0.05 0.08 0.13 0.17 0.19 0.20 0.22 0.28 0.30 0.32 0.34 0.37 0.41 0.44
0.00 0.00 0.00 0.00 0.00 0.00 0.00 0.00 0.00 0.00 0.00 0.00 0.00 0.00 0.00 0.00 0.00 0.00 0.00 0.00 0.00 0.00 0.00 0.01 0.04 0.05 0.05 0.05 0.05 0.04 0.04 0.04 0.04 0.05 0.04 0.05 0.07 0.10 0.14 0.18 0.20 0.23 0.27 0.27 0.30 0.34 0.32 0.34 0.36
0.00 0.00 0.00 0.00 0.00 0.00 0.00 0.00 0.00 0.00 0.00 0.00 0.00 0.00 0.00 0.00 0.00 0.00 0.00 0.00 0.00 0.00 0.00 0.01 0.03 0.05 0.06 0.06 0.06 0.05 0.04 0.04 0.05 0.06 0.06 0.06 0.06 0.08 0.09 0.11 0.13 0.16 0.22 0.23 0.26 0.30 0.30 0.34 0.36
0.00 0.00 0.00 0.00 0.00 0.00 0.00 0.00 0.00 0.00 0.00 0.00 0.00 0.00 0.00 0.00 0.00 0.00 0.00 0.00 0.00 0.00 0.00 0.00 0.02 0.04 0.05 0.06 0.06 0.06 0.06 0.05 0.06 0.07 0.08 0.08 0.08 0.09 0.10 0.09 0.08 0.09 0.11 0.16 0.21 0.26 0.30 0.37 0.35
0.00 0.00 0.00 0.00 0.00 0.00 0.00 0.00 0.00 0.00 0.00 0.00 0.00 0.00 0.00 0.00 0.00 0.00 0.00 0.00 0.00 0.00 0.00 0.00 0.02 0.03 0.05 0.06 0.07 0.07 0.07 0.07 0.06 0.07 0.08 0.09 0.09 0.11 0.13 0.12 0.10 0.09 0.09 0.10 0.13 0.20 0.32 0.39 0.34
0.00 0.00 0.00 0.00 0.00 0.00 0.00 0.00 0.00 0.00 0.00 0.00 0.00 0.00 0.00 0.00 0.00 0.00 0.00 0.00 0.00 0.00 0.00 0.00 0.00 0.02 0.03 0.05 0.08 0.09 0.09 0.09 0.09 0.08 0.08 0.08 0.08 0.10 0.14 0.14 0.12 0.11 0.10 0.10 0.10 0.13 0.23 0.32 0.33
0.00 0.00 0.00 0.00 0.00 0.00 0.00 0.00 0.00 0.00 0.00 0.00 0.00 0.00 0.00 0.00 0.00 0.00 0.00 0.00 0.00 0.00 0.00 0.00 0.00 0.00 0.01 0.03 0.06 0.10 0.10 0.09 0.09 0.09 0.07 0.07 0.06 0.07 0.10 0.10 0.09 0.10 0.11 0.11 0.10 0.10 0.15 0.20 0.25
0.00 0.00 0.00 0.00 0.00 0.00 0.00 0.00 0.00 0.00 0.00 0.00 0.00 0.00 0.00 0.00 0.00 0.00 0.00 0.00 0.00 0.00 0.00 0.00 0.00 0.00 0.00 0.01 0.03 0.07 0.08 0.08 0.07 0.07 0.06 0.07 0.05 0.05 0.06 0.05 0.06 0.08 0.09 0.09 0.11 0.11 0.11 0.11 0.11
0.00 0.00 0.00 0.00 0.00 0.00 0.00 0.00 0.00 0.00 0.00 0.00 0.00 0.00 0.00 0.00 0.00 0.00 0.00 0.00 0.00 0.00 0.00 0.00 0.00 0.00 0.00 0.00 0.01 0.03 0.05 0.05 0.06 0.05 0.06 0.06 0.06 0.06 0.07 0.06 0.06 0.07 0.07 0.08 0.11 0.12 0.09 0.09 0.08
0.00 0.00 0.00 0.00 0.00 0.00 0.00 0.00 0.00 0.00 0.00 0.00 0.00 0.00 0.00 0.00 0.00 0.00 0.00 0.00 0.00 0.00 0.00 0.00 0.00 0.00 0.00 0.00 0.00 0.01 0.02 0.04 0.06 0.05 0.06 0.08 0.10 0.11 0.09 0.07 0.06 0.06 0.06 0.08 0.10 0.12 0.12 0.15 0.20
0.00 0.00 0.00 0.00 0.00 0.00 0.00 0.00 0.00 0.00 0.00 0.00 0.00 0.00 0.00 0.00 0.00 0.00 0.00 0.00 0.00 0.00 0.00 0.00 0.00 0.00 0.00 0.00 0.00 0.00 0.01 0.02 0.03 0.04 0.06 0.07 0.09 0.09 0.08 0.07 0.06 0.06 0.06 0.07 0.08 0.10 0.12 0.13 0.16
0.00 0.00 0.00 0.00 0.00 0.00 0.00 0.00 0.00 0.00 0.00 0.00 0.00 0.00 0.00 0.00 0.00 0.00 0.00 0.00 0.00 0.00 0.00 0.00 0.00 0.00 0.00 0.00 0.00 0.00 0.00 0.01 0.02 0.03 0.04 0.04 0.05 0.06 0.06 0.06 0.05 0.04 0.05 0.06 0.06 0.07 0.08 0.10 0.13
0.00 0.00 0.00 0.00 0.00 0.00 0.00 0.00 0.00 0.00 0.00 0.00 0.00 0.00 0.00 0.00 0.00 0.00 0.00 0.00 0.00 0.00 0.00 0.00 0.00 0.00 0.00 0.00 0.00 0.00 0.00 0.00 0.01 0.02 0.02 0.02 0.02 0.03 0.03 0.03 0.03 0.02 0.02 0.03 0.03 0.04 0.05 0.06 0.08
0.00 0.00 0.00 0.00 0.00 0.00 0.00 0.00 0.00 0.00 0.00 0.00 0.00 0.00 0.00 0.00 0.00 0.00 0.00 0.00 0.00 0.00 0.00 0.00 0.00 0.00 0.00 0.00 0.00 0.00 0.00 0.00 0.00 0.00 0.00 0.01 0.01 0.01 0.01 0.01 0.01 0.01 0.02 0.03 0.03 0.03 0.03 0.04 0.06
0.00 0.00 0.00 0.00 0.00 0.00 0.00 0.00 0.00 0.00 0.00 0.00 0.00 0.00 0.00 0.00 0.00 0.00 0.00 0.00 0.00 0.00 0.00 0.00 0.00 0.00 0.00 0.00 0.00 0.00 0.00 0.00 0.00 0.00 0.00 0.00 0.01 0.01 0.02 0.02 0.02 0.01 0.02 0.05 0.06 0.06 0.06 0.06 0.07
0.00 0.00 0.00 0.00 0.00 0.00 0.00 0.00 0.00 0.00 0.00 0.00 0.00 0.00 0.00 0.00 0.00 0.00 0.00 0.00 0.00 0.00 0.00 0.00 0.00 0.00 0.00 0.00 0.00 0.00 0.00 0.00 0.00 0.00 0.00 0.00 0.02 0.02 0.02 0.03 0.05 0.05 0.07 0.09 0.11 0.10 0.12 0.11 0.10
0.00 0.00 0.00 0.00 0.00 0.00 0.00 0.00 0.00 0.00 0.00 0.00 0.00 0.00 0.00 0.00 0.00 0.00 0.00 0.00 0.00 0.00 0.00 0.00 0.00 0.00 0.00 0.00 0.00 0.00 0.00 0.00 0.00 0.00 0.00 0.00 0.01 0.01 0.01 0.02 0.03 0.06 0.10 0.13 0.15 0.13 0.13 0.15 0.17
0.00 0.00 0.00 0.00 0.00 0.00 0.00 0.00 0.00 0.00 0.00 0.00 0.00 0.00 0.00 0.00 0.00 0.00 0.00 0.00 0.00 0.00 0.00 0.00 0.00 0.00 0.00 0.00 0.00 0.00 0.00 0.00 0.00 0.00 0.00 0.00 0.00 0.00 0.00 0.01 0.01 0.01 0.03 0.06 0.08 0.11 0.11 0.11 0.12
0.00 0.00 0.00 0.00 0.00 0.00 0.00 0.00 0.00 0.00 0.00 0.00 0.00 0.00 0.00 0.00 0.00 0.00 0.00 0.00 0.00 0.00 0.00 0.00 0.00 0.00 0.00 0.00 0.00 0.00 0.00 0.00 0.00 0.00 0.00 0.00 0.00 0.00 0.00 0.00 0.00 0.00 0.01 0.01 0.01 0.03 0.06 0.06 0.06
0.00 0.00 0.00 0.00 0.00 0.00 0.00 0.00 0.00 0.00 0.00 0.00 0.00 0.00 0.00 0.00 0.00 0.00 0.00 0.00 0.00 0.00 0.00 0.00 0.00 0.00 0.00 0.00 0.00 0.00 0.00 0.00 0.00 0.00 0.00 0.00 0.00 0.00 0.00 0.00 0.00 0.00 0.00 0.01 0.01 0.02 0.04 0.05 0.04
0.00 0.00 0.00 0.00 0.00 0.00 0.00 0.00 0.00 0.00 0.00 0.00 0.00 0.00 0.00 0.00 0.00 0.00 0.00 0.00 0.00 0.00 0.00 0.00 0.00 0.00 0.00 0.00 0.00 0.00 0.00 0.00 0.00 0.00 0.00 0.00 0.00 0.00 0.00 0.00 0.00 0.01 0.01 0.01 0.01 0.02 0.03 0.06 0.07
0.00 0.00 0.00 0.00 0.00 0.00 0.00 0.00 0.00 0.00 0.00 0.00 0.00 0.00 0.00 0.00 0.00 0.00 0.00 0.00 0.00 0.00 0.00 0.00 0.00 0.00 0.00 0.00 0.00 0.00 0.00 0.00 0.00 0.00 0.00 0.00 0.00 0.00 0.00 0.00 0.01 0.01 0.01 0.02 0.02 0.03 0.04 0.06 0.09
0.00 0.00 0.00 0.00 0.00 0.00 0.00 0.00 0.00 0.00 0.00 0.00 0.00 0.00 0.00 0.00 0.00 0.00 0.00 0.00 0.00 0.00 0.00 0.00 0.00 0.00 0.00 0.00 0.00 0.00 0.00 0.00 0.00 0.00 0.00 0.00 0.00 0.01 0.01 0.01 0.01 0.02 0.02 0.03 0.04 0.05 0.06 0.08 0.10
0.00 0.00 0.00 0.00 0.00 0.00 0.00 0.00 0.00 0.00 0.00 0.00 0.00 0.00 0.00 0.00 0.00 0.00 0.00 0.00 0.00 0.00 0.00 0.00 0.00 0.00 0.00 0.00 0.00 0.00 0.00 0.00 0.00 0.00 0.00 0.00 0.01 0.01 0.01 0.02 0.03 0.04 0.04 0.05 0.06 0.09 0.10 0.12 0.15
0.00 0.00 0.00 0.00 0.00 0.00 0.00 0.00 0.00 0.00 0.00 0.00 0.00 0.00 0.00 0.00 0.00 0.00 0.00 0.00 0.00 0.00 0.00 0.00 0.00 0.00 0.00 0.00 0.00 0.00 0.00 0.00 0.00 0.00 0.00 0.01 0.01 0.01 0.02 0.03 0.04 0.05 0.06 0.07 0.10 0.12 0.14 0.17 0.19
0.00 0.00 0.00 0.00 0.00 0.00 0.00 0.00 0.00 0.00 0.00 0.00 0.00 0.00 0.00 0.00 0.00 0.00 0.00 0.00 0.00 0.00 0.00 0.00 0.00 0.00 0.00 0.00 0.00 0.00 0.00 0.00 0.00 0.00 0.00 0.01 0.01 0.01 0.02 0.04 0.07 0.09 0.10 0.11 0.13 0.16 0.18 0.20 0.22
0.00 0.00 0.00 0.00 0.00 0.00 0.00 0.00 0.00 0.00 0.00 0.00 0.00 0.00 0.00 0.00 0.00 0.00 0.00 0.00 0.00 0.00 0.00 0.00 0.00 0.00 0.00 0.01 0.01 0.01 0.01 0.01 0.01 0.01 0.01 0.02 0.02 0.03 0.04 0.06 0.09 0.12 0.15 0.17 0.20 0.21 0.21 0.23 0.24
0.00 0.00 0.00 0.00 0.00 0.00 0.00 0.00 0.00 0.00 0.00 0.00 0.00 0.00 0.00 0.00 0.00 0.00 0.00 0.00 0.00 0.00 0.00 0.00 0.00 0.01 0.01 0.01 0.01 0.01 0.02 0.02 0.03 0.04 0.04 0.04 0.05 0.05 0.07 0.08 0.09 0.11 0.16 0.20 0.24 0.25 0.28 0.31 0.31
0.00 0.00 0.00 0.00 0.00 0.00 0.01 0.00 0.00 0.00 0.00 0.00 0.00 0.00 0.00 0.00 0.00 0.00 0.00 0.00 0.00 0.00 0.00 0.01 0.01 0.02 0.02 0.02 0.02 0.02 0.03 0.03 0.04 0.05 0.07 0.08 0.09 0.10 0.11 0.12 0.14 0.15 0.18 0.23 0.27 0.30 0.32 0.37 0.42

GEFSSGP_prec_meanprecacc_114.txt.gz
Total_Precipitation_Accumulation
0.00 0.00 0.00 0.00 0.00 0.00 0.00 0.00 0.00 0.00 0.00 0.00 0.00 0.00 0.00 0.00 0.00 0.00 0.00 0.00 0.01 0.02 0.03 0.04 0.06 0.06 0.05 0.05 0.05 0.05 0.05 0.05 0.05 0.06 0.06 0.08 0.10 0.13 0.17 0.18 0.19 0.19 0.23 0.25 0.22 0.25 0.34 0.39 0.45
0.00 0.00 0.00 0.00 0.00 0.00 0.00 0.00 0.00 0.00 0.00 0.00 0.00 0.00 0.00 0.00 0.00 0.00 0.00 0.00 0.00 0.01 0.01 0.02 0.04 0.06 0.05 0.05 0.05 0.05 0.04 0.04 0.05 0.05 0.04 0.05 0.09 0.13 0.17 0.19 0.20 0.22 0.28 0.30 0.32 0.34 0.37 0.42 0.44
0.00 0.00 0.00 0.00 0.00 0.00 0.00 0.00 0.00 0.00 0.00 0.00 0.00 0.00 0.00 0.00 0.00 0.00 0.00 0.00 0.00 0.00 0.00 0.01 0.04 0.05 0.06 0.06 0.06 0.05 0.04 0.04 0.05 0.05 0.04 0.05 0.07 0.10 0.14 0.18 0.20 0.23 0.27 0.27 0.30 0.34 0.32 0.34 0.36
0.00 0.00 0.00 0.00 0.00 0.00 0.00 0.00 0.00 0.00 0.00 0.00 0.00 0.00 0.00 0.00 0.00 0.00 0.00 0.00 0.00 0.00 0.00 0.01 0.03 0.05 0.06 0.06 0.07 0.05 0.04 0.04 0.06 0.07 0.06 0.06 0.07 0.08 0.10 0.11 0.13 0.16 0.22 0.23 0.26 0.30 0.30 0.34 0.36
0.00 0.00 0.00 0.00 0.00 0.00 0.00 0.00 0.00 0.00 0.00 0.00 0.00 0.00 0.00 0.00 0.00 0.00 0.00 0.00 0.00 0.00 0.00 0.00 0.02 0.04 0.05 0.07 0.07 0.07 0.06 0.06 0.06 0.07 0.09 0.08 0.08 0.09 0.10 0.09 0.08 0.09 0.11 0.16 0.21 0.26 0.30 0.37 0.35
0.00 0.00 0.00 0.00 0.00 0.00 0.00 0.00 0.00 0.00 0.00 0.00 0.00 0.00 0.00 0.00 0.00 0.00 0.00 0.00 0.00 0.00 0.00 0.00 0.02 0.04 0.05 0.06 0.08 0.08 0.08 0.07 0.07 0.07 0.08 0.09 0.09 0.11 0.13 0.12 0.10 0.09 0.09 0.10 0.13 0.20 0.32 0.39 0.34
0.00 0.00 0.00 0.00 0.00 0.00 0.00 0.00 0.00 0.00 0.00 0.00 0.00 0.00 0.00 0.00 0.00 0.00 0.00 0.00 0.00 0.00 0.00 0.00 0.00 0.02 0.04 0.06 0.09 0.10 0.10 0.09 0.09 0.09 0.08 0.08 0.08 0.10 0.14 0.14 0.12 0.11 0.10 0.10 0.10 0.13 0.23 0.32 0.33
0.00 0.00 0.00 0.00 0.00 0.00 0.00 0.00 0.00 0.00 0.00 0.00 0.00 0.00 0.00 0.00 0.00 0.00 0.00 0.00 0.00 0.00 0.00 0.00 0.00 0.00 0.01 0.03 0.07 0.10 0.10 0.10 0.10 0.10 0.08 0.07 0.07 0.08 0.10 0.10 0.09 0.10 0.11 0.11 0.10 0.10 0.15 0.20 0.25
0.00 0.00 0.00 0.00 0.00 0.00 0.00 0.00 0.00 0.00 0.00 0.00 0.00 0.00 0.00 0.00 0.00 0.00 0.00 0.00 0.00 0.00 0.00 0.00 0.00 0.00 0.00 0.01 0.04 0.08 0.09 0.08 0.08 0.07 0.07 0.07 0.05 0.05 0.06 0.05 0.06 0.08 0.09 0.09 0.11 0.11 0.11 0.11 0.11
0.00 0.00 0.00 0.00 0.00 0.00 0.00 0.00 0.00 0.00 0.00 0.00 0.00 0.00 0.00 0.00 0.00 0.00 0.00 0.00 0.00 0.00 0.00 0.00 0.00 0.00 0.00 0.01 0.02 0.04 0.05 0.05 0.06 0.05 0.06 0.06 0.06 0.06 0.07 0.06 0.06 0.07 0.07 0.08 0.11 0.12 0.09 0.09 0.08
0.00 0.00 0.00 0.00 0.00 0.00 0.00 0.00 0.00 0.00 0.00 0.00 0.00 0.00 0.00 0.00 0.00 0.00 0.00 0.00 0.00 0.00 0.00 0.00 0.00 0.00 0.00 0.00 0.01 0.01 0.02 0.05 0.06 0.05 0.06 0.08 0.10 0.11 0.09 0.07 0.06 0.06 0.06 0.08 0.10 0.12 0.12 0.15 0.20
0.00 0.00 0.00 0.00 0.00 0.00 0.00 0.00 0.00 0.00 0.00 0.00 0.00 0.00 0.00 0.00 0.00 0.00 0.00 0.00 0.00 0.00 0.00 0.00 0.00 0.00 0.00 0.00 0.00 0.00 0.01 0.02 0.04 0.05 0.06 0.07 0.09 0.09 0.08 0.07 0.06 0.06 0.06 0.07 0.08 0.10 0.12 0.13 0.16
0.00 0.00 0.00 0.00 0.00 0.00 0.00 0.00 0.00 0.00 0.00 0.00 0.00 0.00 0.00 0.00 0.00 0.00 0.00 0.00 0.00 0.00 0.00 0.00 0.00 0.00 0.00 0.00 0.00 0.00 0.00 0.01 0.02 0.03 0.04 0.04 0.06 0.06 0.06 0.06 0.05 0.04 0.05 0.06 0.06 0.07 0.08 0.10 0.13
0.00 0.00 0.00 0.00 0.00 0.00 0.00 0.00 0.00 0.00 0.00 0.00 0.00 0.00 0.00 0.00 0.00 0.00 0.00 0.00 0.00 0.00 0.00 0.00 0.00 0.00 0.00 0.00 0.00 0.00 0.00 0.00 0.01 0.02 0.02 0.02 0.02 0.03 0.03 0.03 0.03 0.02 0.02 0.03 0.03 0.04 0.05 0.06 0.08
0.00 0.00 0.00 0.00 0.00 0.00 0.00 0.00 0.00 0.00 0.00 0.00 0.00 0.00 0.00 0.00 0.00 0.00 0.00 0.00 0.00 0.00 0.00 0.00 0.00 0.00 0.00 0.00 0.00 0.00 0.00 0.00 0.00 0.00 0.01 0.01 0.01 0.01 0.01 0.01 0.01 0.01 0.02 0.03 0.03 0.03 0.03 0.04 0.06
0.00 0.00 0.00 0.00 0.00 0.00 0.00 0.00 0.00 0.00 0.00 0.00 0.00 0.00 0.00 0.00 0.00 0.00 0.00 0.00 0.00 0.00 0.00 0.00 0.00 0.00 0.00 0.00 0.00 0.00 0.00 0.00 0.00 0.00 0.00 0.00 0.01 0.01 0.02 0.02 0.02 0.01 0.02 0.05 0.06 0.06 0.06 0.06 0.07
0.00 0.00 0.00 0.00 0.00 0.00 0.00 0.00 0.00 0.00 0.00 0.00 0.00 0.00 0.00 0.00 0.00 0.00 0.00 0.00 0.00 0.00 0.00 0.00 0.00 0.00 0.00 0.00 0.00 0.00 0.00 0.00 0.00 0.00 0.00 0.00 0.02 0.02 0.02 0.03 0.05 0.05 0.07 0.09 0.11 0.10 0.12 0.11 0.10
0.00 0.00 0.00 0.00 0.00 0.00 0.00 0.00 0.00 0.00 0.00 0.00 0.00 0.00 0.00 0.00 0.00 0.00 0.00 0.00 0.00 0.00 0.00 0.00 0.00 0.00 0.00 0.00 0.00 0.00 0.00 0.00 0.00 0.00 0.00 0.00 0.01 0.01 0.01 0.02 0.03 0.06 0.10 0.13 0.15 0.13 0.13 0.15 0.17
0.00 0.00 0.00 0.00 0.00 0.00 0.00 0.00 0.00 0.00 0.00 0.00 0.00 0.00 0.00 0.00 0.00 0.00 0.00 0.00 0.00 0.00 0.00 0.00 0.00 0.00 0.00 0.00 0.00 0.00 0.00 0.00 0.00 0.00 0.00 0.00 0.00 0.00 0.00 0.01 0.01 0.01 0.03 0.06 0.08 0.11 0.11 0.11 0.12
0.00 0.00 0.00 0.00 0.00 0.00 0.00 0.00 0.00 0.00 0.00 0.00 0.00 0.00 0.00 0.00 0.00 0.00 0.00 0.00 0.00 0.00 0.00 0.00 0.00 0.00 0.00 0.00 0.00 0.00 0.00 0.00 0.00 0.00 0.00 0.00 0.00 0.00 0.00 0.00 0.00 0.00 0.01 0.01 0.01 0.03 0.06 0.06 0.06
0.00 0.00 0.00 0.00 0.00 0.00 0.00 0.00 0.00 0.00 0.00 0.00 0.00 0.00 0.00 0.00 0.00 0.00 0.00 0.00 0.00 0.00 0.00 0.00 0.00 0.00 0.00 0.00 0.00 0.00 0.00 0.00 0.00 0.00 0.00 0.00 0.00 0.00 0.00 0.00 0.00 0.00 0.00 0.01 0.01 0.02 0.04 0.05 0.04
0.00 0.00 0.00 0.00 0.00 0.00 0.00 0.00 0.00 0.00 0.00 0.00 0.00 0.00 0.00 0.00 0.00 0.00 0.00 0.00 0.00 0.00 0.00 0.00 0.00 0.00 0.00 0.00 0.00 0.00 0.00 0.00 0.00 0.00 0.00 0.00 0.00 0.00 0.00 0.00 0.00 0.01 0.01 0.01 0.01 0.02 0.03 0.06 0.07
0.00 0.00 0.00 0.00 0.00 0.00 0.00 0.00 0.00 0.00 0.00 0.00 0.00 0.00 0.00 0.00 0.00 0.00 0.00 0.00 0.00 0.00 0.00 0.00 0.00 0.00 0.00 0.00 0.00 0.00 0.00 0.00 0.00 0.00 0.00 0.00 0.00 0.00 0.00 0.00 0.01 0.01 0.01 0.02 0.02 0.03 0.04 0.06 0.09
0.00 0.00 0.00 0.00 0.00 0.00 0.00 0.00 0.00 0.00 0.00 0.00 0.00 0.00 0.00 0.00 0.00 0.00 0.00 0.00 0.00 0.00 0.00 0.00 0.00 0.00 0.00 0.00 0.00 0.00 0.00 0.00 0.00 0.00 0.00 0.00 0.00 0.01 0.01 0.01 0.01 0.02 0.02 0.03 0.04 0.05 0.06 0.08 0.10
0.00 0.00 0.00 0.00 0.00 0.00 0.00 0.00 0.00 0.00 0.00 0.00 0.00 0.00 0.00 0.00 0.00 0.00 0.00 0.00 0.00 0.00 0.00 0.00 0.00 0.00 0.00 0.00 0.00 0.00 0.00 0.00 0.00 0.00 0.00 0.00 0.01 0.01 0.01 0.02 0.03 0.04 0.04 0.05 0.06 0.09 0.10 0.12 0.15
0.00 0.00 0.00 0.00 0.00 0.00 0.00 0.00 0.00 0.00 0.00 0.00 0.00 0.00 0.00 0.00 0.00 0.00 0.00 0.00 0.00 0.00 0.00 0.00 0.00 0.00 0.00 0.00 0.00 0.00 0.00 0.00 0.00 0.00 0.00 0.01 0.01 0.01 0.02 0.03 0.04 0.05 0.06 0.07 0.10 0.12 0.14 0.17 0.19
0.00 0.00 0.00 0.00 0.00 0.00 0.00 0.00 0.00 0.00 0.00 0.00 0.00 0.00 0.00 0.00 0.00 0.00 0.00 0.00 0.00 0.00 0.00 0.00 0.00 0.00 0.00 0.00 0.00 0.00 0.00 0.00 0.00 0.00 0.00 0.01 0.01 0.01 0.02 0.04 0.07 0.09 0.10 0.11 0.13 0.16 0.18 0.20 0.22
0.00 0.00 0.00 0.00 0.00 0.00 0.00 0.00 0.00 0.00 0.00 0.00 0.00 0.00 0.00 0.00 0.00 0.00 0.00 0.00 0.00 0.00 0.00 0.00 0.00 0.00 0.00 0.01 0.01 0.01 0.01 0.01 0.01 0.01 0.01 0.02 0.02 0.03 0.04 0.06 0.09 0.12 0.15 0.17 0.20 0.21 0.21 0.23 0.24
0.00 0.00 0.00 0.00 0.00 0.00 0.00 0.00 0.00 0.00 0.00 0.00 0.00 0.00 0.00 0.00 0.00 0.00 0.00 0.00 0.00 0.00 0.00 0.00 0.00 0.01 0.01 0.01 0.01 0.01 0.02 0.02 0.03 0.04 0.04 0.04 0.05 0.05 0.07 0.08 0.09 0.11 0.16 0.20 0.24 0.25 0.28 0.31 0.31
0.00 0.00 0.00 0.00 0.00 0.00 0.01 0.00 0.00 0.00 0.00 0.00 0.00 0.00 0.00 0.00 0.00 0.00 0.00 0.00 0.00 0.00 0.00 0.01 0.01 0.02 0.02 0.02 0.02 0.02 0.03 0.03 0.04 0.05 0.07 0.08 0.09 0.10 0.11 0.12 0.14 0.15 0.18 0.23 0.27 0.30 0.32 0.37 0.42

GEFSSGP_prec_meanprecacc_120.txt.gz
Total_Precipitation_Accumulation
0.00 0.00 0.00 0.00 0.00 0.00 0.00 0.00 0.00 0.00 0.00 0.00 0.00 0.00 0.00 0.00 0.00 0.00 0.00 0.00 0.01 0.02 0.03 0.04 0.06 0.06 0.06 0.06 0.07 0.06 0.05 0.05 0.06 0.06 0.06 0.09 0.11 0.14 0.17 0.18 0.19 0.19 0.23 0.25 0.23 0.26 0.34 0.39 0.46
0.00 0.00 0.00 0.00 0.00 0.00 0.00 0.00 0.00 0.00 0.00 0.00 0.00 0.00 0.00 0.00 0.00 0.00 0.00 0.00 0.00 0.01 0.01 0.02 0.05 0.06 0.06 0.06 0.06 0.06 0.05 0.05 0.05 0.05 0.05 0.06 0.10 0.14 0.17 0.19 0.20 0.22 0.28 0.30 0.32 0.34 0.37 0.42 0.45
0.00 0.00 0.00 0.00 0.00 0.00 0.00 0.00 0.00 0.00 0.00 0.00 0.00 0.00 0.00 0.00 0.00 0.00 0.00 0.00 0.00 0.00 0.00 0.01 0.04 0.06 0.06 0.07 0.07 0.06 0.05 0.05 0.05 0.05 0.05 0.06 0.08 0.10 0.14 0.18 0.20 0.23 0.27 0.27 0.30 0.34 0.32 0.34 0.36
0.00 0.00 0.00 0.00 0.00 0.00 0.00 0.00 0.00 0.00 0.00 0.00 0.00 0.00 0.00 0.00 0.00 0.00 0.00 0.00 0.00 0.00 0.00 0.01 0.03 0.05 0.06 0.07 0.08 0.07 0.05 0.05 0.06 0.07 0.07 0.07 0.07 0.08 0.10 0.11 0.13 0.16 0.22 0.23 0.26 0.30 0.30 0.34 0.36
0.00 0.00 0.00 0.00 0.00 0.00 0.00 0.00 0.00 0.00 0.00 0.00 0.00 0.00 0.00 0.00 0.00 0.00 0.00 0.00 0.00 0.00 0.00 0.00 0.03 0.05 0.06 0.07 0.09 0.08 0.07 0.06 0.07 0.08 0.09 0.09 0.08 0.09 0.10 0.09 0.08 0.09 0.11 0.16 0.21 0.26 0.30 0.37 0.35
0.00 0.00 0.00 0.00 0.00 0.00 0.00 0.00 0.00 0.00 0.00 0.00 0.00 0.00 0.00 0.00 0.00 0.00 0.00 0.00 0.00 0.00 0.00 0.00 0.02 0.04 0.06 0.07 0.10 0.09 0.08 0.07 0.07 0.07 0.09 0.10 0.10 0.11 0.13 0.12 0.10 0.09 0.09 0.10 0.13 0.20 0.32 0.39 0.34
0.00 0.00 0.00 0.00 0.00 0.00 0.00 0.00 0.00 0.00 0.00 0.00 0.00 0.00 0.00 0.00 0.00 0.00 0.00 0.00 0.00 0.00 0.00 0.00 0.01 0.03 0.05 0.07 0.10 0.11 0.10 0.10 0.10 0.09 0.09 0.09 0.08 0.11 0.14 0.14 0.12 0.11 0.10 0.10 0.10 0.13 0.23 0.32 0.33
0.00 0.00 0.00 0.00 0.00 0.00 0.00 0.00 0.00 0.00 0.00 0.00 0.00 0.00 0.00 0.00 0.00 0.00 0.00 0.00 0.00 0.00 0.00 0.00 0.00 0.01 0.02 0.04 0.08 0.12 0.11 0.10 0.11 0.11 0.08 0.07 0.07 0.08 0.10 0.10 0.09 0.10 0.11 0.11 0.10 0.10 0.15 0.20 0.25
0.00 0.00 0.00 0.00 0.00 0.00 0.00 0.00 0.00 0.00 0.00 0.00 0.00 0.00 0.00 0.00 0.00 0.00 0.00 0.00 0.00 0.00 0.00 0.00 0.00 0.00 0.01 0.02 0.05 0.09 0.10 0.09 0.09 0.08 0.07 0.07 0.06 0.05 0.06 0.05 0.06 0.08 0.09 0.09 0.11 0.12 0.11 0.12 0.11
0.00 0.00 0.00 0.00 0.00 0.00 0.00 0.00 0.00 0.00 0.00 0.00 0.00 0.00 0.00 0.00 0.00 0.00 0.00 0.00 0.00 0.00 0.00 0.00 0.00 0.00 0.00 0.01 0.02 0.05 0.06 0.06 0.06 0.06 0.06 0.07 0.06 0.06 0.07 0.06 0.06 0.07 0.07 0.09 0.11 0.12 0.09 0.09 0.08
0.00 0.00 0.00 0.00 0.00 0.00 0.00 0.00 0.00 0.00 0.00 0.00 0.00 0.00 0.00 0.00 0.00 0.00 0.00 0.00 0.00 0.00 0.00 0.00 0.00 0.00 0.00 0.00 0.01 0.02 0.03 0.05 0.06 0.06 0.06 0.08 0.10 0.11 0.09 0.07 0.06 0.06 0.06 0.08 0.10 0.12 0.12 0.15 0.20
0.00 0.00 0.00 0.00 0.00 0.00 0.00 0.00 0.00 0.00 0.00 0.00 0.00 0.00 0.00 0.00 0.00 0.00 0.00 0.00 0.00 0.00 0.00 0.00 0.00 0.00 0.00 0.00 0.00 0.01 0.01 0.02 0.04 0.05 0.06 0.07 0.09 0.09 0.08 0.07 0.06 0.06 0.06 0.07 0.08 0.10 0.12 0.13 0.16
0.00 0.00 0.00 0.00 0.00 0.00 0.00 0.00 0.00 0.00 0.00 0.00 0.00 0.00 0.00 0.00 0.00 0.00 0.00 0.00 0.00 0.00 0.00 0.00 0.00 0.00 0.00 0.00 0.00 0.00 0.01 0.02 0.02 0.03 0.04 0.04 0.06 0.06 0.06 0.06 0.05 0.04 0.05 0.06 0.06 0.07 0.08 0.10 0.13
0.00 0.00 0.00 0.00 0.00 0.00 0.00 0.00 0.00 0.00 0.00 0.00 0.00 0.00 0.00 0.00 0.00 0.00 0.00 0.00 0.00 0.00 0.00 0.00 0.00 0.00 0.00 0.00 0.00 0.00 0.00 0.01 0.01 0.02 0.02 0.02 0.02 0.03 0.03 0.03 0.03 0.02 0.02 0.03 0.03 0.04 0.05 0.06 0.08
0.00 0.00 0.00 0.00 0.00 0.00 0.00 0.00 0.00 0.00 0.00 0.00 0.00 0.00 0.00 0.00 0.00 0.00 0.00 0.00 0.00 0.00 0.00 0.00 0.00 0.00 0.00 0.00 0.00 0.00 0.00 0.00 0.00 0.00 0.01 0.01 0.01 0.01 0.01 0.01 0.01 0.01 0.02 0.03 0.03 0.03 0.03 0.04 0.06
0.00 0.00 0.00 0.00 0.00 0.00 0.00 0.00 0.00 0.00 0.00 0.00 0.00 0.00 0.00 0.00 0.00 0.00 0.00 0.00 0.00 0.00 0.00 0.00 0.00 0.00 0.00 0.00 0.00 0.00 0.00 0.00 0.00 0.00 0.00 0.01 0.01 0.01 0.02 0.02 0.02 0.01 0.02 0.05 0.06 0.06 0.06 0.06 0.07
0.00 0.00 0.00 0.00 0.00 0.00 0.00 0.00 0.00 0.00 0.00 0.00 0.00 0.00 0.00 0.00 0.00 0.00 0.00 0.00 0.00 0.00 0.00 0.00 0.00 0.00 0.00 0.00 0.00 0.00 0.00 0.00 0.00 0.00 0.00 0.01 0.02 0.02 0.02 0.03 0.05 0.05 0.07 0.09 0.11 0.10 0.12 0.11 0.10
0.00 0.00 0.00 0.00 0.00 0.00 0.00 0.00 0.00 0.00 0.00 0.00 0.00 0.00 0.00 0.00 0.00 0.00 0.00 0.00 0.00 0.00 0.00 0.00 0.00 0.00 0.00 0.00 0.00 0.00 0.00 0.00 0.00 0.00 0.00 0.00 0.01 0.01 0.01 0.02 0.03 0.06 0.10 0.13 0.15 0.13 0.13 0.15 0.17
0.00 0.00 0.00 0.00 0.00 0.00 0.00 0.00 0.00 0.00 0.00 0.00 0.00 0.00 0.00 0.00 0.00 0.00 0.00 0.00 0.00 0.00 0.00 0.00 0.00 0.00 0.00 0.00 0.00 0.00 0.00 0.00 0.00 0.00 0.00 0.00 0.00 0.00 0.00 0.01 0.01 0.01 0.03 0.06 0.08 0.11 0.11 0.11 0.12
0.00 0.00 0.00 0.00 0.00 0.00 0.00 0.00 0.00 0.00 0.00 0.00 0.00 0.00 0.00 0.00 0.00 0.00 0.00 0.00 0.00 0.00 0.00 0.00 0.00 0.00 0.00 0.00 0.00 0.00 0.00 0.00 0.00 0.00 0.00 0.00 0.00 0.00 0.00 0.00 0.00 0.00 0.01 0.01 0.02 0.03 0.06 0.06 0.06
0.00 0.00 0.00 0.00 0.00 0.00 0.00 0.00 0.00 0.00 0.00 0.00 0.00 0.00 0.00 0.00 0.00 0.00 0.00 0.00 0.00 0.00 0.00 0.00 0.00 0.00 0.00 0.00 0.00 0.00 0.00 0.00 0.00 0.00 0.00 0.00 0.00 0.00 0.00 0.00 0.00 0.00 0.01 0.01 0.01 0.02 0.04 0.05 0.04
0.00 0.00 0.00 0.00 0.00 0.00 0.00 0.00 0.00 0.00 0.00 0.00 0.00 0.00 0.00 0.00 0.00 0.00 0.00 0.00 0.00 0.00 0.00 0.00 0.00 0.00 0.00 0.00 0.00 0.00 0.00 0.00 0.00 0.00 0.00 0.00 0.00 0.00 0.00 0.00 0.00 0.01 0.01 0.01 0.01 0.02 0.03 0.06 0.07
0.00 0.00 0.00 0.00 0.00 0.00 0.00 0.00 0.00 0.00 0.00 0.00 0.00 0.00 0.00 0.00 0.00 0.00 0.00 0.00 0.00 0.00 0.00 0.00 0.00 0.00 0.00 0.00 0.00 0.00 0.00 0.00 0.00 0.00 0.00 0.00 0.00 0.00 0.00 0.00 0.01 0.01 0.01 0.02 0.02 0.03 0.04 0.06 0.09
0.00 0.00 0.00 0.00 0.00 0.00 0.00 0.00 0.00 0.00 0.00 0.00 0.00 0.00 0.00 0.00 0.00 0.00 0.00 0.00 0.00 0.00 0.00 0.00 0.00 0.00 0.00 0.00 0.00 0.00 0.00 0.00 0.00 0.00 0.00 0.00 0.00 0.01 0.01 0.01 0.01 0.02 0.02 0.03 0.04 0.05 0.06 0.08 0.10
0.00 0.00 0.00 0.00 0.00 0.00 0.00 0.00 0.00 0.00 0.00 0.00 0.00 0.00 0.00 0.00 0.00 0.00 0.00 0.00 0.00 0.00 0.00 0.00 0.00 0.00 0.00 0.00 0.00 0.00 0.00 0.00 0.00 0.00 0.00 0.00 0.01 0.01 0.01 0.02 0.03 0.04 0.04 0.05 0.06 0.09 0.10 0.12 0.15
0.00 0.00 0.00 0.00 0.00 0.00 0.00 0.00 0.00 0.00 0.00 0.00 0.00 0.00 0.00 0.00 0.00 0.00 0.00 0.00 0.00 0.00 0.00 0.00 0.00 0.00 0.00 0.00 0.00 0.00 0.00 0.00 0.00 0.00 0.00 0.01 0.01 0.01 0.02 0.03 0.04 0.05 0.06 0.07 0.10 0.12 0.14 0.17 0.19
0.00 0.00 0.00 0.00 0.00 0.00 0.00 0.00 0.00 0.00 0.00 0.00 0.00 0.00 0.00 0.00 0.00 0.00 0.00 0.00 0.00 0.00 0.00 0.00 0.00 0.00 0.00 0.00 0.00 0.00 0.00 0.00 0.00 0.00 0.00 0.01 0.01 0.01 0.02 0.04 0.07 0.09 0.10 0.11 0.13 0.16 0.18 0.20 0.22
0.00 0.00 0.00 0.00 0.00 0.00 0.00 0.00 0.00 0.00 0.00 0.00 0.00 0.00 0.00 0.00 0.00 0.00 0.00 0.00 0.00 0.00 0.00 0.00 0.00 0.00 0.00 0.01 0.01 0.01 0.01 0.01 0.01 0.01 0.01 0.02 0.02 0.03 0.04 0.06 0.09 0.12 0.15 0.17 0.20 0.21 0.21 0.23 0.24
0.00 0.00 0.00 0.00 0.00 0.00 0.00 0.00 0.00 0.00 0.00 0.00 0.00 0.00 0.00 0.00 0.00 0.00 0.00 0.00 0.00 0.00 0.00 0.00 0.00 0.01 0.01 0.01 0.01 0.01 0.02 0.02 0.03 0.04 0.04 0.04 0.05 0.05 0.07 0.08 0.09 0.11 0.16 0.20 0.24 0.25 0.28 0.31 0.31
0.00 0.00 0.00 0.00 0.00 0.00 0.01 0.00 0.00 0.00 0.00 0.00 0.00 0.00 0.00 0.00 0.00 0.00 0.00 0.00 0.00 0.00 0.00 0.01 0.01 0.02 0.02 0.02 0.02 0.02 0.03 0.03 0.04 0.05 0.07 0.08 0.09 0.10 0.11 0.12 0.14 0.15 0.18 0.23 0.27 0.30 0.32 0.37 0.42

GEFSSGP_prec_meanprecacc_126.txt.gz
Total_Precipitation_Accumulation
0.00 0.00 0.00 0.00 0.00 0.00 0.00 0.00 0.00 0.00 0.00 0.00 0.00 0.00 0.00 0.00 0.00 0.00 0.00 0.00 0.01 0.02 0.03 0.05 0.07 0.07 0.08 0.08 0.08 0.06 0.06 0.06 0.06 0.07 0.07 0.09 0.12 0.14 0.18 0.18 0.19 0.19 0.23 0.26 0.23 0.27 0.35 0.40 0.47
0.00 0.00 0.00 0.00 0.00 0.00 0.00 0.00 0.00 0.00 0.00 0.00 0.00 0.00 0.00 0.00 0.00 0.00 0.00 0.00 0.00 0.01 0.01 0.03 0.05 0.07 0.08 0.08 0.07 0.06 0.06 0.05 0.05 0.06 0.06 0.07 0.11 0.14 0.17 0.19 0.20 0.22 0.28 0.30 0.32 0.34 0.38 0.42 0.45
0.00 0.00 0.00 0.00 0.00 0.00 0.00 0.00 0.00 0.00 0.00 0.00 0.00 0.00 0.00 0.00 0.00 0.00 0.00 0.00 0.00 0.00 0.00 0.02 0.04 0.06 0.07 0.08 0.08 0.07 0.06 0.05 0.05 0.06 0.06 0.07 0.08 0.11 0.14 0.18 0.20 0.23 0.28 0.27 0.30 0.34 0.32 0.35 0.37
0.00 0.00 0.00 0.00 0.00 0.00 0.00 0.00 0.00 0.00 0.00 0.00 0.00 0.00 0.00 0.00 0.00 0.00 0.00 0.00 0.00 0.00 0.00 0.01 0.04 0.06 0.08 0.09 0.10 0.08 0.06 0.05 0.06 0.07 0.07 0.07 0.07 0.08 0.10 0.11 0.13 0.17 0.22 0.23 0.26 0.30 0.30 0.34 0.36
0.00 0.00 0.00 0.00 0.00 0.00 0.00 0.00 0.00 0.00 0.00 0.00 0.00 0.00 0.00 0.00 0.00 0.00 0.00 0.00 0.00 0.00 0.00 0.01 0.03 0.06 0.07 0.09 0.11 0.09 0.07 0.07 0.07 0.08 0.10 0.10 0.09 0.09 0.10 0.09 0.08 0.09 0.11 0.16 0.21 0.26 0.30 0.37 0.35
0.00 0.00 0.00 0.00 0.00 0.00 0.00 0.00 0.00 0.00 0.00 0.00 0.00 0.00 0.00 0.00 0.00 0.00 0.00 0.00 0.00 0.00 0.00 0.01 0.03 0.06 0.07 0.09 0.12 0.11 0.09 0.08 0.08 0.08 0.10 0.10 0.10 0.12 0.13 0.12 0.10 0.09 0.09 0.10 0.13 0.20 0.32 0.39 0.34
0.00 0.00 0.00 0.00 0.00 0.00 0.00 0.00 0.00 0.00 0.00 0.00 0.00 0.00 0.00 0.00 0.00 0.00 0.00 0.00 0.00 0.00 0.00 0.01 0.02 0.04 0.06 0.09 0.13 0.14 0.11 0.10 0.10 0.10 0.10 0.09 0.09 0.11 0.14 0.14 0.12 0.11 0.10 0.10 0.10 0.13 0.23 0.32 0.33
0.00 0.00 0.00 0.00 0.00 0.00 0.00 0.00 0.00 0.00 0.00 0.00 0.00 0.00 0.00 0.00 0.00 0.00 0.00 0.00 0.00 0.00 0.00 0.00 0.01 0.02 0.03 0.06 0.11 0.15 0.13 0.11 0.12 0.11 0.09 0.08 0.07 0.08 0.10 0.10 0.10 0.10 0.11 0.11 0.10 0.10 0.15 0.20 0.25
0.00 0.00 0.00 0.00 0.00 0.00 0.00 0.00 0.00 0.00 0.00 0.00 0.00 0.00 0.00 0.00 0.00 0.00 0.00 0.00 0.00 0.00 0.00 0.00 0.00 0.01 0.02 0.03 0.06 0.11 0.12 0.10 0.10 0.09 0.08 0.07 0.06 0.05 0.06 0.05 0.06 0.08 0.09 0.09 0.11 0.12 0.11 0.12 0.11
0.00 0.00 0.00 0.00 0.00 0.00 0.00 0.00 0.00 0.00 0.00 0.00 0.00 0.00 0.00 0.00 0.00 0.00 0.00 0.00 0.00 0.00 0.00 0.00 0.00 0.01 0.01 0.02 0.04 0.06 0.07 0.07 0.07 0.06 0.06 0.07 0.06 0.06 0.07 0.06 0.06 0.07 0.08 0.09 0.12 0.12 0.09 0.09 0.08
0.00 0.00 0.00 0.00 0.00 0.00 0.00 0.00 0.00 0.00 0.00 0.00 0.00 0.00 0.00 0.00 0.00 0.00 0.00 0.00 0.00 0.00 0.00 0.00 0.01 0.01 0.01 0.01 0.02 0.03 0.04 0.06 0.07 0.06 0.06 0.08 0.10 0.11 0.09 0.07 0.06 0.06 0.06 0.08 0.10 0.12 0.12 0.15 0.20
0.00 0.00 0.00 0.00 0.00 0.00 0.00 0.00 0.00 0.00 0.00 0.00 0.00 0.00 0.00 0.00 0.00 0.00 0.00 0.00 0.00 0.00 0.00 0.00 0.01 0.01 0.01 0.01 0.01 0.02 0.02 0.03 0.05 0.05 0.06 0.08 0.10 0.09 0.08 0.07 0.06 0.06 0.06 0.07 0.08 0.10 0.12 0.13 0.16
0.00 0.00 0.00 0.00 0.00 0.00 0.00 0.00 0.00 0.00 0.00 0.00 0.00 0.00 0.00 0.00 0.00 0.00 0.00 0.00 0.00 0.00 0.00 0.00 0.01 0.01 0.01 0.01 0.01 0.01 0.02 0.03 0.03 0.04 0.05 0.05 0.06 0.07 0.07 0.06 0.05 0.04 0.05 0.06 0.07 0.07 0.08 0.10 0.13
0.00 0.00 0.00 0.00 0.00 0.00 0.00 0.00 0.00 0.00 0.00 0.00 0.00 0.00 0.00 0.00 0.00 0.00 0.00 0.00 0.00 0.00 0.00 0.00 0.00 0.01 0.01 0.01 0.01 0.01 0.01 0.02 0.02 0.02 0.03 0.02 0.03 0.03 0.03 0.03 0.03 0.02 0.02 0.03 0.03 0.04 0.05 0.06 0.08
0.00 0.00 0.00 0.00 0.00 0.00 0.00 0.00 0.00 0.00 0.00 0.00 0.00 0.00 0.00 0.00 0.00 0.00 0.00 0.00 0.00 0.00 0.00 0.00 0.00 0.01 0.01 0.01 0.01 0.01 0.01 0.01 0.01 0.01 0.01 0.01 0.01 0.01 0.01 0.01 0.02 0.01 0.02 0.03 0.03 0.03 0.03 0.04 0.06
0.00 0.00 0.00 0.00 0.00 0.00 0.00 0.00 0.00 0.00 0.00 0.00 0.00 0.00 0.00 0.00 0.00 0.00 0.00 0.00 0.00 0.00 0.00 0.00 0.00 0.00 0.01 0.01 0.01 0.01 0.01 0.01 0.01 0.01 0.01 0.01 0.01 0.02 0.02 0.03 0.02 0.02 0.02 0.05 0.06 0.06 0.06 0.06 0.07
0.00 0.00 0.00 0.00 0.00 0.00 0.00 0.00 0.00 0.00 0.00 0.00 0.00 0.00 0.00 0.00 0.00 0.00 0.00 0.00 0.00 0.00 0.00 0.00 0.00 0.00 0.01 0.01 0.01 0.01 0.01 0.01 0.01 0.01 0.01 0.01 0.02 0.02 0.03 0.03 0.05 0.05 0.07 0.09 0.11 0.10 0.12 0.11 0.10
0.00 0.00 0.00 0.00 0.00 0.00 0.00 0.00 0.00 0.00 0.00 0.00 0.00 0.00 0.00 0.00 0.00 0.00 0.00 0.00 0.00 0.00 0.00 0.00 0.00 0.00 0.01 0.01 0.01 0.01 0.01 0.01 0.01 0.01 0.01 0.01 0.01 0.01 0.01 0.02 0.03 0.06 0.10 0.13 0.15 0.13 0.13 0.15 0.17
0.00 0.00 0.00 0.00 0.00 0.00 0.00 0.00 0.00 0.00 0.00 0.00 0.00 0.00 0.00 0.00 0.00 0.00 0.00 0.00 0.00 0.00 0.00 0.00 0.00 0.00 0.00 0.01 0.01 0.01 0.01 0.01 0.00 0.00 0.00 0.00 0.00 0.00 0.00 0.01 0.01 0.02 0.03 0.06 0.08 0.11 0.11 0.11 0.12
0.00 0.00 0.00 0.00 0.00 0.00 0.00 0.00 0.00 0.00 0.00 0.00 0.00 0.00 0.00 0.00 0.00 0.00 0.00 0.00 0.00 0.00 0.00 0.00 0.00 0.00 0.00 0.00 0.00 0.00 0.00 0.00 0.00 0.00 0.00 0.00 0.00 0.00 0.00 0.00 0.00 0.00 0.01 0.01 0.02 0.04 0.06 0.06 0.06
0.00 0.00 0.00 0.00 0.00 0.00 0.00 0.00 0.00 0.00 0.00 0.00 0.00 0.00 0.00 0.00 0.00 0.00 0.00 0.00 0.00 0.00 0.00 0.00 0.00 0.00 0.00 0.00 0.00 0.00 0.00 0.00 0.00 0.00 0.00 0.00 0.00 0.00 0.00 0.00 0.00 0.00 0.01 0.01 0.01 0.02 0.04 0.05 0.04
0.00 0.00 0.00 0.00 0.00 0.00 0.00 0.00 0.00 0.00 0.00 0.00 0.00 0.00 0.00 0.00 0.00 0.00 0.00 0.00 0.00 0.00 0.00 0.00 0.00 0.00 0.00 0.00 0.00 0.00 0.00 0.00 0.00 0.00 0.00 0.00 0.00 0.00 0.00 0.00 0.00 0.01 0.01 0.01 0.01 0.02 0.03 0.06 0.07
0.00 0.00 0.00 0.00 0.00 0.00 0.00 0.00 0.00 0.00 0.00 0.00 0.00 0.00 0.00 0.00 0.00 0.00 0.00 0.00 0.00 0.00 0.00 0.00 0.00 0.00 0.00 0.00 0.00 0.00 0.00 0.00 0.00 0.00 0.00 0.00 0.00 0.00 0.00 0.00 0.01 0.01 0.01 0.02 0.02 0.03 0.04 0.06 0.09
0.00 0.00 0.00 0.00 0.00 0.00 0.00 0.00 0.00 0.00 0.00 0.00 0.00 0.00 0.00 0.00 0.00 0.00 0.00 0.00 0.00 0.00 0.00 0.00 0.00 0.00 0.00 0.00 0.00 0.00 0.00 0.00 0.00 0.00 0.00 0.00 0.00 0.01 0.01 0.01 0.01 0.02 0.02 0.03 0.04 0.05 0.06 0.08 0.10
0.00 0.00 0.00 0.00 0.00 0.00 0.00 0.00 0.00 0.00 0.00 0.00 0.00 0.00 0.00 0.00 0.00 0.00 0.00 0.00 0.00 0.00 0.00 0.00 0.00 0.00 0.00 0.00 0.00 0.00 0.00 0.00 0.00 0.00 0.00 0.01 0.01 0.01 0.01 0.02 0.03 0.04 0.04 0.05 0.06 0.09 0.10 0.12 0.15
0.00 0.00 0.00 0.00 0.00 0.00 0.00 0.00 0.00 0.00 0.00 0.00 0.00 0.00 0.00 0.00 0.00 0.00 0.00 0.00 0.00 0.00 0.00 0.00 0.00 0.00 0.00 0.00 0.00 0.00 0.00 0.00 0.00 0.00 0.00 0.01 0.01 0.01 0.02 0.03 0.04 0.05 0.06 0.07 0.10 0.12 0.14 0.17 0.19
0.00 0.00 0.00 0.00 0.00 0.00 0.00 0.00 0.00 0.00 0.00 0.00 0.00 0.00 0.00 0.00 0.00 0.00 0.00 0.00 0.00 0.00 0.00 0.00 0.00 0.00 0.00 0.00 0.00 0.00 0.00 0.00 0.00 0.00 0.00 0.01 0.01 0.01 0.02 0.04 0.07 0.09 0.10 0.11 0.13 0.16 0.18 0.20 0.22
0.00 0.00 0.00 0.00 0.00 0.00 0.00 0.00 0.00 0.00 0.00 0.00 0.00 0.00 0.00 0.00 0.00 0.00 0.00 0.00 0.00 0.00 0.00 0.00 0.00 0.00 0.00 0.01 0.01 0.01 0.01 0.01 0.01 0.01 0.01 0.02 0.02 0.03 0.04 0.06 0.09 0.12 0.15 0.17 0.20 0.21 0.21 0.23 0.24
0.00 0.00 0.00 0.00 0.00 0.00 0.00 0.00 0.00 0.00 0.00 0.00 0.00 0.00 0.00 0.00 0.00 0.00 0.00 0.00 0.00 0.00 0.00 0.00 0.00 0.01 0.01 0.01 0.01 0.01 0.02 0.02 0.03 0.04 0.04 0.04 0.05 0.05 0.07 0.08 0.09 0.11 0.16 0.20 0.24 0.25 0.28 0.31 0.31
0.00 0.00 0.00 0.00 0.00 0.00 0.01 0.00 0.00 0.00 0.00 0.00 0.00 0.00 0.00 0.00 0.00 0.00 0.00 0.00 0.00 0.00 0.00 0.01 0.01 0.02 0.02 0.02 0.02 0.02 0.03 0.03 0.04 0.05 0.07 0.08 0.09 0.10 0.11 0.12 0.14 0.15 0.18 0.23 0.27 0.30 0.32 0.37 0.42

GEFSSGP_prec_meanprecacc_132.txt.gz
Total_Precipitation_Accumulation
0.00 0.00 0.00 0.00 0.00 0.00 0.00 0.00 0.00 0.00 0.00 0.00 0.00 0.00 0.00 0.00 0.00 0.00 0.00 0.00 0.01 0.02 0.03 0.06 0.07 0.07 0.09 0.10 0.09 0.07 0.07 0.07 0.07 0.08 0.08 0.10 0.12 0.14 0.18 0.19 0.20 0.20 0.24 0.26 0.23 0.27 0.35 0.40 0.47
0.00 0.00 0.00 0.00 0.00 0.00 0.00 0.00 0.00 0.00 0.00 0.00 0.00 0.00 0.00 0.00 0.00 0.00 0.00 0.00 0.00 0.01 0.02 0.03 0.05 0.07 0.09 0.09 0.08 0.07 0.06 0.06 0.06 0.07 0.06 0.08 0.11 0.14 0.17 0.19 0.20 0.22 0.28 0.30 0.32 0.35 0.38 0.43 0.46
0.00 0.00 0.00 0.00 0.00 0.00 0.00 0.00 0.00 0.00 0.00 0.00 0.00 0.00 0.00 0.00 0.00 0.00 0.00 0.00 0.00 0.00 0.01 0.02 0.05 0.07 0.09 0.10 0.09 0.08 0.06 0.06 0.06 0.07 0.06 0.07 0.09 0.11 0.15 0.18 0.20 0.23 0.28 0.27 0.31 0.34 0.32 0.35 0.37
0.00 0.00 0.00 0.00 0.00 0.00 0.00 0.00 0.00 0.00 0.00 0.00 0.00 0.00 0.00 0.00 0.00 0.00 0.00 0.00 0.00 0.00 0.00 0.01 0.04 0.07 0.09 0.11 0.11 0.09 0.07 0.06 0.07 0.08 0.08 0.08 0.08 0.08 0.10 0.11 0.13 0.17 0.22 0.23 0.26 0.30 0.30 0.34 0.36
0.00 0.00 0.00 0.00 0.00 0.00 0.00 0.00 0.00 0.00 0.00 0.00 0.00 0.00 0.00 0.00 0.00 0.00 0.00 0.00 0.00 0.00 0.00 0.01 0.04 0.07 0.08 0.11 0.13 0.11 0.08 0.07 0.07 0.09 0.10 0.10 0.09 0.09 0.10 0.09 0.09 0.09 0.11 0.16 0.22 0.26 0.30 0.37 0.35
0.00 0.00 0.00 0.00 0.00 0.00 0.00 0.00 0.00 0.00 0.00 0.00 0.00 0.00 0.00 0.00 0.00 0.00 0.00 0.00 0.00 0.00 0.00 0.01 0.03 0.06 0.08 0.11 0.14 0.12 0.10 0.09 0.08 0.09 0.10 0.10 0.10 0.12 0.13 0.12 0.10 0.09 0.09 0.10 0.13 0.20 0.32 0.39 0.34
0.00 0.00 0.00 0.00 0.00 0.00 0.00 0.00 0.00 0.00 0.00 0.00 0.00 0.00 0.00 0.00 0.00 0.00 0.00 0.00 0.00 0.00 0.00 0.01 0.02 0.04 0.07 0.10 0.15 0.15 0.12 0.11 0.11 0.10 0.10 0.09 0.09 0.11 0.14 0.14 0.12 0.11 0.10 0.10 0.10 0.13 0.24 0.32 0.33
0.00 0.00 0.00 0.00 0.00 0.00 0.00 0.00 0.00 0.00 0.00 0.00 0.00 0.00 0.00 0.00 0.00 0.00 0.00 0.00 0.00 0.00 0.01 0.01 0.01 0.02 0.04 0.07 0.12 0.16 0.14 0.12 0.13 0.12 0.09 0.08 0.07 0.09 0.10 0.10 0.10 0.10 0.11 0.11 0.10 0.11 0.15 0.20 0.25
0.00 0.00 0.00 0.00 0.00 0.00 0.00 0.00 0.00 0.00 0.00 0.00 0.00 0.00 0.00 0.00 0.00 0.00 0.00 0.00 0.00 0.00 0.00 0.01 0.01 0.01 0.03 0.05 0.07 0.11 0.13 0.11 0.11 0.10 0.08 0.08 0.06 0.05 0.06 0.05 0.06 0.08 0.09 0.09 0.11 0.12 0.11 0.12 0.11
0.00 0.00 0.00 0.00 0.00 0.00 0.00 0.00 0.00 0.00 0.00 0.00 0.00 0.00 0.00 0.00 0.00 0.00 0.00 0.00 0.00 0.00 0.00 0.01 0.01 0.01 0.02 0.03 0.04 0.07 0.08 0.08 0.08 0.07 0.07 0.07 0.06 0.06 0.07 0.06 0.06 0.07 0.08 0.09 0.12 0.12 0.09 0.09 0.08
0.00 0.00 0.00 0.00 0.00 0.00 0.00 0.00 0.00 0.00 0.00 0.00 0.00 0.00 0.00 0.00 0.00 0.00 0.00 0.00 0.00 0.00 0.00 0.00 0.01 0.01 0.01 0.02 0.03 0.04 0.05 0.07 0.07 0.06 0.06 0.09 0.10 0.11 0.09 0.07 0.06 0.06 0.06 0.08 0.10 0.12 0.12 0.15 0.20
0.00 0.00 0.00 0.00 0.00 0.00 0.00 0.00 0.00 0.00 0.00 0.00 0.00 0.00 0.00 0.00 0.00 0.00 0.00 0.00 0.00 0.00 0.00 0.00 0.01 0.01 0.01 0.01 0.02 0.02 0.03 0.04 0.05 0.06 0.06 0.08 0.10 0.09 0.08 0.07 0.06 0.06 0.06 0.07 0.09 0.10 0.12 0.13 0.16
0.00 0.00 0.00 0.00 0.00 0.00 0.00 0.00 0.00 0.00 0.00 0.00 0.00 0.00 0.00 0.00 0.00 0.00 0.00 0.00 0.00 0.00 0.00 0.00 0.01 0.01 0.01 0.01 0.01 0.02 0.02 0.03 0.04 0.04 0.05 0.05 0.06 0.07 0.07 0.06 0.05 0.04 0.05 0.06 0.07 0.07 0.08 0.10 0.13
0.00 0.00 0.00 0.00 0.00 0.00 0.00 0.00 0.00 0.00 0.00 0.00 0.00 0.00 0.00 0.00 0.00 0.00 0.00 0.00 0.00 0.00 0.00 0.00 0.00 0.01 0.01 0.01 0.02 0.01 0.02 0.02 0.02 0.03 0.03 0.03 0.03 0.04 0.04 0.03 0.03 0.02 0.02 0.03 0.03 0.04 0.05 0.06 0.09
0.00 0.00 0.00 0.00 0.00 0.00 0.00 0.00 0.00 0.00 0.00 0.00 0.00 0.00 0.00 0.00 0.00 0.00 0.00 0.00 0.00 0.00 0.00 0.00 0.00 0.01 0.01 0.02 0.02 0.01 0.01 0.01 0.02 0.02 0.02 0.01 0.01 0.01 0.02 0.02 0.02 0.02 0.02 0.03 0.03 0.03 0.03 0.04 0.06
0.00 0.00 0.00 0.00 0.00 0.00 0.00 0.00 0.00 0.00 0.00 0.00 0.00 0.00 0.00 0.00 0.00 0.00 0.00 0.00 0.00 0.00 0.00 0.00 0.00 0.00 0.01 0.02 0.02 0.02 0.01 0.01 0.02 0.02 0.01 0.01 0.02 0.02 0.02 0.03 0.03 0.02 0.02 0.05 0.06 0.06 0.06 0.06 0.07
0.00 0.00 0.00 0.00 0.00 0.00 0.00 0.00 0.00 0.00 0.00 0.00 0.00 0.00 0.00 0.00 0.00 0.00 0.00 0.00 0.00 0.00 0.00 0.00 0.00 0.00 0.01 0.02 0.02 0.02 0.01 0.01 0.01 0.01 0.01 0.01 0.02 0.02 0.03 0.04 0.05 0.06 0.07 0.09 0.11 0.10 0.12 0.11 0.10
0.00 0.00 0.00 0.00 0.00 0.00 0.00 0.00 0.00 0.00 0.00 0.00 0.00 0.00 0.00 0.00 0.00 0.00 0.00 0.00 0.00 0.00 0.00 0.00 0.00 0.00 0.01 0.01 0.02 0.02 0.02 0.01 0.01 0.01 0.01 0.01 0.01 0.01 0.01 0.02 0.03 0.06 0.10 0.13 0.16 0.13 0.13 0.15 0.17
0.00 0.00 0.00 0.00 0.00 0.00 0.00 0.00 0.00 0.00 0.00 0.00 0.00 0.00 0.00 0.00 0.00 0.00 0.00 0.00 0.00 0.00 0.00 0.00 0.00 0.00 0.01 0.01 0.01 0.01 0.02 0.01 0.02 0.02 0.01 0.01 0.01 0.00 0.00 0.01 0.01 0.02 0.03 0.06 0.08 0.11 0.11 0.11 0.12
0.00 0.00 0.00 0.00 0.00 0.00 0.00 0.00 0.00 0.00 0.00 0.00 0.00 0.00 0.00 0.00 0.00 0.00 0.00 0.00 0.00 0.00 0.00 0.00 0.00 0.00 0.00 0.01 0.01 0.01 0.01 0.01 0.01 0.01 0.01 0.01 0.00 0.00 0.00 0.00 0.01 0.00 0.01 0.01 0.02 0.04 0.06 0.06 0.06
0.00 0.00 0.00 0.00 0.00 0.00 0.00 0.00 0.00 0.00 0.00 0.00 0.00 0.00 0.00 0.00 0.00 0.00 0.00 0.00 0.00 0.00 0.00 0.00 0.00 0.00 0.00 0.00 0.01 0.01 0.01 0.01 0.01 0.01 0.01 0.01 0.01 0.00 0.00 0.00 0.00 0.00 0.01 0.01 0.01 0.02 0.04 0.05 0.04
0.00 0.00 0.00 0.00 0.00 0.00 0.00 0.00 0.00 0.00 0.00 0.00 0.00 0.00 0.00 0.00 0.00 0.00 0.00 0.00 0.00 0.00 0.00 0.00 0.00 0.00 0.00 0.00 0.00 0.00 0.01 0.01 0.01 0.01 0.01 0.01 0.00 0.00 0.00 0.00 0.00 0.01 0.01 0.01 0.02 0.02 0.03 0.06 0.07
0.00 0.00 0.00 0.00 0.00 0.00 0.00 0.00 0.00 0.00 0.00 0.00 0.00 0.00 0.00 0.00 0.00 0.00 0.00 0.00 0.00 0.00 0.00 0.00 0.00 0.00 0.00 0.00 0.00 0.01 0.01 0.01 0.01 0.01 0.00 0.00 0.00 0.00 0.00 0.00 0.01 0.01 0.01 0.02 0.02 0.03 0.04 0.06 0.09
0.00 0.00 0.00 0.00 0.00 0.00 0.00 0.00 0.00 0.00 0.00 0.00 0.00 0.00 0.00 0.00 0.00 0.00 0.00 0.00 0.00 0.00 0.00 0.00 0.00 0.00 0.00 0.00 0.00 0.00 0.00 0.00 0.01 0.01 0.01 0.01 0.01 0.01 0.01 0.01 0.01 0.02 0.02 0.03 0.04 0.05 0.06 0.08 0.10
0.00 0.00 0.01 0.01 0.00 0.00 0.00 0.00 0.00 0.00 0.00 0.00 0.00 0.00 0.00 0.00 0.00 0.00 0.00 0.00 0.00 0.00 0.00 0.00 0.00 0.00 0.00 0.00 0.00 0.00 0.00 0.00 0.00 0.00 0.01 0.01 0.01 0.01 0.02 0.02 0.03 0.04 0.04 0.05 0.06 0.09 0.10 0.12 0.15
0.00 0.00 0.01 0.00 0.00 0.00 0.00 0.00 0.00 0.00 0.00 0.00 0.00 0.00 0.00 0.00 0.00 0.00 0.00 0.00 0.00 0.00 0.00 0.00 0.00 0.00 0.00 0.00 0.00 0.00 0.00 0.00 0.00 0.00 0.01 0.01 0.01 0.01 0.02 0.03 0.05 0.06 0.06 0.07 0.10 0.12 0.14 0.17 0.19
0.00 0.00 0.00 0.00 0.00 0.00 0.00 0.00 0.00 0.00 0.00 0.00 0.00 0.00 0.00 0.00 0.00 0.00 0.00 0.00 0.00 0.00 0.00 0.00 0.00 0.00 0.00 0.00 0.00 0.00 0.00 0.00 0.00 0.00 0.00 0.01 0.01 0.02 0.02 0.04 0.07 0.09 0.10 0.11 0.13 0.16 0.18 0.20 0.22
0.00 0.00 0.00 0.01 0.01 0.00 0.00 0.00 0.00 0.00 0.00 0.00 0.00 0.00 0.00 0.00 0.00 0.00 0.00 0.00 0.00 0.00 0.00 0.00 0.00 0.00 0.00 0.01 0.01 0.01 0.01 0.01 0.01 0.01 0.01 0.02 0.02 0.03 0.04 0.06 0.09 0.12 0.15 0.17 0.20 0.21 0.21 0.23 0.24
0.00 0.00 0.01 0.01 0.00 0.00 0.00 0.00 0.00 0.00 0.00 0.00 0.00 0.00 0.00 0.00 0.00 0.00 0.00 0.00 0.00 0.00 0.00 0.00 0.00 0.01 0.01 0.01 0.01 0.01 0.02 0.02 0.03 0.04 0.04 0.04 0.05 0.05 0.07 0.08 0.09 0.11 0.16 0.20 0.24 0.25 0.28 0.31 0.31
0.00 0.00 0.00 0.01 0.00 0.00 0.01 0.00 0.00 0.00 0.00 0.00 0.00 0.00 0.00 0.00 0.00 0.00 0.00 0.00 0.00 0.00 0.00 0.01 0.01 0.02 0.02 0.02 0.02 0.02 0.03 0.03 0.04 0.05 0.07 0.08 0.09 0.10 0.11 0.12 0.14 0.15 0.18 0.23 0.27 0.30 0.32 0.37 0.42

GEFSSGP_prec_meanprecacc_138.txt.gz
Total_Precipitation_Accumulation
0.00 0.00 0.00 0.00 0.00 0.00 0.00 0.00 0.00 0.00 0.00 0.00 0.00 0.00 0.00 0.00 0.00 0.00 0.00 0.00 0.01 0.02 0.03 0.06 0.08 0.08 0.10 0.11 0.10 0.08 0.08 0.07 0.07 0.08 0.08 0.10 0.12 0.15 0.18 0.19 0.20 0.20 0.24 0.26 0.24 0.28 0.35 0.40 0.47
0.00 0.00 0.00 0.00 0.00 0.00 0.00 0.00 0.00 0.00 0.00 0.00 0.00 0.00 0.00 0.00 0.00 0.00 0.00 0.00 0.00 0.01 0.02 0.03 0.06 0.08 0.10 0.10 0.09 0.07 0.07 0.06 0.06 0.07 0.07 0.08 0.11 0.14 0.18 0.20 0.20 0.22 0.29 0.30 0.33 0.35 0.38 0.43 0.46
0.00 0.00 0.00 0.00 0.00 0.00 0.00 0.00 0.00 0.00 0.00 0.00 0.00 0.00 0.00 0.00 0.00 0.00 0.00 0.00 0.00 0.00 0.01 0.02 0.05 0.08 0.09 0.10 0.10 0.08 0.06 0.06 0.06 0.07 0.07 0.08 0.09 0.11 0.15 0.18 0.20 0.23 0.28 0.27 0.31 0.34 0.33 0.35 0.37
0.00 0.00 0.00 0.00 0.00 0.00 0.00 0.00 0.00 0.00 0.00 0.00 0.00 0.00 0.00 0.00 0.00 0.00 0.00 0.00 0.00 0.00 0.00 0.01 0.04 0.07 0.10 0.11 0.12 0.10 0.07 0.06 0.07 0.08 0.08 0.08 0.08 0.08 0.10 0.12 0.13 0.17 0.22 0.24 0.27 0.31 0.30 0.34 0.36
0.00 0.00 0.00 0.00 0.00 0.00 0.00 0.00 0.00 0.00 0.00 0.00 0.00 0.00 0.00 0.00 0.00 0.00 0.00 0.00 0.00 0.00 0.00 0.01 0.04 0.07 0.09 0.12 0.14 0.11 0.09 0.08 0.08 0.09 0.11 0.10 0.09 0.09 0.10 0.09 0.09 0.09 0.11 0.16 0.22 0.27 0.30 0.37 0.35
0.00 0.00 0.00 0.00 0.00 0.00 0.00 0.00 0.00 0.00 0.00 0.00 0.00 0.00 0.00 0.00 0.00 0.00 0.00 0.00 0.00 0.00 0.00 0.01 0.04 0.07 0.08 0.11 0.15 0.12 0.11 0.09 0.09 0.09 0.10 0.10 0.10 0.12 0.13 0.12 0.10 0.09 0.09 0.10 0.14 0.20 0.33 0.39 0.34
0.00 0.00 0.00 0.00 0.00 0.00 0.00 0.00 0.00 0.00 0.00 0.00 0.00 0.00 0.00 0.00 0.00 0.00 0.00 0.00 0.00 0.00 0.00 0.01 0.02 0.05 0.07 0.11 0.16 0.16 0.13 0.12 0.11 0.11 0.10 0.09 0.09 0.11 0.14 0.14 0.12 0.11 0.11 0.11 0.10 0.13 0.24 0.32 0.33
0.00 0.00 0.00 0.00 0.00 0.00 0.00 0.00 0.00 0.00 0.00 0.00 0.00 0.00 0.00 0.00 0.00 0.00 0.00 0.00 0.00 0.00 0.01 0.01 0.01 0.02 0.04 0.08 0.13 0.17 0.14 0.13 0.13 0.12 0.09 0.08 0.07 0.09 0.10 0.10 0.10 0.10 0.11 0.11 0.10 0.11 0.15 0.20 0.25
0.00 0.00 0.00 0.00 0.00 0.00 0.00 0.00 0.00 0.00 0.00 0.00 0.00 0.00 0.00 0.00 0.00 0.00 0.00 0.00 0.00 0.00 0.00 0.01 0.01 0.01 0.03 0.05 0.07 0.12 0.13 0.12 0.11 0.10 0.08 0.08 0.06 0.05 0.06 0.05 0.06 0.08 0.09 0.09 0.11 0.12 0.11 0.12 0.11
0.00 0.00 0.00 0.00 0.00 0.00 0.00 0.00 0.00 0.00 0.00 0.00 0.00 0.00 0.00 0.00 0.00 0.00 0.00 0.00 0.00 0.00 0.00 0.01 0.01 0.01 0.02 0.03 0.04 0.07 0.08 0.08 0.08 0.07 0.07 0.07 0.06 0.06 0.07 0.06 0.06 0.07 0.08 0.09 0.12 0.12 0.09 0.09 0.08
0.00 0.00 0.00 0.00 0.00 0.00 0.00 0.00 0.00 0.00 0.00 0.00 0.00 0.00 0.00 0.00 0.00 0.00 0.00 0.00 0.00 0.00 0.00 0.00 0.01 0.01 0.01 0.02 0.03 0.04 0.05 0.07 0.07 0.06 0.06 0.09 0.10 0.11 0.09 0.07 0.06 0.06 0.06 0.08 0.10 0.12 0.12 0.15 0.20
0.00 0.00 0.00 0.00 0.00 0.00 0.00 0.00 0.00 0.00 0.00 0.00 0.00 0.00 0.00 0.00 0.00 0.00 0.00 0.00 0.00 0.00 0.00 0.00 0.01 0.01 0.01 0.01 0.02 0.02 0.03 0.04 0.05 0.06 0.06 0.08 0.10 0.09 0.08 0.07 0.06 0.06 0.06 0.07 0.09 0.10 0.12 0.13 0.16
0.00 0.00 0.00 0.00 0.00 0.00 0.00 0.00 0.00 0.00 0.00 0.00 0.00 0.00 0.00 0.00 0.00 0.00 0.00 0.00 0.00 0.00 0.00 0.00 0.01 0.01 0.01 0.01 0.01 0.02 0.02 0.03 0.04 0.04 0.05 0.05 0.06 0.07 0.07 0.06 0.05 0.04 0.05 0.06 0.07 0.07 0.08 0.10 0.13
0.00 0.00 0.00 0.00 0.00 0.00 0.00 0.00 0.00 0.00 0.00 0.00 0.00 0.00 0.00 0.00 0.00 0.00 0.00 0.00 0.00 0.00 0.00 0.00 0.00 0.01 0.01 0.01 0.02 0.01 0.02 0.02 0.02 0.03 0.03 0.03 0.03 0.04 0.04 0.03 0.03 0.02 0.02 0.03 0.03 0.04 0.05 0.06 0.09
0.00 0.00 0.00 0.00 0.00 0.00 0.00 0.00 0.00 0.00 0.00 0.00 0.00 0.00 0.00 0.00 0.00 0.00 0.00 0.00 0.00 0.00 0.00 0.00 0.00 0.01 0.01 0.02 0.02 0.01 0.01 0.01 0.02 0.02 0.02 0.02 0.01 0.01 0.02 0.02 0.02 0.02 0.02 0.03 0.03 0.03 0.03 0.04 0.06
0.00 0.00 0.00 0.00 0.00 0.00 0.00 0.00 0.00 0.00 0.00 0.00 0.00 0.00 0.00 0.00 0.00 0.00 0.00 0.00 0.00 0.00 0.00 0.00 0.00 0.00 0.01 0.02 0.02 0.02 0.01 0.01 0.02 0.02 0.02 0.02 0.02 0.02 0.03 0.03 0.03 0.02 0.02 0.05 0.06 0.06 0.06 0.06 0.07
0.00 0.00 0.00 0.00 0.00 0.00 0.00 0.00 0.00 0.00 0.00 0.00 0.00 0.00 0.00 0.00 0.00 0.00 0.00 0.00 0.00 0.00 0.00 0.00 0.00 0.00 0.01 0.02 0.02 0.02 0.01 0.01 0.01 0.01 0.01 0.01 0.03 0.03 0.03 0.04 0.05 0.06 0.07 0.09 0.11 0.10 0.12 0.11 0.10
0.00 0.00 0.00 0.00 0.00 0.00 0.00 0.00 0.00 0.00 0.00 0.00 0.00 0.00 0.00 0.00 0.00 0.00 0.00 0.00 0.00 0.00 0.00 0.00 0.00 0.00 0.01 0.01 0.02 0.02 0.02 0.01 0.01 0.02 0.02 0.01 0.02 0.01 0.02 0.02 0.03 0.06 0.10 0.13 0.16 0.13 0.13 0.15 0.17
0.00 0.00 0.00 0.00 0.00 0.00 0.00 0.00 0.00 0.00 0.00 0.00 0.00 0.00 0.00 0.00 0.00 0.00 0.00 0.00 0.00 0.00 0.00 0.00 0.00 0.00 0.01 0.01 0.02 0.02 0.02 0.02 0.02 0.02 0.02 0.01 0.01 0.01 0.01 0.01 0.01 0.02 0.03 0.06 0.08 0.11 0.11 0.11 0.12
0.00 0.00 0.00 0.00 0.00 0.00 0.00 0.00 0.00 0.00 0.00 0.00 0.00 0.00 0.00 0.00 0.00 0.00 0.00 0.00 0.00 0.00 0.00 0.00 0.00 0.00 0.00 0.01 0.01 0.01 0.01 0.01 0.02 0.02 0.02 0.02 0.01 0.01 0.00 0.01 0.01 0.01 0.01 0.01 0.02 0.04 0.06 0.06 0.06
0.00 0.00 0.00 0.00 0.00 0.00 0.00 0.00 0.00 0.00 0.00 0.00 0.00 0.00 0.00 0.00 0.00 0.00 0.00 0.00 0.00 0.00 0.00 0.00 0.00 0.00 0.00 0.00 0.01 0.01 0.01 0.01 0.01 0.01 0.02 0.02 0.02 0.01 0.01 0.01 0.01 0.00 0.01 0.01 0.01 0.02 0.04 0.05 0.04
0.00 0.00 0.00 0.00 0.00 0.00 0.00 0.00 0.00 0.00 0.00 0.00 0.00 0.00 0.00 0.00 0.00 0.00 0.00 0.00 0.00 0.00 0.00 0.00 0.00 0.00 0.00 0.00 0.01 0.01 0.01 0.01 0.01 0.01 0.01 0.01 0.01 0.01 0.01 0.01 0.01 0.01 0.01 0.01 0.02 0.02 0.03 0.06 0.07
0.00 0.00 0.00 0.00 0.00 0.00 0.00 0.00 0.00 0.00 0.00 0.00 0.00 0.00 0.00 0.00 0.00 0.00 0.00 0.00 0.00 0.00 0.00 0.00 0.00 0.00 0.00 0.00 0.00 0.01 0.01 0.01 0.01 0.01 0.01 0.01 0.01 0.01 0.01 0.01 0.01 0.01 0.01 0.02 0.02 0.03 0.04 0.06 0.10
0.00 0.01 0.01 0.01 0.01 0.01 0.00 0.00 0.00 0.00 0.00 0.00 0.00 0.00 0.00 0.00 0.00 0.00 0.00 0.00 0.00 0.00 0.00 0.00 0.00 0.00 0.00 0.00 0.00 0.01 0.01 0.01 0.01 0.01 0.01 0.01 0.01 0.01 0.01 0.01 0.02 0.02 0.02 0.03 0.04 0.05 0.06 0.08 0.10
0.01 0.02 0.05 0.04 0.03 0.02 0.00 0.00 0.00 0.00 0.00 0.00 0.00 0.00 0.00 0.00 0.00 0.00 0.00 0.00 0.00 0.00 0.00 0.00 0.00 0.00 0.00 0.00 0.00 0.00 0.00 0.00 0.00 0.00 0.01 0.01 0.01 0.02 0.02 0.02 0.03 0.04 0.05 0.05 0.07 0.09 0.11 0.12 0.15
0.01 0.02 0.04 0.03 0.01 0.00 0.00 0.00 0.00 0.00 0.00 0.00 0.00 0.00 0.00 0.00 0.00 0.00 0.00 0.00 0.00 0.00 0.00 0.00 0.00 0.00 0.00 0.00 0.00 0.00 0.00 0.00 0.00 0.00 0.01 0.01 0.01 0.02 0.02 0.03 0.05 0.06 0.06 0.08 0.10 0.12 0.14 0.17 0.19
0.01 0.02 0.01 0.02 0.01 0.01 0.00 0.00 0.00 0.00 0.00 0.00 0.00 0.00 0.00 0.00 0.00 0.00 0.00 0.00 0.00 0.00 0.00 0.00 0.00 0.00 0.00 0.00 0.00 0.00 0.00 0.00 0.00 0.00 0.01 0.01 0.01 0.02 0.03 0.05 0.07 0.09 0.11 0.12 0.14 0.17 0.18 0.20 0.22
0.01 0.02 0.03 0.05 0.04 0.02 0.00 0.00 0.00 0.00 0.00 0.00 0.00 0.00 0.00 0.00 0.00 0.00 0.00 0.00 0.00 0.00 0.00 0.00 0.00 0.00 0.00 0.01 0.01 0.01 0.01 0.01 0.01 0.01 0.01 0.02 0.02 0.03 0.04 0.06 0.09 0.12 0.15 0.18 0.21 0.22 0.22 0.23 0.24
0.01 0.02 0.04 0.05 0.04 0.02 0.01 0.00 0.00 0.00 0.00 0.00 0.00 0.00 0.00 0.00 0.00 0.00 0.00 0.00 0.00 0.00 0.00 0.00 0.00 0.01 0.01 0.01 0.01 0.01 0.02 0.02 0.03 0.04 0.04 0.04 0.05 0.05 0.07 0.08 0.09 0.12 0.16 0.21 0.24 0.25 0.28 0.31 0.31
0.01 0.01 0.02 0.04 0.04 0.02 0.01 0.00 0.00 0.00 0.00 0.00 0.00 0.00 0.00 0.00 0.00 0.00 0.00 0.00 0.00 0.00 0.00 0.01 0.01 0.02 0.02 0.02 0.02 0.03 0.03 0.03 0.04 0.05 0.07 0.08 0.09 0.10 0.11 0.12 0.14 0.15 0.18 0.23 0.27 0.30 0.32 0.37 0.42

GEFSSGP_prec_meanprecacc_144.txt.gz
Total_Precipitation_Accumulation
0.00 0.00 0.00 0.00 0.00 0.00 0.00 0.00 0.00 0.00 0.00 0.00 0.00 0.00 0.00 0.00 0.00 0.00 0.00 0.00 0.01 0.02 0.04 0.07 0.09 0.10 0.11 0.13 0.12 0.09 0.08 0.08 0.08 0.09 0.09 0.11 0.12 0.15 0.19 0.19 0.20 0.20 0.24 0.27 0.25 0.28 0.36 0.41 0.48
0.00 0.00 0.00 0.00 0.00 0.00 0.00 0.00 0.00 0.00 0.00 0.00 0.00 0.00 0.00 0.00 0.00 0.00 0.00 0.00 0.00 0.01 0.02 0.03 0.07 0.09 0.11 0.11 0.10 0.08 0.08 0.07 0.07 0.08 0.07 0.08 0.11 0.15 0.18 0.20 0.21 0.22 0.29 0.31 0.33 0.35 0.38 0.43 0.46
0.00 0.00 0.00 0.00 0.00 0.00 0.00 0.00 0.00 0.00 0.00 0.00 0.00 0.00 0.00 0.00 0.00 0.00 0.00 0.00 0.00 0.00 0.01 0.02 0.06 0.09 0.11 0.12 0.11 0.09 0.07 0.06 0.07 0.07 0.07 0.08 0.09 0.11 0.15 0.18 0.20 0.23 0.28 0.27 0.31 0.35 0.33 0.35 0.37
0.00 0.00 0.00 0.00 0.00 0.00 0.00 0.00 0.00 0.00 0.00 0.00 0.00 0.00 0.00 0.00 0.00 0.00 0.00 0.00 0.00 0.00 0.00 0.02 0.05 0.09 0.11 0.12 0.13 0.10 0.07 0.07 0.08 0.09 0.09 0.08 0.08 0.08 0.10 0.12 0.14 0.17 0.22 0.24 0.27 0.31 0.31 0.35 0.36
0.00 0.00 0.00 0.00 0.00 0.00 0.00 0.00 0.00 0.00 0.00 0.00 0.00 0.00 0.00 0.00 0.00 0.00 0.00 0.00 0.00 0.00 0.00 0.01 0.05 0.08 0.10 0.13 0.15 0.12 0.09 0.08 0.08 0.10 0.11 0.10 0.09 0.10 0.10 0.10 0.09 0.09 0.12 0.16 0.22 0.27 0.30 0.37 0.36
0.00 0.00 0.00 0.00 0.00 0.00 0.00 0.00 0.00 0.00 0.00 0.00 0.00 0.00 0.00 0.00 0.00 0.00 0.00 0.00 0.00 0.00 0.00 0.01 0.05 0.07 0.09 0.12 0.16 0.13 0.11 0.10 0.09 0.10 0.11 0.11 0.10 0.12 0.13 0.12 0.10 0.09 0.09 0.10 0.14 0.20 0.33 0.40 0.34
0.00 0.00 0.00 0.00 0.00 0.00 0.00 0.00 0.00 0.00 0.00 0.00 0.00 0.00 0.00 0.00 0.00 0.00 0.00 0.00 0.00 0.00 0.00 0.01 0.02 0.05 0.08 0.12 0.17 0.16 0.14 0.13 0.12 0.11 0.10 0.09 0.09 0.11 0.15 0.14 0.12 0.11 0.11 0.11 0.10 0.13 0.24 0.32 0.33
0.00 0.00 0.00 0.00 0.00 0.00 0.00 0.00 0.00 0.00 0.00 0.00 0.00 0.00 0.00 0.00 0.00 0.00 0.00 0.00 0.00 0.00 0.01 0.01 0.01 0.02 0.04 0.08 0.14 0.17 0.15 0.14 0.14 0.12 0.10 0.08 0.08 0.09 0.10 0.10 0.10 0.10 0.11 0.11 0.10 0.11 0.15 0.20 0.25
0.00 0.00 0.00 0.00 0.00 0.00 0.00 0.00 0.00 0.00 0.00 0.00 0.00 0.00 0.00 0.00 0.00 0.00 0.00 0.00 0.00 0.00 0.00 0.01 0.01 0.01 0.03 0.05 0.08 0.13 0.14 0.13 0.12 0.10 0.08 0.08 0.06 0.06 0.06 0.05 0.06 0.08 0.09 0.09 0.11 0.12 0.11 0.12 0.11
0.00 0.00 0.00 0.00 0.00 0.00 0.00 0.00 0.00 0.00 0.00 0.00 0.00 0.00 0.00 0.00 0.00 0.00 0.00 0.00 0.00 0.00 0.00 0.01 0.01 0.01 0.02 0.03 0.05 0.07 0.08 0.08 0.08 0.07 0.07 0.07 0.06 0.06 0.07 0.06 0.06 0.07 0.08 0.09 0.12 0.12 0.09 0.09 0.08
0.00 0.00 0.00 0.00 0.00 0.00 0.00 0.00 0.00 0.00 0.00 0.00 0.00 0.00 0.00 0.00 0.00 0.00 0.00 0.00 0.00 0.00 0.00 0.01 0.01 0.01 0.01 0.02 0.03 0.04 0.05 0.07 0.07 0.06 0.06 0.09 0.10 0.11 0.09 0.07 0.06 0.06 0.06 0.08 0.10 0.12 0.12 0.15 0.20
0.00 0.00 0.00 0.00 0.00 0.00 0.00 0.00 0.00 0.00 0.00 0.00 0.00 0.00 0.00 0.00 0.00 0.00 0.00 0.00 0.00 0.00 0.00 0.01 0.01 0.01 0.01 0.01 0.02 0.02 0.03 0.04 0.05 0.06 0.06 0.08 0.10 0.09 0.08 0.07 0.06 0.06 0.06 0.07 0.09 0.10 0.12 0.13 0.16
0.00 0.00 0.00 0.00 0.00 0.00 0.00 0.00 0.00 0.00 0.00 0.00 0.00 0.00 0.00 0.00 0.00 0.00 0.00 0.00 0.00 0.00 0.00 0.00 0.01 0.01 0.01 0.01 0.01 0.02 0.02 0.03 0.04 0.04 0.05 0.05 0.06 0.07 0.07 0.06 0.05 0.04 0.05 0.06 0.07 0.07 0.08 0.10 0.13
0.00 0.00 0.00 0.00 0.00 0.00 0.00 0.00 0.00 0.00 0.00 0.00 0.00 0.00 0.00 0.00 0.00 0.00 0.00 0.00 0.00 0.00 0.00 0.00 0.01 0.01 0.01 0.01 0.02 0.01 0.02 0.02 0.02 0.03 0.03 0.03 0.03 0.04 0.04 0.03 0.03 0.02 0.02 0.03 0.03 0.04 0.05 0.06 0.09
0.00 0.00 0.00 0.00 0.00 0.00 0.00 0.00 0.00 0.00 0.00 0.00 0.00 0.00 0.00 0.00 0.00 0.00 0.00 0.00 0.00 0.00 0.00 0.00 0.00 0.01 0.01 0.02 0.02 0.01 0.01 0.01 0.02 0.02 0.02 0.02 0.01 0.02 0.02 0.02 0.02 0.02 0.02 0.03 0.03 0.03 0.03 0.04 0.06
0.00 0.00 0.00 0.00 0.00 0.00 0.00 0.00 0.00 0.00 0.00 0.00 0.00 0.00 0.00 0.00 0.00 0.00 0.00 0.00 0.00 0.00 0.00 0.00 0.00 0.01 0.01 0.02 0.02 0.02 0.01 0.01 0.02 0.02 0.02 0.02 0.02 0.02 0.03 0.03 0.03 0.02 0.02 0.05 0.06 0.06 0.06 0.06 0.07
0.01 0.00 0.00 0.00 0.00 0.00 0.00 0.00 0.00 0.00 0.00 0.00 0.00 0.00 0.00 0.00 0.00 0.00 0.00 0.00 0.00 0.00 0.00 0.00 0.00 0.00 0.01 0.02 0.02 0.02 0.02 0.01 0.01 0.01 0.02 0.02 0.03 0.03 0.03 0.04 0.05 0.06 0.07 0.09 0.11 0.10 0.12 0.11 0.10
0.01 0.00 0.00 0.00 0.00 0.00 0.00 0.00 0.00 0.00 0.00 0.00 0.00 0.00 0.00 0.00 0.00 0.00 0.00 0.00 0.00 0.00 0.00 0.00 0.00 0.00 0.01 0.01 0.02 0.02 0.02 0.02 0.02 0.02 0.02 0.02 0.02 0.02 0.02 0.02 0.03 0.06 0.10 0.14 0.16 0.13 0.13 0.15 0.17
0.00 0.00 0.00 0.00 0.00 0.00 0.00 0.00 0.00 0.00 0.00 0.00 0.00 0.00 0.00 0.00 0.00 0.00 0.00 0.00 0.00 0.00 0.00 0.00 0.00 0.00 0.01 0.01 0.02 0.02 0.02 0.02 0.02 0.02 0.02 0.02 0.02 0.01 0.01 0.02 0.02 0.03 0.04 0.06 0.08 0.11 0.11 0.11 0.12
0.00 0.00 0.00 0.00 0.00 0.00 0.00 0.00 0.00 0.00 0.00 0.00 0.00 0.00 0.00 0.00 0.00 0.00 0.00 0.00 0.00 0.00 0.00 0.00 0.00 0.00 0.00 0.01 0.01 0.01 0.01 0.01 0.02 0.02 0.02 0.02 0.02 0.01 0.01 0.02 0.02 0.02 0.01 0.01 0.02 0.04 0.06 0.06 0.06
0.01 0.00 0.00 0.00 0.00 0.00 0.00 0.00 0.00 0.00 0.00 0.00 0.00 0.00 0.00 0.00 0.00 0.00 0.00 0.00 0.00 0.00 0.00 0.00 0.00 0.00 0.00 0.00 0.01 0.01 0.01 0.01 0.01 0.02 0.02 0.03 0.02 0.02 0.01 0.01 0.01 0.01 0.01 0.01 0.01 0.02 0.04 0.05 0.04
0.01 0.00 0.00 0.00 0.00 0.00 0.00 0.00 0.00 0.00 0.00 0.00 0.00 0.00 0.00 0.00 0.00 0.00 0.00 0.00 0.00 0.00 0.00 0.00 0.00 0.00 0.00 0.00 0.01 0.01 0.01 0.01 0.01 0.02 0.02 0.02 0.02 0.01 0.01 0.01 0.01 0.01 0.01 0.01 0.02 0.02 0.03 0.06 0.07
0.01 0.00 0.01 0.01 0.01 0.01 0.01 0.01 0.00 0.00 0.00 0.00 0.00 0.00 0.00 0.00 0.00 0.00 0.00 0.00 0.00 0.00 0.00 0.00 0.00 0.00 0.00 0.00 0.00 0.01 0.01 0.01 0.01 0.01 0.01 0.01 0.01 0.01 0.01 0.01 0.01 0.01 0.02 0.02 0.02 0.03 0.04 0.06 0.10
0.02 0.03 0.03 0.03 0.04 0.04 0.01 0.01 0.00 0.00 0.00 0.00 0.00 0.00 0.00 0.00 0.00 0.00 0.00 0.00 0.00 0.00 0.00 0.00 0.00 0.00 0.00 0.00 0.00 0.01 0.01 0.01 0.01 0.01 0.01 0.01 0.01 0.01 0.01 0.02 0.02 0.02 0.03 0.03 0.04 0.05 0.06 0.08 0.10
0.05 0.08 0.13 0.12 0.09 0.04 0.00 0.00 0.00 0.00 0.00 0.00 0.00 0.00 0.00 0.00 0.00 0.00 0.00 0.00 0.00 0.00 0.00 0.00 0.00 0.00 0.00 0.00 0.00 0.00 0.00 0.00 0.00 0.01 0.01 0.01 0.02 0.02 0.02 0.02 0.03 0.04 0.05 0.05 0.07 0.09 0.11 0.12 0.15
0.04 0.06 0.09 0.08 0.03 0.01 0.00 0.00 0.00 0.00 0.00 0.00 0.00 0.00 0.00 0.00 0.00 0.00 0.00 0.00 0.00 0.00 0.00 0.00 0.00 0.00 0.00 0.00 0.00 0.00 0.00 0.00 0.01 0.01 0.01 0.01 0.02 0.02 0.02 0.03 0.05 0.06 0.07 0.08 0.10 0.12 0.15 0.17 0.19
0.02 0.04 0.04 0.05 0.04 0.01 0.00 0.00 0.00 0.00 0.00 0.00 0.00 0.00 0.00 0.00 0.00 0.00 0.00 0.00 0.00 0.00 0.00 0.00 0.00 0.00 0.00 0.00 0.00 0.00 0.00 0.00 0.01 0.01 0.01 0.01 0.01 0.02 0.03 0.05 0.08 0.10 0.11 0.12 0.14 0.17 0.18 0.20 0.22
0.02 0.03 0.05 0.09 0.09 0.04 0.01 0.00 0.00 0.00 0.00 0.00 0.00 0.00 0.00 0.00 0.00 0.00 0.00 0.00 0.00 0.00 0.00 0.00 0.00 0.00 0.00 0.01 0.01 0.01 0.01 0.01 0.01 0.01 0.02 0.02 0.02 0.03 0.04 0.07 0.09 0.12 0.15 0.18 0.21 0.23 0.23 0.24 0.25
0.03 0.05 0.07 0.09 0.07 0.04 0.01 0.00 0.00 0.00 0.00 0.00 0.00 0.00 0.00 0.00 0.00 0.00 0.00 0.00 0.00 0.00 0.00 0.00 0.00 0.01 0.01 0.01 0.01 0.01 0.02 0.02 0.03 0.04 0.04 0.04 0.05 0.05 0.07 0.08 0.10 0.12 0.17 0.21 0.24 0.26 0.29 0.32 0.32
0.03 0.04 0.05 0.08 0.06 0.03 0.02 0.00 0.00 0.00 0.00 0.00 0.00 0.00 0.00 0.00 0.00 0.00 0.00 0.00 0.00 0.00 0.00 0.01 0.01 0.02 0.02 0.02 0.02 0.03 0.03 0.03 0.04 0.05 0.07 0.08 0.09 0.10 0.11 0.13 0.14 0.15 0.18 0.23 0.28 0.31 0.32 0.38 0.42

GEFSSGP_prec_meanprecacc_150.txt.gz
Total_Precipitation_Accumulation
0.00 0.00 0.00 0.00 0.00 0.00 0.00 0.00 0.00 0.00 0.00 0.00 0.00 0.00 0.00 0.00 0.00 0.00 0.00 0.00 0.01 0.02 0.04 0.08 0.10 0.11 0.12 0.14 0.12 0.09 0.09 0.09 0.09 0.09 0.09 0.11 0.13 0.15 0.19 0.20 0.21 0.21 0.25 0.27 0.25 0.28 0.36 0.41 0.48
0.00 0.00 0.00 0.00 0.00 0.00 0.00 0.00 0.00 0.00 0.00 0.00 0.00 0.00 0.00 0.00 0.00 0.00 0.00 0.00 0.00 0.01 0.02 0.04 0.08 0.10 0.12 0.13 0.11 0.09 0.08 0.07 0.07 0.08 0.07 0.08 0.11 0.15 0.19 0.21 0.21 0.23 0.29 0.31 0.33 0.36 0.39 0.43 0.46
0.00 0.00 0.00 0.00 0.00 0.00 0.00 0.00 0.00 0.00 0.00 0.00 0.00 0.00 0.00 0.00 0.00 0.00 0.00 0.00 0.00 0.00 0.01 0.03 0.07 0.10 0.12 0.13 0.12 0.09 0.08 0.07 0.07 0.08 0.07 0.08 0.09 0.12 0.16 0.19 0.21 0.24 0.28 0.27 0.31 0.35 0.33 0.35 0.37
0.00 0.00 0.00 0.00 0.00 0.00 0.00 0.00 0.00 0.00 0.00 0.00 0.00 0.00 0.00 0.00 0.00 0.00 0.00 0.00 0.00 0.00 0.00 0.02 0.06 0.10 0.12 0.14 0.14 0.11 0.08 0.08 0.08 0.09 0.09 0.09 0.08 0.09 0.10 0.12 0.14 0.17 0.22 0.24 0.27 0.31 0.31 0.35 0.36
0.00 0.00 0.00 0.00 0.00 0.00 0.00 0.00 0.00 0.00 0.00 0.00 0.00 0.00 0.00 0.00 0.00 0.00 0.00 0.00 0.00 0.00 0.00 0.02 0.06 0.10 0.11 0.14 0.15 0.12 0.10 0.09 0.09 0.11 0.12 0.11 0.10 0.10 0.10 0.10 0.09 0.09 0.12 0.16 0.22 0.27 0.31 0.37 0.36
0.00 0.00 0.00 0.00 0.00 0.00 0.00 0.00 0.00 0.00 0.00 0.00 0.00 0.00 0.00 0.00 0.00 0.00 0.00 0.00 0.00 0.00 0.00 0.02 0.06 0.09 0.11 0.14 0.16 0.13 0.12 0.10 0.10 0.10 0.11 0.11 0.11 0.12 0.13 0.12 0.10 0.09 0.09 0.10 0.14 0.21 0.33 0.40 0.34
0.00 0.00 0.00 0.00 0.00 0.00 0.00 0.00 0.00 0.00 0.00 0.00 0.00 0.00 0.00 0.00 0.00 0.00 0.00 0.00 0.00 0.00 0.00 0.01 0.04 0.07 0.10 0.14 0.18 0.17 0.14 0.14 0.13 0.12 0.11 0.10 0.09 0.12 0.15 0.14 0.12 0.11 0.11 0.11 0.10 0.13 0.24 0.32 0.33
0.00 0.00 0.00 0.00 0.00 0.00 0.00 0.00 0.00 0.00 0.00 0.00 0.00 0.00 0.00 0.00 0.00 0.00 0.00 0.00 0.00 0.00 0.01 0.01 0.02 0.03 0.05 0.10 0.15 0.18 0.16 0.15 0.15 0.13 0.10 0.08 0.08 0.09 0.10 0.10 0.10 0.11 0.11 0.11 0.10 0.11 0.15 0.20 0.25
0.00 0.00 0.00 0.00 0.00 0.00 0.00 0.00 0.00 0.00 0.00 0.00 0.00 0.00 0.00 0.00 0.00 0.00 0.00 0.00 0.00 0.00 0.01 0.01 0.01 0.02 0.04 0.06 0.09 0.14 0.15 0.14 0.13 0.11 0.08 0.08 0.06 0.06 0.06 0.05 0.06 0.08 0.09 0.10 0.11 0.12 0.11 0.12 0.11
0.00 0.00 0.00 0.00 0.00 0.00 0.00 0.00 0.00 0.00 0.00 0.00 0.00 0.00 0.00 0.00 0.00 0.00 0.00 0.00 0.00 0.00 0.01 0.01 0.01 0.01 0.02 0.03 0.06 0.08 0.09 0.09 0.09 0.07 0.07 0.07 0.06 0.07 0.07 0.06 0.06 0.07 0.08 0.09 0.12 0.12 0.10 0.09 0.08
0.00 0.00 0.00 0.00 0.00 0.00 0.00 0.00 0.00 0.00 0.00 0.00 0.00 0.00 0.00 0.00 0.00 0.00 0.00 0.00 0.00 0.00 0.00 0.01 0.01 0.01 0.02 0.02 0.03 0.05 0.06 0.08 0.08 0.07 0.06 0.09 0.10 0.11 0.10 0.07 0.06 0.06 0.06 0.08 0.10 0.12 0.12 0.15 0.20
0.00 0.00 0.00 0.00 0.00 0.00 0.00 0.00 0.00 0.00 0.00 0.00 0.00 0.00 0.00 0.00 0.00 0.00 0.00 0.00 0.00 0.00 0.00 0.01 0.01 0.01 0.02 0.02 0.02 0.03 0.04 0.05 0.06 0.06 0.06 0.08 0.10 0.10 0.08 0.07 0.06 0.06 0.06 0.07 0.09 0.10 0.12 0.13 0.16
0.00 0.00 0.00 0.00 0.00 0.00 0.00 0.00 0.00 0.00 0.00 0.00 0.00 0.00 0.00 0.00 0.00 0.00 0.00 0.00 0.00 0.00 0.00 0.01 0.01 0.01 0.02 0.02 0.02 0.02 0.03 0.04 0.04 0.05 0.05 0.05 0.06 0.07 0.07 0.06 0.05 0.04 0.05 0.06 0.07 0.07 0.08 0.10 0.14
0.00 0.00 0.00 0.00 0.00 0.00 0.00 0.00 0.00 0.00 0.00 0.00 0.00 0.00 0.00 0.00 0.00 0.00 0.00 0.00 0.00 0.00 0.00 0.00 0.01 0.01 0.02 0.02 0.02 0.02 0.02 0.02 0.02 0.03 0.03 0.03 0.03 0.04 0.04 0.04 0.03 0.02 0.02 0.03 0.03 0.04 0.05 0.06 0.09
0.01 0.01 0.01 0.00 0.00 0.00 0.00 0.00 0.00 0.00 0.00 0.00 0.00 0.00 0.00 0.00 0.00 0.00 0.00 0.00 0.00 0.00 0.00 0.00 0.00 0.01 0.01 0.02 0.02 0.02 0.01 0.01 0.02 0.02 0.02 0.02 0.01 0.02 0.02 0.02 0.02 0.02 0.02 0.03 0.03 0.03 0.03 0.04 0.06
0.01 0.02 0.01 0.00 0.00 0.00 0.00 0.00 0.00 0.00 0.00 0.00 0.00 0.00 0.00 0.00 0.00 0.00 0.00 0.00 0.00 0.00 0.00 0.00 0.00 0.01 0.01 0.02 0.02 0.02 0.01 0.02 0.02 0.02 0.02 0.02 0.02 0.02 0.03 0.03 0.03 0.02 0.02 0.05 0.06 0.06 0.06 0.06 0.07
0.02 0.01 0.00 0.00 0.00 0.00 0.00 0.00 0.00 0.00 0.00 0.00 0.00 0.00 0.00 0.00 0.00 0.00 0.00 0.00 0.00 0.00 0.00 0.00 0.00 0.00 0.01 0.02 0.02 0.02 0.02 0.02 0.02 0.02 0.02 0.02 0.03 0.03 0.03 0.04 0.05 0.06 0.07 0.09 0.12 0.10 0.13 0.12 0.10
0.02 0.01 0.00 0.00 0.00 0.00 0.00 0.00 0.00 0.00 0.00 0.00 0.00 0.00 0.00 0.00 0.00 0.00 0.00 0.00 0.00 0.00 0.00 0.00 0.00 0.00 0.01 0.02 0.02 0.02 0.02 0.02 0.02 0.02 0.02 0.02 0.02 0.02 0.02 0.03 0.04 0.07 0.11 0.15 0.17 0.15 0.14 0.16 0.17
0.01 0.00 0.00 0.00 0.00 0.00 0.00 0.00 0.00 0.00 0.00 0.00 0.00 0.00 0.00 0.00 0.00 0.00 0.00 0.00 0.00 0.00 0.00 0.00 0.00 0.00 0.01 0.02 0.02 0.02 0.02 0.02 0.03 0.03 0.02 0.02 0.02 0.02 0.02 0.03 0.03 0.04 0.06 0.08 0.09 0.11 0.11 0.11 0.12
0.02 0.01 0.01 0.00 0.00 0.00 0.00 0.00 0.00 0.00 0.00 0.00 0.00 0.00 0.00 0.00 0.00 0.00 0.00 0.00 0.00 0.00 0.00 0.00 0.00 0.00 0.01 0.01 0.01 0.01 0.01 0.02 0.02 0.03 0.03 0.03 0.02 0.02 0.02 0.02 0.02 0.02 0.02 0.02 0.02 0.04 0.06 0.06 0.06
0.03 0.02 0.01 0.00 0.00 0.00 0.00 0.00 0.00 0.00 0.00 0.00 0.00 0.00 0.00 0.00 0.00 0.00 0.00 0.00 0.00 0.00 0.00 0.00 0.00 0.00 0.00 0.01 0.01 0.01 0.01 0.01 0.02 0.02 0.03 0.03 0.03 0.02 0.01 0.01 0.02 0.01 0.02 0.02 0.02 0.02 0.05 0.05 0.04
0.03 0.01 0.01 0.02 0.02 0.01 0.01 0.01 0.00 0.00 0.00 0.00 0.00 0.00 0.00 0.00 0.00 0.00 0.00 0.00 0.00 0.00 0.00 0.00 0.00 0.00 0.00 0.01 0.01 0.01 0.01 0.01 0.01 0.02 0.02 0.02 0.02 0.02 0.02 0.02 0.02 0.02 0.02 0.02 0.02 0.02 0.04 0.06 0.07
0.02 0.01 0.02 0.03 0.04 0.04 0.02 0.02 0.00 0.00 0.00 0.00 0.00 0.00 0.00 0.00 0.00 0.00 0.00 0.00 0.00 0.00 0.00 0.00 0.00 0.00 0.00 0.00 0.01 0.01 0.01 0.01 0.01 0.01 0.01 0.01 0.01 0.01 0.01 0.01 0.02 0.02 0.02 0.02 0.02 0.03 0.04 0.06 0.10
0.05 0.06 0.07 0.07 0.10 0.11 0.03 0.02 0.01 0.00 0.00 0.00 0.00 0.00 0.00 0.00 0.00 0.00 0.00 0.00 0.00 0.00 0.00 0.00 0.00 0.00 0.00 0.00 0.00 0.01 0.01 0.01 0.01 0.01 0.01 0.01 0.01 0.01 0.02 0.02 0.02 0.03 0.03 0.03 0.04 0.05 0.06 0.08 0.10
0.13 0.18 0.28 0.27 0.23 0.11 0.01 0.01 0.00 0.00 0.00 0.00 0.00 0.00 0.00 0.00 0.00 0.00 0.00 0.00 0.00 0.00 0.00 0.00 0.00 0.00 0.00 0.00 0.00 0.00 0.00 0.00 0.01 0.01 0.01 0.01 0.02 0.02 0.02 0.03 0.04 0.05 0.05 0.06 0.07 0.09 0.11 0.12 0.15
0.12 0.16 0.24 0.21 0.09 0.02 0.00 0.00 0.00 0.00 0.00 0.00 0.00 0.00 0.00 0.00 0.00 0.00 0.00 0.00 0.00 0.00 0.00 0.00 0.00 0.00 0.00 0.00 0.00 0.00 0.00 0.00 0.01 0.01 0.01 0.01 0.02 0.02 0.02 0.03 0.05 0.06 0.07 0.08 0.10 0.13 0.15 0.17 0.20
0.07 0.10 0.11 0.14 0.09 0.03 0.01 0.00 0.00 0.00 0.00 0.00 0.00 0.00 0.00 0.00 0.00 0.00 0.00 0.00 0.00 0.00 0.00 0.00 0.00 0.00 0.00 0.00 0.00 0.00 0.00 0.00 0.01 0.01 0.01 0.01 0.01 0.02 0.03 0.05 0.08 0.10 0.11 0.13 0.15 0.17 0.19 0.21 0.22
0.08 0.09 0.13 0.22 0.21 0.09 0.02 0.00 0.00 0.00 0.00 0.00 0.00 0.00 0.00 0.00 0.00 0.00 0.00 0.00 0.00 0.00 0.00 0.00 0.00 0.00 0.00 0.01 0.01 0.01 0.01 0.01 0.01 0.02 0.02 0.02 0.02 0.03 0.04 0.07 0.09 0.12 0.16 0.18 0.22 0.23 0.23 0.24 0.25
0.10 0.14 0.19 0.19 0.14 0.09 0.03 0.00 0.00 0.00 0.00 0.00 0.00 0.00 0.00 0.00 0.00 0.00 0.00 0.00 0.00 0.00 0.00 0.00 0.00 0.01 0.01 0.01 0.01 0.01 0.02 0.02 0.03 0.04 0.04 0.04 0.05 0.06 0.07 0.08 0.10 0.12 0.17 0.21 0.25 0.26 0.29 0.32 0.32
0.08 0.11 0.14 0.18 0.13 0.06 0.03 0.01 0.00 0.00 0.00 0.00 0.00 0.00 0.00 0.00 0.00 0.00 0.00 0.00 0.00 0.00 0.00 0.01 0.01 0.02 0.02 0.02 0.02 0.03 0.03 0.03 0.04 0.05 0.07 0.08 0.09 0.10 0.11 0.13 0.14 0.15 0.18 0.23 0.28 0.31 0.33 0.38 0.43

GEFSSGP_prec_meanprecacc_156.txt.gz
Total_Precipitation_Accumulation
0.00 0.00 0.00 0.00 0.00 0.00 0.00 0.00 0.00 0.00 0.00 0.00 0.00 0.00 0.00 0.00 0.00 0.00 0.00 0.00 0.01 0.02 0.04 0.08 0.10 0.11 0.13 0.14 0.13 0.10 0.10 0.10 0.10 0.10 0.09 0.11 0.13 0.16 0.20 0.21 0.21 0.21 0.25 0.28 0.26 0.29 0.36 0.41 0.48
0.00 0.00 0.00 0.00 0.00 0.00 0.00 0.00 0.00 0.00 0.00 0.00 0.00 0.00 0.00 0.00 0.00 0.00 0.00 0.00 0.00 0.01 0.02 0.04 0.08 0.11 0.13 0.13 0.12 0.09 0.09 0.08 0.08 0.08 0.07 0.09 0.12 0.16 0.19 0.21 0.21 0.23 0.30 0.32 0.34 0.36 0.39 0.43 0.46
0.00 0.00 0.00 0.00 0.00 0.00 0.00 0.00 0.00 0.00 0.00 0.00 0.00 0.00 0.00 0.00 0.00 0.00 0.00 0.00 0.00 0.00 0.01 0.03 0.07 0.11 0.12 0.14 0.13 0.10 0.09 0.08 0.08 0.08 0.08 0.08 0.10 0.12 0.16 0.19 0.21 0.24 0.29 0.28 0.31 0.35 0.33 0.35 0.37
0.00 0.00 0.00 0.00 0.00 0.00 0.00 0.00 0.00 0.00 0.00 0.00 0.00 0.00 0.00 0.00 0.00 0.00 0.00 0.00 0.00 0.00 0.01 0.02 0.07 0.10 0.13 0.15 0.15 0.11 0.09 0.09 0.09 0.09 0.09 0.09 0.09 0.09 0.10 0.12 0.14 0.17 0.23 0.24 0.27 0.31 0.31 0.35 0.36
0.00 0.00 0.00 0.00 0.00 0.00 0.00 0.00 0.00 0.00 0.00 0.00 0.00 0.00 0.00 0.00 0.00 0.00 0.00 0.00 0.00 0.00 0.01 0.02 0.06 0.10 0.12 0.15 0.16 0.13 0.11 0.10 0.10 0.11 0.12 0.11 0.10 0.10 0.10 0.10 0.09 0.09 0.12 0.17 0.22 0.27 0.31 0.37 0.36
0.00 0.00 0.00 0.00 0.00 0.00 0.00 0.00 0.00 0.00 0.00 0.00 0.00 0.00 0.00 0.00 0.00 0.00 0.00 0.00 0.00 0.00 0.01 0.02 0.06 0.10 0.12 0.15 0.17 0.14 0.13 0.11 0.11 0.11 0.11 0.11 0.11 0.12 0.14 0.12 0.10 0.09 0.09 0.11 0.14 0.21 0.33 0.40 0.34
0.00 0.00 0.00 0.00 0.00 0.00 0.00 0.00 0.00 0.00 0.00 0.00 0.00 0.00 0.00 0.00 0.00 0.00 0.00 0.00 0.00 0.00 0.01 0.02 0.04 0.08 0.10 0.14 0.18 0.17 0.15 0.15 0.14 0.12 0.11 0.10 0.10 0.12 0.15 0.14 0.12 0.12 0.11 0.11 0.10 0.13 0.24 0.32 0.33
0.00 0.00 0.00 0.00 0.00 0.00 0.00 0.00 0.00 0.00 0.00 0.00 0.00 0.00 0.00 0.00 0.00 0.00 0.00 0.00 0.00 0.00 0.01 0.02 0.03 0.04 0.07 0.11 0.15 0.19 0.17 0.16 0.16 0.14 0.10 0.09 0.08 0.09 0.10 0.10 0.10 0.11 0.11 0.11 0.10 0.11 0.15 0.20 0.25
0.01 0.00 0.00 0.00 0.00 0.00 0.00 0.00 0.00 0.00 0.00 0.00 0.00 0.00 0.00 0.00 0.00 0.00 0.00 0.00 0.00 0.00 0.01 0.01 0.02 0.03 0.05 0.08 0.10 0.14 0.16 0.15 0.13 0.11 0.08 0.08 0.06 0.06 0.06 0.05 0.06 0.08 0.09 0.10 0.11 0.12 0.11 0.12 0.11
0.01 0.01 0.00 0.00 0.00 0.00 0.00 0.00 0.00 0.00 0.00 0.00 0.00 0.00 0.00 0.00 0.00 0.00 0.00 0.00 0.00 0.00 0.01 0.01 0.01 0.02 0.03 0.05 0.07 0.09 0.10 0.10 0.09 0.07 0.07 0.07 0.07 0.07 0.07 0.06 0.06 0.08 0.08 0.09 0.12 0.12 0.10 0.09 0.08
0.01 0.00 0.00 0.00 0.00 0.00 0.00 0.00 0.00 0.00 0.00 0.00 0.00 0.00 0.00 0.00 0.00 0.00 0.00 0.00 0.00 0.00 0.00 0.01 0.01 0.01 0.02 0.03 0.04 0.06 0.07 0.09 0.08 0.07 0.06 0.09 0.10 0.11 0.10 0.07 0.06 0.06 0.06 0.08 0.10 0.12 0.12 0.15 0.20
0.01 0.00 0.00 0.00 0.00 0.00 0.00 0.00 0.00 0.00 0.00 0.00 0.00 0.00 0.00 0.00 0.00 0.00 0.00 0.00 0.00 0.00 0.00 0.01 0.01 0.01 0.02 0.02 0.02 0.03 0.05 0.05 0.06 0.06 0.06 0.08 0.10 0.10 0.08 0.07 0.06 0.06 0.06 0.07 0.09 0.10 0.12 0.13 0.16
0.01 0.01 0.00 0.00 0.00 0.00 0.00 0.00 0.00 0.00 0.00 0.00 0.00 0.00 0.00 0.00 0.00 0.00 0.00 0.00 0.00 0.00 0.00 0.01 0.01 0.01 0.02 0.02 0.02 0.02 0.03 0.04 0.04 0.05 0.05 0.05 0.06 0.07 0.07 0.06 0.05 0.04 0.05 0.06 0.07 0.07 0.08 0.10 0.14
0.01 0.01 0.01 0.01 0.00 0.00 0.00 0.00 0.00 0.00 0.00 0.00 0.00 0.00 0.00 0.00 0.00 0.00 0.00 0.00 0.00 0.00 0.00 0.00 0.01 0.01 0.02 0.02 0.02 0.02 0.02 0.02 0.03 0.04 0.04 0.03 0.03 0.04 0.04 0.04 0.03 0.02 0.02 0.03 0.03 0.04 0.05 0.06 0.09
0.02 0.02 0.02 0.02 0.01 0.00 0.00 0.00 0.00 0.00 0.00 0.00 0.00 0.00 0.00 0.00 0.00 0.00 0.00 0.00 0.00 0.00 0.00 0.00 0.00 0.01 0.02 0.02 0.02 0.02 0.02 0.02 0.02 0.02 0.02 0.02 0.02 0.02 0.02 0.02 0.02 0.02 0.02 0.03 0.03 0.03 0.04 0.05 0.06
0.04 0.05 0.04 0.01 0.01 0.01 0.01 0.00 0.00 0.00 0.00 0.00 0.00 0.00 0.00 0.00 0.00 0.00 0.00 0.00 0.00 0.00 0.00 0.00 0.00 0.01 0.01 0.02 0.02 0.02 0.02 0.02 0.02 0.02 0.02 0.02 0.02 0.02 0.03 0.03 0.03 0.02 0.03 0.06 0.06 0.06 0.07 0.06 0.08
0.06 0.04 0.02 0.01 0.00 0.00 0.01 0.00 0.00 0.00 0.00 0.00 0.00 0.00 0.00 0.00 0.00 0.00 0.00 0.00 0.00 0.00 0.00 0.00 0.00 0.00 0.01 0.02 0.02 0.02 0.02 0.02 0.02 0.02 0.02 0.02 0.03 0.03 0.04 0.04 0.06 0.06 0.08 0.10 0.12 0.11 0.13 0.12 0.11
0.04 0.02 0.01 0.00 0.00 0.00 0.00 0.00 0.00 0.00 0.00 0.00 0.00 0.00 0.00 0.00 0.00 0.00 0.00 0.00 0.00 0.00 0.00 0.00 0.00 0.00 0.01 0.02 0.03 0.03 0.03 0.02 0.02 0.03 0.03 0.03 0.03 0.03 0.03 0.03 0.04 0.07 0.12 0.15 0.18 0.15 0.15 0.16 0.17
0.02 0.01 0.01 0.00 0.00 0.00 0.00 0.00 0.00 0.00 0.00 0.00 0.00 0.00 0.00 0.00 0.00 0.00 0.00 0.00 0.00 0.00 0.00 0.00 0.00 0.00 0.01 0.02 0.03 0.03 0.03 0.03 0.03 0.03 0.03 0.03 0.03 0.02 0.03 0.03 0.04 0.05 0.06 0.08 0.10 0.12 0.11 0.11 0.12
0.04 0.04 0.02 0.01 0.00 0.01 0.01 0.00 0.00 0.00 0.00 0.00 0.00 0.00 0.00 0.00 0.00 0.00 0.00 0.00 0.00 0.00 0.00 0.00 0.00 0.00 0.01 0.01 0.01 0.01 0.02 0.02 0.03 0.03 0.03 0.03 0.03 0.02 0.02 0.02 0.03 0.03 0.03 0.02 0.02 0.04 0.06 0.06 0.07
0.07 0.05 0.04 0.02 0.01 0.01 0.01 0.01 0.00 0.00 0.00 0.00 0.00 0.00 0.00 0.00 0.00 0.00 0.00 0.00 0.00 0.00 0.00 0.00 0.00 0.00 0.00 0.01 0.01 0.01 0.02 0.02 0.02 0.03 0.03 0.03 0.03 0.02 0.02 0.02 0.02 0.02 0.02 0.02 0.02 0.03 0.05 0.05 0.04
0.07 0.03 0.03 0.04 0.06 0.05 0.03 0.03 0.00 0.00 0.00 0.00 0.00 0.00 0.00 0.00 0.00 0.00 0.00 0.00 0.00 0.00 0.00 0.00 0.00 0.00 0.00 0.01 0.01 0.01 0.01 0.02 0.02 0.02 0.02 0.02 0.02 0.02 0.02 0.02 0.02 0.02 0.02 0.02 0.03 0.03 0.04 0.06 0.08
0.04 0.02 0.04 0.06 0.10 0.11 0.06 0.05 0.01 0.00 0.00 0.00 0.00 0.00 0.00 0.00 0.00 0.00 0.00 0.00 0.00 0.00 0.00 0.00 0.00 0.00 0.00 0.00 0.01 0.01 0.01 0.01 0.01 0.01 0.01 0.01 0.01 0.01 0.01 0.01 0.02 0.02 0.03 0.03 0.03 0.03 0.05 0.07 0.10
0.08 0.10 0.13 0.17 0.24 0.27 0.09 0.05 0.02 0.00 0.00 0.00 0.00 0.00 0.00 0.00 0.00 0.00 0.00 0.00 0.00 0.00 0.00 0.00 0.00 0.00 0.00 0.00 0.01 0.01 0.01 0.01 0.01 0.01 0.01 0.01 0.02 0.02 0.02 0.02 0.03 0.03 0.03 0.04 0.05 0.06 0.07 0.08 0.11
0.20 0.30 0.46 0.49 0.47 0.26 0.04 0.02 0.01 0.00 0.00 0.00 0.00 0.00 0.00 0.00 0.00 0.00 0.00 0.00 0.00 0.00 0.00 0.00 0.00 0.00 0.00 0.00 0.00 0.01 0.00 0.00 0.01 0.01 0.01 0.01 0.02 0.02 0.02 0.03 0.04 0.05 0.05 0.06 0.07 0.10 0.11 0.12 0.15
0.19 0.26 0.37 0.33 0.17 0.05 0.01 0.01 0.00 0.00 0.00 0.00 0.00 0.00 0.00 0.00 0.00 0.00 0.00 0.00 0.00 0.00 0.00 0.00 0.00 0.00 0.00 0.00 0.00 0.00 0.00 0.00 0.01 0.01 0.01 0.01 0.02 0.02 0.02 0.04 0.05 0.06 0.07 0.09 0.10 0.13 0.15 0.18 0.20
0.14 0.18 0.17 0.22 0.15 0.06 0.02 0.00 0.00 0.00 0.00 0.00 0.00 0.00 0.00 0.00 0.00 0.00 0.00 0.00 0.00 0.00 0.00 0.00 0.00 0.00 0.00 0.01 0.00 0.00 0.00 0.00 0.01 0.01 0.01 0.01 0.02 0.02 0.03 0.05 0.08 0.10 0.11 0.13 0.15 0.17 0.19 0.21 0.23
0.14 0.16 0.22 0.36 0.33 0.15 0.05 0.01 0.00 0.00 0.00 0.00 0.00 0.00 0.00 0.00 0.00 0.00 0.00 0.00 0.00 0.00 0.00 0.00 0.00 0.00 0.01 0.01 0.01 0.01 0.01 0.01 0.01 0.02 0.02 0.02 0.02 0.03 0.04 0.07 0.09 0.12 0.16 0.18 0.22 0.23 0.23 0.24 0.25
0.17 0.23 0.32 0.34 0.25 0.14 0.06 0.02 0.00 0.00 0.00 0.00 0.00 0.00 0.00 0.00 0.00 0.00 0.00 0.00 0.00 0.00 0.00 0.00 0.00 0.01 0.01 0.01 0.02 0.02 0.02 0.02 0.03 0.04 0.04 0.05 0.05 0.06 0.07 0.08 0.10 0.12 0.17 0.21 0.25 0.27 0.29 0.32 0.32
0.17 0.20 0.24 0.30 0.22 0.10 0.06 0.03 0.00 0.00 0.00 0.00 0.00 0.00 0.00 0.00 0.00 0.00 0.00 0.00 0.00 0.00 0.00 0.01 0.01 0.02 0.02 0.02 0.02 0.03 0.03 0.04 0.04 0.06 0.07 0.08 0.09 0.10 0.11 0.13 0.14 0.15 0.18 0.23 0.28 0.31 0.33 0.38 0.43

GEFSSGP_prec_meanprecacc_162.txt.gz
Total_Precipitation_Accumulation
0.00 0.00 0.00 0.00 0.00 0.00 0.00 0.00 0.00 0.00 0.00 0.00 0.00 0.00 0.00 0.00 0.00 0.00 0.00 0.00 0.01 0.02 0.04 0.08 0.11 0.12 0.14 0.15 0.13 0.11 0.10 0.10 0.10 0.10 0.09 0.11 0.13 0.16 0.20 0.21 0.22 0.22 0.26 0.28 0.26 0.29 0.37 0.42 0.48
0.00 0.00 0.00 0.00 0.00 0.00 0.00 0.00 0.00 0.00 0.00 0.00 0.00 0.00 0.00 0.00 0.00 0.00 0.00 0.00 0.00 0.01 0.02 0.04 0.09 0.12 0.13 0.14 0.13 0.10 0.10 0.09 0.09 0.08 0.08 0.09 0.12 0.16 0.20 0.22 0.22 0.24 0.30 0.32 0.34 0.36 0.39 0.44 0.46
0.00 0.00 0.00 0.00 0.00 0.00 0.00 0.00 0.00 0.00 0.00 0.00 0.00 0.00 0.00 0.00 0.00 0.00 0.00 0.00 0.00 0.00 0.01 0.03 0.08 0.11 0.13 0.16 0.14 0.11 0.10 0.08 0.08 0.08 0.08 0.09 0.10 0.13 0.16 0.19 0.21 0.24 0.29 0.28 0.32 0.35 0.33 0.35 0.37
0.00 0.00 0.00 0.00 0.00 0.00 0.00 0.00 0.00 0.00 0.00 0.00 0.00 0.00 0.00 0.00 0.00 0.00 0.00 0.00 0.00 0.00 0.01 0.03 0.07 0.11 0.14 0.16 0.16 0.12 0.10 0.09 0.09 0.10 0.10 0.09 0.09 0.10 0.11 0.12 0.14 0.18 0.23 0.24 0.27 0.31 0.31 0.35 0.36
0.00 0.00 0.00 0.00 0.00 0.00 0.00 0.00 0.00 0.00 0.00 0.00 0.00 0.00 0.00 0.00 0.00 0.00 0.00 0.00 0.00 0.00 0.01 0.02 0.07 0.11 0.13 0.16 0.17 0.14 0.12 0.10 0.10 0.11 0.12 0.11 0.11 0.11 0.10 0.10 0.09 0.10 0.12 0.17 0.22 0.27 0.31 0.38 0.36
0.00 0.00 0.00 0.00 0.00 0.00 0.00 0.00 0.00 0.00 0.00 0.00 0.00 0.00 0.00 0.00 0.00 0.00 0.00 0.00 0.00 0.00 0.01 0.02 0.07 0.11 0.12 0.15 0.18 0.15 0.13 0.12 0.11 0.11 0.12 0.12 0.12 0.13 0.14 0.12 0.10 0.10 0.09 0.11 0.14 0.21 0.33 0.40 0.34
0.01 0.00 0.00 0.00 0.00 0.00 0.00 0.00 0.00 0.00 0.00 0.00 0.00 0.00 0.00 0.00 0.00 0.00 0.00 0.00 0.00 0.00 0.01 0.02 0.05 0.08 0.11 0.15 0.19 0.18 0.16 0.15 0.14 0.12 0.11 0.11 0.10 0.12 0.15 0.14 0.12 0.12 0.11 0.11 0.10 0.14 0.24 0.32 0.33
0.02 0.02 0.01 0.00 0.00 0.00 0.00 0.00 0.00 0.00 0.00 0.00 0.00 0.00 0.00 0.00 0.00 0.00 0.00 0.00 0.00 0.00 0.01 0.02 0.03 0.04 0.07 0.11 0.16 0.19 0.17 0.17 0.16 0.14 0.10 0.09 0.08 0.09 0.10 0.10 0.10 0.11 0.11 0.11 0.10 0.11 0.15 0.20 0.25
0.02 0.03 0.01 0.00 0.00 0.00 0.00 0.00 0.00 0.00 0.00 0.00 0.00 0.00 0.00 0.00 0.00 0.00 0.00 0.00 0.00 0.01 0.01 0.01 0.02 0.03 0.05 0.08 0.10 0.14 0.16 0.15 0.13 0.11 0.08 0.08 0.06 0.06 0.06 0.05 0.06 0.08 0.09 0.10 0.11 0.12 0.11 0.12 0.11
0.03 0.02 0.01 0.00 0.00 0.00 0.00 0.00 0.00 0.00 0.00 0.00 0.00 0.00 0.00 0.00 0.00 0.00 0.00 0.00 0.00 0.00 0.01 0.01 0.01 0.02 0.04 0.05 0.07 0.09 0.11 0.10 0.09 0.07 0.07 0.07 0.07 0.07 0.07 0.06 0.06 0.08 0.08 0.09 0.12 0.12 0.10 0.09 0.08
0.02 0.01 0.00 0.00 0.00 0.00 0.00 0.00 0.00 0.00 0.00 0.00 0.00 0.00 0.00 0.00 0.00 0.00 0.00 0.00 0.00 0.00 0.00 0.01 0.01 0.02 0.03 0.03 0.04 0.06 0.07 0.09 0.08 0.07 0.07 0.09 0.10 0.11 0.10 0.07 0.06 0.06 0.06 0.08 0.10 0.12 0.12 0.15 0.20
0.02 0.01 0.00 0.00 0.00 0.00 0.00 0.00 0.00 0.00 0.00 0.00 0.00 0.00 0.00 0.00 0.00 0.00 0.00 0.00 0.00 0.00 0.00 0.01 0.01 0.02 0.02 0.02 0.03 0.04 0.05 0.06 0.06 0.06 0.06 0.08 0.10 0.10 0.08 0.07 0.06 0.06 0.06 0.07 0.09 0.10 0.12 0.13 0.16
0.02 0.01 0.01 0.00 0.00 0.00 0.00 0.00 0.00 0.00 0.00 0.00 0.00 0.00 0.00 0.00 0.00 0.00 0.00 0.00 0.00 0.00 0.00 0.01 0.01 0.01 0.02 0.02 0.02 0.02 0.03 0.04 0.04 0.05 0.05 0.05 0.06 0.07 0.07 0.06 0.05 0.04 0.05 0.06 0.07 0.07 0.08 0.10 0.14
0.02 0.02 0.02 0.02 0.01 0.01 0.01 0.00 0.00 0.00 0.00 0.00 0.00 0.00 0.00 0.00 0.00 0.00 0.00 0.00 0.00 0.00 0.00 0.00 0.01 0.01 0.02 0.02 0.02 0.02 0.02 0.02 0.03 0.04 0.04 0.03 0.03 0.04 0.04 0.04 0.03 0.02 0.02 0.03 0.03 0.04 0.05 0.06 0.09
0.03 0.04 0.04 0.03 0.03 0.02 0.02 0.02 0.00 0.00 0.00 0.00 0.00 0.00 0.00 0.00 0.00 0.00 0.00 0.00 0.00 0.00 0.00 0.00 0.00 0.01 0.02 0.02 0.02 0.02 0.02 0.02 0.02 0.02 0.02 0.02 0.02 0.02 0.02 0.02 0.02 0.02 0.02 0.03 0.03 0.03 0.04 0.05 0.06
0.08 0.09 0.06 0.02 0.02 0.03 0.04 0.03 0.00 0.00 0.00 0.00 0.00 0.00 0.00 0.00 0.00 0.00 0.00 0.00 0.00 0.00 0.00 0.00 0.00 0.01 0.02 0.02 0.02 0.02 0.02 0.02 0.02 0.02 0.02 0.02 0.02 0.02 0.03 0.03 0.03 0.02 0.03 0.06 0.06 0.06 0.07 0.06 0.08
0.14 0.12 0.05 0.01 0.00 0.01 0.04 0.03 0.00 0.00 0.00 0.00 0.00 0.00 0.00 0.00 0.00 0.00 0.00 0.00 0.00 0.00 0.00 0.00 0.00 0.01 0.01 0.02 0.03 0.02 0.02 0.02 0.02 0.02 0.02 0.02 0.03 0.03 0.04 0.04 0.06 0.06 0.08 0.10 0.12 0.11 0.13 0.12 0.11
0.09 0.05 0.03 0.01 0.00 0.01 0.02 0.02 0.00 0.00 0.00 0.00 0.00 0.00 0.00 0.00 0.00 0.00 0.00 0.00 0.00 0.00 0.00 0.00 0.00 0.00 0.01 0.02 0.03 0.03 0.03 0.03 0.03 0.03 0.03 0.03 0.03 0.03 0.03 0.03 0.04 0.07 0.12 0.15 0.18 0.15 0.15 0.16 0.17
0.04 0.04 0.04 0.02 0.01 0.02 0.02 0.01 0.00 0.00 0.00 0.00 0.00 0.00 0.00 0.00 0.00 0.00 0.00 0.00 0.00 0.00 0.00 0.00 0.00 0.00 0.01 0.02 0.03 0.03 0.03 0.03 0.04 0.03 0.03 0.03 0.03 0.03 0.03 0.03 0.04 0.05 0.06 0.08 0.10 0.12 0.11 0.11 0.12
0.08 0.09 0.07 0.04 0.02 0.03 0.04 0.02 0.00 0.00 0.00 0.00 0.00 0.00 0.00 0.00 0.00 0.00 0.00 0.00 0.00 0.00 0.00 0.00 0.00 0.00 0.01 0.01 0.01 0.01 0.02 0.02 0.03 0.03 0.03 0.03 0.03 0.02 0.02 0.02 0.03 0.03 0.03 0.02 0.02 0.04 0.07 0.06 0.07
0.13 0.10 0.06 0.04 0.04 0.05 0.06 0.04 0.01 0.00 0.00 0.00 0.00 0.00 0.00 0.00 0.00 0.00 0.00 0.00 0.00 0.00 0.00 0.00 0.00 0.00 0.00 0.01 0.01 0.01 0.02 0.02 0.02 0.03 0.03 0.03 0.03 0.02 0.02 0.02 0.02 0.02 0.02 0.02 0.02 0.03 0.05 0.06 0.04
0.14 0.06 0.05 0.07 0.12 0.14 0.09 0.07 0.01 0.00 0.00 0.00 0.00 0.00 0.00 0.00 0.00 0.00 0.00 0.00 0.00 0.00 0.00 0.00 0.00 0.00 0.00 0.01 0.01 0.01 0.01 0.02 0.02 0.02 0.02 0.02 0.02 0.02 0.02 0.02 0.02 0.02 0.02 0.03 0.03 0.03 0.04 0.07 0.08
0.08 0.05 0.08 0.12 0.19 0.22 0.14 0.11 0.02 0.00 0.00 0.00 0.00 0.00 0.00 0.00 0.00 0.00 0.00 0.00 0.00 0.00 0.00 0.00 0.00 0.00 0.00 0.00 0.01 0.01 0.01 0.01 0.01 0.01 0.01 0.01 0.01 0.01 0.01 0.01 0.02 0.02 0.03 0.03 0.03 0.04 0.05 0.07 0.10
0.13 0.16 0.22 0.27 0.39 0.46 0.17 0.11 0.04 0.00 0.00 0.00 0.00 0.00 0.00 0.00 0.00 0.00 0.00 0.00 0.00 0.00 0.00 0.00 0.00 0.00 0.00 0.00 0.01 0.01 0.01 0.01 0.01 0.01 0.01 0.01 0.02 0.02 0.02 0.02 0.03 0.03 0.03 0.04 0.05 0.06 0.07 0.09 0.11
0.29 0.43 0.65 0.69 0.70 0.41 0.07 0.05 0.03 0.00 0.00 0.00 0.00 0.00 0.00 0.00 0.00 0.00 0.00 0.00 0.00 0.00 0.00 0.00 0.00 0.00 0.00 0.01 0.01 0.01 0.01 0.01 0.01 0.01 0.01 0.01 0.02 0.02 0.02 0.03 0.04 0.05 0.05 0.06 0.07 0.10 0.11 0.13 0.15
0.28 0.40 0.54 0.47 0.26 0.08 0.02 0.02 0.00 0.00 0.00 0.00 0.00 0.00 0.00 0.00 0.00 0.00 0.00 0.00 0.00 0.00 0.00 0.00 0.00 0.00 0.01 0.01 0.01 0.01 0.01 0.01 0.01 0.01 0.01 0.01 0.02 0.02 0.02 0.04 0.05 0.06 0.07 0.09 0.10 0.13 0.15 0.18 0.20
0.21 0.26 0.27 0.35 0.24 0.10 0.04 0.01 0.00 0.00 0.00 0.00 0.00 0.00 0.00 0.00 0.00 0.00 0.00 0.00 0.00 0.00 0.00 0.00 0.00 0.00 0.01 0.01 0.01 0.01 0.01 0.01 0.01 0.01 0.01 0.01 0.02 0.02 0.03 0.05 0.08 0.10 0.11 0.13 0.15 0.18 0.19 0.21 0.23
0.21 0.24 0.31 0.53 0.49 0.22 0.07 0.01 0.00 0.00 0.00 0.00 0.00 0.00 0.00 0.00 0.00 0.00 0.00 0.00 0.00 0.00 0.00 0.00 0.00 0.00 0.01 0.01 0.01 0.01 0.01 0.02 0.02 0.02 0.02 0.02 0.02 0.03 0.04 0.07 0.09 0.12 0.16 0.18 0.22 0.23 0.23 0.25 0.25
0.25 0.33 0.46 0.49 0.36 0.21 0.09 0.02 0.00 0.00 0.00 0.00 0.00 0.00 0.00 0.00 0.00 0.00 0.00 0.00 0.00 0.00 0.00 0.00 0.00 0.01 0.01 0.01 0.02 0.03 0.03 0.03 0.05 0.06 0.05 0.05 0.05 0.06 0.07 0.09 0.10 0.12 0.17 0.22 0.25 0.27 0.29 0.32 0.32
0.26 0.30 0.36 0.47 0.36 0.16 0.10 0.04 0.01 0.00 0.00 0.00 0.00 0.00 0.00 0.00 0.00 0.00 0.00 0.00 0.00 0.00 0.00 0.01 0.01 0.02 0.02 0.02 0.02 0.03 0.04 0.05 0.06 0.07 0.09 0.09 0.10 0.10 0.11 0.13 0.14 0.15 0.18 0.23 0.28 0.31 0.33 0.38 0.43

GEFSSGP_prec_meanprecacc_168.txt.gz
Total_Precipitation_Accumulation
0.01 0.00 0.00 0.00 0.00 0.00 0.00 0.00 0.00 0.00 0.00 0.00 0.00 0.00 0.00 0.00 0.00 0.00 0.00 0.00 0.01 0.02 0.04 0.09 0.12 0.14 0.15 0.16 0.14 0.11 0.11 0.11 0.11 0.11 0.10 0.12 0.14 0.17 0.21 0.22 0.23 0.23 0.27 0.29 0.27 0.29 0.37 0.42 0.49
0.01 0.00 0.00 0.00 0.00 0.00 0.00 0.00 0.00 0.00 0.00 0.00 0.00 0.00 0.00 0.00 0.00 0.00 0.00 0.00 0.00 0.01 0.02 0.05 0.10 0.13 0.15 0.16 0.14 0.11 0.10 0.09 0.09 0.09 0.08 0.10 0.13 0.17 0.21 0.22 0.23 0.25 0.31 0.32 0.34 0.36 0.39 0.44 0.47
0.01 0.01 0.00 0.00 0.00 0.00 0.00 0.00 0.00 0.00 0.00 0.00 0.00 0.00 0.00 0.00 0.00 0.00 0.00 0.00 0.00 0.00 0.01 0.04 0.09 0.13 0.15 0.17 0.15 0.12 0.10 0.09 0.08 0.09 0.09 0.09 0.11 0.13 0.17 0.20 0.22 0.25 0.29 0.28 0.32 0.35 0.34 0.36 0.37
0.01 0.01 0.00 0.00 0.00 0.00 0.00 0.00 0.00 0.00 0.00 0.00 0.00 0.00 0.00 0.00 0.00 0.00 0.00 0.00 0.00 0.00 0.01 0.03 0.09 0.13 0.16 0.18 0.18 0.13 0.11 0.10 0.09 0.10 0.10 0.10 0.10 0.10 0.11 0.13 0.15 0.18 0.23 0.25 0.28 0.31 0.31 0.35 0.37
0.01 0.01 0.01 0.00 0.00 0.00 0.00 0.00 0.00 0.00 0.00 0.00 0.00 0.00 0.00 0.00 0.00 0.00 0.00 0.00 0.00 0.00 0.01 0.03 0.08 0.13 0.15 0.17 0.19 0.15 0.12 0.11 0.11 0.12 0.13 0.12 0.11 0.11 0.11 0.10 0.10 0.10 0.13 0.17 0.23 0.27 0.31 0.38 0.36
0.02 0.01 0.01 0.00 0.00 0.00 0.00 0.00 0.00 0.00 0.00 0.00 0.00 0.00 0.00 0.00 0.00 0.00 0.00 0.00 0.00 0.00 0.01 0.03 0.09 0.12 0.14 0.17 0.19 0.15 0.14 0.12 0.12 0.12 0.12 0.13 0.13 0.13 0.14 0.13 0.11 0.10 0.10 0.11 0.14 0.21 0.33 0.40 0.34
0.02 0.01 0.01 0.00 0.00 0.00 0.00 0.00 0.00 0.00 0.00 0.00 0.00 0.00 0.00 0.00 0.00 0.00 0.00 0.00 0.00 0.00 0.01 0.03 0.06 0.10 0.13 0.17 0.21 0.19 0.16 0.15 0.14 0.13 0.12 0.11 0.11 0.13 0.15 0.15 0.13 0.12 0.11 0.11 0.10 0.14 0.24 0.33 0.33
0.03 0.03 0.01 0.00 0.00 0.00 0.00 0.00 0.00 0.00 0.00 0.00 0.00 0.00 0.00 0.00 0.00 0.00 0.00 0.00 0.00 0.01 0.01 0.03 0.04 0.05 0.08 0.12 0.17 0.20 0.18 0.17 0.16 0.15 0.11 0.10 0.09 0.10 0.11 0.10 0.10 0.11 0.12 0.12 0.10 0.11 0.15 0.20 0.25
0.05 0.05 0.03 0.01 0.00 0.00 0.00 0.00 0.00 0.00 0.00 0.00 0.00 0.00 0.00 0.00 0.00 0.00 0.00 0.01 0.01 0.01 0.01 0.02 0.03 0.04 0.06 0.08 0.10 0.15 0.17 0.16 0.14 0.12 0.09 0.08 0.07 0.06 0.06 0.06 0.06 0.08 0.10 0.10 0.12 0.12 0.11 0.12 0.11
0.08 0.05 0.02 0.01 0.00 0.00 0.00 0.00 0.00 0.00 0.00 0.00 0.00 0.00 0.00 0.00 0.00 0.00 0.00 0.00 0.01 0.01 0.01 0.02 0.02 0.03 0.04 0.05 0.07 0.10 0.11 0.11 0.09 0.08 0.07 0.07 0.07 0.07 0.07 0.06 0.06 0.08 0.08 0.09 0.12 0.13 0.10 0.09 0.08
0.06 0.05 0.01 0.01 0.01 0.01 0.01 0.00 0.00 0.00 0.00 0.00 0.00 0.00 0.00 0.00 0.00 0.00 0.00 0.00 0.00 0.00 0.01 0.01 0.02 0.02 0.03 0.03 0.05 0.06 0.08 0.09 0.09 0.07 0.07 0.09 0.11 0.11 0.10 0.07 0.07 0.06 0.06 0.08 0.11 0.12 0.12 0.15 0.20
0.04 0.03 0.03 0.01 0.01 0.02 0.02 0.01 0.00 0.00 0.00 0.00 0.00 0.00 0.00 0.00 0.00 0.00 0.00 0.00 0.00 0.00 0.01 0.01 0.01 0.02 0.02 0.02 0.03 0.04 0.05 0.06 0.06 0.06 0.06 0.08 0.10 0.10 0.08 0.07 0.06 0.06 0.06 0.07 0.09 0.10 0.12 0.13 0.16
0.04 0.02 0.03 0.03 0.02 0.01 0.01 0.01 0.01 0.00 0.00 0.00 0.00 0.00 0.00 0.00 0.00 0.00 0.00 0.00 0.00 0.00 0.00 0.01 0.01 0.02 0.02 0.02 0.02 0.03 0.03 0.04 0.04 0.05 0.05 0.05 0.06 0.07 0.07 0.06 0.05 0.04 0.05 0.06 0.07 0.07 0.08 0.10 0.14
0.05 0.03 0.03 0.04 0.04 0.02 0.02 0.01 0.01 0.00 0.00 0.00 0.00 0.00 0.00 0.00 0.00 0.00 0.00 0.00 0.00 0.00 0.00 0.01 0.01 0.01 0.02 0.02 0.02 0.02 0.02 0.03 0.03 0.04 0.04 0.03 0.03 0.04 0.04 0.04 0.03 0.02 0.02 0.03 0.03 0.04 0.05 0.06 0.09
0.07 0.08 0.06 0.04 0.05 0.05 0.04 0.03 0.01 0.00 0.00 0.00 0.00 0.00 0.00 0.00 0.00 0.00 0.00 0.00 0.00 0.00 0.00 0.00 0.01 0.01 0.02 0.02 0.02 0.02 0.02 0.02 0.02 0.02 0.02 0.02 0.02 0.02 0.02 0.02 0.02 0.02 0.02 0.03 0.03 0.03 0.04 0.05 0.06
0.14 0.17 0.12 0.04 0.03 0.05 0.08 0.06 0.01 0.00 0.00 0.00 0.00 0.00 0.00 0.00 0.00 0.00 0.00 0.00 0.00 0.00 0.00 0.00 0.00 0.01 0.02 0.02 0.03 0.02 0.02 0.02 0.02 0.02 0.02 0.02 0.02 0.02 0.03 0.03 0.03 0.02 0.03 0.06 0.06 0.06 0.07 0.06 0.08
0.24 0.21 0.11 0.03 0.01 0.03 0.08 0.06 0.01 0.00 0.00 0.00 0.00 0.00 0.00 0.00 0.01 0.00 0.00 0.00 0.00 0.00 0.00 0.00 0.00 0.01 0.02 0.02 0.03 0.03 0.02 0.02 0.02 0.02 0.02 0.02 0.03 0.03 0.04 0.04 0.06 0.06 0.08 0.10 0.12 0.11 0.13 0.12 0.11
0.16 0.11 0.06 0.03 0.02 0.02 0.04 0.03 0.01 0.00 0.00 0.00 0.00 0.00 0.00 0.00 0.00 0.01 0.01 0.00 0.00 0.00 0.00 0.00 0.00 0.01 0.02 0.03 0.03 0.03 0.03 0.03 0.03 0.03 0.03 0.03 0.03 0.03 0.03 0.03 0.04 0.07 0.12 0.15 0.18 0.15 0.15 0.16 0.17
0.08 0.08 0.07 0.04 0.04 0.04 0.04 0.02 0.01 0.00 0.01 0.01 0.00 0.00 0.00 0.00 0.00 0.01 0.01 0.01 0.00 0.00 0.00 0.00 0.00 0.01 0.01 0.03 0.03 0.03 0.03 0.03 0.04 0.03 0.03 0.03 0.03 0.03 0.03 0.03 0.04 0.05 0.06 0.08 0.10 0.12 0.11 0.11 0.12
0.16 0.17 0.13 0.07 0.06 0.07 0.07 0.03 0.01 0.01 0.01 0.02 0.01 0.00 0.00 0.00 0.00 0.01 0.01 0.01 0.00 0.00 0.00 0.00 0.00 0.00 0.01 0.01 0.01 0.01 0.02 0.02 0.03 0.03 0.03 0.03 0.03 0.02 0.02 0.02 0.03 0.03 0.03 0.02 0.02 0.04 0.07 0.06 0.07
0.22 0.17 0.11 0.08 0.09 0.11 0.11 0.07 0.02 0.01 0.01 0.01 0.01 0.00 0.00 0.00 0.00 0.01 0.01 0.01 0.01 0.00 0.00 0.00 0.00 0.00 0.00 0.01 0.01 0.01 0.02 0.02 0.03 0.03 0.03 0.03 0.03 0.02 0.02 0.02 0.02 0.02 0.02 0.02 0.02 0.03 0.05 0.06 0.05
0.21 0.10 0.09 0.11 0.20 0.23 0.17 0.14 0.03 0.00 0.00 0.01 0.00 0.00 0.00 0.00 0.00 0.00 0.01 0.01 0.01 0.00 0.00 0.00 0.00 0.00 0.00 0.01 0.01 0.01 0.02 0.02 0.02 0.02 0.03 0.02 0.02 0.02 0.02 0.02 0.02 0.03 0.03 0.03 0.03 0.03 0.05 0.07 0.08
0.13 0.09 0.13 0.19 0.29 0.35 0.24 0.19 0.05 0.01 0.01 0.01 0.00 0.00 0.00 0.00 0.00 0.00 0.00 0.00 0.00 0.00 0.00 0.00 0.00 0.00 0.00 0.01 0.01 0.01 0.01 0.01 0.01 0.01 0.01 0.02 0.02 0.01 0.01 0.02 0.02 0.03 0.03 0.03 0.03 0.04 0.05 0.08 0.11
0.17 0.21 0.29 0.36 0.53 0.63 0.24 0.17 0.07 0.01 0.01 0.01 0.01 0.01 0.01 0.00 0.00 0.00 0.00 0.00 0.00 0.01 0.01 0.01 0.00 0.00 0.00 0.00 0.01 0.01 0.01 0.01 0.01 0.01 0.02 0.02 0.02 0.02 0.02 0.02 0.03 0.03 0.04 0.04 0.05 0.06 0.07 0.09 0.11
0.38 0.56 0.82 0.86 0.88 0.52 0.09 0.07 0.04 0.00 0.00 0.00 0.01 0.02 0.01 0.00 0.00 0.00 0.00 0.00 0.00 0.00 0.01 0.01 0.01 0.00 0.00 0.01 0.01 0.01 0.01 0.01 0.01 0.01 0.01 0.02 0.02 0.03 0.03 0.03 0.04 0.05 0.05 0.06 0.07 0.10 0.12 0.13 0.16
0.36 0.52 0.70 0.60 0.34 0.11 0.03 0.03 0.01 0.00 0.00 0.00 0.00 0.00 0.01 0.00 0.00 0.00 0.00 0.00 0.00 0.00 0.00 0.01 0.01 0.01 0.01 0.01 0.01 0.01 0.01 0.01 0.01 0.01 0.01 0.01 0.02 0.02 0.03 0.04 0.06 0.06 0.07 0.09 0.10 0.13 0.15 0.18 0.20
0.28 0.34 0.34 0.44 0.32 0.15 0.07 0.02 0.00 0.00 0.00 0.00 0.00 0.00 0.00 0.00 0.00 0.00 0.00 0.00 0.00 0.00 0.00 0.00 0.00 0.01 0.01 0.01 0.01 0.01 0.01 0.02 0.01 0.01 0.01 0.01 0.02 0.02 0.03 0.05 0.08 0.10 0.11 0.13 0.15 0.18 0.19 0.21 0.23
0.27 0.32 0.41 0.67 0.58 0.27 0.08 0.02 0.00 0.00 0.00 0.00 0.00 0.00 0.00 0.00 0.00 0.00 0.00 0.00 0.00 0.00 0.00 0.00 0.01 0.01 0.01 0.01 0.02 0.01 0.02 0.02 0.02 0.02 0.02 0.02 0.03 0.03 0.05 0.07 0.10 0.13 0.16 0.19 0.22 0.23 0.23 0.25 0.26
0.31 0.44 0.60 0.65 0.45 0.27 0.12 0.03 0.01 0.00 0.00 0.01 0.01 0.00 0.00 0.00 0.00 0.00 0.00 0.00 0.00 0.00 0.00 0.00 0.01 0.01 0.02 0.02 0.02 0.03 0.03 0.04 0.05 0.06 0.05 0.05 0.05 0.06 0.07 0.09 0.10 0.13 0.17 0.22 0.25 0.27 0.30 0.33 0.33
0.30 0.37 0.47 0.61 0.46 0.22 0.13 0.05 0.01 0.01 0.01 0.01 0.01 0.01 0.00 0.00 0.00 0.00 0.00 0.00 0.00 0.00 0.00 0.01 0.01 0.02 0.03 0.03 0.03 0.04 0.05 0.06 0.07 0.08 0.09 0.10 0.11 0.11 0.11 0.13 0.15 0.16 0.18 0.24 0.28 0.31 0.33 0.39 0.44

GEFSSGP_prec_meanprecacc_174.txt.gz
Total_Precipitation_Accumulation
0.02 0.02 0.01 0.01 0.00 0.00 0.00 0.00 0.00 0.00 0.00 0.00 0.00 0.00 0.00 0.00 0.00 0.00 0.00 0.00 0.01 0.03 0.04 0.10 0.14 0.15 0.16 0.17 0.15 0.12 0.12 0.12 0.12 0.11 0.11 0.13 0.15 0.18 0.22 0.23 0.24 0.24 0.28 0.30 0.28 0.30 0.38 0.43 0.49
0.02 0.01 0.01 0.01 0.00 0.00 0.00 0.00 0.00 0.00 0.00 0.00 0.00 0.00 0.00 0.00 0.00 0.00 0.00 0.00 0.00 0.01 0.02 0.05 0.11 0.14 0.16 0.16 0.15 0.12 0.11 0.10 0.10 0.10 0.09 0.11 0.14 0.18 0.22 0.23 0.24 0.25 0.32 0.33 0.35 0.37 0.40 0.44 0.47
0.02 0.01 0.01 0.01 0.00 0.00 0.00 0.00 0.00 0.00 0.00 0.00 0.00 0.00 0.00 0.00 0.00 0.00 0.00 0.00 0.00 0.00 0.01 0.04 0.10 0.14 0.16 0.18 0.16 0.13 0.11 0.10 0.09 0.10 0.10 0.11 0.12 0.14 0.18 0.21 0.23 0.26 0.30 0.29 0.32 0.36 0.34 0.36 0.38
0.02 0.02 0.02 0.01 0.00 0.00 0.00 0.00 0.00 0.00 0.00 0.00 0.00 0.00 0.00 0.00 0.00 0.00 0.00 0.00 0.00 0.00 0.01 0.04 0.10 0.14 0.17 0.19 0.18 0.14 0.11 0.10 0.10 0.11 0.11 0.11 0.11 0.12 0.12 0.14 0.16 0.19 0.24 0.25 0.28 0.32 0.32 0.36 0.37
0.02 0.02 0.02 0.01 0.00 0.00 0.00 0.00 0.00 0.00 0.00 0.00 0.00 0.00 0.00 0.00 0.00 0.00 0.00 0.00 0.00 0.00 0.01 0.03 0.10 0.15 0.16 0.18 0.20 0.16 0.13 0.12 0.12 0.13 0.14 0.13 0.12 0.12 0.12 0.11 0.10 0.11 0.13 0.17 0.23 0.27 0.31 0.38 0.36
0.04 0.02 0.02 0.01 0.00 0.00 0.00 0.00 0.00 0.00 0.00 0.00 0.00 0.00 0.00 0.00 0.00 0.00 0.00 0.00 0.00 0.00 0.01 0.04 0.11 0.15 0.16 0.18 0.21 0.17 0.15 0.13 0.13 0.13 0.13 0.14 0.14 0.14 0.15 0.13 0.11 0.10 0.10 0.11 0.15 0.21 0.33 0.40 0.34
0.05 0.03 0.01 0.00 0.00 0.00 0.00 0.00 0.00 0.00 0.00 0.00 0.00 0.00 0.00 0.00 0.00 0.00 0.00 0.00 0.00 0.01 0.01 0.04 0.09 0.12 0.16 0.20 0.23 0.20 0.17 0.17 0.15 0.14 0.13 0.12 0.12 0.14 0.16 0.15 0.13 0.13 0.12 0.12 0.11 0.14 0.24 0.33 0.33
0.05 0.05 0.02 0.01 0.00 0.00 0.00 0.00 0.00 0.00 0.00 0.00 0.00 0.00 0.00 0.00 0.00 0.00 0.00 0.00 0.01 0.01 0.02 0.04 0.06 0.08 0.11 0.15 0.19 0.21 0.19 0.18 0.17 0.15 0.12 0.10 0.10 0.11 0.11 0.11 0.11 0.12 0.12 0.12 0.11 0.11 0.16 0.20 0.25
0.07 0.08 0.04 0.01 0.00 0.00 0.00 0.00 0.00 0.00 0.00 0.00 0.00 0.00 0.00 0.00 0.00 0.00 0.01 0.01 0.02 0.02 0.02 0.03 0.05 0.07 0.09 0.11 0.12 0.16 0.18 0.17 0.15 0.12 0.10 0.09 0.07 0.07 0.07 0.06 0.07 0.09 0.10 0.10 0.12 0.12 0.12 0.12 0.11
0.13 0.08 0.03 0.01 0.01 0.01 0.00 0.00 0.00 0.00 0.00 0.00 0.00 0.00 0.00 0.00 0.00 0.00 0.00 0.01 0.01 0.02 0.02 0.03 0.04 0.05 0.07 0.08 0.09 0.11 0.12 0.12 0.10 0.08 0.08 0.08 0.07 0.07 0.07 0.06 0.06 0.08 0.08 0.09 0.12 0.13 0.10 0.09 0.08
0.12 0.08 0.03 0.01 0.02 0.03 0.02 0.01 0.00 0.00 0.00 0.00 0.00 0.00 0.00 0.00 0.00 0.00 0.00 0.00 0.00 0.01 0.01 0.02 0.03 0.04 0.05 0.05 0.06 0.08 0.09 0.11 0.09 0.08 0.07 0.09 0.11 0.11 0.10 0.08 0.07 0.06 0.06 0.08 0.11 0.12 0.12 0.15 0.20
0.10 0.06 0.04 0.02 0.02 0.04 0.04 0.02 0.01 0.00 0.00 0.00 0.00 0.00 0.00 0.00 0.00 0.00 0.00 0.00 0.00 0.01 0.01 0.02 0.03 0.04 0.04 0.04 0.04 0.05 0.06 0.07 0.07 0.07 0.07 0.08 0.10 0.10 0.08 0.07 0.07 0.06 0.06 0.07 0.09 0.10 0.12 0.13 0.16
0.10 0.05 0.04 0.04 0.03 0.03 0.04 0.04 0.03 0.01 0.00 0.00 0.00 0.00 0.00 0.00 0.00 0.00 0.00 0.00 0.00 0.00 0.01 0.02 0.02 0.03 0.04 0.04 0.04 0.03 0.04 0.05 0.05 0.05 0.05 0.05 0.06 0.07 0.07 0.06 0.05 0.05 0.05 0.06 0.07 0.07 0.08 0.10 0.14
0.11 0.07 0.06 0.06 0.06 0.05 0.04 0.03 0.04 0.02 0.01 0.00 0.00 0.00 0.00 0.00 0.00 0.00 0.00 0.00 0.00 0.00 0.01 0.01 0.02 0.03 0.04 0.04 0.03 0.03 0.03 0.03 0.03 0.04 0.04 0.03 0.03 0.04 0.04 0.04 0.03 0.03 0.02 0.03 0.03 0.04 0.05 0.06 0.09
0.13 0.13 0.10 0.07 0.08 0.09 0.07 0.05 0.02 0.01 0.01 0.01 0.01 0.00 0.00 0.00 0.00 0.00 0.00 0.00 0.00 0.00 0.00 0.01 0.02 0.02 0.03 0.03 0.04 0.03 0.02 0.02 0.02 0.02 0.02 0.02 0.02 0.02 0.02 0.02 0.02 0.02 0.02 0.03 0.03 0.03 0.04 0.05 0.06
0.22 0.25 0.19 0.09 0.07 0.10 0.14 0.10 0.01 0.00 0.01 0.02 0.01 0.01 0.01 0.01 0.00 0.00 0.00 0.00 0.00 0.00 0.00 0.01 0.01 0.02 0.03 0.03 0.04 0.03 0.03 0.02 0.02 0.02 0.02 0.02 0.02 0.02 0.03 0.03 0.03 0.02 0.03 0.06 0.06 0.06 0.07 0.06 0.08
0.35 0.30 0.16 0.07 0.05 0.09 0.14 0.11 0.03 0.01 0.01 0.01 0.01 0.01 0.01 0.01 0.01 0.01 0.00 0.00 0.00 0.00 0.00 0.01 0.01 0.02 0.02 0.03 0.04 0.04 0.03 0.03 0.02 0.02 0.02 0.02 0.03 0.03 0.04 0.05 0.06 0.06 0.08 0.10 0.12 0.11 0.13 0.12 0.11
0.25 0.17 0.10 0.06 0.05 0.08 0.09 0.07 0.03 0.02 0.02 0.02 0.01 0.01 0.01 0.01 0.00 0.01 0.01 0.00 0.00 0.00 0.01 0.01 0.01 0.02 0.03 0.04 0.05 0.05 0.05 0.04 0.03 0.03 0.03 0.03 0.03 0.03 0.03 0.04 0.04 0.07 0.12 0.15 0.18 0.15 0.15 0.16 0.17
0.16 0.15 0.13 0.08 0.07 0.10 0.09 0.06 0.03 0.03 0.03 0.03 0.01 0.01 0.01 0.01 0.00 0.01 0.01 0.01 0.01 0.01 0.01 0.01 0.01 0.02 0.03 0.04 0.05 0.04 0.04 0.04 0.04 0.04 0.03 0.03 0.03 0.03 0.03 0.03 0.04 0.05 0.06 0.08 0.10 0.12 0.11 0.11 0.12
0.24 0.26 0.19 0.11 0.09 0.11 0.11 0.06 0.03 0.04 0.04 0.03 0.02 0.01 0.01 0.01 0.01 0.01 0.01 0.02 0.02 0.02 0.01 0.02 0.02 0.02 0.02 0.02 0.02 0.02 0.03 0.03 0.04 0.04 0.04 0.03 0.03 0.02 0.02 0.02 0.03 0.03 0.03 0.02 0.03 0.04 0.07 0.06 0.07
0.28 0.23 0.17 0.13 0.13 0.14 0.14 0.10 0.03 0.03 0.02 0.02 0.02 0.01 0.01 0.00 0.01 0.01 0.01 0.02 0.02 0.02 0.01 0.01 0.01 0.02 0.02 0.02 0.02 0.02 0.03 0.04 0.04 0.03 0.04 0.04 0.03 0.02 0.02 0.02 0.02 0.02 0.02 0.02 0.02 0.03 0.06 0.06 0.05
0.27 0.13 0.13 0.17 0.27 0.31 0.23 0.19 0.03 0.02 0.02 0.01 0.01 0.01 0.01 0.00 0.00 0.01 0.01 0.02 0.02 0.02 0.02 0.02 0.02 0.02 0.02 0.03 0.03 0.02 0.03 0.03 0.02 0.03 0.03 0.03 0.02 0.02 0.02 0.02 0.02 0.03 0.03 0.03 0.03 0.03 0.05 0.07 0.09
0.19 0.13 0.18 0.25 0.36 0.42 0.30 0.25 0.07 0.02 0.04 0.02 0.01 0.00 0.00 0.00 0.00 0.01 0.01 0.01 0.01 0.02 0.03 0.03 0.02 0.02 0.02 0.03 0.03 0.02 0.02 0.02 0.02 0.02 0.02 0.02 0.02 0.02 0.02 0.02 0.02 0.03 0.03 0.04 0.04 0.04 0.05 0.08 0.11
0.23 0.29 0.38 0.45 0.65 0.75 0.27 0.20 0.09 0.01 0.03 0.03 0.03 0.02 0.01 0.00 0.00 0.00 0.01 0.01 0.01 0.02 0.03 0.04 0.04 0.03 0.03 0.03 0.03 0.02 0.02 0.01 0.01 0.02 0.02 0.02 0.02 0.02 0.02 0.03 0.03 0.03 0.04 0.04 0.05 0.06 0.07 0.09 0.11
0.46 0.68 0.98 1.00 1.01 0.60 0.10 0.08 0.05 0.01 0.00 0.01 0.03 0.05 0.03 0.00 0.00 0.00 0.01 0.02 0.02 0.02 0.03 0.05 0.06 0.04 0.03 0.03 0.03 0.02 0.01 0.01 0.01 0.01 0.01 0.02 0.02 0.03 0.03 0.03 0.04 0.05 0.06 0.06 0.08 0.10 0.12 0.13 0.16
0.45 0.63 0.85 0.72 0.41 0.14 0.04 0.03 0.01 0.00 0.00 0.00 0.01 0.03 0.03 0.02 0.01 0.00 0.01 0.02 0.03 0.02 0.03 0.04 0.07 0.06 0.03 0.03 0.03 0.03 0.02 0.02 0.01 0.01 0.01 0.01 0.02 0.02 0.03 0.04 0.06 0.07 0.07 0.09 0.11 0.13 0.15 0.18 0.20
0.34 0.42 0.42 0.54 0.38 0.18 0.08 0.02 0.01 0.00 0.00 0.00 0.00 0.01 0.02 0.02 0.01 0.01 0.01 0.02 0.04 0.03 0.03 0.03 0.05 0.08 0.05 0.03 0.03 0.03 0.03 0.02 0.02 0.02 0.01 0.02 0.02 0.02 0.03 0.05 0.08 0.10 0.12 0.13 0.15 0.18 0.19 0.21 0.23
0.30 0.38 0.50 0.78 0.67 0.30 0.09 0.02 0.01 0.00 0.00 0.00 0.00 0.00 0.00 0.01 0.01 0.01 0.02 0.02 0.03 0.04 0.03 0.03 0.04 0.06 0.07 0.05 0.04 0.03 0.03 0.03 0.03 0.03 0.02 0.02 0.03 0.03 0.05 0.07 0.10 0.13 0.16 0.19 0.22 0.23 0.24 0.25 0.26
0.35 0.49 0.68 0.75 0.52 0.31 0.13 0.04 0.02 0.02 0.01 0.01 0.01 0.00 0.00 0.01 0.01 0.01 0.02 0.02 0.02 0.03 0.03 0.03 0.03 0.05 0.07 0.06 0.05 0.05 0.05 0.06 0.06 0.06 0.06 0.05 0.06 0.06 0.07 0.09 0.10 0.13 0.17 0.22 0.25 0.27 0.30 0.33 0.33
0.33 0.41 0.52 0.69 0.52 0.25 0.15 0.07 0.02 0.02 0.02 0.02 0.02 0.02 0.01 0.01 0.01 0.01 0.01 0.01 0.02 0.03 0.04 0.04 0.04 0.06 0.07 0.06 0.06 0.07 0.07 0.08 0.09 0.09 0.10 0.10 0.11 0.11 0.11 0.13 0.15 0.16 0.18 0.24 0.28 0.31 0.33 0.39 0.44

GEFSSGP_prec_meanprecacc_180.txt.gz
Total_Precipitation_Accumulation
0.03 0.03 0.02 0.03 0.01 0.00 0.00 0.00 0.00 0.00 0.00 0.00 0.00 0.00 0.00 0.00 0.00 0.00 0.00 0.00 0.01 0.03 0.04 0.11 0.14 0.16 0.17 0.18 0.16 0.13 0.14 0.13 0.13 0.13 0.12 0.14 0.17 0.19 0.23 0.24 0.25 0.25 0.29 0.32 0.30 0.32 0.39 0.44 0.50
0.03 0.03 0.03 0.02 0.01 0.00 0.00 0.00 0.00 0.00 0.00 0.00 0.00 0.00 0.00 0.00 0.00 0.00 0.00 0.00 0.00 0.01 0.02 0.06 0.12 0.15 0.17 0.17 0.15 0.13 0.12 0.11 0.11 0.11 0.11 0.12 0.16 0.20 0.23 0.24 0.25 0.27 0.33 0.34 0.36 0.38 0.41 0.45 0.47
0.05 0.05 0.04 0.02 0.01 0.00 0.00 0.00 0.00 0.00 0.00 0.00 0.00 0.00 0.00 0.00 0.00 0.00 0.00 0.00 0.00 0.00 0.01 0.04 0.11 0.15 0.17 0.19 0.17 0.14 0.12 0.11 0.10 0.11 0.11 0.12 0.13 0.15 0.19 0.22 0.24 0.27 0.31 0.29 0.33 0.36 0.34 0.36 0.38
0.07 0.07 0.05 0.02 0.00 0.00 0.00 0.00 0.00 0.00 0.00 0.00 0.00 0.00 0.00 0.00 0.00 0.00 0.00 0.00 0.00 0.00 0.01 0.04 0.11 0.15 0.18 0.20 0.20 0.15 0.13 0.12 0.11 0.12 0.13 0.13 0.13 0.13 0.13 0.15 0.16 0.20 0.24 0.26 0.28 0.32 0.32 0.36 0.37
0.07 0.07 0.06 0.03 0.00 0.00 0.00 0.00 0.00 0.00 0.00 0.00 0.00 0.00 0.00 0.00 0.00 0.00 0.00 0.00 0.00 0.00 0.01 0.04 0.11 0.16 0.17 0.20 0.21 0.17 0.14 0.13 0.13 0.14 0.15 0.15 0.14 0.14 0.13 0.12 0.11 0.11 0.14 0.18 0.23 0.28 0.31 0.38 0.37
0.09 0.07 0.04 0.02 0.00 0.00 0.00 0.00 0.00 0.00 0.00 0.00 0.00 0.00 0.00 0.00 0.00 0.00 0.00 0.00 0.00 0.01 0.02 0.05 0.13 0.16 0.17 0.20 0.23 0.19 0.16 0.15 0.14 0.14 0.15 0.16 0.16 0.16 0.16 0.14 0.12 0.11 0.11 0.12 0.15 0.22 0.34 0.40 0.35
0.10 0.06 0.03 0.01 0.00 0.00 0.00 0.00 0.00 0.00 0.00 0.00 0.00 0.00 0.00 0.00 0.00 0.00 0.00 0.00 0.00 0.01 0.02 0.05 0.11 0.14 0.17 0.22 0.25 0.22 0.19 0.18 0.17 0.15 0.15 0.15 0.14 0.15 0.17 0.16 0.14 0.13 0.12 0.12 0.11 0.14 0.24 0.33 0.34
0.10 0.09 0.04 0.01 0.00 0.00 0.00 0.00 0.00 0.00 0.00 0.00 0.00 0.00 0.00 0.00 0.00 0.00 0.00 0.01 0.01 0.01 0.03 0.05 0.08 0.10 0.13 0.18 0.21 0.22 0.20 0.20 0.19 0.17 0.13 0.12 0.12 0.13 0.13 0.11 0.12 0.12 0.12 0.12 0.11 0.11 0.16 0.21 0.25
0.16 0.16 0.07 0.02 0.01 0.00 0.00 0.00 0.00 0.00 0.00 0.00 0.00 0.00 0.00 0.00 0.00 0.00 0.01 0.01 0.02 0.03 0.03 0.05 0.08 0.10 0.13 0.14 0.14 0.17 0.19 0.19 0.16 0.14 0.11 0.11 0.10 0.09 0.08 0.07 0.07 0.09 0.10 0.10 0.12 0.13 0.12 0.12 0.11
0.25 0.18 0.07 0.02 0.01 0.01 0.01 0.01 0.01 0.01 0.01 0.00 0.00 0.00 0.00 0.00 0.00 0.00 0.00 0.01 0.02 0.02 0.03 0.04 0.07 0.09 0.11 0.11 0.12 0.13 0.14 0.13 0.12 0.10 0.09 0.10 0.10 0.09 0.09 0.07 0.07 0.08 0.09 0.10 0.13 0.13 0.10 0.09 0.08
0.22 0.17 0.06 0.02 0.03 0.04 0.03 0.01 0.01 0.01 0.01 0.01 0.00 0.00 0.00 0.00 0.00 0.00 0.00 0.01 0.01 0.01 0.02 0.04 0.06 0.08 0.09 0.10 0.09 0.10 0.12 0.12 0.11 0.09 0.08 0.10 0.12 0.12 0.11 0.08 0.07 0.07 0.07 0.09 0.11 0.12 0.12 0.15 0.20
0.19 0.12 0.08 0.05 0.04 0.06 0.06 0.03 0.02 0.01 0.01 0.00 0.00 0.00 0.01 0.01 0.01 0.00 0.00 0.01 0.01 0.01 0.02 0.03 0.05 0.07 0.08 0.08 0.08 0.08 0.09 0.08 0.08 0.09 0.08 0.09 0.11 0.10 0.09 0.08 0.07 0.06 0.06 0.07 0.09 0.10 0.12 0.13 0.16
0.18 0.11 0.09 0.08 0.07 0.06 0.07 0.06 0.04 0.02 0.01 0.01 0.01 0.01 0.01 0.01 0.01 0.00 0.00 0.00 0.01 0.01 0.02 0.03 0.04 0.06 0.08 0.09 0.08 0.07 0.07 0.07 0.06 0.07 0.07 0.06 0.07 0.07 0.07 0.07 0.05 0.05 0.05 0.06 0.07 0.07 0.08 0.10 0.14
0.18 0.12 0.11 0.12 0.12 0.10 0.08 0.05 0.04 0.02 0.01 0.01 0.02 0.02 0.02 0.01 0.01 0.01 0.00 0.01 0.01 0.01 0.02 0.03 0.04 0.05 0.07 0.08 0.08 0.06 0.06 0.05 0.05 0.05 0.05 0.04 0.04 0.04 0.04 0.04 0.04 0.03 0.03 0.03 0.03 0.04 0.05 0.06 0.09
0.18 0.18 0.16 0.14 0.15 0.15 0.13 0.10 0.03 0.01 0.01 0.03 0.03 0.03 0.02 0.02 0.01 0.01 0.01 0.01 0.01 0.01 0.01 0.02 0.04 0.05 0.06 0.07 0.08 0.07 0.05 0.04 0.04 0.03 0.03 0.02 0.02 0.02 0.02 0.02 0.02 0.02 0.02 0.03 0.03 0.03 0.04 0.05 0.06
0.27 0.32 0.27 0.15 0.13 0.16 0.22 0.16 0.03 0.01 0.02 0.03 0.04 0.03 0.03 0.02 0.02 0.01 0.01 0.01 0.01 0.01 0.01 0.02 0.03 0.04 0.06 0.07 0.08 0.08 0.07 0.06 0.04 0.03 0.03 0.03 0.03 0.03 0.03 0.04 0.04 0.02 0.03 0.06 0.07 0.06 0.07 0.06 0.08
0.43 0.38 0.21 0.11 0.11 0.16 0.22 0.16 0.05 0.02 0.03 0.03 0.03 0.04 0.03 0.03 0.03 0.02 0.01 0.01 0.01 0.01 0.01 0.02 0.03 0.04 0.05 0.07 0.08 0.08 0.08 0.08 0.06 0.04 0.03 0.03 0.04 0.04 0.04 0.05 0.06 0.07 0.08 0.10 0.12 0.11 0.13 0.12 0.11
0.32 0.22 0.14 0.09 0.10 0.14 0.15 0.10 0.05 0.04 0.04 0.04 0.03 0.03 0.05 0.04 0.03 0.02 0.02 0.01 0.01 0.01 0.01 0.02 0.03 0.04 0.06 0.09 0.10 0.10 0.09 0.09 0.09 0.06 0.04 0.04 0.04 0.03 0.04 0.04 0.05 0.08 0.12 0.15 0.18 0.15 0.15 0.16 0.17
0.19 0.19 0.16 0.10 0.10 0.15 0.14 0.09 0.05 0.05 0.05 0.05 0.04 0.03 0.05 0.04 0.02 0.03 0.03 0.02 0.02 0.02 0.02 0.03 0.04 0.05 0.06 0.09 0.10 0.09 0.08 0.07 0.10 0.08 0.05 0.03 0.03 0.03 0.03 0.03 0.04 0.05 0.07 0.08 0.10 0.12 0.11 0.11 0.13
0.27 0.29 0.22 0.13 0.11 0.15 0.15 0.10 0.05 0.05 0.05 0.04 0.04 0.03 0.04 0.04 0.04 0.04 0.03 0.03 0.02 0.02 0.02 0.04 0.05 0.06 0.06 0.06 0.06 0.06 0.06 0.06 0.07 0.08 0.06 0.04 0.03 0.03 0.03 0.03 0.03 0.03 0.03 0.03 0.03 0.04 0.07 0.06 0.07
0.33 0.26 0.20 0.17 0.18 0.19 0.18 0.13 0.04 0.04 0.03 0.03 0.03 0.03 0.03 0.04 0.05 0.05 0.04 0.03 0.03 0.03 0.02 0.03 0.05 0.07 0.07 0.07 0.08 0.08 0.09 0.08 0.07 0.07 0.07 0.05 0.04 0.03 0.02 0.02 0.02 0.02 0.02 0.03 0.03 0.04 0.06 0.06 0.05
0.33 0.17 0.16 0.21 0.33 0.40 0.29 0.25 0.05 0.03 0.03 0.02 0.02 0.03 0.03 0.03 0.04 0.05 0.04 0.03 0.03 0.03 0.03 0.03 0.04 0.07 0.09 0.10 0.09 0.08 0.08 0.08 0.06 0.05 0.05 0.04 0.03 0.02 0.02 0.02 0.02 0.03 0.03 0.03 0.03 0.04 0.05 0.08 0.09
0.24 0.17 0.22 0.30 0.43 0.50 0.36 0.31 0.09 0.02 0.04 0.03 0.02 0.02 0.02 0.02 0.03 0.05 0.05 0.03 0.02 0.03 0.04 0.04 0.05 0.08 0.10 0.12 0.12 0.10 0.08 0.07 0.06 0.04 0.03 0.03 0.03 0.02 0.02 0.02 0.02 0.03 0.03 0.04 0.04 0.04 0.05 0.08 0.12
0.27 0.35 0.44 0.52 0.75 0.84 0.30 0.24 0.11 0.03 0.05 0.05 0.04 0.04 0.03 0.02 0.03 0.04 0.05 0.04 0.03 0.04 0.06 0.07 0.08 0.09 0.11 0.12 0.12 0.12 0.09 0.08 0.07 0.06 0.03 0.03 0.03 0.03 0.03 0.03 0.03 0.03 0.04 0.04 0.05 0.06 0.07 0.09 0.12
0.51 0.76 1.08 1.09 1.11 0.66 0.11 0.10 0.07 0.02 0.02 0.02 0.04 0.06 0.05 0.03 0.03 0.04 0.03 0.04 0.05 0.05 0.07 0.09 0.11 0.10 0.10 0.13 0.12 0.10 0.10 0.09 0.08 0.07 0.04 0.03 0.03 0.03 0.03 0.04 0.04 0.05 0.06 0.06 0.08 0.10 0.12 0.13 0.16
0.48 0.70 0.95 0.83 0.48 0.17 0.06 0.05 0.03 0.01 0.01 0.01 0.01 0.03 0.05 0.05 0.05 0.05 0.03 0.04 0.05 0.05 0.05 0.09 0.13 0.13 0.10 0.11 0.12 0.11 0.10 0.09 0.09 0.08 0.05 0.03 0.03 0.03 0.03 0.04 0.06 0.07 0.07 0.09 0.11 0.13 0.16 0.18 0.20
0.37 0.46 0.47 0.62 0.44 0.22 0.10 0.04 0.02 0.00 0.00 0.01 0.01 0.02 0.03 0.04 0.05 0.07 0.05 0.05 0.06 0.05 0.04 0.06 0.11 0.14 0.13 0.10 0.11 0.13 0.12 0.11 0.09 0.09 0.07 0.04 0.03 0.03 0.04 0.06 0.08 0.11 0.12 0.13 0.15 0.18 0.19 0.21 0.23
0.32 0.41 0.54 0.86 0.74 0.35 0.12 0.05 0.04 0.01 0.01 0.01 0.01 0.01 0.02 0.03 0.05 0.07 0.06 0.05 0.05 0.05 0.04 0.04 0.08 0.13 0.14 0.13 0.12 0.13 0.14 0.13 0.11 0.11 0.10 0.06 0.04 0.04 0.05 0.08 0.10 0.13 0.16 0.19 0.22 0.23 0.24 0.25 0.26
0.37 0.52 0.72 0.79 0.56 0.36 0.19 0.10 0.06 0.03 0.02 0.02 0.02 0.01 0.01 0.02 0.03 0.04 0.06 0.06 0.05 0.05 0.05 0.04 0.05 0.11 0.15 0.15 0.13 0.13 0.15 0.17 0.16 0.14 0.13 0.11 0.08 0.07 0.08 0.10 0.11 0.13 0.17 0.22 0.25 0.27 0.30 0.33 0.33
0.36 0.44 0.56 0.75 0.56 0.29 0.21 0.13 0.05 0.03 0.02 0.02 0.03 0.02 0.01 0.02 0.02 0.03 0.04 0.05 0.06 0.06 0.06 0.06 0.06 0.08 0.13 0.17 0.15 0.15 0.16 0.18 0.21 0.19 0.17 0.16 0.15 0.12 0.12 0.14 0.15 0.16 0.19 0.24 0.28 0.31 0.33 0.39 0.44

GEFSSGP_prec_meanprecacc_186.txt.gz
Total_Precipitation_Accumulation
0.03 0.04 0.04 0.05 0.03 0.01 0.00 0.00 0.00 0.00 0.00 0.00 0.00 0.00 0.00 0.00 0.00 0.00 0.00 0.00 0.01 0.03 0.05 0.11 0.15 0.16 0.18 0.19 0.17 0.14 0.15 0.14 0.14 0.14 0.14 0.16 0.18 0.21 0.24 0.25 0.26 0.26 0.31 0.33 0.31 0.33 0.40 0.45 0.51
0.04 0.04 0.05 0.05 0.02 0.00 0.00 0.00 0.00 0.00 0.00 0.00 0.00 0.00 0.00 0.00 0.00 0.00 0.00 0.00 0.00 0.01 0.02 0.06 0.13 0.16 0.18 0.18 0.17 0.14 0.14 0.12 0.12 0.13 0.12 0.14 0.17 0.21 0.24 0.25 0.26 0.28 0.34 0.35 0.37 0.39 0.42 0.46 0.48
0.07 0.06 0.06 0.04 0.02 0.00 0.00 0.00 0.00 0.00 0.00 0.00 0.00 0.00 0.00 0.00 0.00 0.00 0.00 0.00 0.00 0.00 0.01 0.05 0.12 0.16 0.18 0.21 0.19 0.15 0.13 0.13 0.12 0.13 0.14 0.15 0.15 0.17 0.20 0.23 0.25 0.28 0.32 0.30 0.34 0.37 0.35 0.37 0.38
0.09 0.09 0.08 0.04 0.01 0.00 0.00 0.00 0.00 0.00 0.00 0.00 0.00 0.00 0.00 0.00 0.00 0.00 0.00 0.00 0.00 0.00 0.01 0.04 0.11 0.16 0.19 0.22 0.22 0.16 0.14 0.13 0.13 0.14 0.15 0.15 0.15 0.15 0.15 0.16 0.17 0.21 0.25 0.26 0.29 0.32 0.32 0.36 0.37
0.10 0.10 0.09 0.04 0.01 0.00 0.00 0.00 0.00 0.00 0.00 0.00 0.00 0.00 0.00 0.00 0.00 0.00 0.00 0.00 0.00 0.01 0.02 0.04 0.12 0.17 0.19 0.22 0.23 0.19 0.16 0.14 0.15 0.16 0.18 0.17 0.17 0.16 0.14 0.13 0.12 0.12 0.14 0.19 0.24 0.28 0.32 0.38 0.37
0.13 0.11 0.06 0.02 0.01 0.00 0.00 0.00 0.00 0.00 0.00 0.00 0.00 0.00 0.00 0.00 0.00 0.00 0.00 0.00 0.00 0.01 0.02 0.05 0.14 0.18 0.19 0.22 0.25 0.21 0.18 0.17 0.16 0.16 0.17 0.18 0.18 0.18 0.17 0.15 0.13 0.13 0.12 0.13 0.16 0.22 0.34 0.41 0.35
0.14 0.10 0.05 0.01 0.00 0.00 0.00 0.00 0.00 0.00 0.00 0.00 0.00 0.00 0.00 0.00 0.00 0.00 0.00 0.00 0.01 0.01 0.02 0.06 0.12 0.16 0.20 0.25 0.29 0.25 0.22 0.21 0.19 0.17 0.17 0.17 0.16 0.17 0.19 0.18 0.15 0.14 0.14 0.13 0.12 0.15 0.25 0.33 0.34
0.14 0.13 0.06 0.02 0.01 0.00 0.00 0.00 0.00 0.00 0.00 0.00 0.00 0.00 0.00 0.00 0.00 0.00 0.01 0.01 0.01 0.02 0.04 0.06 0.10 0.12 0.16 0.21 0.24 0.26 0.24 0.24 0.23 0.19 0.15 0.13 0.14 0.15 0.14 0.12 0.12 0.13 0.13 0.13 0.12 0.12 0.16 0.21 0.25
0.20 0.21 0.10 0.03 0.02 0.01 0.00 0.00 0.00 0.00 0.00 0.00 0.00 0.00 0.00 0.00 0.00 0.01 0.01 0.03 0.03 0.03 0.05 0.06 0.10 0.12 0.16 0.17 0.18 0.22 0.23 0.23 0.21 0.17 0.13 0.13 0.12 0.11 0.10 0.08 0.08 0.10 0.11 0.11 0.13 0.13 0.12 0.12 0.11
0.30 0.23 0.10 0.03 0.02 0.02 0.02 0.01 0.01 0.01 0.01 0.00 0.00 0.00 0.00 0.00 0.00 0.01 0.02 0.04 0.03 0.04 0.05 0.07 0.10 0.12 0.15 0.15 0.16 0.18 0.18 0.17 0.15 0.12 0.11 0.12 0.12 0.10 0.10 0.09 0.08 0.09 0.09 0.10 0.13 0.13 0.10 0.09 0.08
0.28 0.21 0.09 0.04 0.04 0.06 0.05 0.03 0.02 0.02 0.02 0.01 0.01 0.00 0.00 0.01 0.01 0.01 0.02 0.04 0.04 0.03 0.05 0.06 0.09 0.12 0.13 0.14 0.14 0.15 0.16 0.16 0.14 0.12 0.10 0.12 0.14 0.14 0.12 0.10 0.09 0.07 0.07 0.09 0.11 0.13 0.12 0.15 0.20
0.27 0.18 0.11 0.07 0.05 0.09 0.09 0.06 0.04 0.03 0.02 0.01 0.01 0.01 0.01 0.01 0.01 0.01 0.01 0.03 0.06 0.05 0.05 0.06 0.08 0.11 0.12 0.13 0.12 0.12 0.13 0.12 0.11 0.11 0.10 0.11 0.12 0.11 0.09 0.09 0.08 0.07 0.07 0.07 0.09 0.10 0.12 0.13 0.16
0.25 0.16 0.12 0.11 0.09 0.09 0.11 0.10 0.07 0.04 0.02 0.01 0.02 0.02 0.02 0.02 0.02 0.02 0.01 0.03 0.05 0.06 0.05 0.06 0.08 0.10 0.12 0.14 0.13 0.11 0.11 0.11 0.09 0.09 0.09 0.08 0.08 0.08 0.08 0.08 0.06 0.06 0.06 0.06 0.07 0.07 0.08 0.10 0.14
0.24 0.17 0.13 0.14 0.15 0.13 0.13 0.11 0.09 0.05 0.02 0.03 0.04 0.04 0.03 0.03 0.02 0.02 0.02 0.03 0.04 0.06 0.06 0.06 0.08 0.09 0.12 0.13 0.14 0.11 0.10 0.10 0.09 0.08 0.06 0.05 0.05 0.05 0.05 0.05 0.04 0.04 0.03 0.03 0.03 0.04 0.05 0.06 0.09
0.24 0.24 0.19 0.16 0.18 0.19 0.19 0.16 0.07 0.03 0.03 0.05 0.05 0.05 0.05 0.04 0.03 0.02 0.02 0.03 0.04 0.06 0.07 0.07 0.08 0.10 0.12 0.13 0.14 0.14 0.11 0.09 0.08 0.07 0.06 0.04 0.03 0.03 0.03 0.03 0.03 0.03 0.03 0.03 0.03 0.03 0.04 0.05 0.06
0.34 0.39 0.32 0.17 0.15 0.20 0.29 0.23 0.05 0.02 0.05 0.06 0.06 0.06 0.05 0.04 0.04 0.02 0.02 0.03 0.03 0.06 0.08 0.07 0.08 0.10 0.12 0.14 0.15 0.15 0.14 0.12 0.09 0.08 0.07 0.05 0.04 0.04 0.04 0.04 0.04 0.03 0.03 0.06 0.07 0.06 0.07 0.06 0.08
0.50 0.44 0.25 0.14 0.12 0.19 0.27 0.21 0.07 0.04 0.06 0.07 0.05 0.06 0.05 0.05 0.05 0.04 0.03 0.03 0.03 0.05 0.09 0.09 0.09 0.10 0.11 0.15 0.19 0.19 0.17 0.16 0.14 0.10 0.08 0.06 0.06 0.05 0.05 0.06 0.07 0.07 0.08 0.11 0.13 0.11 0.13 0.12 0.11
0.36 0.26 0.17 0.12 0.13 0.17 0.19 0.14 0.09 0.08 0.08 0.07 0.06 0.05 0.06 0.06 0.05 0.05 0.04 0.04 0.04 0.06 0.09 0.11 0.09 0.11 0.13 0.17 0.24 0.25 0.21 0.18 0.19 0.17 0.12 0.08 0.07 0.05 0.05 0.05 0.05 0.08 0.12 0.16 0.18 0.15 0.15 0.16 0.17
0.22 0.22 0.19 0.12 0.12 0.18 0.17 0.12 0.10 0.10 0.09 0.08 0.07 0.06 0.07 0.06 0.06 0.06 0.06 0.06 0.05 0.07 0.10 0.12 0.11 0.13 0.16 0.20 0.22 0.25 0.20 0.16 0.18 0.20 0.16 0.12 0.09 0.07 0.05 0.05 0.05 0.06 0.07 0.09 0.10 0.12 0.12 0.11 0.13
0.30 0.32 0.25 0.15 0.13 0.17 0.18 0.13 0.09 0.09 0.09 0.07 0.06 0.05 0.06 0.07 0.07 0.08 0.07 0.08 0.07 0.08 0.10 0.12 0.11 0.14 0.15 0.17 0.17 0.18 0.19 0.15 0.14 0.18 0.19 0.15 0.11 0.09 0.06 0.05 0.04 0.04 0.03 0.03 0.03 0.04 0.07 0.06 0.07
0.35 0.28 0.22 0.19 0.20 0.22 0.21 0.17 0.07 0.07 0.06 0.06 0.05 0.04 0.04 0.06 0.08 0.09 0.08 0.09 0.08 0.09 0.10 0.11 0.10 0.13 0.16 0.19 0.23 0.24 0.29 0.27 0.20 0.17 0.18 0.16 0.13 0.09 0.07 0.05 0.04 0.03 0.02 0.03 0.03 0.04 0.06 0.06 0.05
0.34 0.18 0.18 0.23 0.36 0.44 0.33 0.31 0.09 0.05 0.06 0.06 0.05 0.05 0.04 0.05 0.07 0.08 0.08 0.09 0.09 0.09 0.10 0.10 0.09 0.13 0.18 0.21 0.25 0.27 0.25 0.26 0.20 0.16 0.16 0.14 0.13 0.10 0.07 0.06 0.05 0.04 0.03 0.03 0.03 0.04 0.05 0.08 0.09
0.25 0.18 0.23 0.32 0.46 0.53 0.38 0.36 0.13 0.04 0.07 0.06 0.04 0.04 0.04 0.04 0.05 0.07 0.09 0.09 0.10 0.11 0.11 0.12 0.10 0.13 0.19 0.22 0.25 0.28 0.25 0.23 0.23 0.21 0.19 0.17 0.14 0.11 0.08 0.06 0.05 0.05 0.04 0.04 0.04 0.04 0.05 0.08 0.12
0.28 0.36 0.45 0.54 0.79 0.88 0.31 0.25 0.14 0.05 0.07 0.06 0.05 0.05 0.04 0.03 0.04 0.06 0.09 0.11 0.12 0.13 0.14 0.14 0.14 0.15 0.19 0.23 0.26 0.28 0.26 0.25 0.27 0.25 0.22 0.20 0.19 0.15 0.11 0.09 0.07 0.05 0.05 0.05 0.05 0.06 0.08 0.09 0.12
0.52 0.79 1.12 1.13 1.16 0.70 0.12 0.11 0.09 0.04 0.03 0.03 0.04 0.06 0.05 0.03 0.04 0.06 0.08 0.12 0.14 0.14 0.15 0.17 0.20 0.18 0.19 0.24 0.24 0.24 0.23 0.24 0.25 0.25 0.23 0.20 0.18 0.18 0.14 0.10 0.09 0.08 0.07 0.07 0.08 0.10 0.12 0.13 0.16
0.50 0.72 0.99 0.87 0.51 0.20 0.08 0.07 0.05 0.01 0.01 0.01 0.02 0.04 0.05 0.05 0.05 0.07 0.07 0.10 0.13 0.13 0.11 0.15 0.20 0.22 0.20 0.21 0.21 0.22 0.23 0.23 0.23 0.23 0.23 0.22 0.18 0.15 0.14 0.11 0.10 0.09 0.09 0.10 0.11 0.13 0.16 0.18 0.20
0.38 0.48 0.49 0.66 0.47 0.26 0.14 0.06 0.03 0.01 0.01 0.01 0.01 0.02 0.04 0.05 0.06 0.09 0.08 0.10 0.14 0.13 0.09 0.10 0.15 0.20 0.22 0.20 0.20 0.21 0.23 0.25 0.23 0.22 0.20 0.20 0.19 0.17 0.16 0.15 0.14 0.14 0.14 0.14 0.16 0.19 0.20 0.22 0.23
0.33 0.42 0.56 0.90 0.79 0.39 0.16 0.08 0.07 0.03 0.02 0.01 0.01 0.02 0.03 0.05 0.06 0.11 0.10 0.10 0.13 0.14 0.08 0.08 0.13 0.17 0.20 0.20 0.21 0.23 0.23 0.23 0.26 0.27 0.24 0.20 0.18 0.17 0.19 0.20 0.19 0.18 0.19 0.21 0.23 0.24 0.24 0.26 0.26
0.37 0.53 0.74 0.83 0.60 0.40 0.22 0.14 0.10 0.06 0.04 0.04 0.02 0.01 0.02 0.03 0.05 0.10 0.11 0.10 0.11 0.13 0.10 0.08 0.10 0.16 0.20 0.21 0.21 0.22 0.25 0.26 0.28 0.31 0.30 0.26 0.22 0.20 0.20 0.21 0.21 0.22 0.23 0.26 0.28 0.28 0.30 0.33 0.33
0.36 0.44 0.57 0.78 0.60 0.32 0.24 0.16 0.08 0.06 0.05 0.04 0.04 0.03 0.02 0.03 0.04 0.06 0.10 0.12 0.11 0.13 0.13 0.11 0.11 0.14 0.19 0.22 0.21 0.23 0.26 0.29 0.32 0.33 0.34 0.33 0.30 0.25 0.24 0.25 0.26 0.25 0.26 0.30 0.33 0.34 0.35 0.40 0.44

GEFSSGP_prec_meanprecacc_192.txt.gz
Total_Precipitation_Accumulation
0.04 0.05 0.05 0.06 0.03 0.01 0.00 0.00 0.00 0.00 0.00 0.00 0.00 0.00 0.00 0.00 0.00 0.00 0.00 0.00 0.01 0.03 0.05 0.12 0.16 0.18 0.20 0.21 0.19 0.16 0.17 0.16 0.16 0.16 0.16 0.18 0.20 0.22 0.25 0.26 0.27 0.28 0.33 0.35 0.32 0.34 0.42 0.47 0.52
0.04 0.06 0.06 0.06 0.03 0.01 0.00 0.00 0.00 0.00 0.00 0.00 0.00 0.00 0.00 0.00 0.00 0.00 0.00 0.00 0.00 0.01 0.03 0.07 0.14 0.17 0.20 0.21 0.20 0.18 0.16 0.15 0.13 0.14 0.14 0.16 0.20 0.23 0.25 0.27 0.28 0.30 0.36 0.37 0.38 0.40 0.43 0.47 0.49
0.08 0.08 0.08 0.06 0.02 0.00 0.00 0.00 0.00 0.00 0.00 0.00 0.00 0.00 0.00 0.00 0.00 0.00 0.00 0.00 0.00 0.01 0.02 0.06 0.13 0.18 0.21 0.24 0.23 0.19 0.17 0.16 0.14 0.15 0.16 0.17 0.18 0.20 0.22 0.25 0.27 0.30 0.34 0.32 0.35 0.38 0.36 0.38 0.39
0.10 0.12 0.10 0.05 0.01 0.00 0.00 0.00 0.00 0.00 0.00 0.00 0.00 0.00 0.00 0.00 0.00 0.00 0.00 0.00 0.00 0.01 0.02 0.05 0.14 0.19 0.22 0.26 0.26 0.21 0.18 0.17 0.16 0.17 0.19 0.19 0.18 0.18 0.18 0.19 0.20 0.23 0.27 0.28 0.30 0.34 0.33 0.37 0.38
0.12 0.13 0.10 0.05 0.01 0.00 0.00 0.00 0.00 0.00 0.00 0.00 0.00 0.00 0.00 0.00 0.00 0.00 0.00 0.00 0.00 0.01 0.02 0.06 0.15 0.21 0.23 0.26 0.28 0.24 0.20 0.18 0.18 0.19 0.21 0.21 0.21 0.19 0.17 0.16 0.15 0.15 0.16 0.21 0.25 0.29 0.32 0.39 0.37
0.15 0.13 0.08 0.03 0.01 0.00 0.00 0.00 0.00 0.00 0.00 0.00 0.00 0.00 0.00 0.00 0.00 0.00 0.00 0.00 0.00 0.01 0.03 0.07 0.17 0.21 0.23 0.27 0.30 0.25 0.23 0.21 0.20 0.20 0.21 0.22 0.23 0.22 0.21 0.18 0.15 0.14 0.14 0.15 0.17 0.23 0.35 0.41 0.36
0.16 0.12 0.06 0.02 0.00 0.00 0.00 0.00 0.00 0.00 0.00 0.00 0.00 0.00 0.00 0.00 0.00 0.00 0.00 0.00 0.01 0.02 0.03 0.07 0.14 0.19 0.24 0.29 0.34 0.31 0.28 0.26 0.24 0.22 0.20 0.21 0.21 0.23 0.23 0.20 0.18 0.17 0.16 0.16 0.14 0.16 0.26 0.34 0.34
0.16 0.15 0.07 0.02 0.01 0.00 0.00 0.00 0.00 0.00 0.00 0.00 0.00 0.00 0.00 0.00 0.00 0.00 0.01 0.01 0.02 0.03 0.05 0.08 0.12 0.15 0.19 0.25 0.30 0.33 0.32 0.31 0.29 0.25 0.20 0.19 0.19 0.22 0.20 0.16 0.15 0.16 0.16 0.17 0.15 0.14 0.19 0.23 0.26
0.22 0.24 0.12 0.03 0.02 0.01 0.00 0.00 0.00 0.00 0.00 0.00 0.00 0.00 0.00 0.00 0.01 0.01 0.02 0.04 0.05 0.05 0.06 0.08 0.13 0.16 0.19 0.21 0.23 0.28 0.32 0.32 0.29 0.24 0.19 0.19 0.18 0.17 0.16 0.12 0.11 0.13 0.14 0.15 0.17 0.16 0.14 0.14 0.12
0.32 0.26 0.11 0.04 0.03 0.03 0.02 0.02 0.02 0.02 0.01 0.01 0.00 0.00 0.00 0.01 0.01 0.02 0.03 0.05 0.05 0.06 0.07 0.09 0.13 0.16 0.19 0.19 0.21 0.24 0.26 0.26 0.24 0.20 0.17 0.18 0.17 0.15 0.14 0.13 0.12 0.14 0.14 0.14 0.16 0.16 0.11 0.10 0.08
0.30 0.23 0.10 0.05 0.05 0.07 0.05 0.03 0.03 0.03 0.03 0.01 0.01 0.01 0.01 0.02 0.03 0.03 0.04 0.05 0.05 0.05 0.07 0.08 0.12 0.16 0.18 0.20 0.19 0.21 0.22 0.23 0.22 0.19 0.16 0.18 0.20 0.20 0.16 0.13 0.12 0.11 0.11 0.12 0.14 0.15 0.13 0.15 0.20
0.28 0.19 0.13 0.08 0.06 0.09 0.10 0.06 0.05 0.04 0.03 0.01 0.01 0.01 0.02 0.03 0.03 0.04 0.04 0.06 0.08 0.08 0.08 0.08 0.11 0.15 0.18 0.18 0.18 0.19 0.20 0.19 0.19 0.18 0.17 0.16 0.17 0.17 0.15 0.13 0.10 0.09 0.09 0.09 0.11 0.12 0.13 0.13 0.17
0.26 0.17 0.13 0.12 0.10 0.10 0.11 0.10 0.08 0.05 0.02 0.02 0.03 0.03 0.04 0.04 0.05 0.05 0.05 0.07 0.09 0.10 0.10 0.10 0.11 0.14 0.17 0.19 0.19 0.17 0.19 0.18 0.16 0.16 0.16 0.14 0.12 0.11 0.12 0.12 0.10 0.08 0.08 0.08 0.08 0.09 0.09 0.10 0.14
0.25 0.18 0.14 0.15 0.15 0.14 0.14 0.11 0.09 0.05 0.03 0.04 0.05 0.05 0.06 0.06 0.06 0.07 0.07 0.08 0.09 0.10 0.11 0.11 0.12 0.14 0.17 0.19 0.19 0.16 0.17 0.19 0.19 0.16 0.14 0.11 0.10 0.08 0.08 0.08 0.08 0.06 0.05 0.05 0.05 0.05 0.06 0.07 0.09
0.26 0.25 0.21 0.17 0.18 0.20 0.20 0.17 0.08 0.03 0.04 0.06 0.07 0.07 0.06 0.06 0.07 0.07 0.07 0.08 0.08 0.11 0.12 0.13 0.14 0.15 0.17 0.19 0.20 0.19 0.17 0.17 0.18 0.17 0.14 0.11 0.10 0.08 0.07 0.06 0.06 0.05 0.05 0.05 0.04 0.04 0.04 0.05 0.06
0.37 0.41 0.34 0.19 0.16 0.21 0.31 0.25 0.06 0.03 0.06 0.08 0.08 0.07 0.06 0.06 0.06 0.06 0.07 0.09 0.09 0.11 0.14 0.14 0.15 0.16 0.18 0.19 0.21 0.22 0.21 0.21 0.18 0.17 0.17 0.14 0.11 0.10 0.10 0.10 0.08 0.05 0.05 0.07 0.08 0.07 0.07 0.07 0.08
0.53 0.47 0.27 0.15 0.13 0.21 0.31 0.24 0.08 0.06 0.08 0.08 0.07 0.07 0.07 0.07 0.06 0.06 0.07 0.09 0.10 0.12 0.15 0.16 0.16 0.17 0.18 0.20 0.23 0.24 0.24 0.23 0.22 0.19 0.16 0.15 0.14 0.12 0.11 0.12 0.12 0.11 0.11 0.12 0.14 0.12 0.14 0.13 0.11
0.38 0.27 0.18 0.14 0.14 0.19 0.22 0.16 0.10 0.09 0.09 0.09 0.08 0.07 0.08 0.07 0.07 0.07 0.07 0.08 0.10 0.13 0.17 0.19 0.18 0.19 0.20 0.25 0.31 0.31 0.29 0.26 0.27 0.25 0.20 0.16 0.16 0.13 0.13 0.13 0.12 0.14 0.16 0.18 0.19 0.16 0.15 0.16 0.17
0.23 0.23 0.20 0.13 0.13 0.19 0.18 0.14 0.11 0.11 0.11 0.09 0.09 0.08 0.08 0.08 0.08 0.09 0.10 0.10 0.11 0.14 0.18 0.21 0.22 0.22 0.25 0.28 0.30 0.32 0.28 0.26 0.28 0.29 0.25 0.21 0.19 0.15 0.14 0.13 0.13 0.13 0.12 0.12 0.12 0.13 0.13 0.12 0.13
0.31 0.33 0.26 0.16 0.14 0.19 0.19 0.14 0.11 0.10 0.11 0.09 0.08 0.08 0.07 0.08 0.09 0.11 0.11 0.12 0.12 0.14 0.17 0.21 0.22 0.24 0.24 0.25 0.24 0.25 0.27 0.25 0.25 0.27 0.29 0.26 0.23 0.19 0.16 0.14 0.12 0.12 0.10 0.08 0.06 0.06 0.09 0.07 0.07
0.36 0.29 0.22 0.21 0.22 0.24 0.23 0.19 0.09 0.09 0.08 0.08 0.07 0.06 0.06 0.08 0.10 0.12 0.13 0.15 0.14 0.14 0.16 0.20 0.20 0.22 0.24 0.28 0.33 0.33 0.39 0.39 0.33 0.28 0.29 0.27 0.24 0.20 0.16 0.14 0.13 0.12 0.11 0.09 0.07 0.06 0.07 0.08 0.06
0.35 0.19 0.19 0.25 0.39 0.47 0.35 0.35 0.11 0.07 0.09 0.08 0.07 0.06 0.06 0.07 0.09 0.11 0.13 0.16 0.15 0.15 0.16 0.18 0.19 0.22 0.26 0.30 0.36 0.36 0.35 0.37 0.33 0.27 0.25 0.24 0.23 0.20 0.17 0.15 0.13 0.13 0.12 0.12 0.10 0.07 0.07 0.09 0.11
0.26 0.18 0.24 0.34 0.49 0.55 0.40 0.39 0.15 0.06 0.10 0.09 0.07 0.06 0.06 0.05 0.06 0.09 0.12 0.14 0.16 0.18 0.19 0.19 0.19 0.22 0.28 0.32 0.34 0.39 0.35 0.32 0.33 0.35 0.31 0.27 0.24 0.23 0.20 0.17 0.15 0.14 0.14 0.13 0.12 0.10 0.10 0.11 0.14
0.29 0.37 0.47 0.55 0.81 0.90 0.33 0.27 0.15 0.07 0.10 0.09 0.08 0.07 0.07 0.06 0.07 0.08 0.11 0.15 0.18 0.22 0.23 0.26 0.25 0.24 0.28 0.33 0.35 0.39 0.37 0.34 0.36 0.37 0.36 0.33 0.31 0.28 0.24 0.21 0.18 0.14 0.13 0.14 0.13 0.13 0.13 0.13 0.14
0.53 0.82 1.15 1.15 1.17 0.70 0.13 0.12 0.11 0.05 0.05 0.05 0.06 0.09 0.09 0.07 0.08 0.09 0.11 0.15 0.20 0.22 0.24 0.30 0.31 0.28 0.28 0.33 0.33 0.35 0.35 0.35 0.36 0.37 0.36 0.35 0.33 0.31 0.28 0.25 0.22 0.18 0.15 0.14 0.16 0.18 0.18 0.18 0.20
0.51 0.74 1.02 0.89 0.52 0.21 0.08 0.08 0.06 0.02 0.02 0.02 0.03 0.05 0.07 0.07 0.08 0.10 0.10 0.14 0.19 0.20 0.21 0.25 0.32 0.33 0.30 0.30 0.31 0.33 0.36 0.35 0.34 0.36 0.36 0.36 0.32 0.28 0.27 0.27 0.25 0.22 0.19 0.18 0.19 0.20 0.22 0.24 0.25
0.39 0.49 0.51 0.68 0.49 0.27 0.15 0.08 0.04 0.01 0.01 0.01 0.02 0.03 0.05 0.07 0.08 0.12 0.11 0.14 0.19 0.20 0.18 0.18 0.25 0.31 0.32 0.33 0.32 0.32 0.34 0.36 0.34 0.33 0.35 0.35 0.35 0.31 0.30 0.31 0.31 0.29 0.27 0.27 0.27 0.27 0.26 0.27 0.28
0.33 0.43 0.57 0.93 0.81 0.40 0.17 0.09 0.08 0.04 0.02 0.02 0.02 0.03 0.04 0.06 0.08 0.13 0.13 0.13 0.18 0.21 0.18 0.15 0.21 0.26 0.28 0.31 0.34 0.34 0.33 0.34 0.36 0.36 0.36 0.33 0.33 0.34 0.35 0.36 0.36 0.34 0.33 0.34 0.38 0.36 0.33 0.32 0.31
0.38 0.53 0.75 0.85 0.63 0.43 0.24 0.15 0.11 0.08 0.06 0.05 0.05 0.04 0.05 0.06 0.08 0.13 0.14 0.14 0.15 0.21 0.21 0.17 0.16 0.23 0.27 0.28 0.31 0.34 0.36 0.36 0.38 0.40 0.38 0.35 0.34 0.37 0.37 0.37 0.38 0.38 0.37 0.39 0.41 0.41 0.41 0.42 0.39
0.37 0.45 0.58 0.81 0.61 0.34 0.27 0.17 0.09 0.08 0.06 0.06 0.06 0.05 0.04 0.04 0.06 0.09 0.12 0.14 0.15 0.22 0.25 0.21 0.18 0.20 0.26 0.29 0.29 0.31 0.36 0.41 0.42 0.40 0.39 0.40 0.38 0.38 0.40 0.40 0.40 0.40 0.41 0.45 0.48 0.47 0.46 0.49 0.51

GEFSSGP_prec_meanprecacc_198.txt.gz
Total_Precipitation_Accumulation
0.04 0.06 0.06 0.07 0.04 0.01 0.00 0.00 0.00 0.00 0.00 0.00 0.00 0.00 0.00 0.00 0.00 0.00 0.00 0.00 0.01 0.03 0.05 0.13 0.17 0.20 0.22 0.23 0.22 0.19 0.20 0.19 0.20 0.21 0.20 0.21 0.23 0.24 0.28 0.29 0.30 0.31 0.35 0.38 0.36 0.36 0.43 0.48 0.54
0.05 0.07 0.08 0.07 0.03 0.01 0.00 0.00 0.00 0.00 0.00 0.00 0.00 0.00 0.00 0.00 0.00 0.00 0.00 0.00 0.00 0.01 0.03 0.07 0.15 0.19 0.22 0.23 0.23 0.21 0.20 0.19 0.18 0.20 0.21 0.22 0.25 0.27 0.28 0.29 0.31 0.33 0.38 0.39 0.41 0.43 0.45 0.48 0.50
0.08 0.09 0.09 0.07 0.02 0.00 0.00 0.00 0.00 0.00 0.00 0.00 0.00 0.00 0.00 0.00 0.00 0.00 0.00 0.00 0.00 0.01 0.02 0.06 0.14 0.19 0.23 0.27 0.26 0.23 0.21 0.19 0.19 0.20 0.24 0.25 0.25 0.27 0.26 0.28 0.30 0.32 0.36 0.34 0.37 0.41 0.38 0.39 0.40
0.11 0.13 0.12 0.06 0.01 0.00 0.00 0.00 0.00 0.00 0.00 0.00 0.00 0.00 0.00 0.00 0.00 0.00 0.00 0.00 0.00 0.01 0.02 0.06 0.15 0.21 0.25 0.29 0.30 0.25 0.22 0.21 0.22 0.23 0.26 0.26 0.24 0.25 0.24 0.23 0.23 0.26 0.30 0.31 0.33 0.36 0.35 0.37 0.38
0.12 0.13 0.11 0.05 0.01 0.00 0.00 0.00 0.00 0.00 0.00 0.00 0.00 0.00 0.00 0.00 0.00 0.00 0.00 0.00 0.00 0.01 0.02 0.06 0.16 0.22 0.25 0.29 0.32 0.28 0.25 0.24 0.24 0.26 0.28 0.29 0.28 0.26 0.23 0.21 0.19 0.18 0.19 0.23 0.28 0.32 0.34 0.40 0.38
0.16 0.13 0.08 0.03 0.01 0.00 0.00 0.00 0.00 0.00 0.00 0.00 0.00 0.00 0.00 0.00 0.00 0.00 0.00 0.00 0.01 0.02 0.03 0.07 0.18 0.23 0.25 0.29 0.34 0.31 0.29 0.28 0.27 0.28 0.30 0.31 0.31 0.30 0.28 0.24 0.20 0.18 0.17 0.17 0.21 0.27 0.38 0.43 0.37
0.16 0.12 0.06 0.02 0.01 0.00 0.00 0.00 0.00 0.00 0.00 0.00 0.00 0.00 0.00 0.00 0.00 0.00 0.00 0.01 0.01 0.02 0.04 0.08 0.17 0.22 0.26 0.32 0.37 0.35 0.34 0.33 0.31 0.30 0.31 0.32 0.32 0.33 0.31 0.27 0.23 0.22 0.21 0.19 0.17 0.21 0.30 0.38 0.37
0.17 0.16 0.08 0.03 0.01 0.01 0.00 0.00 0.00 0.00 0.00 0.00 0.00 0.00 0.00 0.00 0.00 0.01 0.01 0.02 0.03 0.04 0.06 0.10 0.15 0.19 0.23 0.28 0.33 0.36 0.36 0.37 0.36 0.33 0.29 0.27 0.31 0.35 0.33 0.25 0.23 0.22 0.22 0.22 0.20 0.18 0.23 0.27 0.29
0.23 0.25 0.12 0.04 0.02 0.01 0.01 0.01 0.00 0.00 0.00 0.00 0.00 0.00 0.00 0.00 0.01 0.02 0.03 0.05 0.06 0.07 0.09 0.11 0.16 0.20 0.23 0.26 0.27 0.33 0.37 0.38 0.35 0.32 0.26 0.26 0.26 0.27 0.28 0.23 0.20 0.20 0.20 0.21 0.22 0.20 0.18 0.18 0.14
0.33 0.27 0.11 0.04 0.03 0.03 0.02 0.02 0.02 0.02 0.01 0.01 0.00 0.00 0.00 0.01 0.02 0.03 0.04 0.06 0.07 0.08 0.11 0.13 0.18 0.21 0.24 0.25 0.27 0.30 0.32 0.32 0.30 0.26 0.24 0.25 0.24 0.22 0.22 0.22 0.22 0.22 0.21 0.22 0.23 0.21 0.16 0.14 0.11
0.31 0.23 0.10 0.05 0.05 0.07 0.06 0.03 0.03 0.03 0.03 0.01 0.01 0.01 0.01 0.02 0.04 0.04 0.05 0.07 0.07 0.08 0.10 0.12 0.17 0.22 0.25 0.26 0.25 0.26 0.27 0.28 0.28 0.25 0.22 0.25 0.28 0.27 0.24 0.21 0.20 0.21 0.20 0.21 0.21 0.20 0.18 0.19 0.22
0.29 0.19 0.13 0.08 0.06 0.09 0.10 0.07 0.05 0.04 0.03 0.01 0.01 0.02 0.02 0.04 0.04 0.05 0.06 0.08 0.11 0.11 0.12 0.13 0.16 0.21 0.25 0.25 0.23 0.24 0.24 0.23 0.23 0.24 0.23 0.23 0.24 0.23 0.21 0.19 0.17 0.16 0.15 0.15 0.16 0.16 0.17 0.17 0.19
0.26 0.17 0.13 0.12 0.10 0.10 0.12 0.11 0.08 0.05 0.02 0.02 0.03 0.03 0.04 0.05 0.06 0.06 0.07 0.10 0.12 0.13 0.14 0.15 0.17 0.21 0.25 0.26 0.24 0.23 0.23 0.21 0.19 0.21 0.23 0.21 0.20 0.19 0.19 0.19 0.17 0.15 0.14 0.13 0.12 0.12 0.12 0.13 0.16
0.26 0.18 0.15 0.15 0.16 0.14 0.14 0.12 0.09 0.05 0.03 0.04 0.06 0.06 0.07 0.08 0.08 0.09 0.10 0.11 0.12 0.13 0.15 0.17 0.19 0.23 0.28 0.27 0.25 0.21 0.22 0.23 0.22 0.19 0.19 0.20 0.19 0.17 0.17 0.17 0.17 0.14 0.12 0.11 0.11 0.10 0.10 0.10 0.11
0.26 0.26 0.21 0.17 0.19 0.20 0.21 0.18 0.08 0.04 0.04 0.07 0.08 0.07 0.08 0.09 0.09 0.10 0.10 0.11 0.12 0.15 0.18 0.20 0.23 0.25 0.28 0.28 0.28 0.25 0.23 0.23 0.22 0.20 0.18 0.18 0.20 0.19 0.16 0.15 0.16 0.15 0.13 0.12 0.10 0.09 0.09 0.09 0.09
0.39 0.43 0.35 0.19 0.16 0.21 0.32 0.25 0.06 0.03 0.06 0.08 0.08 0.08 0.07 0.07 0.08 0.10 0.11 0.14 0.14 0.15 0.20 0.21 0.26 0.27 0.28 0.28 0.29 0.29 0.26 0.27 0.23 0.20 0.21 0.20 0.20 0.21 0.22 0.19 0.17 0.15 0.14 0.15 0.14 0.12 0.11 0.10 0.10
0.56 0.48 0.28 0.16 0.14 0.21 0.31 0.24 0.09 0.06 0.08 0.09 0.07 0.07 0.07 0.07 0.08 0.09 0.11 0.13 0.16 0.17 0.21 0.24 0.26 0.28 0.30 0.29 0.30 0.32 0.31 0.29 0.28 0.25 0.20 0.20 0.22 0.21 0.22 0.23 0.22 0.21 0.21 0.19 0.20 0.17 0.18 0.16 0.13
0.39 0.28 0.19 0.15 0.14 0.19 0.22 0.16 0.10 0.10 0.10 0.10 0.08 0.08 0.08 0.07 0.07 0.08 0.11 0.14 0.16 0.20 0.25 0.28 0.28 0.31 0.34 0.38 0.39 0.39 0.38 0.34 0.32 0.31 0.24 0.19 0.20 0.21 0.22 0.23 0.24 0.25 0.28 0.27 0.26 0.22 0.20 0.20 0.20
0.24 0.24 0.21 0.15 0.14 0.20 0.19 0.14 0.12 0.12 0.13 0.10 0.09 0.09 0.10 0.09 0.08 0.09 0.11 0.12 0.16 0.21 0.29 0.34 0.33 0.37 0.39 0.41 0.39 0.39 0.37 0.35 0.35 0.34 0.29 0.24 0.22 0.21 0.22 0.22 0.24 0.25 0.24 0.23 0.21 0.21 0.19 0.17 0.18
0.32 0.34 0.26 0.18 0.15 0.20 0.20 0.16 0.13 0.14 0.14 0.11 0.09 0.09 0.10 0.11 0.11 0.12 0.13 0.13 0.15 0.19 0.29 0.39 0.35 0.38 0.40 0.36 0.31 0.31 0.34 0.34 0.34 0.34 0.34 0.29 0.25 0.23 0.24 0.24 0.22 0.22 0.22 0.20 0.17 0.16 0.17 0.15 0.15
0.36 0.30 0.23 0.22 0.23 0.25 0.25 0.21 0.11 0.11 0.10 0.09 0.08 0.07 0.08 0.10 0.11 0.13 0.14 0.17 0.16 0.19 0.25 0.37 0.37 0.36 0.41 0.39 0.40 0.40 0.47 0.50 0.44 0.38 0.37 0.32 0.27 0.23 0.22 0.23 0.25 0.23 0.21 0.20 0.18 0.16 0.17 0.16 0.13
0.35 0.19 0.19 0.26 0.41 0.49 0.37 0.37 0.13 0.09 0.10 0.09 0.08 0.08 0.07 0.08 0.09 0.11 0.13 0.18 0.19 0.18 0.24 0.31 0.35 0.34 0.41 0.42 0.44 0.43 0.43 0.47 0.43 0.36 0.33 0.30 0.28 0.24 0.22 0.21 0.23 0.25 0.25 0.22 0.20 0.18 0.18 0.19 0.19
0.27 0.19 0.25 0.35 0.50 0.57 0.41 0.42 0.18 0.09 0.13 0.12 0.09 0.07 0.07 0.08 0.08 0.09 0.13 0.16 0.21 0.22 0.26 0.31 0.31 0.32 0.38 0.44 0.43 0.47 0.43 0.41 0.43 0.45 0.40 0.35 0.30 0.28 0.25 0.23 0.22 0.24 0.26 0.24 0.22 0.21 0.21 0.22 0.23
0.29 0.37 0.47 0.56 0.82 0.91 0.34 0.30 0.19 0.11 0.12 0.11 0.10 0.09 0.08 0.09 0.09 0.10 0.12 0.16 0.21 0.28 0.31 0.36 0.35 0.33 0.36 0.43 0.44 0.47 0.47 0.43 0.46 0.48 0.48 0.43 0.38 0.34 0.31 0.28 0.25 0.22 0.23 0.24 0.24 0.24 0.23 0.22 0.23
0.54 0.83 1.16 1.16 1.18 0.71 0.14 0.15 0.15 0.09 0.06 0.07 0.08 0.10 0.10 0.09 0.11 0.12 0.13 0.18 0.25 0.30 0.32 0.38 0.40 0.36 0.36 0.41 0.42 0.41 0.44 0.46 0.45 0.48 0.47 0.45 0.41 0.38 0.35 0.33 0.29 0.26 0.24 0.23 0.25 0.29 0.29 0.28 0.28
0.52 0.75 1.04 0.90 0.53 0.21 0.09 0.11 0.10 0.07 0.05 0.04 0.04 0.06 0.09 0.09 0.10 0.13 0.14 0.19 0.25 0.28 0.30 0.33 0.40 0.39 0.37 0.38 0.38 0.39 0.42 0.45 0.46 0.47 0.46 0.46 0.41 0.35 0.33 0.34 0.34 0.31 0.28 0.28 0.29 0.30 0.33 0.35 0.34
0.40 0.49 0.51 0.70 0.50 0.27 0.16 0.09 0.07 0.06 0.05 0.03 0.03 0.04 0.07 0.08 0.10 0.15 0.15 0.19 0.26 0.29 0.27 0.26 0.34 0.38 0.38 0.40 0.39 0.38 0.41 0.45 0.45 0.47 0.46 0.45 0.44 0.39 0.36 0.38 0.40 0.40 0.38 0.39 0.38 0.38 0.37 0.38 0.39
0.34 0.43 0.57 0.94 0.83 0.41 0.17 0.10 0.09 0.07 0.06 0.04 0.04 0.05 0.07 0.09 0.12 0.17 0.17 0.18 0.24 0.30 0.26 0.22 0.29 0.34 0.34 0.36 0.41 0.39 0.39 0.42 0.47 0.50 0.50 0.46 0.44 0.43 0.42 0.43 0.43 0.43 0.44 0.47 0.51 0.49 0.45 0.44 0.43
0.38 0.53 0.75 0.86 0.64 0.44 0.24 0.15 0.12 0.10 0.10 0.09 0.09 0.08 0.09 0.10 0.12 0.18 0.19 0.18 0.21 0.28 0.28 0.23 0.24 0.33 0.35 0.33 0.35 0.38 0.41 0.43 0.47 0.51 0.50 0.48 0.46 0.46 0.45 0.46 0.47 0.46 0.48 0.51 0.55 0.55 0.55 0.56 0.53
0.37 0.45 0.59 0.82 0.62 0.35 0.28 0.17 0.09 0.09 0.09 0.09 0.10 0.10 0.08 0.08 0.09 0.12 0.16 0.19 0.21 0.29 0.33 0.28 0.25 0.31 0.36 0.36 0.33 0.35 0.40 0.46 0.49 0.48 0.49 0.50 0.48 0.46 0.47 0.48 0.50 0.50 0.50 0.55 0.60 0.60 0.60 0.63 0.65

GEFSSGP_prec_meanprecacc_204.txt.gz
Total_Precipitation_Accumulation
0.04 0.06 0.07 0.08 0.04 0.02 0.00 0.00 0.00 0.00 0.00 0.00 0.00 0.00 0.00 0.00 0.00 0.00 0.00 0.00 0.01 0.03 0.05 0.13 0.18 0.21 0.23 0.24 0.23 0.21 0.22 0.22 0.23 0.24 0.23 0.25 0.27 0.29 0.32 0.31 0.32 0.35 0.40 0.43 0.40 0.39 0.46 0.50 0.55
0.05 0.08 0.09 0.08 0.03 0.01 0.00 0.00 0.00 0.00 0.00 0.00 0.00 0.00 0.00 0.00 0.00 0.00 0.00 0.00 0.00 0.01 0.03 0.07 0.15 0.20 0.23 0.24 0.24 0.23 0.22 0.21 0.20 0.23 0.25 0.27 0.31 0.33 0.33 0.34 0.35 0.37 0.43 0.43 0.46 0.47 0.48 0.53 0.53
0.08 0.10 0.10 0.08 0.02 0.00 0.00 0.00 0.00 0.00 0.00 0.00 0.00 0.00 0.00 0.00 0.00 0.00 0.00 0.00 0.00 0.01 0.02 0.06 0.15 0.20 0.24 0.28 0.28 0.25 0.23 0.22 0.21 0.23 0.27 0.30 0.33 0.36 0.34 0.35 0.37 0.38 0.41 0.38 0.42 0.45 0.41 0.42 0.42
0.11 0.14 0.13 0.06 0.01 0.00 0.00 0.00 0.00 0.00 0.00 0.00 0.00 0.00 0.00 0.00 0.00 0.00 0.00 0.00 0.00 0.01 0.02 0.06 0.15 0.22 0.26 0.31 0.32 0.28 0.25 0.24 0.24 0.26 0.29 0.30 0.30 0.33 0.33 0.33 0.32 0.33 0.37 0.37 0.38 0.42 0.39 0.40 0.40
0.13 0.14 0.12 0.05 0.01 0.00 0.00 0.00 0.00 0.00 0.00 0.00 0.00 0.00 0.00 0.00 0.00 0.00 0.00 0.00 0.00 0.01 0.03 0.07 0.17 0.24 0.27 0.31 0.35 0.31 0.28 0.27 0.27 0.29 0.32 0.33 0.33 0.32 0.31 0.31 0.30 0.30 0.30 0.32 0.36 0.38 0.39 0.44 0.41
0.16 0.14 0.08 0.03 0.01 0.00 0.00 0.00 0.00 0.00 0.00 0.00 0.00 0.00 0.00 0.00 0.00 0.00 0.00 0.00 0.01 0.02 0.03 0.08 0.19 0.25 0.27 0.31 0.36 0.34 0.33 0.32 0.31 0.32 0.33 0.35 0.35 0.36 0.34 0.31 0.29 0.29 0.28 0.27 0.30 0.35 0.44 0.48 0.41
0.17 0.13 0.06 0.02 0.01 0.00 0.00 0.00 0.00 0.00 0.00 0.00 0.00 0.00 0.00 0.00 0.00 0.00 0.00 0.01 0.01 0.03 0.05 0.09 0.18 0.24 0.29 0.35 0.40 0.39 0.38 0.37 0.35 0.34 0.34 0.36 0.37 0.38 0.36 0.33 0.30 0.30 0.29 0.28 0.27 0.31 0.40 0.45 0.41
0.17 0.17 0.08 0.03 0.01 0.01 0.00 0.00 0.00 0.00 0.00 0.00 0.00 0.00 0.00 0.00 0.00 0.01 0.01 0.02 0.03 0.05 0.07 0.10 0.16 0.21 0.26 0.32 0.37 0.40 0.40 0.41 0.39 0.37 0.32 0.30 0.35 0.41 0.38 0.30 0.29 0.29 0.29 0.29 0.27 0.25 0.30 0.34 0.34
0.24 0.26 0.12 0.04 0.02 0.01 0.01 0.01 0.00 0.00 0.00 0.00 0.00 0.00 0.00 0.00 0.01 0.02 0.03 0.06 0.07 0.07 0.10 0.12 0.18 0.22 0.27 0.29 0.31 0.37 0.42 0.42 0.39 0.37 0.29 0.29 0.30 0.32 0.33 0.27 0.25 0.27 0.28 0.28 0.30 0.27 0.25 0.24 0.20
0.33 0.27 0.12 0.04 0.03 0.03 0.02 0.02 0.02 0.02 0.01 0.01 0.00 0.00 0.00 0.01 0.02 0.03 0.05 0.07 0.07 0.09 0.11 0.14 0.20 0.25 0.28 0.29 0.31 0.36 0.38 0.36 0.34 0.30 0.27 0.29 0.28 0.27 0.26 0.25 0.25 0.27 0.27 0.29 0.32 0.30 0.24 0.21 0.16
0.31 0.23 0.11 0.05 0.05 0.07 0.06 0.04 0.03 0.04 0.03 0.01 0.01 0.01 0.01 0.03 0.04 0.05 0.06 0.07 0.08 0.08 0.11 0.13 0.19 0.25 0.29 0.31 0.30 0.33 0.34 0.34 0.33 0.29 0.25 0.28 0.32 0.33 0.31 0.27 0.26 0.27 0.26 0.27 0.29 0.29 0.26 0.26 0.27
0.29 0.20 0.13 0.08 0.06 0.09 0.10 0.07 0.05 0.05 0.03 0.01 0.01 0.02 0.02 0.04 0.05 0.05 0.06 0.09 0.12 0.12 0.13 0.14 0.18 0.25 0.30 0.31 0.30 0.31 0.30 0.29 0.28 0.27 0.26 0.26 0.28 0.27 0.25 0.23 0.21 0.21 0.20 0.21 0.22 0.23 0.23 0.24 0.25
0.26 0.17 0.13 0.12 0.10 0.10 0.12 0.11 0.08 0.05 0.02 0.02 0.03 0.04 0.04 0.05 0.06 0.07 0.08 0.11 0.13 0.15 0.16 0.17 0.19 0.24 0.30 0.34 0.33 0.31 0.29 0.26 0.24 0.25 0.25 0.23 0.23 0.22 0.22 0.22 0.21 0.20 0.18 0.18 0.17 0.17 0.18 0.19 0.22
0.26 0.18 0.15 0.15 0.16 0.14 0.14 0.12 0.09 0.05 0.03 0.04 0.06 0.06 0.07 0.08 0.08 0.09 0.11 0.12 0.14 0.15 0.17 0.19 0.22 0.26 0.33 0.35 0.34 0.31 0.29 0.29 0.26 0.23 0.21 0.21 0.21 0.19 0.20 0.20 0.21 0.19 0.17 0.17 0.17 0.16 0.16 0.17 0.17
0.26 0.26 0.21 0.17 0.19 0.20 0.21 0.18 0.08 0.04 0.04 0.07 0.08 0.08 0.08 0.09 0.09 0.10 0.11 0.12 0.13 0.18 0.21 0.23 0.25 0.27 0.32 0.37 0.39 0.37 0.33 0.30 0.27 0.24 0.21 0.20 0.21 0.21 0.18 0.18 0.18 0.19 0.19 0.20 0.19 0.17 0.17 0.16 0.16
0.40 0.44 0.35 0.19 0.17 0.22 0.32 0.26 0.06 0.03 0.06 0.08 0.08 0.08 0.07 0.07 0.08 0.10 0.12 0.15 0.16 0.21 0.26 0.27 0.29 0.30 0.32 0.36 0.42 0.42 0.40 0.36 0.30 0.26 0.25 0.23 0.22 0.22 0.24 0.22 0.20 0.18 0.20 0.24 0.23 0.21 0.19 0.17 0.16
0.57 0.49 0.28 0.16 0.14 0.22 0.31 0.24 0.09 0.06 0.08 0.09 0.07 0.08 0.07 0.07 0.08 0.09 0.12 0.15 0.19 0.22 0.27 0.30 0.32 0.32 0.33 0.35 0.43 0.46 0.46 0.42 0.36 0.32 0.26 0.24 0.25 0.24 0.24 0.26 0.24 0.25 0.26 0.26 0.28 0.25 0.26 0.23 0.19
0.40 0.29 0.19 0.15 0.15 0.19 0.23 0.16 0.10 0.10 0.10 0.10 0.08 0.08 0.08 0.07 0.07 0.08 0.11 0.15 0.20 0.24 0.30 0.35 0.36 0.37 0.37 0.42 0.49 0.55 0.55 0.51 0.44 0.38 0.32 0.24 0.24 0.24 0.25 0.25 0.26 0.28 0.32 0.33 0.32 0.28 0.26 0.27 0.27
0.25 0.25 0.22 0.15 0.14 0.20 0.19 0.14 0.12 0.13 0.13 0.11 0.09 0.09 0.10 0.09 0.08 0.09 0.11 0.13 0.17 0.24 0.32 0.40 0.41 0.43 0.44 0.46 0.47 0.52 0.52 0.52 0.51 0.43 0.37 0.32 0.27 0.24 0.25 0.25 0.26 0.27 0.27 0.27 0.26 0.26 0.26 0.25 0.26
0.33 0.34 0.27 0.18 0.15 0.20 0.20 0.16 0.13 0.14 0.14 0.11 0.09 0.09 0.10 0.12 0.12 0.13 0.14 0.14 0.16 0.21 0.31 0.43 0.42 0.45 0.46 0.42 0.40 0.42 0.47 0.49 0.50 0.46 0.43 0.37 0.32 0.28 0.27 0.27 0.25 0.25 0.24 0.23 0.21 0.22 0.24 0.23 0.23
0.38 0.30 0.23 0.22 0.24 0.25 0.26 0.22 0.12 0.11 0.10 0.09 0.08 0.08 0.09 0.11 0.13 0.15 0.17 0.19 0.18 0.20 0.27 0.40 0.42 0.43 0.47 0.46 0.50 0.50 0.60 0.64 0.59 0.51 0.47 0.40 0.33 0.28 0.26 0.25 0.28 0.26 0.25 0.23 0.22 0.21 0.23 0.24 0.22
0.37 0.20 0.20 0.27 0.42 0.50 0.38 0.38 0.15 0.10 0.10 0.10 0.09 0.08 0.08 0.10 0.12 0.15 0.16 0.21 0.24 0.20 0.25 0.34 0.40 0.40 0.47 0.49 0.53 0.52 0.53 0.58 0.53 0.46 0.42 0.38 0.33 0.30 0.27 0.25 0.27 0.29 0.28 0.25 0.24 0.23 0.24 0.26 0.27
0.28 0.19 0.26 0.36 0.51 0.58 0.42 0.43 0.19 0.10 0.14 0.13 0.11 0.09 0.08 0.09 0.10 0.13 0.16 0.20 0.25 0.25 0.29 0.33 0.35 0.38 0.44 0.51 0.52 0.54 0.50 0.49 0.51 0.52 0.48 0.43 0.36 0.33 0.30 0.27 0.27 0.29 0.30 0.29 0.26 0.25 0.26 0.28 0.30
0.30 0.38 0.48 0.57 0.84 0.93 0.35 0.31 0.20 0.12 0.15 0.14 0.12 0.10 0.10 0.10 0.11 0.13 0.16 0.20 0.26 0.32 0.35 0.39 0.38 0.38 0.42 0.49 0.52 0.56 0.54 0.50 0.53 0.55 0.55 0.50 0.44 0.40 0.36 0.32 0.30 0.28 0.29 0.29 0.29 0.28 0.28 0.27 0.29
0.54 0.84 1.18 1.17 1.20 0.72 0.15 0.16 0.16 0.10 0.07 0.08 0.10 0.12 0.12 0.11 0.13 0.14 0.16 0.23 0.31 0.36 0.37 0.44 0.45 0.41 0.41 0.47 0.50 0.50 0.53 0.54 0.51 0.53 0.53 0.52 0.47 0.44 0.41 0.38 0.34 0.31 0.30 0.29 0.31 0.34 0.35 0.34 0.34
0.52 0.76 1.05 0.92 0.53 0.21 0.09 0.11 0.10 0.07 0.05 0.04 0.04 0.07 0.10 0.11 0.13 0.15 0.17 0.23 0.31 0.36 0.38 0.41 0.45 0.44 0.43 0.44 0.45 0.48 0.53 0.54 0.53 0.53 0.53 0.53 0.48 0.41 0.39 0.41 0.40 0.37 0.35 0.36 0.36 0.37 0.39 0.41 0.41
0.40 0.50 0.51 0.71 0.50 0.28 0.16 0.09 0.07 0.06 0.05 0.04 0.03 0.05 0.08 0.09 0.11 0.16 0.16 0.20 0.29 0.34 0.33 0.33 0.42 0.44 0.45 0.48 0.46 0.46 0.51 0.55 0.54 0.53 0.53 0.53 0.54 0.48 0.44 0.44 0.46 0.46 0.46 0.47 0.48 0.47 0.45 0.46 0.46
0.34 0.43 0.58 0.95 0.84 0.41 0.17 0.10 0.09 0.07 0.07 0.06 0.05 0.07 0.10 0.11 0.12 0.17 0.17 0.18 0.25 0.33 0.31 0.28 0.35 0.40 0.41 0.46 0.52 0.49 0.48 0.53 0.56 0.58 0.57 0.54 0.54 0.56 0.55 0.54 0.50 0.49 0.52 0.57 0.63 0.61 0.55 0.54 0.52
0.39 0.54 0.76 0.87 0.64 0.45 0.25 0.15 0.12 0.10 0.11 0.11 0.10 0.09 0.12 0.13 0.14 0.19 0.19 0.19 0.22 0.29 0.31 0.29 0.29 0.38 0.41 0.41 0.46 0.52 0.51 0.54 0.58 0.61 0.58 0.55 0.56 0.59 0.61 0.61 0.59 0.55 0.56 0.60 0.64 0.64 0.64 0.64 0.62
0.38 0.46 0.60 0.83 0.63 0.35 0.28 0.17 0.09 0.09 0.09 0.10 0.12 0.11 0.10 0.11 0.12 0.14 0.18 0.21 0.23 0.31 0.35 0.33 0.31 0.36 0.43 0.44 0.41 0.43 0.50 0.56 0.61 0.61 0.58 0.58 0.57 0.58 0.63 0.63 0.64 0.61 0.59 0.64 0.69 0.68 0.66 0.69 0.71

GEFSSGP_prec_meanprecacc_210.txt.gz
Total_Precipitation_Accumulation
0.04 0.06 0.07 0.08 0.04 0.02 0.00 0.00 0.00 0.00 0.00 0.00 0.00 0.00 0.00 0.00 0.00 0.00 0.00 0.00 0.01 0.03 0.05 0.13 0.18 0.21 0.24 0.25 0.24 0.22 0.23 0.23 0.24 0.25 0.24 0.26 0.28 0.31 0.34 0.34 0.36 0.39 0.45 0.50 0.46 0.43 0.48 0.52 0.57
0.05 0.08 0.10 0.09 0.03 0.01 0.00 0.00 0.00 0.00 0.00 0.00 0.00 0.00 0.00 0.00 0.00 0.00 0.00 0.00 0.00 0.01 0.03 0.07 0.16 0.21 0.23 0.25 0.25 0.24 0.23 0.22 0.21 0.24 0.26 0.28 0.32 0.34 0.35 0.37 0.39 0.42 0.49 0.49 0.53 0.52 0.52 0.55 0.55
0.08 0.10 0.11 0.08 0.03 0.00 0.00 0.00 0.00 0.00 0.00 0.00 0.00 0.00 0.00 0.00 0.00 0.00 0.00 0.00 0.00 0.01 0.02 0.06 0.15 0.21 0.25 0.29 0.29 0.26 0.24 0.23 0.23 0.25 0.29 0.32 0.35 0.38 0.35 0.37 0.40 0.43 0.48 0.46 0.49 0.52 0.48 0.47 0.45
0.11 0.14 0.13 0.07 0.01 0.00 0.00 0.00 0.00 0.00 0.00 0.00 0.00 0.00 0.00 0.00 0.00 0.00 0.00 0.00 0.00 0.01 0.02 0.06 0.16 0.22 0.27 0.32 0.34 0.30 0.27 0.27 0.26 0.28 0.31 0.32 0.32 0.35 0.36 0.36 0.35 0.37 0.43 0.44 0.46 0.49 0.46 0.46 0.45
0.13 0.15 0.12 0.06 0.01 0.00 0.00 0.00 0.00 0.00 0.00 0.00 0.00 0.00 0.00 0.00 0.00 0.00 0.00 0.00 0.00 0.01 0.03 0.07 0.17 0.24 0.27 0.33 0.37 0.35 0.31 0.30 0.31 0.32 0.34 0.35 0.35 0.35 0.34 0.34 0.33 0.33 0.34 0.38 0.44 0.47 0.49 0.52 0.47
0.17 0.14 0.09 0.03 0.01 0.00 0.00 0.00 0.00 0.00 0.00 0.00 0.00 0.00 0.00 0.00 0.00 0.00 0.00 0.00 0.01 0.02 0.03 0.08 0.20 0.25 0.28 0.33 0.38 0.37 0.37 0.36 0.35 0.36 0.36 0.37 0.38 0.38 0.36 0.33 0.32 0.32 0.31 0.32 0.36 0.42 0.52 0.57 0.48
0.17 0.13 0.06 0.02 0.01 0.00 0.00 0.00 0.00 0.00 0.00 0.00 0.00 0.00 0.00 0.00 0.00 0.00 0.00 0.01 0.01 0.03 0.05 0.09 0.18 0.25 0.30 0.37 0.42 0.41 0.41 0.41 0.39 0.38 0.39 0.39 0.39 0.40 0.39 0.35 0.32 0.32 0.31 0.31 0.31 0.36 0.45 0.51 0.48
0.17 0.17 0.08 0.03 0.01 0.01 0.00 0.00 0.00 0.00 0.00 0.00 0.00 0.00 0.00 0.00 0.00 0.01 0.01 0.02 0.04 0.05 0.07 0.11 0.17 0.22 0.27 0.33 0.39 0.43 0.44 0.45 0.44 0.41 0.36 0.33 0.37 0.42 0.40 0.33 0.31 0.30 0.30 0.31 0.30 0.30 0.34 0.38 0.40
0.24 0.26 0.12 0.04 0.02 0.01 0.01 0.01 0.00 0.00 0.01 0.00 0.00 0.00 0.00 0.00 0.01 0.02 0.04 0.06 0.07 0.08 0.10 0.13 0.19 0.23 0.28 0.31 0.33 0.40 0.46 0.47 0.44 0.42 0.34 0.33 0.32 0.33 0.34 0.29 0.27 0.30 0.30 0.30 0.33 0.31 0.29 0.28 0.24
0.33 0.27 0.12 0.04 0.03 0.03 0.02 0.02 0.02 0.02 0.01 0.01 0.00 0.00 0.00 0.01 0.02 0.03 0.05 0.07 0.08 0.09 0.12 0.14 0.20 0.26 0.30 0.31 0.34 0.40 0.42 0.40 0.38 0.35 0.32 0.33 0.31 0.29 0.28 0.27 0.28 0.30 0.30 0.32 0.34 0.34 0.30 0.27 0.21
0.32 0.23 0.11 0.05 0.05 0.07 0.06 0.04 0.03 0.04 0.03 0.01 0.01 0.01 0.01 0.03 0.04 0.05 0.06 0.08 0.09 0.09 0.12 0.14 0.19 0.26 0.31 0.34 0.34 0.36 0.37 0.37 0.36 0.32 0.29 0.33 0.36 0.35 0.32 0.28 0.27 0.29 0.29 0.31 0.32 0.32 0.30 0.29 0.30
0.29 0.20 0.13 0.08 0.06 0.09 0.10 0.07 0.05 0.05 0.03 0.01 0.01 0.02 0.02 0.04 0.05 0.05 0.07 0.10 0.13 0.13 0.14 0.16 0.19 0.26 0.31 0.34 0.33 0.35 0.34 0.32 0.31 0.31 0.30 0.30 0.31 0.29 0.26 0.24 0.21 0.22 0.22 0.24 0.25 0.26 0.27 0.27 0.28
0.26 0.17 0.13 0.12 0.10 0.10 0.12 0.11 0.08 0.05 0.02 0.02 0.03 0.04 0.04 0.05 0.06 0.07 0.08 0.11 0.14 0.15 0.17 0.18 0.20 0.25 0.31 0.35 0.35 0.36 0.35 0.31 0.29 0.29 0.29 0.27 0.26 0.24 0.24 0.23 0.21 0.20 0.20 0.20 0.21 0.21 0.22 0.23 0.26
0.26 0.18 0.15 0.15 0.16 0.14 0.14 0.12 0.09 0.05 0.03 0.04 0.06 0.06 0.07 0.08 0.08 0.09 0.11 0.12 0.14 0.16 0.18 0.21 0.23 0.27 0.33 0.36 0.36 0.34 0.36 0.37 0.33 0.29 0.25 0.25 0.24 0.22 0.22 0.22 0.22 0.19 0.18 0.20 0.20 0.19 0.20 0.21 0.22
0.27 0.26 0.21 0.17 0.19 0.20 0.21 0.18 0.08 0.04 0.04 0.07 0.08 0.08 0.08 0.09 0.10 0.10 0.11 0.13 0.14 0.18 0.21 0.24 0.28 0.29 0.34 0.38 0.40 0.39 0.37 0.38 0.37 0.31 0.26 0.24 0.25 0.24 0.21 0.20 0.20 0.19 0.20 0.22 0.22 0.21 0.21 0.20 0.20
0.40 0.44 0.35 0.19 0.17 0.22 0.32 0.26 0.06 0.03 0.06 0.08 0.08 0.08 0.07 0.07 0.09 0.10 0.12 0.15 0.17 0.21 0.26 0.27 0.31 0.32 0.35 0.39 0.43 0.44 0.43 0.43 0.39 0.35 0.31 0.28 0.26 0.26 0.28 0.25 0.22 0.19 0.21 0.26 0.27 0.24 0.23 0.20 0.19
0.57 0.50 0.28 0.16 0.14 0.22 0.31 0.24 0.09 0.06 0.08 0.09 0.08 0.08 0.07 0.07 0.08 0.09 0.12 0.15 0.19 0.22 0.28 0.31 0.33 0.35 0.37 0.39 0.46 0.49 0.49 0.48 0.47 0.42 0.35 0.31 0.31 0.29 0.29 0.29 0.27 0.28 0.28 0.28 0.30 0.28 0.29 0.26 0.22
0.41 0.29 0.20 0.15 0.15 0.19 0.23 0.16 0.10 0.10 0.10 0.10 0.09 0.08 0.08 0.08 0.07 0.08 0.11 0.15 0.20 0.25 0.30 0.35 0.36 0.40 0.43 0.47 0.54 0.60 0.58 0.55 0.54 0.52 0.43 0.33 0.31 0.31 0.32 0.30 0.29 0.31 0.35 0.36 0.35 0.31 0.30 0.30 0.31
0.25 0.25 0.22 0.15 0.14 0.20 0.19 0.14 0.12 0.13 0.13 0.11 0.09 0.09 0.11 0.09 0.08 0.09 0.11 0.13 0.18 0.24 0.33 0.40 0.41 0.46 0.49 0.53 0.55 0.59 0.58 0.57 0.58 0.55 0.50 0.43 0.36 0.33 0.34 0.33 0.32 0.31 0.30 0.30 0.29 0.30 0.30 0.28 0.30
0.33 0.35 0.27 0.18 0.15 0.20 0.20 0.16 0.13 0.14 0.15 0.12 0.09 0.09 0.10 0.12 0.12 0.13 0.14 0.15 0.16 0.21 0.31 0.43 0.43 0.46 0.49 0.47 0.46 0.48 0.53 0.54 0.56 0.57 0.56 0.50 0.42 0.37 0.36 0.36 0.34 0.31 0.27 0.26 0.24 0.25 0.27 0.26 0.27
0.38 0.31 0.24 0.23 0.24 0.26 0.26 0.22 0.12 0.12 0.11 0.09 0.08 0.08 0.09 0.11 0.13 0.15 0.17 0.20 0.18 0.20 0.27 0.41 0.43 0.44 0.50 0.50 0.55 0.55 0.65 0.70 0.66 0.61 0.59 0.53 0.45 0.38 0.35 0.35 0.38 0.35 0.30 0.26 0.24 0.24 0.26 0.27 0.26
0.38 0.20 0.20 0.27 0.43 0.51 0.38 0.39 0.15 0.11 0.11 0.10 0.09 0.09 0.09 0.10 0.13 0.15 0.17 0.22 0.25 0.21 0.25 0.34 0.40 0.41 0.49 0.53 0.57 0.56 0.56 0.63 0.59 0.53 0.50 0.48 0.47 0.42 0.37 0.34 0.35 0.38 0.36 0.30 0.27 0.26 0.27 0.30 0.32
0.29 0.21 0.27 0.37 0.52 0.59 0.42 0.43 0.19 0.10 0.15 0.14 0.12 0.10 0.09 0.09 0.11 0.14 0.17 0.22 0.27 0.26 0.29 0.34 0.36 0.40 0.46 0.53 0.55 0.57 0.53 0.53 0.57 0.60 0.57 0.53 0.47 0.46 0.41 0.37 0.35 0.36 0.37 0.34 0.30 0.28 0.30 0.32 0.34
0.31 0.40 0.51 0.59 0.86 0.95 0.35 0.32 0.20 0.12 0.15 0.14 0.12 0.11 0.11 0.10 0.11 0.13 0.17 0.22 0.30 0.34 0.36 0.40 0.40 0.40 0.45 0.53 0.56 0.59 0.57 0.54 0.59 0.61 0.64 0.60 0.55 0.51 0.46 0.42 0.37 0.34 0.34 0.34 0.33 0.31 0.31 0.32 0.33
0.56 0.87 1.22 1.22 1.24 0.74 0.15 0.16 0.16 0.10 0.07 0.08 0.11 0.13 0.14 0.12 0.13 0.14 0.17 0.24 0.35 0.40 0.40 0.45 0.47 0.43 0.45 0.52 0.54 0.54 0.56 0.57 0.56 0.58 0.60 0.61 0.58 0.53 0.49 0.46 0.41 0.37 0.34 0.33 0.34 0.37 0.38 0.37 0.38
0.55 0.78 1.08 0.94 0.55 0.22 0.10 0.11 0.10 0.07 0.05 0.04 0.04 0.07 0.11 0.13 0.14 0.16 0.18 0.24 0.33 0.41 0.44 0.45 0.47 0.47 0.48 0.50 0.50 0.52 0.56 0.58 0.58 0.58 0.58 0.61 0.58 0.50 0.46 0.47 0.46 0.42 0.39 0.39 0.39 0.40 0.42 0.44 0.45
0.43 0.52 0.53 0.72 0.51 0.28 0.16 0.09 0.07 0.06 0.05 0.04 0.03 0.05 0.08 0.09 0.12 0.18 0.18 0.22 0.31 0.38 0.39 0.38 0.44 0.47 0.48 0.52 0.51 0.51 0.56 0.60 0.59 0.59 0.59 0.60 0.63 0.58 0.53 0.53 0.54 0.53 0.51 0.51 0.51 0.50 0.48 0.49 0.49
0.37 0.46 0.61 0.98 0.86 0.42 0.17 0.10 0.09 0.07 0.07 0.06 0.05 0.07 0.10 0.11 0.12 0.18 0.18 0.19 0.26 0.35 0.34 0.32 0.38 0.42 0.43 0.49 0.55 0.54 0.55 0.59 0.62 0.64 0.64 0.60 0.62 0.65 0.64 0.62 0.58 0.56 0.58 0.61 0.66 0.64 0.58 0.57 0.56
0.41 0.57 0.79 0.90 0.66 0.45 0.25 0.15 0.12 0.10 0.11 0.11 0.10 0.09 0.12 0.14 0.14 0.19 0.20 0.20 0.22 0.30 0.32 0.30 0.32 0.42 0.45 0.45 0.50 0.56 0.57 0.61 0.65 0.68 0.65 0.62 0.63 0.67 0.69 0.70 0.67 0.62 0.62 0.65 0.69 0.68 0.68 0.69 0.67
0.40 0.48 0.62 0.86 0.65 0.36 0.29 0.17 0.09 0.09 0.09 0.10 0.12 0.11 0.10 0.12 0.12 0.15 0.19 0.21 0.23 0.31 0.36 0.33 0.32 0.39 0.49 0.50 0.46 0.49 0.56 0.63 0.69 0.69 0.67 0.67 0.63 0.64 0.70 0.73 0.72 0.68 0.66 0.70 0.75 0.73 0.72 0.76 0.78

GEFSSGP_prec_meanprecacc_216.txt.gz
Total_Precipitation_Accumulation
0.05 0.06 0.07 0.08 0.04 0.02 0.00 0.00 0.00 0.00 0.00 0.00 0.00 0.00 0.00 0.00 0.00 0.00 0.00 0.00 0.01 0.03 0.05 0.14 0.19 0.22 0.25 0.27 0.26 0.25 0.25 0.24 0.25 0.26 0.25 0.27 0.29 0.32 0.36 0.37 0.40 0.43 0.50 0.56 0.53 0.49 0.53 0.56 0.60
0.05 0.08 0.10 0.09 0.03 0.01 0.00 0.00 0.00 0.00 0.00 0.00 0.00 0.00 0.00 0.00 0.00 0.00 0.00 0.00 0.00 0.01 0.03 0.08 0.16 0.22 0.25 0.27 0.27 0.27 0.25 0.23 0.23 0.26 0.28 0.30 0.33 0.35 0.36 0.39 0.43 0.46 0.54 0.54 0.58 0.57 0.58 0.59 0.59
0.08 0.10 0.11 0.08 0.03 0.00 0.00 0.00 0.00 0.00 0.00 0.00 0.00 0.00 0.00 0.00 0.00 0.00 0.00 0.00 0.00 0.01 0.02 0.06 0.16 0.22 0.27 0.31 0.31 0.29 0.27 0.26 0.25 0.26 0.30 0.33 0.37 0.40 0.37 0.40 0.43 0.46 0.52 0.50 0.54 0.57 0.53 0.53 0.50
0.11 0.14 0.13 0.07 0.01 0.00 0.00 0.00 0.00 0.00 0.00 0.00 0.00 0.00 0.00 0.00 0.00 0.00 0.00 0.00 0.00 0.01 0.02 0.07 0.16 0.24 0.28 0.33 0.36 0.32 0.30 0.30 0.30 0.31 0.33 0.34 0.35 0.39 0.39 0.39 0.37 0.39 0.46 0.48 0.51 0.53 0.50 0.50 0.50
0.13 0.15 0.12 0.06 0.01 0.00 0.00 0.00 0.00 0.00 0.00 0.00 0.00 0.00 0.00 0.00 0.00 0.00 0.00 0.00 0.00 0.01 0.03 0.07 0.18 0.25 0.28 0.34 0.39 0.37 0.34 0.34 0.35 0.36 0.37 0.37 0.37 0.38 0.38 0.38 0.36 0.35 0.36 0.41 0.47 0.51 0.53 0.56 0.51
0.17 0.15 0.09 0.03 0.01 0.00 0.00 0.00 0.00 0.00 0.00 0.00 0.00 0.00 0.00 0.00 0.00 0.00 0.00 0.00 0.01 0.02 0.03 0.08 0.20 0.26 0.29 0.34 0.40 0.39 0.39 0.39 0.39 0.41 0.41 0.42 0.41 0.41 0.39 0.37 0.35 0.35 0.33 0.34 0.39 0.45 0.55 0.61 0.52
0.17 0.13 0.06 0.02 0.01 0.00 0.00 0.00 0.00 0.00 0.00 0.00 0.00 0.00 0.00 0.00 0.00 0.00 0.00 0.01 0.02 0.03 0.05 0.09 0.19 0.26 0.31 0.38 0.44 0.43 0.44 0.44 0.43 0.44 0.46 0.46 0.44 0.43 0.42 0.38 0.35 0.35 0.35 0.34 0.34 0.39 0.48 0.54 0.52
0.17 0.17 0.08 0.03 0.01 0.01 0.00 0.00 0.00 0.00 0.00 0.00 0.00 0.00 0.00 0.00 0.00 0.01 0.01 0.02 0.04 0.06 0.07 0.11 0.17 0.22 0.28 0.35 0.41 0.46 0.47 0.49 0.47 0.45 0.42 0.39 0.43 0.46 0.43 0.35 0.34 0.34 0.34 0.34 0.32 0.32 0.37 0.42 0.44
0.24 0.26 0.12 0.04 0.02 0.01 0.01 0.01 0.00 0.00 0.01 0.00 0.00 0.00 0.00 0.00 0.01 0.02 0.04 0.06 0.07 0.08 0.10 0.13 0.20 0.24 0.29 0.32 0.36 0.43 0.50 0.51 0.49 0.47 0.39 0.37 0.37 0.38 0.36 0.31 0.29 0.32 0.35 0.34 0.36 0.35 0.33 0.32 0.28
0.34 0.27 0.12 0.04 0.03 0.03 0.02 0.02 0.02 0.02 0.01 0.01 0.00 0.00 0.00 0.01 0.02 0.03 0.05 0.08 0.08 0.09 0.12 0.15 0.21 0.26 0.30 0.31 0.35 0.42 0.44 0.44 0.43 0.39 0.37 0.37 0.35 0.33 0.31 0.29 0.30 0.32 0.34 0.35 0.38 0.38 0.34 0.30 0.24
0.32 0.24 0.11 0.05 0.05 0.07 0.06 0.04 0.03 0.04 0.03 0.01 0.01 0.01 0.01 0.03 0.04 0.05 0.06 0.09 0.09 0.10 0.13 0.15 0.20 0.27 0.32 0.34 0.35 0.38 0.40 0.40 0.40 0.37 0.34 0.36 0.39 0.38 0.35 0.31 0.29 0.31 0.31 0.34 0.35 0.36 0.33 0.32 0.32
0.29 0.20 0.13 0.08 0.06 0.09 0.10 0.07 0.05 0.05 0.03 0.01 0.02 0.02 0.03 0.04 0.05 0.06 0.07 0.10 0.13 0.14 0.15 0.17 0.20 0.26 0.32 0.34 0.34 0.36 0.36 0.35 0.35 0.35 0.34 0.34 0.34 0.32 0.29 0.26 0.23 0.23 0.24 0.25 0.27 0.28 0.29 0.30 0.32
0.26 0.17 0.13 0.12 0.10 0.10 0.12 0.11 0.08 0.05 0.02 0.02 0.03 0.04 0.05 0.05 0.06 0.07 0.09 0.12 0.14 0.16 0.17 0.19 0.22 0.26 0.31 0.36 0.36 0.37 0.37 0.33 0.32 0.34 0.34 0.30 0.28 0.27 0.27 0.25 0.23 0.22 0.21 0.22 0.22 0.22 0.24 0.26 0.29
0.26 0.18 0.15 0.15 0.16 0.14 0.14 0.12 0.09 0.05 0.03 0.04 0.06 0.07 0.07 0.08 0.08 0.09 0.11 0.12 0.15 0.16 0.18 0.22 0.25 0.28 0.34 0.37 0.36 0.34 0.37 0.39 0.36 0.32 0.31 0.29 0.27 0.25 0.25 0.25 0.24 0.21 0.20 0.21 0.21 0.21 0.23 0.24 0.25
0.27 0.26 0.21 0.17 0.19 0.20 0.21 0.18 0.08 0.04 0.04 0.07 0.08 0.08 0.08 0.09 0.10 0.10 0.11 0.13 0.14 0.18 0.21 0.24 0.29 0.31 0.35 0.38 0.40 0.39 0.38 0.40 0.39 0.34 0.30 0.29 0.28 0.27 0.24 0.23 0.23 0.22 0.22 0.24 0.24 0.23 0.24 0.23 0.23
0.40 0.44 0.36 0.19 0.17 0.22 0.32 0.26 0.06 0.03 0.06 0.08 0.08 0.08 0.08 0.07 0.09 0.10 0.12 0.15 0.17 0.21 0.26 0.28 0.31 0.33 0.36 0.39 0.44 0.45 0.43 0.44 0.41 0.38 0.35 0.31 0.29 0.30 0.31 0.29 0.25 0.23 0.24 0.29 0.29 0.26 0.25 0.22 0.22
0.58 0.50 0.29 0.16 0.14 0.22 0.31 0.24 0.09 0.06 0.08 0.09 0.08 0.08 0.07 0.07 0.08 0.09 0.12 0.15 0.19 0.22 0.28 0.31 0.34 0.35 0.38 0.40 0.47 0.50 0.50 0.49 0.49 0.45 0.38 0.35 0.34 0.32 0.32 0.32 0.31 0.31 0.32 0.31 0.33 0.31 0.31 0.29 0.24
0.41 0.29 0.20 0.15 0.15 0.19 0.23 0.16 0.10 0.10 0.10 0.10 0.09 0.08 0.09 0.08 0.07 0.08 0.11 0.15 0.20 0.25 0.30 0.35 0.37 0.40 0.43 0.48 0.56 0.61 0.60 0.57 0.56 0.53 0.46 0.37 0.35 0.35 0.34 0.32 0.33 0.36 0.39 0.39 0.38 0.34 0.32 0.33 0.34
0.26 0.25 0.22 0.15 0.14 0.20 0.19 0.14 0.12 0.13 0.13 0.11 0.09 0.09 0.11 0.09 0.08 0.09 0.11 0.13 0.18 0.24 0.33 0.40 0.41 0.46 0.50 0.54 0.56 0.60 0.59 0.59 0.60 0.57 0.52 0.47 0.41 0.37 0.38 0.36 0.36 0.36 0.35 0.34 0.32 0.33 0.33 0.31 0.32
0.34 0.36 0.27 0.18 0.15 0.20 0.20 0.16 0.13 0.14 0.15 0.12 0.09 0.09 0.10 0.12 0.12 0.13 0.14 0.15 0.16 0.21 0.31 0.43 0.43 0.47 0.49 0.48 0.47 0.50 0.55 0.57 0.59 0.60 0.58 0.53 0.48 0.43 0.43 0.42 0.40 0.37 0.34 0.32 0.29 0.29 0.31 0.30 0.30
0.39 0.32 0.24 0.23 0.25 0.26 0.26 0.22 0.12 0.12 0.11 0.09 0.08 0.08 0.09 0.11 0.13 0.15 0.17 0.20 0.19 0.21 0.27 0.41 0.43 0.44 0.50 0.51 0.56 0.57 0.68 0.74 0.70 0.65 0.63 0.57 0.50 0.45 0.43 0.43 0.45 0.42 0.38 0.34 0.31 0.30 0.30 0.31 0.29
0.39 0.21 0.21 0.28 0.44 0.52 0.39 0.39 0.15 0.11 0.11 0.10 0.09 0.09 0.09 0.11 0.13 0.15 0.17 0.22 0.25 0.21 0.26 0.34 0.40 0.41 0.50 0.54 0.58 0.57 0.58 0.65 0.61 0.57 0.54 0.51 0.50 0.48 0.44 0.42 0.44 0.45 0.42 0.37 0.34 0.33 0.33 0.35 0.36
0.30 0.21 0.28 0.39 0.54 0.61 0.43 0.44 0.19 0.10 0.15 0.14 0.12 0.10 0.09 0.09 0.11 0.14 0.17 0.22 0.27 0.26 0.30 0.34 0.36 0.41 0.47 0.55 0.56 0.59 0.54 0.54 0.58 0.63 0.60 0.56 0.50 0.50 0.46 0.44 0.43 0.44 0.42 0.39 0.36 0.35 0.37 0.38 0.40
0.32 0.41 0.53 0.62 0.90 0.98 0.36 0.32 0.21 0.12 0.15 0.14 0.12 0.11 0.11 0.10 0.11 0.13 0.17 0.23 0.30 0.34 0.36 0.41 0.40 0.41 0.47 0.54 0.57 0.60 0.58 0.56 0.60 0.64 0.67 0.63 0.58 0.55 0.52 0.48 0.45 0.42 0.40 0.38 0.37 0.37 0.37 0.37 0.38
0.59 0.91 1.28 1.27 1.30 0.77 0.16 0.17 0.17 0.10 0.07 0.08 0.11 0.13 0.14 0.12 0.13 0.14 0.17 0.24 0.35 0.41 0.41 0.46 0.48 0.44 0.46 0.53 0.56 0.56 0.58 0.59 0.58 0.60 0.63 0.63 0.60 0.56 0.53 0.52 0.48 0.45 0.42 0.39 0.38 0.42 0.43 0.42 0.43
0.56 0.81 1.12 0.97 0.57 0.23 0.10 0.13 0.11 0.07 0.05 0.04 0.04 0.07 0.11 0.13 0.15 0.17 0.18 0.25 0.34 0.42 0.45 0.46 0.48 0.48 0.50 0.52 0.53 0.55 0.59 0.61 0.60 0.60 0.61 0.64 0.61 0.54 0.51 0.52 0.52 0.48 0.45 0.45 0.44 0.45 0.46 0.48 0.49
0.44 0.54 0.55 0.76 0.54 0.29 0.17 0.09 0.07 0.06 0.05 0.04 0.03 0.05 0.08 0.09 0.12 0.18 0.18 0.23 0.33 0.39 0.40 0.40 0.46 0.50 0.53 0.56 0.55 0.56 0.59 0.63 0.61 0.61 0.60 0.62 0.65 0.61 0.57 0.57 0.59 0.58 0.57 0.57 0.57 0.55 0.52 0.53 0.53
0.38 0.47 0.64 1.04 0.91 0.44 0.18 0.10 0.09 0.07 0.07 0.06 0.05 0.07 0.10 0.11 0.13 0.18 0.18 0.20 0.28 0.36 0.35 0.33 0.41 0.45 0.45 0.50 0.57 0.57 0.58 0.62 0.64 0.66 0.66 0.62 0.64 0.67 0.66 0.65 0.62 0.61 0.62 0.67 0.72 0.70 0.62 0.61 0.60
0.44 0.60 0.83 0.94 0.70 0.48 0.26 0.16 0.12 0.10 0.11 0.11 0.10 0.09 0.12 0.14 0.15 0.20 0.21 0.22 0.25 0.31 0.33 0.31 0.34 0.44 0.46 0.47 0.51 0.57 0.59 0.64 0.69 0.71 0.67 0.65 0.65 0.69 0.71 0.72 0.70 0.66 0.66 0.69 0.73 0.73 0.73 0.73 0.71
0.43 0.52 0.66 0.91 0.69 0.37 0.30 0.18 0.09 0.09 0.09 0.10 0.12 0.11 0.10 0.12 0.13 0.16 0.20 0.23 0.28 0.33 0.37 0.34 0.33 0.40 0.50 0.51 0.47 0.50 0.57 0.65 0.72 0.73 0.70 0.70 0.66 0.66 0.71 0.74 0.74 0.71 0.69 0.73 0.78 0.77 0.75 0.79 0.81

GEFSSGP_prec_meanprecacc_222.txt.gz
Total_Precipitation_Accumulation
0.05 0.06 0.07 0.08 0.04 0.02 0.00 0.00 0.00 0.00 0.00 0.00 0.00 0.00 0.00 0.00 0.00 0.00 0.00 0.00 0.01 0.03 0.05 0.14 0.20 0.23 0.26 0.28 0.27 0.26 0.26 0.25 0.27 0.28 0.27 0.29 0.32 0.34 0.38 0.39 0.42 0.46 0.53 0.59 0.56 0.53 0.57 0.59 0.62
0.05 0.08 0.10 0.09 0.04 0.01 0.00 0.00 0.00 0.00 0.00 0.00 0.00 0.00 0.00 0.00 0.00 0.00 0.00 0.00 0.00 0.01 0.03 0.08 0.17 0.22 0.26 0.28 0.28 0.28 0.27 0.25 0.25 0.28 0.30 0.32 0.35 0.37 0.39 0.42 0.46 0.50 0.57 0.57 0.61 0.60 0.61 0.63 0.61
0.08 0.11 0.11 0.08 0.03 0.00 0.00 0.00 0.00 0.00 0.00 0.00 0.00 0.00 0.00 0.00 0.00 0.00 0.00 0.00 0.00 0.01 0.02 0.07 0.16 0.23 0.28 0.32 0.32 0.30 0.28 0.27 0.26 0.28 0.33 0.36 0.40 0.42 0.39 0.43 0.46 0.49 0.54 0.53 0.57 0.60 0.57 0.55 0.52
0.11 0.15 0.13 0.07 0.01 0.00 0.00 0.00 0.00 0.00 0.00 0.00 0.00 0.00 0.00 0.00 0.00 0.00 0.00 0.00 0.00 0.01 0.02 0.07 0.17 0.25 0.29 0.35 0.38 0.34 0.31 0.32 0.32 0.33 0.35 0.36 0.38 0.41 0.41 0.41 0.39 0.41 0.47 0.50 0.53 0.56 0.53 0.54 0.53
0.13 0.15 0.12 0.06 0.01 0.00 0.00 0.00 0.00 0.00 0.00 0.00 0.00 0.00 0.00 0.00 0.00 0.00 0.00 0.00 0.01 0.02 0.03 0.07 0.18 0.26 0.30 0.35 0.41 0.39 0.37 0.36 0.37 0.38 0.39 0.40 0.40 0.41 0.41 0.40 0.38 0.37 0.37 0.42 0.49 0.53 0.55 0.58 0.54
0.17 0.15 0.09 0.03 0.01 0.00 0.00 0.00 0.00 0.00 0.00 0.00 0.00 0.00 0.00 0.00 0.00 0.00 0.00 0.00 0.01 0.02 0.04 0.08 0.21 0.27 0.30 0.36 0.41 0.41 0.41 0.42 0.42 0.43 0.44 0.45 0.45 0.45 0.42 0.39 0.38 0.37 0.35 0.35 0.40 0.47 0.57 0.62 0.55
0.18 0.13 0.06 0.02 0.01 0.00 0.00 0.00 0.00 0.00 0.00 0.00 0.00 0.00 0.00 0.00 0.00 0.00 0.00 0.01 0.02 0.03 0.05 0.09 0.19 0.26 0.33 0.40 0.46 0.45 0.46 0.47 0.46 0.47 0.49 0.49 0.48 0.47 0.45 0.41 0.38 0.37 0.37 0.36 0.35 0.41 0.51 0.56 0.54
0.18 0.18 0.08 0.03 0.01 0.01 0.00 0.00 0.00 0.00 0.00 0.00 0.00 0.00 0.00 0.00 0.00 0.01 0.01 0.03 0.04 0.06 0.07 0.11 0.18 0.23 0.29 0.37 0.43 0.48 0.49 0.51 0.50 0.49 0.46 0.42 0.45 0.50 0.47 0.39 0.36 0.36 0.37 0.36 0.34 0.35 0.39 0.44 0.46
0.24 0.26 0.13 0.04 0.02 0.01 0.01 0.01 0.00 0.00 0.01 0.00 0.00 0.00 0.00 0.00 0.01 0.02 0.04 0.06 0.07 0.08 0.10 0.14 0.20 0.24 0.29 0.34 0.37 0.45 0.51 0.54 0.53 0.51 0.42 0.41 0.41 0.41 0.40 0.34 0.32 0.35 0.38 0.38 0.39 0.38 0.36 0.35 0.30
0.34 0.27 0.12 0.04 0.03 0.03 0.02 0.02 0.02 0.02 0.01 0.01 0.00 0.00 0.00 0.01 0.02 0.04 0.05 0.08 0.09 0.10 0.13 0.15 0.21 0.27 0.31 0.32 0.36 0.43 0.46 0.46 0.45 0.43 0.40 0.41 0.39 0.36 0.34 0.32 0.32 0.35 0.36 0.39 0.41 0.41 0.38 0.33 0.26
0.32 0.24 0.11 0.05 0.05 0.07 0.06 0.04 0.03 0.04 0.03 0.01 0.01 0.01 0.01 0.03 0.05 0.06 0.07 0.09 0.10 0.10 0.13 0.15 0.21 0.27 0.32 0.35 0.35 0.38 0.40 0.41 0.42 0.40 0.37 0.40 0.42 0.41 0.37 0.33 0.31 0.33 0.33 0.36 0.37 0.39 0.36 0.35 0.35
0.29 0.20 0.13 0.08 0.06 0.09 0.10 0.07 0.05 0.05 0.03 0.01 0.02 0.02 0.03 0.04 0.05 0.07 0.08 0.11 0.14 0.14 0.15 0.17 0.21 0.27 0.33 0.35 0.35 0.37 0.37 0.35 0.36 0.37 0.37 0.38 0.38 0.35 0.31 0.28 0.25 0.26 0.26 0.28 0.30 0.31 0.31 0.32 0.34
0.27 0.17 0.13 0.12 0.10 0.10 0.12 0.11 0.08 0.05 0.02 0.02 0.03 0.04 0.05 0.05 0.06 0.07 0.09 0.13 0.15 0.16 0.18 0.20 0.22 0.27 0.32 0.37 0.37 0.38 0.38 0.34 0.33 0.35 0.36 0.32 0.31 0.29 0.29 0.27 0.25 0.24 0.23 0.23 0.24 0.25 0.26 0.28 0.31
0.26 0.18 0.15 0.15 0.16 0.14 0.14 0.12 0.09 0.05 0.03 0.04 0.06 0.07 0.07 0.08 0.08 0.09 0.11 0.13 0.16 0.17 0.19 0.22 0.25 0.29 0.35 0.38 0.37 0.35 0.38 0.40 0.37 0.33 0.32 0.32 0.30 0.27 0.27 0.27 0.26 0.23 0.22 0.23 0.23 0.23 0.24 0.26 0.27
0.27 0.26 0.21 0.17 0.19 0.20 0.21 0.18 0.08 0.04 0.04 0.07 0.08 0.08 0.08 0.09 0.10 0.10 0.11 0.13 0.14 0.19 0.22 0.25 0.29 0.31 0.35 0.39 0.41 0.39 0.38 0.40 0.40 0.35 0.31 0.30 0.32 0.32 0.28 0.27 0.26 0.25 0.26 0.27 0.26 0.25 0.26 0.25 0.25
0.41 0.45 0.36 0.19 0.17 0.22 0.33 0.26 0.06 0.03 0.06 0.08 0.08 0.08 0.08 0.07 0.09 0.11 0.12 0.16 0.17 0.22 0.27 0.28 0.32 0.34 0.37 0.40 0.44 0.45 0.43 0.44 0.42 0.38 0.36 0.33 0.32 0.33 0.36 0.34 0.30 0.28 0.29 0.34 0.33 0.29 0.27 0.25 0.24
0.58 0.51 0.29 0.16 0.14 0.22 0.32 0.25 0.09 0.06 0.08 0.09 0.08 0.08 0.07 0.07 0.08 0.09 0.12 0.15 0.19 0.23 0.28 0.31 0.34 0.36 0.38 0.41 0.48 0.50 0.50 0.49 0.49 0.45 0.39 0.36 0.36 0.35 0.37 0.39 0.36 0.38 0.40 0.37 0.37 0.33 0.34 0.32 0.27
0.42 0.30 0.20 0.15 0.15 0.20 0.23 0.16 0.10 0.10 0.10 0.10 0.09 0.08 0.09 0.08 0.07 0.09 0.12 0.15 0.20 0.25 0.30 0.36 0.37 0.40 0.44 0.49 0.56 0.61 0.60 0.57 0.56 0.53 0.46 0.38 0.36 0.37 0.38 0.38 0.40 0.43 0.47 0.46 0.44 0.38 0.35 0.35 0.37
0.26 0.26 0.22 0.15 0.14 0.20 0.19 0.14 0.12 0.13 0.13 0.11 0.09 0.09 0.11 0.09 0.08 0.10 0.12 0.14 0.18 0.24 0.33 0.40 0.41 0.46 0.50 0.54 0.56 0.61 0.60 0.59 0.61 0.57 0.53 0.47 0.41 0.39 0.41 0.39 0.41 0.44 0.43 0.40 0.39 0.40 0.37 0.34 0.36
0.35 0.36 0.28 0.18 0.16 0.20 0.20 0.16 0.14 0.14 0.15 0.12 0.09 0.09 0.10 0.12 0.12 0.13 0.14 0.16 0.17 0.21 0.31 0.43 0.43 0.47 0.49 0.48 0.47 0.50 0.56 0.58 0.60 0.60 0.59 0.54 0.48 0.45 0.45 0.46 0.44 0.43 0.41 0.38 0.35 0.35 0.36 0.34 0.34
0.40 0.33 0.25 0.24 0.25 0.27 0.27 0.23 0.12 0.12 0.11 0.09 0.08 0.08 0.09 0.11 0.13 0.15 0.18 0.21 0.20 0.22 0.28 0.41 0.43 0.44 0.50 0.51 0.56 0.58 0.69 0.75 0.72 0.66 0.64 0.57 0.51 0.46 0.45 0.47 0.50 0.49 0.45 0.41 0.37 0.34 0.35 0.35 0.33
0.40 0.21 0.21 0.28 0.45 0.53 0.40 0.40 0.15 0.11 0.11 0.10 0.09 0.09 0.09 0.11 0.13 0.15 0.17 0.23 0.26 0.22 0.26 0.34 0.41 0.42 0.50 0.54 0.58 0.57 0.58 0.65 0.63 0.58 0.55 0.52 0.51 0.49 0.46 0.47 0.48 0.50 0.47 0.42 0.38 0.37 0.36 0.39 0.41
0.30 0.21 0.29 0.39 0.55 0.62 0.44 0.45 0.19 0.10 0.15 0.14 0.12 0.10 0.09 0.09 0.11 0.14 0.17 0.22 0.29 0.27 0.31 0.35 0.37 0.41 0.48 0.56 0.57 0.59 0.55 0.54 0.60 0.65 0.62 0.57 0.51 0.51 0.48 0.47 0.48 0.48 0.46 0.43 0.40 0.38 0.40 0.42 0.44
0.33 0.42 0.54 0.63 0.92 1.00 0.36 0.33 0.21 0.12 0.15 0.14 0.12 0.11 0.11 0.10 0.11 0.13 0.17 0.23 0.31 0.36 0.37 0.42 0.42 0.43 0.48 0.55 0.59 0.62 0.60 0.57 0.62 0.66 0.69 0.65 0.60 0.56 0.53 0.51 0.49 0.47 0.44 0.42 0.41 0.40 0.40 0.40 0.41
0.61 0.94 1.32 1.31 1.33 0.79 0.16 0.17 0.17 0.10 0.07 0.08 0.11 0.13 0.14 0.12 0.13 0.14 0.17 0.25 0.36 0.42 0.42 0.47 0.48 0.45 0.47 0.54 0.57 0.58 0.60 0.61 0.60 0.63 0.65 0.66 0.62 0.57 0.55 0.55 0.52 0.49 0.46 0.43 0.42 0.44 0.45 0.45 0.46
0.58 0.85 1.15 1.00 0.58 0.23 0.10 0.13 0.11 0.07 0.05 0.04 0.04 0.07 0.11 0.13 0.15 0.17 0.18 0.25 0.35 0.43 0.46 0.46 0.48 0.48 0.51 0.53 0.54 0.56 0.61 0.63 0.62 0.62 0.64 0.66 0.63 0.56 0.52 0.54 0.54 0.50 0.48 0.48 0.47 0.47 0.48 0.50 0.51
0.48 0.57 0.57 0.79 0.56 0.30 0.17 0.10 0.07 0.06 0.05 0.04 0.03 0.05 0.08 0.09 0.12 0.18 0.18 0.23 0.33 0.39 0.41 0.40 0.46 0.50 0.53 0.56 0.55 0.56 0.60 0.65 0.63 0.62 0.62 0.63 0.67 0.62 0.58 0.59 0.61 0.59 0.58 0.59 0.59 0.57 0.55 0.56 0.56
0.41 0.51 0.68 1.10 0.96 0.46 0.18 0.10 0.09 0.07 0.07 0.06 0.05 0.07 0.10 0.11 0.13 0.18 0.19 0.20 0.28 0.37 0.35 0.33 0.41 0.45 0.45 0.51 0.58 0.57 0.59 0.64 0.67 0.68 0.67 0.64 0.65 0.68 0.68 0.67 0.63 0.61 0.63 0.68 0.74 0.72 0.64 0.64 0.63
0.48 0.65 0.89 0.99 0.73 0.50 0.27 0.16 0.12 0.10 0.11 0.11 0.10 0.10 0.12 0.15 0.15 0.20 0.21 0.23 0.25 0.32 0.33 0.32 0.34 0.44 0.46 0.47 0.51 0.58 0.60 0.66 0.72 0.75 0.71 0.68 0.69 0.73 0.74 0.75 0.72 0.67 0.67 0.70 0.75 0.75 0.75 0.76 0.73
0.47 0.58 0.73 0.99 0.75 0.40 0.31 0.18 0.09 0.09 0.09 0.10 0.12 0.12 0.10 0.12 0.13 0.16 0.20 0.24 0.29 0.34 0.37 0.34 0.33 0.40 0.50 0.51 0.47 0.50 0.58 0.66 0.75 0.77 0.75 0.74 0.70 0.70 0.75 0.78 0.78 0.73 0.71 0.75 0.80 0.79 0.78 0.82 0.83

GEFSSGP_prec_meanprecacc_228.txt.gz
Total_Precipitation_Accumulation
0.05 0.07 0.07 0.08 0.04 0.02 0.00 0.00 0.00 0.00 0.00 0.00 0.00 0.00 0.00 0.00 0.00 0.00 0.00 0.00 0.01 0.03 0.05 0.14 0.20 0.24 0.27 0.29 0.28 0.26 0.26 0.26 0.28 0.29 0.28 0.31 0.34 0.37 0.41 0.42 0.45 0.48 0.55 0.61 0.59 0.57 0.60 0.62 0.64
0.06 0.08 0.10 0.09 0.04 0.01 0.00 0.00 0.00 0.00 0.00 0.00 0.00 0.00 0.00 0.00 0.00 0.00 0.00 0.00 0.00 0.01 0.03 0.08 0.17 0.23 0.27 0.29 0.29 0.29 0.27 0.26 0.26 0.29 0.31 0.33 0.37 0.40 0.41 0.45 0.49 0.52 0.59 0.59 0.63 0.63 0.64 0.65 0.63
0.09 0.11 0.11 0.08 0.03 0.00 0.00 0.00 0.00 0.00 0.00 0.00 0.00 0.00 0.00 0.00 0.00 0.00 0.00 0.00 0.00 0.01 0.02 0.07 0.16 0.23 0.29 0.33 0.33 0.31 0.29 0.28 0.28 0.30 0.34 0.38 0.42 0.44 0.42 0.46 0.48 0.51 0.55 0.54 0.59 0.62 0.59 0.58 0.54
0.12 0.15 0.14 0.07 0.01 0.00 0.00 0.00 0.00 0.00 0.00 0.00 0.00 0.00 0.00 0.00 0.00 0.00 0.00 0.00 0.00 0.01 0.03 0.07 0.17 0.25 0.30 0.36 0.39 0.35 0.32 0.32 0.33 0.35 0.37 0.38 0.40 0.43 0.44 0.45 0.42 0.43 0.49 0.51 0.55 0.57 0.55 0.56 0.54
0.14 0.16 0.13 0.06 0.01 0.00 0.00 0.00 0.00 0.00 0.00 0.00 0.00 0.00 0.00 0.00 0.00 0.00 0.00 0.00 0.01 0.02 0.03 0.07 0.19 0.27 0.30 0.36 0.42 0.40 0.38 0.37 0.38 0.40 0.41 0.42 0.43 0.43 0.43 0.44 0.42 0.39 0.38 0.43 0.50 0.54 0.56 0.60 0.55
0.18 0.15 0.09 0.03 0.01 0.00 0.00 0.00 0.00 0.00 0.00 0.00 0.00 0.00 0.00 0.00 0.00 0.00 0.00 0.00 0.01 0.02 0.04 0.08 0.21 0.28 0.31 0.37 0.43 0.42 0.42 0.43 0.43 0.45 0.46 0.47 0.48 0.48 0.44 0.41 0.41 0.40 0.37 0.36 0.41 0.48 0.58 0.63 0.56
0.18 0.14 0.06 0.02 0.01 0.00 0.00 0.00 0.00 0.00 0.00 0.00 0.00 0.00 0.00 0.00 0.00 0.00 0.00 0.01 0.02 0.03 0.05 0.09 0.19 0.27 0.34 0.41 0.47 0.46 0.46 0.47 0.47 0.48 0.50 0.51 0.50 0.51 0.48 0.43 0.39 0.39 0.39 0.37 0.36 0.42 0.51 0.57 0.56
0.18 0.18 0.08 0.03 0.01 0.01 0.00 0.00 0.00 0.00 0.00 0.00 0.00 0.00 0.00 0.00 0.00 0.01 0.01 0.03 0.04 0.06 0.08 0.12 0.18 0.24 0.30 0.38 0.44 0.49 0.50 0.52 0.50 0.49 0.46 0.43 0.46 0.52 0.49 0.41 0.38 0.38 0.39 0.38 0.35 0.36 0.40 0.45 0.47
0.25 0.27 0.13 0.04 0.02 0.01 0.01 0.01 0.00 0.00 0.01 0.00 0.00 0.00 0.00 0.00 0.01 0.02 0.04 0.06 0.07 0.08 0.11 0.14 0.21 0.25 0.31 0.35 0.38 0.46 0.52 0.54 0.53 0.52 0.43 0.42 0.42 0.43 0.42 0.35 0.33 0.37 0.40 0.39 0.40 0.39 0.37 0.35 0.30
0.34 0.28 0.12 0.04 0.03 0.03 0.02 0.02 0.02 0.02 0.01 0.01 0.00 0.00 0.00 0.01 0.02 0.04 0.05 0.08 0.09 0.10 0.13 0.15 0.21 0.27 0.32 0.34 0.37 0.44 0.47 0.47 0.46 0.44 0.41 0.42 0.41 0.38 0.36 0.34 0.33 0.36 0.38 0.40 0.42 0.42 0.39 0.34 0.27
0.32 0.24 0.11 0.05 0.05 0.07 0.06 0.04 0.03 0.04 0.03 0.01 0.01 0.01 0.01 0.03 0.05 0.06 0.07 0.09 0.10 0.10 0.13 0.15 0.21 0.29 0.34 0.37 0.37 0.40 0.42 0.44 0.44 0.43 0.41 0.43 0.46 0.44 0.40 0.36 0.32 0.34 0.35 0.38 0.39 0.40 0.37 0.36 0.37
0.29 0.20 0.13 0.08 0.06 0.09 0.10 0.07 0.05 0.05 0.03 0.01 0.02 0.02 0.03 0.04 0.05 0.07 0.08 0.11 0.14 0.14 0.15 0.17 0.21 0.28 0.34 0.37 0.37 0.39 0.38 0.36 0.37 0.39 0.40 0.42 0.42 0.38 0.34 0.30 0.26 0.27 0.28 0.31 0.33 0.34 0.34 0.35 0.37
0.27 0.17 0.13 0.12 0.10 0.10 0.12 0.11 0.08 0.05 0.02 0.02 0.03 0.04 0.05 0.05 0.06 0.07 0.09 0.13 0.15 0.16 0.18 0.20 0.22 0.28 0.33 0.39 0.39 0.40 0.39 0.35 0.33 0.36 0.38 0.35 0.35 0.34 0.34 0.31 0.29 0.26 0.25 0.27 0.27 0.27 0.29 0.30 0.34
0.26 0.18 0.15 0.15 0.16 0.14 0.14 0.12 0.09 0.05 0.03 0.04 0.06 0.07 0.07 0.08 0.08 0.09 0.11 0.13 0.16 0.17 0.19 0.22 0.26 0.30 0.36 0.39 0.38 0.36 0.39 0.40 0.38 0.34 0.32 0.33 0.32 0.31 0.32 0.32 0.31 0.28 0.26 0.27 0.27 0.26 0.28 0.29 0.30
0.27 0.26 0.21 0.17 0.19 0.20 0.21 0.18 0.08 0.04 0.04 0.07 0.08 0.08 0.08 0.09 0.10 0.10 0.11 0.13 0.14 0.19 0.23 0.25 0.29 0.32 0.36 0.39 0.42 0.41 0.40 0.41 0.41 0.35 0.31 0.31 0.33 0.34 0.31 0.32 0.31 0.30 0.31 0.32 0.31 0.31 0.32 0.30 0.29
0.41 0.45 0.36 0.19 0.17 0.22 0.33 0.26 0.06 0.03 0.06 0.08 0.08 0.08 0.08 0.07 0.09 0.11 0.12 0.16 0.17 0.22 0.27 0.29 0.32 0.35 0.37 0.40 0.45 0.46 0.45 0.46 0.43 0.39 0.36 0.33 0.33 0.35 0.38 0.36 0.33 0.31 0.34 0.39 0.39 0.35 0.33 0.31 0.29
0.59 0.51 0.29 0.16 0.14 0.22 0.32 0.25 0.09 0.06 0.08 0.09 0.08 0.08 0.07 0.07 0.08 0.09 0.12 0.15 0.19 0.23 0.28 0.32 0.35 0.37 0.39 0.42 0.50 0.52 0.52 0.51 0.51 0.46 0.39 0.37 0.37 0.36 0.38 0.40 0.39 0.41 0.43 0.43 0.45 0.43 0.45 0.41 0.35
0.42 0.30 0.20 0.15 0.15 0.20 0.23 0.16 0.10 0.10 0.10 0.10 0.09 0.08 0.09 0.08 0.07 0.09 0.12 0.15 0.20 0.25 0.30 0.36 0.37 0.41 0.45 0.50 0.58 0.63 0.62 0.59 0.58 0.55 0.47 0.38 0.37 0.38 0.39 0.39 0.42 0.45 0.50 0.51 0.50 0.47 0.46 0.46 0.46
0.26 0.26 0.22 0.15 0.14 0.20 0.19 0.14 0.12 0.13 0.13 0.11 0.09 0.09 0.11 0.09 0.08 0.10 0.12 0.14 0.18 0.24 0.33 0.40 0.42 0.46 0.51 0.56 0.57 0.62 0.61 0.60 0.61 0.59 0.54 0.48 0.42 0.40 0.42 0.40 0.42 0.46 0.45 0.44 0.43 0.46 0.46 0.43 0.44
0.35 0.37 0.28 0.19 0.16 0.20 0.20 0.16 0.14 0.14 0.15 0.12 0.09 0.09 0.10 0.12 0.12 0.13 0.14 0.16 0.17 0.21 0.31 0.43 0.43 0.47 0.50 0.49 0.48 0.51 0.57 0.59 0.60 0.61 0.61 0.55 0.49 0.46 0.46 0.47 0.46 0.45 0.44 0.41 0.39 0.40 0.42 0.39 0.38
0.41 0.33 0.25 0.24 0.25 0.27 0.27 0.23 0.12 0.12 0.11 0.09 0.08 0.08 0.09 0.11 0.13 0.15 0.18 0.21 0.20 0.22 0.28 0.41 0.43 0.44 0.50 0.52 0.57 0.59 0.70 0.76 0.73 0.68 0.65 0.59 0.52 0.47 0.46 0.49 0.52 0.51 0.48 0.45 0.42 0.41 0.40 0.40 0.37
0.41 0.21 0.22 0.29 0.45 0.54 0.41 0.41 0.15 0.11 0.11 0.10 0.09 0.09 0.09 0.11 0.13 0.15 0.17 0.23 0.26 0.22 0.26 0.35 0.41 0.42 0.50 0.54 0.59 0.59 0.60 0.66 0.64 0.59 0.56 0.53 0.53 0.51 0.48 0.50 0.53 0.54 0.50 0.46 0.44 0.43 0.42 0.43 0.45
0.31 0.22 0.29 0.40 0.56 0.63 0.44 0.46 0.20 0.10 0.15 0.14 0.12 0.10 0.09 0.09 0.11 0.14 0.17 0.22 0.29 0.27 0.31 0.36 0.37 0.42 0.48 0.56 0.57 0.60 0.56 0.57 0.62 0.66 0.63 0.60 0.55 0.54 0.52 0.51 0.52 0.53 0.50 0.47 0.45 0.43 0.44 0.46 0.48
0.33 0.43 0.55 0.64 0.93 1.02 0.37 0.33 0.21 0.12 0.15 0.14 0.12 0.11 0.11 0.10 0.11 0.13 0.17 0.23 0.31 0.36 0.38 0.43 0.43 0.43 0.48 0.56 0.59 0.62 0.61 0.59 0.67 0.69 0.73 0.69 0.65 0.60 0.57 0.56 0.52 0.49 0.47 0.44 0.43 0.42 0.42 0.42 0.43
0.63 0.97 1.35 1.35 1.37 0.80 0.16 0.17 0.17 0.10 0.07 0.09 0.11 0.13 0.14 0.12 0.13 0.14 0.17 0.25 0.36 0.42 0.43 0.48 0.50 0.46 0.48 0.55 0.58 0.58 0.61 0.62 0.62 0.65 0.69 0.69 0.65 0.60 0.57 0.58 0.54 0.51 0.48 0.45 0.44 0.46 0.46 0.46 0.48
0.60 0.87 1.18 1.02 0.59 0.24 0.11 0.13 0.11 0.07 0.05 0.04 0.04 0.07 0.11 0.13 0.15 0.17 0.18 0.25 0.35 0.43 0.46 0.48 0.50 0.50 0.52 0.54 0.55 0.57 0.62 0.64 0.64 0.64 0.66 0.69 0.66 0.58 0.54 0.57 0.56 0.52 0.50 0.50 0.49 0.49 0.50 0.52 0.53
0.51 0.59 0.58 0.81 0.58 0.31 0.18 0.10 0.07 0.06 0.05 0.04 0.03 0.05 0.08 0.09 0.12 0.18 0.18 0.23 0.33 0.39 0.42 0.41 0.48 0.52 0.54 0.57 0.56 0.57 0.61 0.66 0.65 0.64 0.64 0.65 0.68 0.64 0.60 0.61 0.62 0.61 0.60 0.61 0.61 0.60 0.57 0.58 0.58
0.44 0.53 0.71 1.14 0.99 0.48 0.19 0.11 0.10 0.07 0.07 0.06 0.05 0.07 0.10 0.11 0.13 0.18 0.19 0.20 0.28 0.37 0.36 0.34 0.43 0.48 0.47 0.51 0.58 0.57 0.59 0.65 0.68 0.69 0.68 0.65 0.66 0.70 0.70 0.68 0.65 0.63 0.65 0.71 0.77 0.74 0.67 0.67 0.66
0.52 0.69 0.93 1.04 0.77 0.53 0.29 0.17 0.13 0.11 0.11 0.11 0.10 0.10 0.12 0.15 0.15 0.20 0.21 0.23 0.26 0.32 0.33 0.32 0.35 0.46 0.48 0.48 0.52 0.58 0.61 0.67 0.74 0.76 0.72 0.69 0.70 0.74 0.76 0.76 0.74 0.70 0.69 0.72 0.76 0.77 0.77 0.79 0.76
0.51 0.63 0.77 1.05 0.79 0.43 0.34 0.20 0.09 0.09 0.09 0.10 0.13 0.12 0.10 0.12 0.13 0.16 0.20 0.24 0.30 0.35 0.37 0.35 0.34 0.41 0.51 0.52 0.48 0.51 0.58 0.66 0.75 0.78 0.75 0.75 0.71 0.71 0.76 0.80 0.80 0.76 0.74 0.77 0.82 0.80 0.79 0.83 0.86

GEFSSGP_prec_meanprecacc_234.txt.gz
Total_Precipitation_Accumulation
0.05 0.07 0.07 0.09 0.04 0.02 0.00 0.00 0.00 0.00 0.00 0.00 0.00 0.00 0.00 0.00 0.00 0.00 0.00 0.00 0.01 0.03 0.05 0.14 0.20 0.24 0.27 0.29 0.28 0.27 0.27 0.27 0.29 0.30 0.28 0.31 0.35 0.38 0.43 0.44 0.47 0.50 0.56 0.62 0.60 0.58 0.61 0.62 0.65
0.06 0.08 0.10 0.09 0.04 0.01 0.00 0.00 0.00 0.00 0.00 0.00 0.00 0.00 0.00 0.00 0.00 0.00 0.00 0.00 0.00 0.01 0.03 0.08 0.18 0.23 0.27 0.29 0.29 0.29 0.28 0.26 0.26 0.30 0.32 0.34 0.38 0.41 0.42 0.46 0.51 0.54 0.60 0.60 0.64 0.64 0.64 0.66 0.64
0.09 0.12 0.12 0.09 0.03 0.00 0.00 0.00 0.00 0.00 0.00 0.00 0.00 0.00 0.00 0.00 0.00 0.00 0.00 0.00 0.00 0.01 0.02 0.07 0.17 0.24 0.29 0.34 0.33 0.31 0.29 0.28 0.28 0.32 0.35 0.39 0.43 0.45 0.43 0.48 0.50 0.53 0.57 0.55 0.59 0.63 0.60 0.58 0.54
0.12 0.16 0.14 0.07 0.01 0.00 0.00 0.00 0.00 0.00 0.00 0.00 0.00 0.00 0.00 0.00 0.00 0.00 0.00 0.00 0.00 0.01 0.03 0.07 0.17 0.25 0.31 0.36 0.39 0.36 0.32 0.33 0.33 0.36 0.38 0.39 0.40 0.44 0.45 0.46 0.43 0.45 0.50 0.52 0.55 0.58 0.56 0.56 0.55
0.15 0.16 0.13 0.06 0.01 0.00 0.00 0.00 0.00 0.00 0.00 0.00 0.00 0.00 0.00 0.00 0.00 0.00 0.00 0.00 0.01 0.02 0.03 0.08 0.19 0.27 0.31 0.36 0.42 0.41 0.38 0.37 0.38 0.40 0.42 0.43 0.43 0.44 0.44 0.45 0.42 0.40 0.39 0.44 0.51 0.55 0.56 0.60 0.55
0.19 0.16 0.09 0.03 0.01 0.00 0.00 0.00 0.00 0.00 0.00 0.00 0.00 0.00 0.00 0.00 0.00 0.00 0.00 0.00 0.01 0.02 0.04 0.09 0.21 0.28 0.31 0.37 0.43 0.43 0.43 0.43 0.43 0.45 0.47 0.48 0.48 0.48 0.45 0.42 0.42 0.41 0.37 0.38 0.42 0.49 0.59 0.64 0.56
0.19 0.14 0.07 0.02 0.01 0.00 0.00 0.00 0.00 0.00 0.00 0.00 0.00 0.00 0.00 0.00 0.00 0.00 0.00 0.01 0.02 0.03 0.05 0.10 0.20 0.27 0.34 0.42 0.47 0.46 0.46 0.48 0.47 0.48 0.51 0.52 0.51 0.51 0.49 0.44 0.40 0.40 0.40 0.38 0.37 0.42 0.52 0.58 0.56
0.18 0.18 0.09 0.03 0.01 0.01 0.00 0.00 0.00 0.00 0.00 0.00 0.00 0.00 0.00 0.00 0.00 0.01 0.01 0.03 0.05 0.06 0.08 0.12 0.18 0.24 0.30 0.38 0.44 0.49 0.50 0.52 0.50 0.50 0.47 0.43 0.46 0.52 0.50 0.42 0.39 0.39 0.39 0.39 0.37 0.37 0.41 0.45 0.47
0.25 0.27 0.13 0.04 0.02 0.01 0.01 0.01 0.00 0.00 0.01 0.00 0.00 0.00 0.00 0.00 0.01 0.02 0.04 0.07 0.08 0.09 0.11 0.14 0.21 0.25 0.31 0.36 0.38 0.46 0.52 0.55 0.53 0.52 0.43 0.42 0.42 0.43 0.42 0.35 0.33 0.37 0.40 0.40 0.41 0.41 0.38 0.36 0.31
0.35 0.28 0.12 0.04 0.03 0.03 0.02 0.02 0.02 0.02 0.01 0.01 0.00 0.00 0.00 0.01 0.02 0.04 0.06 0.08 0.09 0.10 0.13 0.16 0.22 0.28 0.33 0.34 0.38 0.45 0.47 0.48 0.47 0.44 0.42 0.42 0.41 0.39 0.37 0.34 0.33 0.36 0.38 0.41 0.43 0.43 0.40 0.35 0.27
0.33 0.24 0.11 0.05 0.05 0.07 0.06 0.04 0.03 0.04 0.03 0.01 0.01 0.01 0.01 0.03 0.05 0.07 0.07 0.09 0.10 0.10 0.13 0.16 0.21 0.29 0.35 0.38 0.38 0.40 0.42 0.44 0.44 0.43 0.42 0.44 0.46 0.45 0.40 0.36 0.33 0.35 0.35 0.38 0.40 0.41 0.39 0.38 0.37
0.30 0.20 0.13 0.08 0.06 0.09 0.10 0.07 0.05 0.05 0.03 0.01 0.02 0.02 0.03 0.04 0.06 0.07 0.08 0.11 0.15 0.14 0.15 0.18 0.21 0.28 0.35 0.38 0.38 0.39 0.39 0.37 0.37 0.39 0.41 0.43 0.43 0.39 0.34 0.30 0.26 0.27 0.28 0.31 0.33 0.34 0.34 0.36 0.38
0.27 0.18 0.13 0.12 0.10 0.10 0.12 0.11 0.08 0.05 0.02 0.02 0.03 0.04 0.05 0.05 0.06 0.08 0.10 0.14 0.16 0.17 0.19 0.21 0.23 0.28 0.34 0.40 0.39 0.41 0.40 0.35 0.34 0.36 0.39 0.36 0.36 0.36 0.35 0.32 0.29 0.26 0.25 0.27 0.28 0.28 0.30 0.32 0.36
0.26 0.18 0.15 0.15 0.16 0.14 0.14 0.12 0.09 0.05 0.03 0.04 0.06 0.07 0.07 0.08 0.08 0.10 0.11 0.13 0.16 0.18 0.20 0.24 0.27 0.30 0.37 0.40 0.39 0.37 0.40 0.41 0.39 0.35 0.33 0.34 0.33 0.32 0.33 0.35 0.33 0.29 0.26 0.27 0.28 0.27 0.30 0.32 0.33
0.27 0.27 0.21 0.17 0.19 0.20 0.21 0.18 0.08 0.04 0.04 0.07 0.08 0.08 0.08 0.09 0.10 0.10 0.11 0.13 0.14 0.19 0.24 0.26 0.31 0.33 0.36 0.40 0.43 0.43 0.41 0.43 0.42 0.36 0.32 0.32 0.34 0.34 0.32 0.32 0.32 0.32 0.33 0.34 0.32 0.32 0.34 0.33 0.33
0.41 0.45 0.36 0.19 0.17 0.22 0.33 0.26 0.06 0.03 0.06 0.08 0.08 0.08 0.08 0.08 0.09 0.11 0.12 0.16 0.17 0.22 0.28 0.30 0.34 0.36 0.39 0.41 0.46 0.48 0.47 0.47 0.44 0.40 0.37 0.34 0.33 0.35 0.39 0.37 0.34 0.33 0.36 0.41 0.41 0.37 0.36 0.34 0.33
0.59 0.51 0.29 0.16 0.14 0.22 0.32 0.25 0.09 0.06 0.08 0.09 0.08 0.08 0.07 0.07 0.08 0.10 0.12 0.15 0.20 0.23 0.29 0.33 0.35 0.37 0.41 0.43 0.51 0.54 0.54 0.54 0.53 0.47 0.40 0.37 0.37 0.36 0.38 0.41 0.39 0.42 0.45 0.44 0.46 0.44 0.47 0.45 0.40
0.42 0.30 0.20 0.15 0.15 0.20 0.23 0.16 0.10 0.10 0.10 0.10 0.09 0.08 0.09 0.08 0.07 0.09 0.12 0.15 0.20 0.25 0.31 0.37 0.38 0.42 0.46 0.51 0.59 0.64 0.64 0.61 0.61 0.57 0.48 0.40 0.38 0.38 0.39 0.39 0.42 0.46 0.51 0.53 0.52 0.49 0.49 0.50 0.52
0.26 0.26 0.23 0.15 0.14 0.20 0.19 0.14 0.12 0.13 0.13 0.11 0.09 0.09 0.11 0.09 0.08 0.10 0.12 0.14 0.18 0.24 0.33 0.41 0.43 0.47 0.52 0.56 0.58 0.62 0.62 0.62 0.64 0.62 0.56 0.50 0.44 0.41 0.42 0.41 0.43 0.47 0.47 0.46 0.45 0.49 0.49 0.45 0.48
0.36 0.37 0.28 0.19 0.16 0.20 0.20 0.16 0.14 0.14 0.15 0.12 0.09 0.09 0.10 0.12 0.12 0.13 0.14 0.16 0.17 0.21 0.31 0.43 0.43 0.48 0.51 0.49 0.49 0.51 0.58 0.61 0.65 0.66 0.65 0.58 0.51 0.47 0.47 0.47 0.46 0.46 0.45 0.43 0.40 0.42 0.44 0.41 0.41
0.42 0.33 0.25 0.24 0.25 0.27 0.27 0.23 0.12 0.12 0.11 0.09 0.08 0.08 0.09 0.11 0.13 0.15 0.18 0.21 0.20 0.22 0.28 0.41 0.43 0.45 0.52 0.53 0.58 0.60 0.71 0.78 0.75 0.72 0.70 0.63 0.55 0.49 0.48 0.51 0.54 0.52 0.49 0.45 0.43 0.42 0.42 0.42 0.39
0.42 0.22 0.22 0.29 0.46 0.54 0.41 0.41 0.15 0.11 0.11 0.10 0.09 0.09 0.09 0.11 0.13 0.15 0.17 0.23 0.26 0.22 0.26 0.35 0.41 0.42 0.51 0.56 0.60 0.59 0.60 0.67 0.65 0.62 0.59 0.57 0.56 0.54 0.50 0.52 0.55 0.56 0.52 0.47 0.45 0.45 0.44 0.45 0.47
0.32 0.22 0.30 0.41 0.57 0.64 0.45 0.47 0.20 0.10 0.15 0.14 0.12 0.10 0.09 0.09 0.11 0.14 0.17 0.22 0.29 0.27 0.31 0.36 0.37 0.42 0.49 0.57 0.59 0.61 0.57 0.58 0.64 0.69 0.66 0.64 0.58 0.59 0.56 0.57 0.57 0.58 0.54 0.50 0.47 0.46 0.47 0.48 0.50
0.34 0.44 0.56 0.65 0.95 1.05 0.37 0.34 0.21 0.12 0.15 0.14 0.12 0.11 0.11 0.10 0.11 0.13 0.17 0.23 0.31 0.36 0.38 0.43 0.43 0.43 0.49 0.56 0.61 0.64 0.62 0.60 0.70 0.72 0.76 0.75 0.71 0.68 0.66 0.66 0.60 0.56 0.52 0.48 0.46 0.46 0.46 0.45 0.46
0.64 0.99 1.39 1.38 1.39 0.81 0.16 0.18 0.17 0.10 0.07 0.09 0.11 0.13 0.14 0.12 0.13 0.14 0.17 0.25 0.36 0.42 0.43 0.48 0.50 0.46 0.48 0.55 0.58 0.60 0.63 0.64 0.65 0.71 0.73 0.75 0.72 0.66 0.63 0.63 0.60 0.56 0.52 0.48 0.46 0.49 0.50 0.49 0.50
0.61 0.89 1.21 1.04 0.60 0.24 0.11 0.13 0.11 0.07 0.05 0.04 0.04 0.07 0.11 0.13 0.15 0.17 0.18 0.25 0.35 0.43 0.46 0.48 0.50 0.50 0.52 0.54 0.55 0.58 0.64 0.67 0.66 0.67 0.70 0.72 0.72 0.64 0.59 0.62 0.61 0.57 0.53 0.52 0.50 0.51 0.52 0.53 0.55
0.53 0.61 0.60 0.84 0.59 0.32 0.18 0.10 0.08 0.06 0.05 0.04 0.03 0.05 0.08 0.09 0.12 0.18 0.18 0.23 0.33 0.39 0.42 0.41 0.48 0.52 0.54 0.57 0.56 0.57 0.62 0.67 0.66 0.65 0.66 0.68 0.71 0.68 0.64 0.65 0.66 0.65 0.64 0.65 0.64 0.62 0.59 0.60 0.60
0.45 0.55 0.73 1.17 1.01 0.49 0.20 0.12 0.11 0.08 0.07 0.06 0.05 0.07 0.10 0.11 0.13 0.18 0.19 0.20 0.28 0.37 0.36 0.34 0.43 0.48 0.47 0.52 0.58 0.58 0.60 0.65 0.68 0.70 0.69 0.66 0.68 0.71 0.71 0.70 0.66 0.65 0.68 0.73 0.80 0.77 0.70 0.69 0.68
0.54 0.72 0.96 1.07 0.79 0.54 0.31 0.20 0.16 0.13 0.11 0.11 0.10 0.10 0.12 0.15 0.15 0.20 0.21 0.23 0.26 0.32 0.33 0.32 0.35 0.46 0.48 0.48 0.52 0.58 0.61 0.67 0.74 0.77 0.73 0.70 0.70 0.74 0.76 0.77 0.74 0.71 0.71 0.74 0.78 0.79 0.79 0.80 0.78
0.54 0.66 0.80 1.08 0.81 0.45 0.36 0.23 0.12 0.11 0.10 0.11 0.13 0.12 0.11 0.12 0.13 0.16 0.20 0.24 0.30 0.35 0.37 0.35 0.34 0.41 0.52 0.53 0.48 0.51 0.59 0.67 0.76 0.79 0.76 0.76 0.71 0.71 0.77 0.81 0.81 0.77 0.75 0.78 0.83 0.82 0.81 0.85 0.88

GEFSSGP_prec_meanprecacc_240.txt.gz
Total_Precipitation_Accumulation
0.05 0.07 0.08 0.09 0.05 0.02 0.00 0.00 0.00 0.00 0.00 0.00 0.00 0.00 0.00 0.00 0.00 0.00 0.00 0.00 0.01 0.03 0.06 0.16 0.22 0.25 0.28 0.30 0.29 0.27 0.27 0.27 0.29 0.31 0.29 0.32 0.36 0.39 0.44 0.45 0.48 0.51 0.57 0.63 0.61 0.59 0.61 0.63 0.65
0.06 0.09 0.11 0.09 0.04 0.01 0.00 0.00 0.00 0.00 0.00 0.00 0.00 0.00 0.00 0.00 0.00 0.00 0.00 0.00 0.00 0.01 0.04 0.09 0.19 0.24 0.28 0.30 0.30 0.30 0.28 0.26 0.27 0.31 0.32 0.34 0.38 0.41 0.43 0.47 0.52 0.54 0.60 0.61 0.65 0.65 0.66 0.66 0.64
0.09 0.12 0.12 0.09 0.03 0.00 0.00 0.00 0.00 0.00 0.00 0.00 0.00 0.00 0.00 0.00 0.00 0.00 0.00 0.00 0.00 0.01 0.03 0.08 0.18 0.25 0.30 0.34 0.34 0.32 0.30 0.29 0.29 0.32 0.36 0.39 0.43 0.46 0.44 0.49 0.51 0.54 0.57 0.55 0.60 0.64 0.61 0.59 0.55
0.13 0.17 0.15 0.08 0.01 0.00 0.00 0.00 0.00 0.00 0.00 0.00 0.00 0.00 0.00 0.00 0.00 0.00 0.00 0.00 0.00 0.01 0.03 0.08 0.18 0.26 0.32 0.37 0.40 0.36 0.33 0.33 0.34 0.37 0.39 0.40 0.41 0.45 0.46 0.47 0.44 0.45 0.50 0.52 0.56 0.58 0.57 0.57 0.55
0.15 0.17 0.14 0.06 0.01 0.00 0.00 0.00 0.00 0.00 0.00 0.00 0.00 0.00 0.00 0.00 0.00 0.00 0.00 0.00 0.01 0.02 0.04 0.08 0.20 0.29 0.32 0.37 0.43 0.42 0.39 0.37 0.38 0.41 0.43 0.44 0.45 0.45 0.45 0.46 0.43 0.40 0.39 0.44 0.52 0.56 0.57 0.61 0.56
0.20 0.16 0.10 0.03 0.01 0.00 0.00 0.00 0.00 0.00 0.00 0.00 0.00 0.00 0.00 0.00 0.00 0.00 0.00 0.01 0.01 0.02 0.04 0.09 0.23 0.30 0.33 0.38 0.44 0.43 0.43 0.43 0.44 0.46 0.48 0.49 0.50 0.50 0.46 0.43 0.43 0.42 0.38 0.38 0.43 0.50 0.59 0.64 0.57
0.19 0.15 0.07 0.02 0.01 0.00 0.00 0.00 0.00 0.00 0.00 0.00 0.00 0.00 0.00 0.00 0.00 0.00 0.01 0.01 0.02 0.04 0.06 0.11 0.21 0.29 0.36 0.43 0.48 0.47 0.47 0.48 0.48 0.49 0.52 0.53 0.52 0.52 0.50 0.45 0.41 0.41 0.40 0.40 0.38 0.43 0.53 0.59 0.57
0.19 0.19 0.09 0.03 0.01 0.01 0.00 0.00 0.00 0.00 0.00 0.00 0.00 0.00 0.00 0.00 0.01 0.01 0.02 0.03 0.05 0.06 0.08 0.13 0.19 0.25 0.32 0.39 0.45 0.50 0.51 0.53 0.51 0.50 0.47 0.44 0.47 0.52 0.50 0.42 0.40 0.39 0.40 0.40 0.37 0.38 0.42 0.46 0.49
0.26 0.28 0.13 0.04 0.02 0.01 0.01 0.01 0.00 0.00 0.01 0.00 0.00 0.00 0.00 0.00 0.01 0.02 0.05 0.07 0.08 0.09 0.11 0.15 0.22 0.26 0.32 0.37 0.39 0.47 0.53 0.55 0.54 0.52 0.43 0.42 0.42 0.43 0.42 0.36 0.34 0.38 0.41 0.41 0.42 0.41 0.39 0.37 0.33
0.36 0.29 0.12 0.04 0.03 0.03 0.02 0.02 0.02 0.02 0.01 0.01 0.00 0.00 0.00 0.01 0.03 0.04 0.06 0.09 0.10 0.11 0.14 0.16 0.22 0.29 0.34 0.36 0.39 0.46 0.48 0.48 0.47 0.44 0.42 0.42 0.41 0.39 0.37 0.34 0.33 0.36 0.39 0.42 0.44 0.44 0.41 0.36 0.29
0.34 0.26 0.11 0.05 0.05 0.07 0.06 0.04 0.03 0.04 0.03 0.01 0.01 0.01 0.02 0.04 0.06 0.07 0.07 0.10 0.11 0.11 0.14 0.16 0.22 0.30 0.36 0.39 0.39 0.41 0.43 0.45 0.45 0.43 0.42 0.44 0.46 0.45 0.40 0.36 0.33 0.35 0.35 0.39 0.40 0.42 0.39 0.38 0.39
0.31 0.21 0.14 0.09 0.06 0.09 0.10 0.07 0.05 0.05 0.03 0.01 0.02 0.02 0.03 0.04 0.06 0.07 0.09 0.12 0.16 0.15 0.16 0.18 0.22 0.29 0.35 0.39 0.39 0.41 0.40 0.37 0.38 0.40 0.41 0.43 0.43 0.39 0.34 0.30 0.27 0.27 0.28 0.31 0.34 0.35 0.34 0.36 0.39
0.27 0.18 0.14 0.12 0.10 0.10 0.12 0.11 0.08 0.05 0.02 0.02 0.03 0.04 0.05 0.06 0.07 0.09 0.12 0.16 0.18 0.19 0.20 0.22 0.24 0.29 0.35 0.40 0.40 0.42 0.41 0.36 0.35 0.38 0.39 0.36 0.36 0.36 0.35 0.32 0.30 0.27 0.26 0.27 0.28 0.28 0.30 0.32 0.36
0.26 0.18 0.15 0.15 0.16 0.14 0.14 0.12 0.09 0.05 0.03 0.04 0.06 0.07 0.08 0.09 0.09 0.11 0.13 0.15 0.18 0.20 0.23 0.26 0.28 0.32 0.38 0.41 0.40 0.38 0.41 0.43 0.41 0.37 0.35 0.36 0.35 0.33 0.34 0.35 0.34 0.30 0.27 0.28 0.28 0.27 0.30 0.32 0.33
0.27 0.27 0.22 0.17 0.19 0.20 0.21 0.18 0.08 0.04 0.04 0.07 0.08 0.08 0.09 0.10 0.10 0.11 0.12 0.14 0.15 0.21 0.27 0.30 0.34 0.36 0.39 0.42 0.44 0.43 0.42 0.44 0.44 0.39 0.35 0.35 0.38 0.38 0.34 0.34 0.34 0.34 0.35 0.35 0.33 0.33 0.35 0.34 0.33
0.41 0.45 0.36 0.19 0.17 0.22 0.33 0.26 0.06 0.03 0.06 0.08 0.08 0.08 0.08 0.08 0.09 0.11 0.13 0.16 0.19 0.24 0.32 0.34 0.39 0.41 0.43 0.45 0.49 0.50 0.49 0.48 0.45 0.41 0.39 0.36 0.36 0.38 0.42 0.40 0.37 0.36 0.38 0.43 0.43 0.38 0.37 0.35 0.34
0.60 0.51 0.29 0.16 0.14 0.22 0.32 0.25 0.09 0.06 0.08 0.09 0.08 0.08 0.07 0.08 0.08 0.10 0.12 0.15 0.20 0.24 0.31 0.36 0.40 0.43 0.46 0.48 0.54 0.57 0.57 0.56 0.54 0.49 0.42 0.39 0.38 0.37 0.40 0.42 0.41 0.44 0.47 0.47 0.49 0.47 0.50 0.47 0.42
0.43 0.30 0.20 0.15 0.15 0.20 0.23 0.16 0.10 0.10 0.10 0.10 0.09 0.08 0.09 0.08 0.07 0.09 0.12 0.15 0.20 0.25 0.32 0.39 0.41 0.45 0.50 0.58 0.65 0.69 0.66 0.63 0.62 0.59 0.49 0.41 0.39 0.40 0.40 0.41 0.44 0.48 0.53 0.54 0.53 0.50 0.50 0.52 0.54
0.27 0.26 0.23 0.15 0.14 0.20 0.19 0.14 0.12 0.13 0.13 0.11 0.09 0.09 0.11 0.09 0.08 0.10 0.12 0.14 0.18 0.25 0.33 0.41 0.44 0.49 0.54 0.60 0.63 0.66 0.65 0.64 0.66 0.63 0.58 0.52 0.46 0.44 0.45 0.44 0.45 0.48 0.48 0.46 0.46 0.50 0.50 0.47 0.49
0.37 0.38 0.29 0.19 0.16 0.20 0.20 0.16 0.14 0.14 0.15 0.12 0.09 0.09 0.10 0.12 0.12 0.13 0.14 0.16 0.17 0.21 0.31 0.44 0.44 0.49 0.52 0.51 0.51 0.55 0.62 0.64 0.67 0.68 0.66 0.59 0.53 0.50 0.50 0.50 0.49 0.48 0.47 0.44 0.41 0.43 0.45 0.43 0.43
0.43 0.34 0.26 0.24 0.25 0.27 0.27 0.23 0.12 0.12 0.11 0.09 0.08 0.08 0.09 0.11 0.13 0.15 0.18 0.21 0.20 0.22 0.28 0.41 0.44 0.46 0.53 0.55 0.60 0.63 0.75 0.80 0.78 0.73 0.71 0.64 0.56 0.51 0.50 0.53 0.56 0.54 0.51 0.47 0.44 0.43 0.43 0.43 0.41
0.43 0.22 0.23 0.30 0.47 0.55 0.41 0.42 0.15 0.11 0.11 0.10 0.09 0.09 0.09 0.11 0.13 0.15 0.17 0.23 0.26 0.22 0.26 0.35 0.41 0.43 0.52 0.58 0.62 0.61 0.63 0.69 0.66 0.63 0.60 0.58 0.58 0.56 0.53 0.55 0.58 0.60 0.55 0.49 0.47 0.46 0.45 0.47 0.49
0.32 0.22 0.31 0.42 0.58 0.65 0.45 0.47 0.20 0.10 0.15 0.14 0.12 0.10 0.09 0.09 0.11 0.14 0.17 0.22 0.29 0.27 0.31 0.36 0.38 0.42 0.49 0.58 0.60 0.63 0.59 0.60 0.65 0.69 0.67 0.64 0.59 0.60 0.58 0.59 0.59 0.60 0.56 0.53 0.51 0.49 0.50 0.51 0.52
0.36 0.45 0.57 0.67 0.98 1.07 0.37 0.34 0.21 0.12 0.15 0.14 0.12 0.11 0.11 0.10 0.11 0.13 0.17 0.23 0.31 0.36 0.38 0.43 0.43 0.44 0.49 0.57 0.62 0.65 0.63 0.62 0.72 0.73 0.76 0.76 0.72 0.69 0.67 0.67 0.62 0.59 0.54 0.52 0.51 0.50 0.50 0.49 0.49
0.67 1.03 1.45 1.44 1.44 0.83 0.16 0.18 0.17 0.10 0.07 0.09 0.11 0.13 0.14 0.12 0.13 0.14 0.17 0.25 0.36 0.42 0.43 0.48 0.50 0.46 0.48 0.56 0.59 0.60 0.63 0.66 0.67 0.72 0.74 0.76 0.73 0.67 0.65 0.64 0.61 0.59 0.55 0.51 0.51 0.53 0.54 0.53 0.54
0.64 0.91 1.24 1.07 0.62 0.24 0.11 0.13 0.12 0.07 0.05 0.04 0.05 0.07 0.11 0.13 0.15 0.17 0.18 0.25 0.35 0.43 0.46 0.48 0.50 0.50 0.52 0.54 0.55 0.58 0.64 0.67 0.67 0.69 0.72 0.74 0.73 0.66 0.62 0.65 0.64 0.59 0.56 0.56 0.55 0.56 0.56 0.58 0.59
0.56 0.63 0.61 0.86 0.61 0.33 0.19 0.11 0.08 0.06 0.06 0.04 0.03 0.05 0.08 0.09 0.12 0.18 0.18 0.23 0.33 0.39 0.42 0.41 0.48 0.52 0.54 0.57 0.56 0.58 0.62 0.68 0.67 0.66 0.67 0.71 0.75 0.72 0.69 0.69 0.70 0.69 0.68 0.69 0.68 0.66 0.62 0.63 0.63
0.48 0.58 0.76 1.20 1.03 0.50 0.20 0.13 0.13 0.10 0.08 0.06 0.05 0.07 0.10 0.11 0.13 0.18 0.19 0.20 0.28 0.37 0.36 0.34 0.43 0.48 0.47 0.52 0.58 0.58 0.60 0.65 0.69 0.71 0.71 0.68 0.71 0.74 0.75 0.74 0.70 0.69 0.71 0.77 0.83 0.80 0.73 0.72 0.70
0.58 0.77 1.00 1.10 0.82 0.56 0.32 0.21 0.17 0.15 0.13 0.12 0.10 0.10 0.13 0.15 0.15 0.20 0.21 0.23 0.26 0.32 0.33 0.32 0.35 0.46 0.48 0.48 0.52 0.58 0.61 0.67 0.75 0.78 0.75 0.72 0.72 0.77 0.79 0.79 0.77 0.73 0.72 0.76 0.80 0.81 0.81 0.83 0.81
0.57 0.70 0.84 1.11 0.84 0.47 0.38 0.25 0.14 0.12 0.12 0.12 0.14 0.13 0.11 0.13 0.13 0.16 0.20 0.25 0.30 0.35 0.37 0.35 0.34 0.41 0.52 0.53 0.48 0.51 0.59 0.67 0.76 0.80 0.78 0.79 0.74 0.73 0.79 0.83 0.82 0.78 0.76 0.79 0.84 0.83 0.82 0.87 0.89

GEFSSGP_prec_meanprecacc_246.txt.gz
Total_Precipitation_Accumulation
0.06 0.07 0.08 0.09 0.05 0.02 0.00 0.00 0.00 0.00 0.00 0.00 0.00 0.00 0.00 0.00 0.00 0.00 0.00 0.00 0.01 0.03 0.06 0.17 0.23 0.26 0.29 0.31 0.30 0.28 0.28 0.28 0.31 0.33 0.30 0.32 0.36 0.39 0.44 0.45 0.48 0.52 0.58 0.64 0.62 0.60 0.62 0.63 0.66
0.06 0.09 0.11 0.09 0.04 0.01 0.00 0.00 0.00 0.00 0.00 0.00 0.00 0.00 0.00 0.00 0.00 0.00 0.00 0.00 0.01 0.01 0.04 0.10 0.20 0.25 0.28 0.30 0.31 0.30 0.29 0.27 0.28 0.33 0.34 0.35 0.39 0.42 0.44 0.48 0.52 0.55 0.61 0.62 0.66 0.66 0.67 0.67 0.64
0.09 0.13 0.13 0.09 0.03 0.00 0.00 0.00 0.00 0.00 0.00 0.00 0.00 0.00 0.00 0.00 0.00 0.00 0.00 0.00 0.00 0.01 0.03 0.09 0.19 0.25 0.31 0.35 0.35 0.33 0.31 0.30 0.31 0.35 0.38 0.40 0.44 0.47 0.45 0.50 0.52 0.54 0.57 0.56 0.60 0.64 0.62 0.60 0.55
0.13 0.17 0.15 0.08 0.01 0.00 0.00 0.00 0.00 0.00 0.00 0.00 0.00 0.00 0.00 0.00 0.00 0.00 0.00 0.00 0.00 0.02 0.03 0.09 0.20 0.27 0.32 0.38 0.41 0.37 0.34 0.34 0.36 0.39 0.41 0.42 0.44 0.47 0.48 0.48 0.45 0.45 0.50 0.52 0.56 0.59 0.57 0.58 0.56
0.16 0.17 0.14 0.06 0.01 0.00 0.00 0.00 0.00 0.00 0.00 0.00 0.00 0.00 0.00 0.00 0.00 0.00 0.00 0.01 0.01 0.02 0.04 0.09 0.21 0.29 0.33 0.38 0.43 0.42 0.39 0.38 0.40 0.43 0.45 0.46 0.47 0.47 0.47 0.48 0.44 0.40 0.40 0.45 0.52 0.56 0.57 0.61 0.57
0.20 0.17 0.10 0.03 0.01 0.00 0.00 0.00 0.00 0.00 0.00 0.00 0.00 0.00 0.00 0.00 0.00 0.00 0.01 0.01 0.01 0.03 0.05 0.10 0.24 0.31 0.34 0.39 0.45 0.44 0.44 0.44 0.45 0.47 0.50 0.51 0.51 0.51 0.47 0.45 0.44 0.43 0.39 0.39 0.43 0.50 0.60 0.65 0.58
0.20 0.15 0.07 0.02 0.01 0.00 0.00 0.00 0.00 0.00 0.00 0.00 0.00 0.00 0.00 0.01 0.01 0.01 0.01 0.01 0.02 0.04 0.07 0.12 0.23 0.30 0.37 0.45 0.49 0.48 0.48 0.49 0.49 0.50 0.53 0.54 0.53 0.53 0.51 0.46 0.42 0.42 0.41 0.41 0.39 0.44 0.53 0.59 0.58
0.20 0.19 0.09 0.03 0.01 0.01 0.00 0.00 0.00 0.00 0.00 0.00 0.00 0.00 0.00 0.01 0.01 0.01 0.02 0.04 0.06 0.07 0.09 0.14 0.21 0.28 0.34 0.42 0.47 0.51 0.52 0.54 0.52 0.51 0.48 0.44 0.47 0.53 0.51 0.43 0.41 0.40 0.41 0.41 0.38 0.38 0.43 0.47 0.49
0.27 0.29 0.13 0.04 0.02 0.01 0.01 0.01 0.00 0.00 0.01 0.00 0.00 0.00 0.00 0.01 0.02 0.03 0.05 0.08 0.10 0.11 0.13 0.17 0.24 0.29 0.36 0.40 0.41 0.49 0.55 0.57 0.55 0.53 0.44 0.42 0.44 0.43 0.42 0.36 0.34 0.39 0.42 0.42 0.42 0.42 0.40 0.38 0.33
0.38 0.30 0.12 0.04 0.03 0.03 0.02 0.02 0.02 0.02 0.01 0.01 0.00 0.00 0.00 0.02 0.03 0.05 0.06 0.09 0.10 0.12 0.15 0.18 0.25 0.33 0.39 0.40 0.42 0.49 0.52 0.52 0.49 0.46 0.42 0.43 0.43 0.40 0.37 0.35 0.33 0.37 0.39 0.42 0.45 0.45 0.42 0.37 0.31
0.36 0.26 0.12 0.05 0.05 0.07 0.06 0.04 0.03 0.04 0.03 0.01 0.01 0.01 0.02 0.04 0.06 0.07 0.08 0.10 0.11 0.11 0.15 0.18 0.25 0.34 0.41 0.44 0.43 0.45 0.47 0.48 0.47 0.45 0.43 0.45 0.47 0.46 0.41 0.37 0.33 0.35 0.35 0.39 0.41 0.42 0.40 0.40 0.41
0.31 0.21 0.14 0.09 0.06 0.09 0.10 0.07 0.05 0.05 0.03 0.01 0.02 0.02 0.03 0.05 0.06 0.08 0.09 0.12 0.16 0.16 0.17 0.19 0.24 0.33 0.41 0.44 0.43 0.44 0.42 0.40 0.40 0.41 0.43 0.44 0.44 0.39 0.34 0.31 0.28 0.28 0.29 0.32 0.34 0.35 0.35 0.37 0.40
0.28 0.18 0.14 0.13 0.10 0.10 0.12 0.11 0.08 0.05 0.02 0.02 0.03 0.04 0.06 0.06 0.08 0.09 0.12 0.17 0.19 0.20 0.21 0.23 0.26 0.32 0.40 0.46 0.45 0.45 0.43 0.38 0.36 0.39 0.41 0.37 0.37 0.36 0.36 0.33 0.31 0.28 0.26 0.28 0.29 0.29 0.30 0.33 0.37
0.27 0.19 0.15 0.15 0.16 0.14 0.14 0.12 0.09 0.05 0.03 0.04 0.06 0.07 0.08 0.09 0.10 0.12 0.13 0.15 0.18 0.21 0.24 0.28 0.30 0.35 0.43 0.46 0.45 0.42 0.44 0.45 0.43 0.39 0.37 0.38 0.37 0.35 0.35 0.36 0.35 0.31 0.28 0.28 0.29 0.28 0.31 0.33 0.34
0.28 0.27 0.22 0.18 0.19 0.20 0.21 0.18 0.08 0.04 0.04 0.07 0.08 0.08 0.09 0.10 0.11 0.13 0.14 0.15 0.16 0.22 0.28 0.32 0.37 0.39 0.43 0.47 0.50 0.48 0.46 0.46 0.45 0.40 0.36 0.37 0.40 0.41 0.37 0.37 0.37 0.37 0.37 0.37 0.34 0.33 0.35 0.34 0.34
0.42 0.46 0.36 0.19 0.17 0.22 0.33 0.26 0.06 0.03 0.06 0.08 0.08 0.08 0.08 0.08 0.10 0.13 0.15 0.18 0.20 0.25 0.33 0.36 0.41 0.44 0.47 0.49 0.54 0.57 0.55 0.53 0.48 0.43 0.41 0.38 0.38 0.40 0.45 0.43 0.40 0.40 0.43 0.46 0.44 0.39 0.38 0.36 0.35
0.62 0.52 0.29 0.16 0.14 0.22 0.32 0.25 0.09 0.06 0.08 0.09 0.08 0.08 0.08 0.08 0.08 0.11 0.14 0.17 0.21 0.25 0.33 0.39 0.42 0.46 0.49 0.52 0.60 0.63 0.63 0.62 0.58 0.52 0.44 0.40 0.40 0.39 0.42 0.44 0.43 0.46 0.49 0.49 0.51 0.48 0.51 0.48 0.42
0.45 0.31 0.20 0.15 0.15 0.20 0.23 0.16 0.10 0.10 0.10 0.10 0.09 0.08 0.09 0.08 0.08 0.09 0.12 0.16 0.21 0.26 0.33 0.41 0.45 0.49 0.54 0.62 0.70 0.74 0.72 0.69 0.66 0.61 0.51 0.43 0.41 0.41 0.42 0.43 0.47 0.50 0.55 0.56 0.54 0.51 0.51 0.53 0.55
0.28 0.27 0.23 0.15 0.14 0.20 0.19 0.14 0.12 0.13 0.13 0.11 0.09 0.09 0.11 0.09 0.09 0.10 0.12 0.15 0.19 0.26 0.34 0.42 0.45 0.51 0.57 0.63 0.67 0.71 0.69 0.69 0.71 0.66 0.59 0.54 0.47 0.45 0.47 0.46 0.47 0.50 0.50 0.48 0.47 0.51 0.51 0.48 0.50
0.38 0.39 0.29 0.19 0.16 0.21 0.21 0.16 0.14 0.14 0.15 0.12 0.09 0.09 0.10 0.12 0.12 0.14 0.15 0.16 0.18 0.22 0.32 0.45 0.45 0.50 0.54 0.54 0.55 0.60 0.67 0.69 0.72 0.72 0.68 0.61 0.55 0.51 0.51 0.52 0.51 0.50 0.49 0.46 0.42 0.44 0.46 0.43 0.43
0.45 0.35 0.26 0.25 0.26 0.27 0.28 0.23 0.12 0.12 0.11 0.09 0.08 0.08 0.09 0.11 0.14 0.15 0.18 0.21 0.20 0.22 0.28 0.42 0.45 0.47 0.55 0.58 0.64 0.68 0.81 0.85 0.82 0.77 0.75 0.66 0.58 0.52 0.51 0.54 0.57 0.55 0.52 0.48 0.45 0.45 0.45 0.45 0.42
0.46 0.23 0.24 0.31 0.48 0.55 0.42 0.42 0.15 0.11 0.11 0.10 0.09 0.09 0.09 0.11 0.13 0.16 0.17 0.23 0.27 0.23 0.27 0.35 0.42 0.43 0.53 0.59 0.63 0.64 0.66 0.72 0.69 0.66 0.63 0.60 0.60 0.57 0.53 0.56 0.59 0.61 0.56 0.50 0.48 0.48 0.48 0.50 0.51
0.34 0.23 0.32 0.43 0.60 0.67 0.46 0.47 0.20 0.10 0.15 0.14 0.12 0.10 0.09 0.09 0.11 0.14 0.17 0.23 0.29 0.28 0.31 0.36 0.38 0.42 0.50 0.59 0.61 0.63 0.60 0.62 0.67 0.71 0.69 0.67 0.61 0.61 0.59 0.60 0.60 0.61 0.57 0.54 0.53 0.51 0.52 0.53 0.54
0.38 0.47 0.59 0.69 1.01 1.10 0.38 0.34 0.21 0.12 0.15 0.14 0.12 0.11 0.11 0.10 0.11 0.13 0.17 0.23 0.31 0.36 0.38 0.43 0.43 0.44 0.49 0.57 0.62 0.65 0.64 0.63 0.74 0.75 0.78 0.77 0.73 0.70 0.67 0.68 0.63 0.59 0.55 0.53 0.52 0.52 0.53 0.52 0.52
0.70 1.07 1.51 1.51 1.51 0.86 0.16 0.18 0.18 0.10 0.07 0.09 0.11 0.13 0.14 0.12 0.13 0.14 0.17 0.25 0.36 0.42 0.43 0.48 0.50 0.46 0.48 0.56 0.59 0.61 0.64 0.66 0.68 0.75 0.76 0.77 0.74 0.67 0.65 0.65 0.62 0.60 0.56 0.53 0.52 0.55 0.56 0.57 0.59
0.69 0.95 1.28 1.10 0.64 0.25 0.12 0.14 0.12 0.07 0.05 0.04 0.05 0.07 0.11 0.13 0.15 0.17 0.18 0.25 0.35 0.43 0.46 0.48 0.50 0.50 0.52 0.54 0.56 0.58 0.64 0.68 0.68 0.71 0.75 0.76 0.75 0.67 0.63 0.66 0.64 0.60 0.57 0.57 0.57 0.57 0.58 0.60 0.62
0.60 0.68 0.64 0.88 0.62 0.33 0.20 0.13 0.10 0.07 0.06 0.04 0.03 0.05 0.08 0.10 0.12 0.18 0.18 0.23 0.33 0.39 0.42 0.41 0.48 0.52 0.54 0.57 0.57 0.58 0.63 0.68 0.67 0.68 0.69 0.73 0.77 0.74 0.71 0.71 0.73 0.71 0.70 0.71 0.70 0.68 0.64 0.65 0.65
0.52 0.62 0.79 1.24 1.05 0.51 0.22 0.14 0.14 0.11 0.09 0.06 0.06 0.07 0.10 0.12 0.13 0.19 0.19 0.20 0.28 0.37 0.36 0.34 0.43 0.48 0.47 0.52 0.59 0.58 0.60 0.66 0.69 0.72 0.72 0.70 0.73 0.77 0.78 0.77 0.73 0.72 0.74 0.80 0.86 0.82 0.75 0.74 0.72
0.63 0.82 1.04 1.14 0.85 0.57 0.33 0.23 0.19 0.16 0.14 0.13 0.11 0.11 0.13 0.15 0.16 0.21 0.22 0.23 0.26 0.32 0.33 0.33 0.36 0.47 0.49 0.48 0.53 0.59 0.62 0.68 0.75 0.79 0.76 0.73 0.74 0.79 0.82 0.82 0.80 0.75 0.75 0.78 0.82 0.83 0.83 0.84 0.82
0.62 0.74 0.87 1.15 0.88 0.49 0.39 0.26 0.15 0.14 0.13 0.13 0.15 0.14 0.12 0.14 0.14 0.17 0.21 0.25 0.31 0.36 0.38 0.35 0.34 0.42 0.52 0.53 0.49 0.52 0.59 0.67 0.76 0.80 0.79 0.80 0.76 0.75 0.81 0.85 0.84 0.80 0.77 0.80 0.85 0.84 0.84 0.88 0.90